<?xml version='1.0' encoding='UTF-8'?><gpx version="1.1" creator="JPX - https://github.com/jenetics/jpx" xmlns="http://www.topografix.com/GPX/1/1"><trk><trkseg><trkpt lat="37.98752480958035" lon="13.86260361472544"><ele>7.833333333333333</ele><time>2026-04-09T10:05:40.999Z</time></trkpt><trkpt lat="37.987565000879" lon="13.862671631216681"><ele>7.666666666666666</ele><time>2026-04-09T10:05:42.999Z</time></trkpt><trkpt lat="37.98762553245335" lon="13.862772349494684"><ele>7.5</ele><time>2026-04-09T10:05:45.999Z</time></trkpt><trkpt lat="37.98765719797213" lon="13.862850053935519"><ele>7.333333333333334</ele><time>2026-04-09T10:05:47.999Z</time></trkpt><trkpt lat="37.987699745210264" lon="13.862947958734322"><ele>7.166666666666667</ele><time>2026-04-09T10:05:50.999Z</time></trkpt><trkpt lat="37.98773622615541" lon="13.863024891465185"><ele>7.0</ele><time>2026-04-09T10:05:52.999Z</time></trkpt><trkpt lat="37.98778338385281" lon="13.86313366590007"><ele>7.0</ele><time>2026-04-09T10:05:54.999Z</time></trkpt><trkpt lat="37.987818934510045" lon="13.863219792148481"><ele>6.999999999999999</ele><time>2026-04-09T10:05:55.999Z</time></trkpt><trkpt lat="37.98785817656769" lon="13.863310117168117"><ele>6.999999999999999</ele><time>2026-04-09T10:05:56.999Z</time></trkpt><trkpt lat="37.98790048455592" lon="13.863419510444547"><ele>7.0</ele><time>2026-04-09T10:05:57.999Z</time></trkpt><trkpt lat="37.98794228276255" lon="13.863540073910853"><ele>7.0</ele><time>2026-04-09T10:05:58.999Z</time></trkpt><trkpt lat="37.987980273176426" lon="13.863653882842803"><ele>7.0</ele><time>2026-04-09T10:05:59.999Z</time></trkpt><trkpt lat="37.988021565575195" lon="13.863767296443807"><ele>6.999999999999999</ele><time>2026-04-09T10:06:00.999Z</time></trkpt><trkpt lat="37.98806625400172" lon="13.863875645032138"><ele>6.999999999999999</ele><time>2026-04-09T10:06:01.999Z</time></trkpt><trkpt lat="37.988108338869324" lon="13.863988530262391"><ele>7.0</ele><time>2026-04-09T10:06:02.999Z</time></trkpt><trkpt lat="37.988149812934545" lon="13.86410023949187"><ele>7.0</ele><time>2026-04-09T10:06:03.999Z</time></trkpt><trkpt lat="37.98819390597067" lon="13.86421442015245"><ele>7.0</ele><time>2026-04-09T10:06:04.999Z</time></trkpt><trkpt lat="37.98824429431912" lon="13.864343476960693"><ele>7.0</ele><time>2026-04-09T10:06:05.999Z</time></trkpt><trkpt lat="37.98829467055467" lon="13.864489136979378"><ele>7.0</ele><time>2026-04-09T10:06:06.999Z</time></trkpt><trkpt lat="37.988347069244554" lon="13.864633336629938"><ele>7.0</ele><time>2026-04-09T10:06:07.999Z</time></trkpt><trkpt lat="37.98840295152178" lon="13.86478687267057"><ele>7.0</ele><time>2026-04-09T10:06:08.999Z</time></trkpt><trkpt lat="37.9884629016976" lon="13.864940548434513"><ele>7.0</ele><time>2026-04-09T10:06:09.999Z</time></trkpt><trkpt lat="37.98852642636476" lon="13.865101737133912"><ele>7.0</ele><time>2026-04-09T10:06:10.999Z</time></trkpt><trkpt lat="37.98858361990376" lon="13.865263622414872"><ele>7.0</ele><time>2026-04-09T10:06:11.999Z</time></trkpt><trkpt lat="37.98864287450621" lon="13.865423015520062"><ele>7.25</ele><time>2026-04-09T10:06:12.999Z</time></trkpt><trkpt lat="37.98870017339761" lon="13.865579386471493"><ele>7.5</ele><time>2026-04-09T10:06:13.999Z</time></trkpt><trkpt lat="37.98875244642964" lon="13.865736147110042"><ele>7.75</ele><time>2026-04-09T10:06:14.999Z</time></trkpt><trkpt lat="37.98880610838083" lon="13.865891729924723"><ele>8.0</ele><time>2026-04-09T10:06:15.999Z</time></trkpt><trkpt lat="37.98886572567152" lon="13.866046528652145"><ele>8.75</ele><time>2026-04-09T10:06:16.999Z</time></trkpt><trkpt lat="37.98892407330787" lon="13.866199030140795"><ele>9.5</ele><time>2026-04-09T10:06:17.999Z</time></trkpt><trkpt lat="37.98898642039001" lon="13.866354109126918"><ele>10.25</ele><time>2026-04-09T10:06:18.999Z</time></trkpt><trkpt lat="37.9890457918029" lon="13.866518646757019"><ele>11.0</ele><time>2026-04-09T10:06:19.999Z</time></trkpt><trkpt lat="37.989109132544" lon="13.86667396236158"><ele>11.0</ele><time>2026-04-09T10:06:20.999Z</time></trkpt><trkpt lat="37.989162223549684" lon="13.866834950359564"><ele>11.0</ele><time>2026-04-09T10:06:21.999Z</time></trkpt><trkpt lat="37.98921902081175" lon="13.8669985056317"><ele>11.0</ele><time>2026-04-09T10:06:22.999Z</time></trkpt><trkpt lat="37.98927067734329" lon="13.867165086259533"><ele>11.0</ele><time>2026-04-09T10:06:23.999Z</time></trkpt><trkpt lat="37.98934424131765" lon="13.867321406438537"><ele>11.0</ele><time>2026-04-09T10:06:24.999Z</time></trkpt><trkpt lat="37.989402753665125" lon="13.867488073773526"><ele>11.0</ele><time>2026-04-09T10:06:25.999Z</time></trkpt><trkpt lat="37.989461361142354" lon="13.867656388784589"><ele>11.0</ele><time>2026-04-09T10:06:26.999Z</time></trkpt><trkpt lat="37.98952097570159" lon="13.867836986349355"><ele>11.0</ele><time>2026-04-09T10:06:27.999Z</time></trkpt><trkpt lat="37.98959822036837" lon="13.868016786197295"><ele>11.0</ele><time>2026-04-09T10:06:28.999Z</time></trkpt><trkpt lat="37.98966419108455" lon="13.868192002728563"><ele>11.0</ele><time>2026-04-09T10:06:29.999Z</time></trkpt><trkpt lat="37.989731686501074" lon="13.868375023972845"><ele>11.0</ele><time>2026-04-09T10:06:30.999Z</time></trkpt><trkpt lat="37.989802775869116" lon="13.868563271803456"><ele>11.666666666666666</ele><time>2026-04-09T10:06:31.999Z</time></trkpt><trkpt lat="37.98987048099272" lon="13.86874709031441"><ele>12.333333333333332</ele><time>2026-04-09T10:06:32.999Z</time></trkpt><trkpt lat="37.98993308467582" lon="13.86893688556544"><ele>13.0</ele><time>2026-04-09T10:06:33.999Z</time></trkpt><trkpt lat="37.98999766523538" lon="13.86913175540479"><ele>12.666666666666666</ele><time>2026-04-09T10:06:34.999Z</time></trkpt><trkpt lat="37.99004990881325" lon="13.869329823806389"><ele>12.333333333333332</ele><time>2026-04-09T10:06:35.999Z</time></trkpt><trkpt lat="37.99009932193375" lon="13.869527369802396"><ele>12.0</ele><time>2026-04-09T10:06:36.999Z</time></trkpt><trkpt lat="37.990141210877006" lon="13.86972334685482"><ele>12.0</ele><time>2026-04-09T10:06:37.999Z</time></trkpt><trkpt lat="37.990177837846865" lon="13.869920006073327"><ele>12.0</ele><time>2026-04-09T10:06:38.999Z</time></trkpt><trkpt lat="37.990206226115404" lon="13.870123085226417"><ele>12.0</ele><time>2026-04-09T10:06:39.999Z</time></trkpt><trkpt lat="37.99022561686611" lon="13.870332142362964"><ele>11.333333333333334</ele><time>2026-04-09T10:06:40.999Z</time></trkpt><trkpt lat="37.99023971883876" lon="13.870542965764662"><ele>10.666666666666668</ele><time>2026-04-09T10:06:41.999Z</time></trkpt><trkpt lat="37.99024121325934" lon="13.870754774294914"><ele>10.0</ele><time>2026-04-09T10:06:42.999Z</time></trkpt><trkpt lat="37.99025225290862" lon="13.870953670049254"><ele>9.666666666666668</ele><time>2026-04-09T10:06:43.999Z</time></trkpt><trkpt lat="37.9902477294131" lon="13.871168003303032"><ele>9.333333333333334</ele><time>2026-04-09T10:06:44.999Z</time></trkpt><trkpt lat="37.990250077418004" lon="13.871373922888703"><ele>9.0</ele><time>2026-04-09T10:06:45.999Z</time></trkpt><trkpt lat="37.990230334444554" lon="13.871584849122248"><ele>9.333333333333334</ele><time>2026-04-09T10:06:46.999Z</time></trkpt><trkpt lat="37.99021587749579" lon="13.871796006752474"><ele>9.666666666666668</ele><time>2026-04-09T10:06:47.999Z</time></trkpt><trkpt lat="37.990202398636804" lon="13.87199043131454"><ele>10.0</ele><time>2026-04-09T10:06:48.999Z</time></trkpt><trkpt lat="37.99018482266657" lon="13.872188566927685"><ele>10.0</ele><time>2026-04-09T10:06:49.999Z</time></trkpt><trkpt lat="37.99017043719441" lon="13.872385151496683"><ele>10.0</ele><time>2026-04-09T10:06:50.999Z</time></trkpt><trkpt lat="37.99016680556461" lon="13.872578296413495"><ele>10.0</ele><time>2026-04-09T10:06:51.999Z</time></trkpt><trkpt lat="37.990157845016235" lon="13.8727775768583"><ele>10.0</ele><time>2026-04-09T10:06:52.999Z</time></trkpt><trkpt lat="37.9901619926564" lon="13.872969741546743"><ele>10.0</ele><time>2026-04-09T10:06:53.999Z</time></trkpt><trkpt lat="37.99016168344924" lon="13.873167500646916"><ele>10.0</ele><time>2026-04-09T10:06:54.999Z</time></trkpt><trkpt lat="37.99017053517456" lon="13.873358837408121"><ele>10.0</ele><time>2026-04-09T10:06:55.999Z</time></trkpt><trkpt lat="37.99018549649128" lon="13.873530660746622"><ele>10.0</ele><time>2026-04-09T10:06:56.999Z</time></trkpt><trkpt lat="37.990208408642815" lon="13.87368908280858"><ele>10.0</ele><time>2026-04-09T10:06:57.999Z</time></trkpt><trkpt lat="37.99023141164206" lon="13.873854262643444"><ele>10.0</ele><time>2026-04-09T10:06:58.999Z</time></trkpt><trkpt lat="37.990256601857496" lon="13.874032970719378"><ele>10.0</ele><time>2026-04-09T10:06:59.999Z</time></trkpt><trkpt lat="37.990295573879024" lon="13.874216892453347"><ele>10.0</ele><time>2026-04-09T10:07:00.999Z</time></trkpt><trkpt lat="37.99033378340102" lon="13.874400631712794"><ele>10.0</ele><time>2026-04-09T10:07:01.999Z</time></trkpt><trkpt lat="37.99037541064393" lon="13.874588800237344"><ele>10.0</ele><time>2026-04-09T10:07:02.999Z</time></trkpt><trkpt lat="37.99042707669272" lon="13.874781404119279"><ele>10.0</ele><time>2026-04-09T10:07:03.999Z</time></trkpt><trkpt lat="37.99048557252063" lon="13.874984866262235"><ele>10.0</ele><time>2026-04-09T10:07:04.999Z</time></trkpt><trkpt lat="37.990556681338376" lon="13.875188752939758"><ele>10.0</ele><time>2026-04-09T10:07:05.999Z</time></trkpt><trkpt lat="37.99063137855715" lon="13.875389774012415"><ele>10.0</ele><time>2026-04-09T10:07:06.999Z</time></trkpt><trkpt lat="37.990702250533346" lon="13.875588763364826"><ele>10.0</ele><time>2026-04-09T10:07:07.999Z</time></trkpt><trkpt lat="37.990771624037635" lon="13.875792002462335"><ele>9.666666666666668</ele><time>2026-04-09T10:07:08.999Z</time></trkpt><trkpt lat="37.99084241970242" lon="13.875998291806207"><ele>9.333333333333334</ele><time>2026-04-09T10:07:09.999Z</time></trkpt><trkpt lat="37.99091427544372" lon="13.876204904570796"><ele>9.0</ele><time>2026-04-09T10:07:10.999Z</time></trkpt><trkpt lat="37.99098873853462" lon="13.876408770572064"><ele>9.0</ele><time>2026-04-09T10:07:11.999Z</time></trkpt><trkpt lat="37.99106026256706" lon="13.876605432590468"><ele>9.0</ele><time>2026-04-09T10:07:12.999Z</time></trkpt><trkpt lat="37.99112758491595" lon="13.876794978923717"><ele>9.0</ele><time>2026-04-09T10:07:13.999Z</time></trkpt><trkpt lat="37.99119695263071" lon="13.876983721796014"><ele>8.666666666666666</ele><time>2026-04-09T10:07:14.999Z</time></trkpt><trkpt lat="37.99126522161232" lon="13.877173845561494"><ele>8.333333333333332</ele><time>2026-04-09T10:07:15.999Z</time></trkpt><trkpt lat="37.99133351927718" lon="13.877367179938869"><ele>8.0</ele><time>2026-04-09T10:07:16.999Z</time></trkpt><trkpt lat="37.991401205001026" lon="13.877560017783926"><ele>8.666666666666666</ele><time>2026-04-09T10:07:17.999Z</time></trkpt><trkpt lat="37.99147036513856" lon="13.877748203070485"><ele>9.333333333333334</ele><time>2026-04-09T10:07:18.999Z</time></trkpt><trkpt lat="37.99154165954954" lon="13.877941214763768"><ele>10.0</ele><time>2026-04-09T10:07:19.999Z</time></trkpt><trkpt lat="37.991606798809045" lon="13.878140531112237"><ele>9.333333333333334</ele><time>2026-04-09T10:07:20.999Z</time></trkpt><trkpt lat="37.991675091853274" lon="13.878330027685328"><ele>8.666666666666666</ele><time>2026-04-09T10:07:21.998Z</time></trkpt><trkpt lat="37.99174195370673" lon="13.878527296909002"><ele>8.0</ele><time>2026-04-09T10:07:22.998Z</time></trkpt><trkpt lat="37.99181409189744" lon="13.878729783574217"><ele>8.0</ele><time>2026-04-09T10:07:23.998Z</time></trkpt><trkpt lat="37.99188243804966" lon="13.878927920934345"><ele>8.0</ele><time>2026-04-09T10:07:24.998Z</time></trkpt><trkpt lat="37.991948341446424" lon="13.879117972121847"><ele>8.0</ele><time>2026-04-09T10:07:25.998Z</time></trkpt><trkpt lat="37.99201484769098" lon="13.87929556313896"><ele>8.0</ele><time>2026-04-09T10:07:26.998Z</time></trkpt><trkpt lat="37.99207575142304" lon="13.8794692033518"><ele>8.0</ele><time>2026-04-09T10:07:27.998Z</time></trkpt><trkpt lat="37.99213147295284" lon="13.87963249962657"><ele>8.0</ele><time>2026-04-09T10:07:28.998Z</time></trkpt><trkpt lat="37.99218571532931" lon="13.879788714813666"><ele>8.0</ele><time>2026-04-09T10:07:29.998Z</time></trkpt><trkpt lat="37.992243871689055" lon="13.87993858468421"><ele>8.0</ele><time>2026-04-09T10:07:30.998Z</time></trkpt><trkpt lat="37.992298709564054" lon="13.880097427948082"><ele>8.0</ele><time>2026-04-09T10:07:31.998Z</time></trkpt><trkpt lat="37.992352061220096" lon="13.88024592800071"><ele>8.0</ele><time>2026-04-09T10:07:32.998Z</time></trkpt><trkpt lat="37.99240442730546" lon="13.880392716680445"><ele>8.0</ele><time>2026-04-09T10:07:33.998Z</time></trkpt><trkpt lat="37.99245874835581" lon="13.880542607731345"><ele>8.0</ele><time>2026-04-09T10:07:34.998Z</time></trkpt><trkpt lat="37.99251318001139" lon="13.880701851453635"><ele>8.0</ele><time>2026-04-09T10:07:35.998Z</time></trkpt><trkpt lat="37.99256857863764" lon="13.880863485092844"><ele>8.0</ele><time>2026-04-09T10:07:36.998Z</time></trkpt><trkpt lat="37.99262899959361" lon="13.881028975239232"><ele>8.0</ele><time>2026-04-09T10:07:37.998Z</time></trkpt><trkpt lat="37.99268457631973" lon="13.881185095367973"><ele>8.0</ele><time>2026-04-09T10:07:38.998Z</time></trkpt><trkpt lat="37.99274382985004" lon="13.881339816042281"><ele>8.0</ele><time>2026-04-09T10:07:39.998Z</time></trkpt><trkpt lat="37.99280808886397" lon="13.8815031782448"><ele>8.0</ele><time>2026-04-09T10:07:40.998Z</time></trkpt><trkpt lat="37.99287207795734" lon="13.881669273542157"><ele>8.0</ele><time>2026-04-09T10:07:41.999Z</time></trkpt><trkpt lat="37.99293624868373" lon="13.881846065118362"><ele>8.333333333333332</ele><time>2026-04-09T10:07:42.999Z</time></trkpt><trkpt lat="37.993007800580116" lon="13.88202438735234"><ele>8.666666666666666</ele><time>2026-04-09T10:07:43.999Z</time></trkpt><trkpt lat="37.99308004077011" lon="13.882203624221065"><ele>9.0</ele><time>2026-04-09T10:07:44.999Z</time></trkpt><trkpt lat="37.9931527006186" lon="13.882381147149173"><ele>9.0</ele><time>2026-04-09T10:07:45.999Z</time></trkpt><trkpt lat="37.993221659468006" lon="13.882565092181071"><ele>9.0</ele><time>2026-04-09T10:07:46.999Z</time></trkpt><trkpt lat="37.99329070906335" lon="13.882748671089356"><ele>9.0</ele><time>2026-04-09T10:07:47.999Z</time></trkpt><trkpt lat="37.99336415315761" lon="13.882931900707291"><ele>9.333333333333334</ele><time>2026-04-09T10:07:48.999Z</time></trkpt><trkpt lat="37.99343987907312" lon="13.883120658478754"><ele>9.666666666666668</ele><time>2026-04-09T10:07:49.999Z</time></trkpt><trkpt lat="37.99351522053434" lon="13.883312135418914"><ele>10.0</ele><time>2026-04-09T10:07:50.999Z</time></trkpt><trkpt lat="37.99358465150076" lon="13.883496320078967"><ele>10.0</ele><time>2026-04-09T10:07:51.999Z</time></trkpt><trkpt lat="37.993659320333194" lon="13.883682575953486"><ele>10.0</ele><time>2026-04-09T10:07:52.999Z</time></trkpt><trkpt lat="37.993732607055925" lon="13.883868447213427"><ele>10.0</ele><time>2026-04-09T10:07:53.999Z</time></trkpt><trkpt lat="37.9938072053364" lon="13.884055432849916"><ele>10.0</ele><time>2026-04-09T10:07:54.999Z</time></trkpt><trkpt lat="37.993882690933674" lon="13.88424438069286"><ele>10.0</ele><time>2026-04-09T10:07:55.999Z</time></trkpt><trkpt lat="37.99396305795487" lon="13.88444493516794"><ele>10.0</ele><time>2026-04-09T10:07:56.999Z</time></trkpt><trkpt lat="37.99403529187289" lon="13.88464561924428"><ele>10.333333333333334</ele><time>2026-04-09T10:07:57.999Z</time></trkpt><trkpt lat="37.99411362064161" lon="13.884838733589314"><ele>10.666666666666666</ele><time>2026-04-09T10:07:58.999Z</time></trkpt><trkpt lat="37.994191516914846" lon="13.885040126260684"><ele>11.0</ele><time>2026-04-09T10:07:59.999Z</time></trkpt><trkpt lat="37.99427059714801" lon="13.885236551346335"><ele>11.333333333333332</ele><time>2026-04-09T10:08:00.999Z</time></trkpt><trkpt lat="37.99434595792718" lon="13.885434704632871"><ele>11.666666666666666</ele><time>2026-04-09T10:08:01.999Z</time></trkpt><trkpt lat="37.99442260417099" lon="13.885638098357276"><ele>12.0</ele><time>2026-04-09T10:08:02.999Z</time></trkpt><trkpt lat="37.994502624698804" lon="13.885825850871552"><ele>12.333333333333332</ele><time>2026-04-09T10:08:03.999Z</time></trkpt><trkpt lat="37.994580523548834" lon="13.886020779510778"><ele>12.666666666666666</ele><time>2026-04-09T10:08:04.999Z</time></trkpt><trkpt lat="37.99465493315149" lon="13.886200390008343"><ele>13.0</ele><time>2026-04-09T10:08:05.999Z</time></trkpt><trkpt lat="37.994731212126155" lon="13.88637722733533"><ele>13.0</ele><time>2026-04-09T10:08:06.999Z</time></trkpt><trkpt lat="37.99481255080281" lon="13.886549338055195"><ele>13.0</ele><time>2026-04-09T10:08:07.999Z</time></trkpt><trkpt lat="37.99489579043924" lon="13.886722932511518"><ele>13.0</ele><time>2026-04-09T10:08:08.999Z</time></trkpt><trkpt lat="37.99497927233841" lon="13.886895469767673"><ele>13.0</ele><time>2026-04-09T10:08:09.999Z</time></trkpt><trkpt lat="37.99506508083596" lon="13.887064322441589"><ele>13.0</ele><time>2026-04-09T10:08:10.999Z</time></trkpt><trkpt lat="37.99514950054331" lon="13.887240508024911"><ele>13.0</ele><time>2026-04-09T10:08:11.999Z</time></trkpt><trkpt lat="37.9952333360514" lon="13.88741444838596"><ele>13.333333333333332</ele><time>2026-04-09T10:08:12.999Z</time></trkpt><trkpt lat="37.99532013165798" lon="13.887594544558896"><ele>13.666666666666668</ele><time>2026-04-09T10:08:13.999Z</time></trkpt><trkpt lat="37.99540981695694" lon="13.887777816691257"><ele>14.0</ele><time>2026-04-09T10:08:14.999Z</time></trkpt><trkpt lat="37.99550092287283" lon="13.887953202599387"><ele>14.0</ele><time>2026-04-09T10:08:15.999Z</time></trkpt><trkpt lat="37.99558582040938" lon="13.888128620216577"><ele>14.0</ele><time>2026-04-09T10:08:16.999Z</time></trkpt><trkpt lat="37.99567706053208" lon="13.888303671988094"><ele>14.0</ele><time>2026-04-09T10:08:17.999Z</time></trkpt><trkpt lat="37.9957672643326" lon="13.888482841130125"><ele>13.333333333333334</ele><time>2026-04-09T10:08:18.999Z</time></trkpt><trkpt lat="37.995859533056425" lon="13.88866717474905"><ele>12.666666666666668</ele><time>2026-04-09T10:08:19.999Z</time></trkpt><trkpt lat="37.99595486116288" lon="13.888856833691994"><ele>12.0</ele><time>2026-04-09T10:08:20.999Z</time></trkpt><trkpt lat="37.99605000132903" lon="13.889044842785173"><ele>12.0</ele><time>2026-04-09T10:08:21.999Z</time></trkpt><trkpt lat="37.99614615774557" lon="13.889230631962382"><ele>12.0</ele><time>2026-04-09T10:08:22.999Z</time></trkpt><trkpt lat="37.99624071882652" lon="13.889421613908613"><ele>12.0</ele><time>2026-04-09T10:08:23.999Z</time></trkpt><trkpt lat="37.996338749431736" lon="13.889612022090926"><ele>11.666666666666666</ele><time>2026-04-09T10:08:24.999Z</time></trkpt><trkpt lat="37.99643812279642" lon="13.889810869626555"><ele>11.333333333333332</ele><time>2026-04-09T10:08:25.999Z</time></trkpt><trkpt lat="37.99654173948551" lon="13.890011059235015"><ele>11.0</ele><time>2026-04-09T10:08:26.999Z</time></trkpt><trkpt lat="37.996644672030094" lon="13.890214204392535"><ele>10.666666666666666</ele><time>2026-04-09T10:08:27.999Z</time></trkpt><trkpt lat="37.99674549922109" lon="13.890416110209875"><ele>10.333333333333334</ele><time>2026-04-09T10:08:28.999Z</time></trkpt><trkpt lat="37.99684669882597" lon="13.890624660714659"><ele>10.0</ele><time>2026-04-09T10:08:29.999Z</time></trkpt><trkpt lat="37.996943483917036" lon="13.890845741873859"><ele>10.333333333333334</ele><time>2026-04-09T10:08:30.999Z</time></trkpt><trkpt lat="37.99703986326252" lon="13.891058641637832"><ele>10.666666666666666</ele><time>2026-04-09T10:08:31.999Z</time></trkpt><trkpt lat="37.99712454383348" lon="13.891282220257414"><ele>11.0</ele><time>2026-04-09T10:08:32.999Z</time></trkpt><trkpt lat="37.99720855322129" lon="13.891501480907344"><ele>11.0</ele><time>2026-04-09T10:08:33.999Z</time></trkpt><trkpt lat="37.99728980288913" lon="13.891721688334544"><ele>11.0</ele><time>2026-04-09T10:08:34.999Z</time></trkpt><trkpt lat="37.9973684545715" lon="13.891938998973403"><ele>11.0</ele><time>2026-04-09T10:08:35.999Z</time></trkpt><trkpt lat="37.99744662695445" lon="13.892162402633149"><ele>9.666666666666666</ele><time>2026-04-09T10:08:36.999Z</time></trkpt><trkpt lat="37.99753135562603" lon="13.892385002833182"><ele>8.333333333333334</ele><time>2026-04-09T10:08:37.999Z</time></trkpt><trkpt lat="37.99761680967263" lon="13.89260809023884"><ele>7.0</ele><time>2026-04-09T10:08:38.999Z</time></trkpt><trkpt lat="37.997699281911096" lon="13.892834179099607"><ele>7.0</ele><time>2026-04-09T10:08:39.999Z</time></trkpt><trkpt lat="37.997783277005475" lon="13.893063083005199"><ele>7.0</ele><time>2026-04-09T10:08:40.999Z</time></trkpt><trkpt lat="37.997863354436745" lon="13.893297046680223"><ele>7.0</ele><time>2026-04-09T10:08:41.999Z</time></trkpt><trkpt lat="37.99794698754951" lon="13.893527483139978"><ele>7.0</ele><time>2026-04-09T10:08:42.999Z</time></trkpt><trkpt lat="37.998027774256094" lon="13.893757531343677"><ele>7.0</ele><time>2026-04-09T10:08:43.999Z</time></trkpt><trkpt lat="37.998113143476544" lon="13.893985032434784"><ele>7.0</ele><time>2026-04-09T10:08:44.999Z</time></trkpt><trkpt lat="37.9981980856019" lon="13.894221585983045"><ele>7.0</ele><time>2026-04-09T10:08:45.999Z</time></trkpt><trkpt lat="37.99828929423981" lon="13.89444842469674"><ele>7.0</ele><time>2026-04-09T10:08:46.999Z</time></trkpt><trkpt lat="37.99837668440513" lon="13.894680553473627"><ele>7.0</ele><time>2026-04-09T10:08:47.999Z</time></trkpt><trkpt lat="37.99846476292934" lon="13.894914473787923"><ele>6.333333333333334</ele><time>2026-04-09T10:08:48.999Z</time></trkpt><trkpt lat="37.99855124930846" lon="13.89514819888239"><ele>5.666666666666667</ele><time>2026-04-09T10:08:49.999Z</time></trkpt><trkpt lat="37.99863959616003" lon="13.895383440038556"><ele>5.0</ele><time>2026-04-09T10:08:50.999Z</time></trkpt><trkpt lat="37.99872424683601" lon="13.895618704081944"><ele>5.0</ele><time>2026-04-09T10:08:51.999Z</time></trkpt><trkpt lat="37.99881223971236" lon="13.895855529770627"><ele>5.0</ele><time>2026-04-09T10:08:52.999Z</time></trkpt><trkpt lat="37.99889878262442" lon="13.89609201540609"><ele>5.0</ele><time>2026-04-09T10:08:53.999Z</time></trkpt><trkpt lat="37.9989853921181" lon="13.896323491638817"><ele>5.333333333333334</ele><time>2026-04-09T10:08:54.999Z</time></trkpt><trkpt lat="37.9990690499347" lon="13.896546670676655"><ele>5.666666666666667</ele><time>2026-04-09T10:08:55.999Z</time></trkpt><trkpt lat="37.99915080401939" lon="13.896770098733086"><ele>6.0</ele><time>2026-04-09T10:08:56.999Z</time></trkpt><trkpt lat="37.999233122516664" lon="13.896987195472057"><ele>6.0</ele><time>2026-04-09T10:08:57.999Z</time></trkpt><trkpt lat="37.99931025879061" lon="13.897206531114517"><ele>6.0</ele><time>2026-04-09T10:08:58.999Z</time></trkpt><trkpt lat="37.99939210813665" lon="13.897425307107314"><ele>6.0</ele><time>2026-04-09T10:08:59.999Z</time></trkpt><trkpt lat="37.999477074001646" lon="13.89764932289521"><ele>5.666666666666667</ele><time>2026-04-09T10:09:00.999Z</time></trkpt><trkpt lat="37.99956085411128" lon="13.897874555085847"><ele>5.333333333333334</ele><time>2026-04-09T10:09:01.999Z</time></trkpt><trkpt lat="37.99964575498118" lon="13.898103591488864"><ele>5.0</ele><time>2026-04-09T10:09:02.999Z</time></trkpt><trkpt lat="37.999730411984615" lon="13.898339052272153"><ele>5.0</ele><time>2026-04-09T10:09:03.999Z</time></trkpt><trkpt lat="37.999814065194165" lon="13.898565248713206"><ele>5.0</ele><time>2026-04-09T10:09:04.999Z</time></trkpt><trkpt lat="37.999896679170035" lon="13.898776765716095"><ele>5.0</ele><time>2026-04-09T10:09:05.999Z</time></trkpt><trkpt lat="37.99997519309542" lon="13.898992538384286"><ele>5.0</ele><time>2026-04-09T10:09:06.999Z</time></trkpt><trkpt lat="38.00005321877712" lon="13.899203048986115"><ele>5.0</ele><time>2026-04-09T10:09:07.999Z</time></trkpt><trkpt lat="38.00013177926938" lon="13.899417473810137"><ele>5.0</ele><time>2026-04-09T10:09:08.999Z</time></trkpt><trkpt lat="38.00021391497606" lon="13.899626410706011"><ele>5.0</ele><time>2026-04-09T10:09:09.999Z</time></trkpt><trkpt lat="38.000289709622116" lon="13.89983748124422"><ele>5.0</ele><time>2026-04-09T10:09:10.999Z</time></trkpt><trkpt lat="38.000363874275" lon="13.90004505563556"><ele>5.0</ele><time>2026-04-09T10:09:11.999Z</time></trkpt><trkpt lat="38.00044155675746" lon="13.900254769876426"><ele>5.333333333333334</ele><time>2026-04-09T10:09:12.999Z</time></trkpt><trkpt lat="38.000525782327394" lon="13.900467033664555"><ele>5.666666666666667</ele><time>2026-04-09T10:09:13.999Z</time></trkpt><trkpt lat="38.00060735859032" lon="13.900683390366005"><ele>6.0</ele><time>2026-04-09T10:09:14.999Z</time></trkpt><trkpt lat="38.00068610538455" lon="13.900906487352502"><ele>5.666666666666667</ele><time>2026-04-09T10:09:15.999Z</time></trkpt><trkpt lat="38.0007683577298" lon="13.901131220103423"><ele>5.333333333333334</ele><time>2026-04-09T10:09:16.999Z</time></trkpt><trkpt lat="38.000850694022915" lon="13.901355640210554"><ele>5.0</ele><time>2026-04-09T10:09:17.999Z</time></trkpt><trkpt lat="38.00093688159027" lon="13.901586472376062"><ele>4.666666666666667</ele><time>2026-04-09T10:09:18.999Z</time></trkpt><trkpt lat="38.00102279057633" lon="13.901818439473109"><ele>4.333333333333333</ele><time>2026-04-09T10:09:19.999Z</time></trkpt><trkpt lat="38.00111156296306" lon="13.902054918239156"><ele>4.0</ele><time>2026-04-09T10:09:20.999Z</time></trkpt><trkpt lat="38.0012008819414" lon="13.902292256812547"><ele>4.0</ele><time>2026-04-09T10:09:21.999Z</time></trkpt><trkpt lat="38.00128868138532" lon="13.902525643956801"><ele>4.0</ele><time>2026-04-09T10:09:22.999Z</time></trkpt><trkpt lat="38.001375311866596" lon="13.902759583709829"><ele>4.0</ele><time>2026-04-09T10:09:23.999Z</time></trkpt><trkpt lat="38.00146368353549" lon="13.902993131739732"><ele>4.333333333333333</ele><time>2026-04-09T10:09:24.999Z</time></trkpt><trkpt lat="38.00154813770236" lon="13.903232372017111"><ele>4.666666666666667</ele><time>2026-04-09T10:09:25.999Z</time></trkpt><trkpt lat="38.001632547753495" lon="13.903450532339725"><ele>5.0</ele><time>2026-04-09T10:09:26.999Z</time></trkpt><trkpt lat="38.00170675562901" lon="13.903650980841627"><ele>5.0</ele><time>2026-04-09T10:09:27.998Z</time></trkpt><trkpt lat="38.00178148151" lon="13.903851642683428"><ele>5.0</ele><time>2026-04-09T10:09:28.998Z</time></trkpt><trkpt lat="38.001851795868006" lon="13.904044477294692"><ele>5.0</ele><time>2026-04-09T10:09:29.998Z</time></trkpt><trkpt lat="38.00191711771358" lon="13.904217004067597"><ele>5.25</ele><time>2026-04-09T10:09:30.998Z</time></trkpt><trkpt lat="38.001984765658236" lon="13.9043862409091"><ele>5.5</ele><time>2026-04-09T10:09:31.998Z</time></trkpt><trkpt lat="38.00203858323798" lon="13.904549441860539"><ele>5.75</ele><time>2026-04-09T10:09:32.998Z</time></trkpt><trkpt lat="38.00209871604704" lon="13.904712209881918"><ele>6.0</ele><time>2026-04-09T10:09:33.998Z</time></trkpt><trkpt lat="38.00216013220216" lon="13.904871033648801"><ele>6.0</ele><time>2026-04-09T10:09:34.998Z</time></trkpt><trkpt lat="38.00222398806227" lon="13.905025092773732"><ele>6.0</ele><time>2026-04-09T10:09:35.998Z</time></trkpt><trkpt lat="38.00228269903507" lon="13.905194099299134"><ele>6.0</ele><time>2026-04-09T10:09:36.998Z</time></trkpt><trkpt lat="38.00234257822454" lon="13.905360794178817"><ele>6.0</ele><time>2026-04-09T10:09:37.998Z</time></trkpt><trkpt lat="38.00240118645897" lon="13.905527603104614"><ele>6.0</ele><time>2026-04-09T10:09:38.998Z</time></trkpt><trkpt lat="38.002458260570876" lon="13.90568740239379"><ele>6.0</ele><time>2026-04-09T10:09:39.998Z</time></trkpt><trkpt lat="38.00252167400287" lon="13.905842629962065"><ele>6.0</ele><time>2026-04-09T10:09:40.998Z</time></trkpt><trkpt lat="38.00257938286994" lon="13.906001000313065"><ele>6.0</ele><time>2026-04-09T10:09:41.998Z</time></trkpt><trkpt lat="38.00263398073893" lon="13.906156583997488"><ele>6.0</ele><time>2026-04-09T10:09:42.998Z</time></trkpt><trkpt lat="38.002693578890415" lon="13.906304863601212"><ele>6.0</ele><time>2026-04-09T10:09:43.998Z</time></trkpt><trkpt lat="38.002750686275085" lon="13.90646554489688"><ele>6.0</ele><time>2026-04-09T10:09:44.998Z</time></trkpt><trkpt lat="38.00280189715469" lon="13.9066121894931"><ele>6.0</ele><time>2026-04-09T10:09:45.999Z</time></trkpt><trkpt lat="38.002853021192806" lon="13.906760199845356"><ele>6.0</ele><time>2026-04-09T10:09:46.999Z</time></trkpt><trkpt lat="38.002903498904516" lon="13.906907526097156"><ele>6.0</ele><time>2026-04-09T10:09:47.999Z</time></trkpt><trkpt lat="38.00295353827903" lon="13.907055311304381"><ele>6.0</ele><time>2026-04-09T10:09:48.999Z</time></trkpt><trkpt lat="38.003006217335546" lon="13.907202278281584"><ele>6.0</ele><time>2026-04-09T10:09:49.999Z</time></trkpt><trkpt lat="38.0030607967605" lon="13.907355148918054"><ele>6.0</ele><time>2026-04-09T10:09:50.999Z</time></trkpt><trkpt lat="38.00311912088949" lon="13.907511146743802"><ele>6.0</ele><time>2026-04-09T10:09:51.999Z</time></trkpt><trkpt lat="38.00317860896488" lon="13.907678095374512"><ele>6.0</ele><time>2026-04-09T10:09:52.999Z</time></trkpt><trkpt lat="38.003237379719444" lon="13.907845830759914"><ele>6.0</ele><time>2026-04-09T10:09:53.999Z</time></trkpt><trkpt lat="38.00329347396733" lon="13.9080194000367"><ele>6.0</ele><time>2026-04-09T10:09:54.999Z</time></trkpt><trkpt lat="38.003350656895876" lon="13.908184950650334"><ele>6.0</ele><time>2026-04-09T10:09:55.999Z</time></trkpt><trkpt lat="38.003409789132746" lon="13.90834517888671"><ele>6.0</ele><time>2026-04-09T10:09:56.999Z</time></trkpt><trkpt lat="38.003471784563935" lon="13.908497265128625"><ele>6.0</ele><time>2026-04-09T10:09:57.999Z</time></trkpt><trkpt lat="38.003535948127535" lon="13.908654991581487"><ele>6.0</ele><time>2026-04-09T10:09:58.999Z</time></trkpt><trkpt lat="38.003605637360245" lon="13.908811158083866"><ele>6.0</ele><time>2026-04-09T10:09:59.999Z</time></trkpt><trkpt lat="38.00367796058161" lon="13.908969427331476"><ele>6.0</ele><time>2026-04-09T10:10:00.999Z</time></trkpt><trkpt lat="38.003726372178306" lon="13.909139971994286"><ele>6.0</ele><time>2026-04-09T10:10:01.999Z</time></trkpt><trkpt lat="38.00378826853122" lon="13.909305625888454"><ele>6.0</ele><time>2026-04-09T10:10:02.999Z</time></trkpt><trkpt lat="38.00384704709341" lon="13.909461701638975"><ele>6.0</ele><time>2026-04-09T10:10:03.999Z</time></trkpt><trkpt lat="38.003910702415176" lon="13.909629156495978"><ele>6.0</ele><time>2026-04-09T10:10:04.999Z</time></trkpt><trkpt lat="38.00397133856665" lon="13.909788182239444"><ele>6.0</ele><time>2026-04-09T10:10:05.999Z</time></trkpt><trkpt lat="38.00403887258208" lon="13.910047599093682"><ele>6.333333333333334</ele><time>2026-04-09T10:10:06.999Z</time></trkpt><trkpt lat="38.00411328979622" lon="13.910223454714318"><ele>6.666666666666667</ele><time>2026-04-09T10:10:07.999Z</time></trkpt><trkpt lat="38.00418601729641" lon="13.910409132043487"><ele>7.0</ele><time>2026-04-09T10:10:08.999Z</time></trkpt><trkpt lat="38.00426342193366" lon="13.910602471682772"><ele>6.333333333333334</ele><time>2026-04-09T10:10:09.999Z</time></trkpt><trkpt lat="38.0043329377948" lon="13.910783736764303"><ele>5.666666666666667</ele><time>2026-04-09T10:10:10.999Z</time></trkpt><trkpt lat="38.004399984976075" lon="13.91096098615895"><ele>5.0</ele><time>2026-04-09T10:10:11.999Z</time></trkpt><trkpt lat="38.00446775258277" lon="13.911132690334052"><ele>5.0</ele><time>2026-04-09T10:10:12.999Z</time></trkpt><trkpt lat="38.00452842105761" lon="13.9112959253102"><ele>5.0</ele><time>2026-04-09T10:10:13.999Z</time></trkpt><trkpt lat="38.00459254834351" lon="13.911459052852276"><ele>5.0</ele><time>2026-04-09T10:10:14.999Z</time></trkpt><trkpt lat="38.00465215396752" lon="13.911620615511529"><ele>5.0</ele><time>2026-04-09T10:10:15.999Z</time></trkpt><trkpt lat="38.00471602576387" lon="13.911779717402357"><ele>5.0</ele><time>2026-04-09T10:10:16.999Z</time></trkpt><trkpt lat="38.004770521388195" lon="13.9119399485706"><ele>5.0</ele><time>2026-04-09T10:10:17.999Z</time></trkpt><trkpt lat="38.00482992521546" lon="13.912091867423012"><ele>5.0</ele><time>2026-04-09T10:10:18.999Z</time></trkpt><trkpt lat="38.004886575724754" lon="13.912239634120015"><ele>5.0</ele><time>2026-04-09T10:10:19.999Z</time></trkpt><trkpt lat="38.00493767513101" lon="13.912392253189257"><ele>4.75</ele><time>2026-04-09T10:10:20.999Z</time></trkpt><trkpt lat="38.00499911282763" lon="13.912546250137028"><ele>4.5</ele><time>2026-04-09T10:10:21.999Z</time></trkpt><trkpt lat="38.00506030906081" lon="13.912712345709368"><ele>4.25</ele><time>2026-04-09T10:10:22.999Z</time></trkpt><trkpt lat="38.00512014534148" lon="13.912868212880474"><ele>4.0</ele><time>2026-04-09T10:10:23.999Z</time></trkpt><trkpt lat="38.005177348114415" lon="13.913030500436053"><ele>4.0</ele><time>2026-04-09T10:10:24.999Z</time></trkpt><trkpt lat="38.005242143287056" lon="13.913192176541825"><ele>4.0</ele><time>2026-04-09T10:10:25.999Z</time></trkpt><trkpt lat="38.005301874392686" lon="13.913362519480865"><ele>4.0</ele><time>2026-04-09T10:10:26.999Z</time></trkpt><trkpt lat="38.00536288735606" lon="13.913525671365942"><ele>4.0</ele><time>2026-04-09T10:10:27.999Z</time></trkpt><trkpt lat="38.00542037656524" lon="13.91368018286299"><ele>4.0</ele><time>2026-04-09T10:10:28.999Z</time></trkpt><trkpt lat="38.00547687807077" lon="13.913845790044878"><ele>4.0</ele><time>2026-04-09T10:10:29.999Z</time></trkpt><trkpt lat="38.005535390482336" lon="13.914009073800703"><ele>4.0</ele><time>2026-04-09T10:10:30.999Z</time></trkpt><trkpt lat="38.005601915605276" lon="13.914162822587887"><ele>4.0</ele><time>2026-04-09T10:10:31.999Z</time></trkpt><trkpt lat="38.00566581299762" lon="13.914350579875478"><ele>4.0</ele><time>2026-04-09T10:10:32.999Z</time></trkpt><trkpt lat="38.005728396120375" lon="13.91452788388621"><ele>4.0</ele><time>2026-04-09T10:10:33.999Z</time></trkpt><trkpt lat="38.005789470487784" lon="13.914710155635019"><ele>4.0</ele><time>2026-04-09T10:10:34.999Z</time></trkpt><trkpt lat="38.00586435127493" lon="13.914889055087258"><ele>3.6666666666666665</ele><time>2026-04-09T10:10:35.999Z</time></trkpt><trkpt lat="38.0059316405596" lon="13.915071070357834"><ele>3.333333333333333</ele><time>2026-04-09T10:10:36.999Z</time></trkpt><trkpt lat="38.00600579411605" lon="13.91525957162179"><ele>3.0</ele><time>2026-04-09T10:10:37.999Z</time></trkpt><trkpt lat="38.00607584970311" lon="13.91545012164017"><ele>3.0</ele><time>2026-04-09T10:10:38.999Z</time></trkpt><trkpt lat="38.00613915465848" lon="13.915627559675062"><ele>3.0</ele><time>2026-04-09T10:10:39.999Z</time></trkpt><trkpt lat="38.00621145211814" lon="13.915803070784852"><ele>3.0</ele><time>2026-04-09T10:10:40.999Z</time></trkpt><trkpt lat="38.006269756061066" lon="13.915988825785087"><ele>3.333333333333333</ele><time>2026-04-09T10:10:41.999Z</time></trkpt><trkpt lat="38.006338974134955" lon="13.91617253625344"><ele>3.6666666666666665</ele><time>2026-04-09T10:10:42.999Z</time></trkpt><trkpt lat="38.00640912606676" lon="13.916358019402518"><ele>4.0</ele><time>2026-04-09T10:10:43.999Z</time></trkpt><trkpt lat="38.006474337520906" lon="13.91653652069612"><ele>4.0</ele><time>2026-04-09T10:10:44.999Z</time></trkpt><trkpt lat="38.006540971286896" lon="13.916707410515603"><ele>4.0</ele><time>2026-04-09T10:10:45.999Z</time></trkpt><trkpt lat="38.00660393593816" lon="13.916876908965934"><ele>4.0</ele><time>2026-04-09T10:10:46.999Z</time></trkpt><trkpt lat="38.006668021240124" lon="13.91704814833808"><ele>4.0</ele><time>2026-04-09T10:10:47.999Z</time></trkpt><trkpt lat="38.00673388486279" lon="13.917225978401051"><ele>4.0</ele><time>2026-04-09T10:10:48.999Z</time></trkpt><trkpt lat="38.00679789427414" lon="13.917397863766885"><ele>4.0</ele><time>2026-04-09T10:10:49.999Z</time></trkpt><trkpt lat="38.00686280440659" lon="13.917566766435685"><ele>4.0</ele><time>2026-04-09T10:10:50.999Z</time></trkpt><trkpt lat="38.006935791284974" lon="13.917736575971938"><ele>5.0</ele><time>2026-04-09T10:10:51.999Z</time></trkpt><trkpt lat="38.007011954564184" lon="13.917925367737132"><ele>6.0</ele><time>2026-04-09T10:10:52.999Z</time></trkpt><trkpt lat="38.007089281151316" lon="13.91812602968441"><ele>7.0</ele><time>2026-04-09T10:10:53.999Z</time></trkpt><trkpt lat="38.00717226564333" lon="13.918336215402029"><ele>6.666666666666667</ele><time>2026-04-09T10:10:54.999Z</time></trkpt><trkpt lat="38.007256420175196" lon="13.918561068793037"><ele>6.333333333333334</ele><time>2026-04-09T10:10:56Z</time></trkpt><trkpt lat="38.00733336897226" lon="13.918791441649516"><ele>6.0</ele><time>2026-04-09T10:10:57Z</time></trkpt><trkpt lat="38.00741728015055" lon="13.919013927027162"><ele>6.666666666666666</ele><time>2026-04-09T10:10:58Z</time></trkpt><trkpt lat="38.00750203813034" lon="13.919239691921776"><ele>7.333333333333333</ele><time>2026-04-09T10:10:59Z</time></trkpt><trkpt lat="38.00758200852781" lon="13.919461565778967"><ele>8.0</ele><time>2026-04-09T10:11:00Z</time></trkpt><trkpt lat="38.007661486140684" lon="13.919685460595288"><ele>8.0</ele><time>2026-04-09T10:11:01Z</time></trkpt><trkpt lat="38.00774236339279" lon="13.919902060885077"><ele>8.0</ele><time>2026-04-09T10:11:02Z</time></trkpt><trkpt lat="38.007818850642074" lon="13.920118166830727"><ele>8.0</ele><time>2026-04-09T10:11:03Z</time></trkpt><trkpt lat="38.007896524040085" lon="13.92031884343"><ele>7.666666666666666</ele><time>2026-04-09T10:11:04Z</time></trkpt><trkpt lat="38.00797263228593" lon="13.920533093262542"><ele>7.333333333333334</ele><time>2026-04-09T10:11:05Z</time></trkpt><trkpt lat="38.0080430100918" lon="13.920731847358576"><ele>7.0</ele><time>2026-04-09T10:11:06Z</time></trkpt><trkpt lat="38.00811950704229" lon="13.920921535978314"><ele>7.0</ele><time>2026-04-09T10:11:07Z</time></trkpt><trkpt lat="38.00818714844691" lon="13.921106318451919"><ele>7.0</ele><time>2026-04-09T10:11:08Z</time></trkpt><trkpt lat="38.008253356170655" lon="13.921292335499103"><ele>7.0</ele><time>2026-04-09T10:11:09Z</time></trkpt><trkpt lat="38.00831754854126" lon="13.92147096562879"><ele>7.0</ele><time>2026-04-09T10:11:10Z</time></trkpt><trkpt lat="38.00838322815646" lon="13.921649028858965"><ele>7.0</ele><time>2026-04-09T10:11:11Z</time></trkpt><trkpt lat="38.00844691693927" lon="13.921825986879062"><ele>7.0</ele><time>2026-04-09T10:11:12Z</time></trkpt><trkpt lat="38.00851683491336" lon="13.92200306386854"><ele>7.666666666666667</ele><time>2026-04-09T10:11:13Z</time></trkpt><trkpt lat="38.00858050346735" lon="13.922187548873211"><ele>8.333333333333334</ele><time>2026-04-09T10:11:14Z</time></trkpt><trkpt lat="38.00863370922355" lon="13.922360826224459"><ele>9.0</ele><time>2026-04-09T10:11:15Z</time></trkpt><trkpt lat="38.008700066326256" lon="13.92252680264885"><ele>9.25</ele><time>2026-04-09T10:11:16Z</time></trkpt><trkpt lat="38.008760548038914" lon="13.922690449477413"><ele>9.5</ele><time>2026-04-09T10:11:17Z</time></trkpt><trkpt lat="38.008822079012724" lon="13.92284938380536"><ele>9.75</ele><time>2026-04-09T10:11:18Z</time></trkpt><trkpt lat="38.00887786063127" lon="13.92300150366304"><ele>10.0</ele><time>2026-04-09T10:11:19Z</time></trkpt><trkpt lat="38.00892762103948" lon="13.923144251586313"><ele>10.0</ele><time>2026-04-09T10:11:20Z</time></trkpt><trkpt lat="38.0089870084894" lon="13.923290844732156"><ele>10.0</ele><time>2026-04-09T10:11:21Z</time></trkpt><trkpt lat="38.00903729924512" lon="13.923441704382766"><ele>10.0</ele><time>2026-04-09T10:11:22Z</time></trkpt><trkpt lat="38.0090920342367" lon="13.923593371878662"><ele>10.0</ele><time>2026-04-09T10:11:23Z</time></trkpt><trkpt lat="38.00915278092343" lon="13.923744870309356"><ele>10.25</ele><time>2026-04-09T10:11:24Z</time></trkpt><trkpt lat="38.009209008986176" lon="13.923904253170063"><ele>10.5</ele><time>2026-04-09T10:11:25Z</time></trkpt><trkpt lat="38.009269358021015" lon="13.92406079799062"><ele>10.75</ele><time>2026-04-09T10:11:26Z</time></trkpt><trkpt lat="38.00932730186991" lon="13.92422056232822"><ele>11.0</ele><time>2026-04-09T10:11:27Z</time></trkpt><trkpt lat="38.00938276513891" lon="13.924384785926835"><ele>11.25</ele><time>2026-04-09T10:11:28Z</time></trkpt><trkpt lat="38.009445216609464" lon="13.924542345783603"><ele>11.5</ele><time>2026-04-09T10:11:29Z</time></trkpt><trkpt lat="38.00950673650223" lon="13.924699973425712"><ele>11.75</ele><time>2026-04-09T10:11:30Z</time></trkpt><trkpt lat="38.00956249670573" lon="13.92485762288059"><ele>12.0</ele><time>2026-04-09T10:11:31Z</time></trkpt><trkpt lat="38.0096214074005" lon="13.925010753434158"><ele>11.5</ele><time>2026-04-09T10:11:32Z</time></trkpt><trkpt lat="38.00968258412632" lon="13.92517213029123"><ele>11.0</ele><time>2026-04-09T10:11:33Z</time></trkpt><trkpt lat="38.009740372628556" lon="13.925342119133251"><ele>10.5</ele><time>2026-04-09T10:11:33.999Z</time></trkpt><trkpt lat="38.009797383571986" lon="13.925509470354577"><ele>10.0</ele><time>2026-04-09T10:11:34.999Z</time></trkpt><trkpt lat="38.00985849121714" lon="13.925678546442866"><ele>10.0</ele><time>2026-04-09T10:11:35.999Z</time></trkpt><trkpt lat="38.00991784965613" lon="13.925838426230337"><ele>10.0</ele><time>2026-04-09T10:11:36.999Z</time></trkpt><trkpt lat="38.00997819709236" lon="13.92599348487332"><ele>10.0</ele><time>2026-04-09T10:11:37.999Z</time></trkpt><trkpt lat="38.01003649260464" lon="13.926160348168734"><ele>10.0</ele><time>2026-04-09T10:11:38.999Z</time></trkpt><trkpt lat="38.01009047727484" lon="13.926310612500142"><ele>10.5</ele><time>2026-04-09T10:11:39.999Z</time></trkpt><trkpt lat="38.010143066409434" lon="13.926448421164295"><ele>11.0</ele><time>2026-04-09T10:11:40.999Z</time></trkpt><trkpt lat="38.010191056053955" lon="13.92657930289982"><ele>11.5</ele><time>2026-04-09T10:11:41.999Z</time></trkpt><trkpt lat="38.01024126102129" lon="13.926708964583153"><ele>12.0</ele><time>2026-04-09T10:11:42.999Z</time></trkpt><trkpt lat="38.01029098848109" lon="13.926840661550505"><ele>12.0</ele><time>2026-04-09T10:11:43.999Z</time></trkpt><trkpt lat="38.010344074326596" lon="13.926967377756878"><ele>12.0</ele><time>2026-04-09T10:11:44.999Z</time></trkpt><trkpt lat="38.01039751017856" lon="13.927105052531292"><ele>12.0</ele><time>2026-04-09T10:11:45.999Z</time></trkpt><trkpt lat="38.010448454065134" lon="13.927253808315886"><ele>12.0</ele><time>2026-04-09T10:11:46.999Z</time></trkpt><trkpt lat="38.01050130245994" lon="13.927430489413279"><ele>12.333333333333332</ele><time>2026-04-09T10:11:47.999Z</time></trkpt><trkpt lat="38.010554308678444" lon="13.927614413113496"><ele>12.666666666666666</ele><time>2026-04-09T10:11:48.999Z</time></trkpt><trkpt lat="38.01060392259434" lon="13.92779325020552"><ele>13.0</ele><time>2026-04-09T10:11:49.999Z</time></trkpt><trkpt lat="38.0106522629459" lon="13.927975019217609"><ele>13.0</ele><time>2026-04-09T10:11:50.999Z</time></trkpt><trkpt lat="38.01069890390559" lon="13.92816087999537"><ele>13.0</ele><time>2026-04-09T10:11:51.999Z</time></trkpt><trkpt lat="38.01074298900938" lon="13.928342750034624"><ele>13.0</ele><time>2026-04-09T10:11:52.999Z</time></trkpt><trkpt lat="38.01078716760886" lon="13.928518037679815"><ele>13.0</ele><time>2026-04-09T10:11:53.999Z</time></trkpt><trkpt lat="38.01082897670698" lon="13.928692475377847"><ele>13.0</ele><time>2026-04-09T10:11:54.999Z</time></trkpt><trkpt lat="38.01086910296617" lon="13.928856288215494"><ele>13.0</ele><time>2026-04-09T10:11:55.999Z</time></trkpt><trkpt lat="38.01090838833411" lon="13.929032837637557"><ele>13.0</ele><time>2026-04-09T10:11:56.999Z</time></trkpt><trkpt lat="38.01094571460219" lon="13.929212734737956"><ele>13.0</ele><time>2026-04-09T10:11:57.999Z</time></trkpt><trkpt lat="38.01098725381117" lon="13.929404232040657"><ele>13.333333333333332</ele><time>2026-04-09T10:11:58.999Z</time></trkpt><trkpt lat="38.01103332268767" lon="13.92960331042644"><ele>13.666666666666668</ele><time>2026-04-09T10:11:59.999Z</time></trkpt><trkpt lat="38.01107697805618" lon="13.929809995770098"><ele>14.0</ele><time>2026-04-09T10:12:00.999Z</time></trkpt><trkpt lat="38.01112044581091" lon="13.930021316040756"><ele>14.0</ele><time>2026-04-09T10:12:01.999Z</time></trkpt><trkpt lat="38.0111703999109" lon="13.930242108741748"><ele>14.0</ele><time>2026-04-09T10:12:02.999Z</time></trkpt><trkpt lat="38.01122238714105" lon="13.930466563000639"><ele>14.0</ele><time>2026-04-09T10:12:03.999Z</time></trkpt><trkpt lat="38.01127313285983" lon="13.930695043668255"><ele>14.666666666666668</ele><time>2026-04-09T10:12:04.999Z</time></trkpt><trkpt lat="38.01132448109615" lon="13.930916483796352"><ele>15.333333333333332</ele><time>2026-04-09T10:12:05.999Z</time></trkpt><trkpt lat="38.01137174137304" lon="13.931142493694926"><ele>16.0</ele><time>2026-04-09T10:12:06.999Z</time></trkpt><trkpt lat="38.01142078336083" lon="13.93136539323382"><ele>16.0</ele><time>2026-04-09T10:12:08Z</time></trkpt><trkpt lat="38.01147083363772" lon="13.93159076516711"><ele>16.0</ele><time>2026-04-09T10:12:09Z</time></trkpt><trkpt lat="38.011523444433195" lon="13.931818810779896"><ele>16.0</ele><time>2026-04-09T10:12:10Z</time></trkpt><trkpt lat="38.01158079897201" lon="13.932043008564978"><ele>15.666666666666666</ele><time>2026-04-09T10:12:11Z</time></trkpt><trkpt lat="38.01164276687752" lon="13.932279106043394"><ele>15.333333333333332</ele><time>2026-04-09T10:12:12Z</time></trkpt><trkpt lat="38.01170672028182" lon="13.93250576436967"><ele>15.0</ele><time>2026-04-09T10:12:13Z</time></trkpt><trkpt lat="38.01178683304871" lon="13.93272956584112"><ele>16.0</ele><time>2026-04-09T10:12:14Z</time></trkpt><trkpt lat="38.0118784798524" lon="13.932957999981186"><ele>17.0</ele><time>2026-04-09T10:12:15Z</time></trkpt><trkpt lat="38.01196771712965" lon="13.933170041229525"><ele>18.0</ele><time>2026-04-09T10:12:16Z</time></trkpt><trkpt lat="38.01206232119456" lon="13.933364507312003"><ele>24.0</ele><time>2026-04-09T10:12:17Z</time></trkpt><trkpt lat="38.01215400208186" lon="13.93354783206715"><ele>30.0</ele><time>2026-04-09T10:12:18Z</time></trkpt><trkpt lat="38.01224834133809" lon="13.933734996794312"><ele>36.0</ele><time>2026-04-09T10:12:19Z</time></trkpt><trkpt lat="38.01234084376917" lon="13.933903927931143"><ele>36.0</ele><time>2026-04-09T10:12:20Z</time></trkpt><trkpt lat="38.01243246877061" lon="13.934076571344523"><ele>36.0</ele><time>2026-04-09T10:12:21Z</time></trkpt><trkpt lat="38.01252504890169" lon="13.934251323466928"><ele>36.0</ele><time>2026-04-09T10:12:22Z</time></trkpt><trkpt lat="38.01261666075777" lon="13.934422519402437"><ele>35.0</ele><time>2026-04-09T10:12:23Z</time></trkpt><trkpt lat="38.01270773963266" lon="13.934597409174188"><ele>34.0</ele><time>2026-04-09T10:12:24Z</time></trkpt><trkpt lat="38.01279983735771" lon="13.934774895526182"><ele>33.0</ele><time>2026-04-09T10:12:25Z</time></trkpt><trkpt lat="38.01289449539405" lon="13.93495389349988"><ele>36.666666666666664</ele><time>2026-04-09T10:12:26Z</time></trkpt><trkpt lat="38.01298942139858" lon="13.935133051403602"><ele>40.33333333333333</ele><time>2026-04-09T10:12:27Z</time></trkpt><trkpt lat="38.0130836500981" lon="13.93531054587717"><ele>44.0</ele><time>2026-04-09T10:12:28Z</time></trkpt><trkpt lat="38.013174542973864" lon="13.935486880543264"><ele>44.0</ele><time>2026-04-09T10:12:29Z</time></trkpt><trkpt lat="38.01326710131202" lon="13.935662310656712"><ele>44.0</ele><time>2026-04-09T10:12:30Z</time></trkpt><trkpt lat="38.01336085628309" lon="13.935841147387713"><ele>44.0</ele><time>2026-04-09T10:12:31Z</time></trkpt><trkpt lat="38.01345924702342" lon="13.936019508431336"><ele>39.0</ele><time>2026-04-09T10:12:32Z</time></trkpt><trkpt lat="38.01356262956231" lon="13.936191066494896"><ele>34.0</ele><time>2026-04-09T10:12:33Z</time></trkpt><trkpt lat="38.01366838400431" lon="13.93636542751148"><ele>29.0</ele><time>2026-04-09T10:12:34Z</time></trkpt><trkpt lat="38.013779765894796" lon="13.936547984534215"><ele>32.33333333333333</ele><time>2026-04-09T10:12:35Z</time></trkpt><trkpt lat="38.013892321822986" lon="13.936721688031161"><ele>35.666666666666664</ele><time>2026-04-09T10:12:36Z</time></trkpt><trkpt lat="38.01400583220871" lon="13.936889714703346"><ele>39.0</ele><time>2026-04-09T10:12:37Z</time></trkpt><trkpt lat="38.01412241882992" lon="13.937053420754983"><ele>34.333333333333336</ele><time>2026-04-09T10:12:38Z</time></trkpt><trkpt lat="38.01423659624669" lon="13.937205662620041"><ele>29.666666666666668</ele><time>2026-04-09T10:12:39Z</time></trkpt><trkpt lat="38.014350318884034" lon="13.93735747243322"><ele>25.0</ele><time>2026-04-09T10:12:40Z</time></trkpt><trkpt lat="38.01445387159369" lon="13.937507490794449"><ele>30.0</ele><time>2026-04-09T10:12:41Z</time></trkpt><trkpt lat="38.01456210743265" lon="13.937658051025513"><ele>35.0</ele><time>2026-04-09T10:12:42Z</time></trkpt><trkpt lat="38.014670709772716" lon="13.937804270328078"><ele>40.0</ele><time>2026-04-09T10:12:43Z</time></trkpt><trkpt lat="38.01476895421251" lon="13.93794567348313"><ele>40.0</ele><time>2026-04-09T10:12:44Z</time></trkpt><trkpt lat="38.014865510636746" lon="13.938082695770479"><ele>40.0</ele><time>2026-04-09T10:12:45Z</time></trkpt><trkpt lat="38.01496398636687" lon="13.938215732902473"><ele>40.0</ele><time>2026-04-09T10:12:46Z</time></trkpt><trkpt lat="38.01506372079076" lon="13.938348489978232"><ele>40.0</ele><time>2026-04-09T10:12:47Z</time></trkpt><trkpt lat="38.015165161432876" lon="13.938486059392694"><ele>40.0</ele><time>2026-04-09T10:12:48Z</time></trkpt><trkpt lat="38.015262941137" lon="13.938629363337686"><ele>40.0</ele><time>2026-04-09T10:12:49Z</time></trkpt><trkpt lat="38.0153660868713" lon="13.938771039683681"><ele>40.0</ele><time>2026-04-09T10:12:50Z</time></trkpt><trkpt lat="38.01546844593946" lon="13.938908748799665"><ele>40.0</ele><time>2026-04-09T10:12:51Z</time></trkpt><trkpt lat="38.01556863622412" lon="13.939050979230643"><ele>40.0</ele><time>2026-04-09T10:12:52Z</time></trkpt><trkpt lat="38.01567220155662" lon="13.939194891009558"><ele>40.0</ele><time>2026-04-09T10:12:53Z</time></trkpt><trkpt lat="38.01577231888571" lon="13.939333690866407"><ele>39.66666666666667</ele><time>2026-04-09T10:12:54Z</time></trkpt><trkpt lat="38.015875088187066" lon="13.939470489655452"><ele>39.333333333333336</ele><time>2026-04-09T10:12:55Z</time></trkpt><trkpt lat="38.01597713837092" lon="13.939617568705202"><ele>39.0</ele><time>2026-04-09T10:12:56Z</time></trkpt><trkpt lat="38.01608271605595" lon="13.939763998772767"><ele>39.0</ele><time>2026-04-09T10:12:57Z</time></trkpt><trkpt lat="38.016191668701815" lon="13.939910225508422"><ele>39.0</ele><time>2026-04-09T10:12:58Z</time></trkpt><trkpt lat="38.016297512168094" lon="13.940054548639326"><ele>39.0</ele><time>2026-04-09T10:12:59Z</time></trkpt><trkpt lat="38.016403811833655" lon="13.94020129514894"><ele>38.666666666666664</ele><time>2026-04-09T10:13:00Z</time></trkpt><trkpt lat="38.01650634809223" lon="13.940350007746126"><ele>38.33333333333333</ele><time>2026-04-09T10:13:01Z</time></trkpt><trkpt lat="38.0166057795759" lon="13.940491474272523"><ele>38.0</ele><time>2026-04-09T10:13:02Z</time></trkpt><trkpt lat="38.01670447068927" lon="13.940625880273515"><ele>38.0</ele><time>2026-04-09T10:13:03Z</time></trkpt><trkpt lat="38.016802255101574" lon="13.940759588689026"><ele>38.0</ele><time>2026-04-09T10:13:04Z</time></trkpt><trkpt lat="38.01689737556661" lon="13.94089170765551"><ele>38.0</ele><time>2026-04-09T10:13:05Z</time></trkpt><trkpt lat="38.01699455730962" lon="13.941022201792231"><ele>38.0</ele><time>2026-04-09T10:13:06Z</time></trkpt><trkpt lat="38.01708810380639" lon="13.941155895097793"><ele>38.25</ele><time>2026-04-09T10:13:07Z</time></trkpt><trkpt lat="38.017181299812776" lon="13.94128565853045"><ele>38.5</ele><time>2026-04-09T10:13:08Z</time></trkpt><trkpt lat="38.017281697432146" lon="13.94141090764359"><ele>38.75</ele><time>2026-04-09T10:13:09Z</time></trkpt><trkpt lat="38.01738840649588" lon="13.941526330192882"><ele>39.0</ele><time>2026-04-09T10:13:10Z</time></trkpt><trkpt lat="38.01749725911111" lon="13.941642839289532"><ele>38.25</ele><time>2026-04-09T10:13:11Z</time></trkpt><trkpt lat="38.017603647502256" lon="13.941755752148325"><ele>37.5</ele><time>2026-04-09T10:13:12Z</time></trkpt><trkpt lat="38.017714065393015" lon="13.94186827412067"><ele>36.75</ele><time>2026-04-09T10:13:13Z</time></trkpt><trkpt lat="38.017819837439475" lon="13.941973286177634"><ele>36.0</ele><time>2026-04-09T10:13:14Z</time></trkpt><trkpt lat="38.01792576239592" lon="13.942075958481352"><ele>36.0</ele><time>2026-04-09T10:13:15Z</time></trkpt><trkpt lat="38.018039573471206" lon="13.942170144508012"><ele>36.0</ele><time>2026-04-09T10:13:16Z</time></trkpt><trkpt lat="38.01816044267408" lon="13.9422614414843"><ele>36.0</ele><time>2026-04-09T10:13:17Z</time></trkpt><trkpt lat="38.01827829418717" lon="13.942347245278135"><ele>36.0</ele><time>2026-04-09T10:13:18Z</time></trkpt><trkpt lat="38.01839685444751" lon="13.942428651413007"><ele>35.25</ele><time>2026-04-09T10:13:19Z</time></trkpt><trkpt lat="38.01850243328487" lon="13.942502693177763"><ele>34.5</ele><time>2026-04-09T10:13:20Z</time></trkpt><trkpt lat="38.01860528707028" lon="13.942576817843497"><ele>33.75</ele><time>2026-04-09T10:13:21Z</time></trkpt><trkpt lat="38.01870010791781" lon="13.942646423013475"><ele>33.0</ele><time>2026-04-09T10:13:22Z</time></trkpt><trkpt lat="38.01878918722197" lon="13.942707887457077"><ele>33.0</ele><time>2026-04-09T10:13:23Z</time></trkpt><trkpt lat="38.01886732614905" lon="13.942767291231421"><ele>33.0</ele><time>2026-04-09T10:13:24Z</time></trkpt><trkpt lat="38.01893258639306" lon="13.942811056547185"><ele>33.0</ele><time>2026-04-09T10:13:25Z</time></trkpt><trkpt lat="38.019035709991634" lon="13.942883123455388"><ele>33.0</ele><time>2026-04-09T10:13:27Z</time></trkpt><trkpt lat="38.01910480528646" lon="13.942934092154784"><ele>33.0</ele><time>2026-04-09T10:13:29Z</time></trkpt><trkpt lat="38.01917512758734" lon="13.942982503293258"><ele>33.0</ele><time>2026-04-09T10:13:32Z</time></trkpt><trkpt lat="38.01924863218754" lon="13.943014775552555"><ele>32.199999999999996</ele><time>2026-04-09T10:13:40Z</time></trkpt><trkpt lat="38.01931905586583" lon="13.943067624028265"><ele>31.4</ele><time>2026-04-09T10:13:43Z</time></trkpt><trkpt lat="38.019392117922564" lon="13.943118677921623"><ele>30.599999999999998</ele><time>2026-04-09T10:13:45Z</time></trkpt><trkpt lat="38.019494914029586" lon="13.943197834049169"><ele>29.799999999999997</ele><time>2026-04-09T10:13:47Z</time></trkpt><trkpt lat="38.01957182923392" lon="13.943251213425201"><ele>29.0</ele><time>2026-04-09T10:13:48Z</time></trkpt><trkpt lat="38.01967125002173" lon="13.943311409939628"><ele>29.0</ele><time>2026-04-09T10:13:49Z</time></trkpt><trkpt lat="38.01976938029522" lon="13.943379248385579"><ele>29.0</ele><time>2026-04-09T10:13:50Z</time></trkpt><trkpt lat="38.019865806977485" lon="13.9434517900578"><ele>29.0</ele><time>2026-04-09T10:13:51Z</time></trkpt><trkpt lat="38.0199741341389" lon="13.943522498505699"><ele>29.0</ele><time>2026-04-09T10:13:52Z</time></trkpt><trkpt lat="38.02008371281471" lon="13.943605295416779"><ele>28.0</ele><time>2026-04-09T10:13:53Z</time></trkpt><trkpt lat="38.02019843099827" lon="13.943691121453615"><ele>27.0</ele><time>2026-04-09T10:13:54Z</time></trkpt><trkpt lat="38.02032686581108" lon="13.943776522504564"><ele>26.0</ele><time>2026-04-09T10:13:55Z</time></trkpt><trkpt lat="38.02045740714563" lon="13.943867155133772"><ele>25.0</ele><time>2026-04-09T10:13:56Z</time></trkpt><trkpt lat="38.02059220515383" lon="13.943959473578685"><ele>25.0</ele><time>2026-04-09T10:13:57Z</time></trkpt><trkpt lat="38.02073231480439" lon="13.944058722909677"><ele>25.0</ele><time>2026-04-09T10:13:58Z</time></trkpt><trkpt lat="38.02086874400133" lon="13.944157629174974"><ele>25.0</ele><time>2026-04-09T10:13:59Z</time></trkpt><trkpt lat="38.02101197682276" lon="13.944260318972661"><ele>24.666666666666668</ele><time>2026-04-09T10:14:00Z</time></trkpt><trkpt lat="38.02115893124609" lon="13.944364988921409"><ele>24.333333333333336</ele><time>2026-04-09T10:14:01Z</time></trkpt><trkpt lat="38.02130460871375" lon="13.944467960765062"><ele>24.0</ele><time>2026-04-09T10:14:02Z</time></trkpt><trkpt lat="38.021446427035" lon="13.94456615985645"><ele>24.0</ele><time>2026-04-09T10:14:03Z</time></trkpt><trkpt lat="38.021590521738844" lon="13.944665459563229"><ele>24.0</ele><time>2026-04-09T10:14:04Z</time></trkpt><trkpt lat="38.02173549166359" lon="13.944770601366505"><ele>24.0</ele><time>2026-04-09T10:14:05Z</time></trkpt><trkpt lat="38.02187735273805" lon="13.944869005259"><ele>23.333333333333332</ele><time>2026-04-09T10:14:06Z</time></trkpt><trkpt lat="38.0220205706382" lon="13.944973681944381"><ele>22.666666666666664</ele><time>2026-04-09T10:14:07Z</time></trkpt><trkpt lat="38.022162347109074" lon="13.94508140358777"><ele>22.0</ele><time>2026-04-09T10:14:08Z</time></trkpt><trkpt lat="38.022309111098366" lon="13.945196106496915"><ele>22.0</ele><time>2026-04-09T10:14:09Z</time></trkpt><trkpt lat="38.02245865912372" lon="13.945321528932846"><ele>22.0</ele><time>2026-04-09T10:14:10Z</time></trkpt><trkpt lat="38.022601631053234" lon="13.94546150847549"><ele>22.0</ele><time>2026-04-09T10:14:11Z</time></trkpt><trkpt lat="38.02273740011443" lon="13.945608344419043"><ele>22.333333333333332</ele><time>2026-04-09T10:14:12Z</time></trkpt><trkpt lat="38.02286727279773" lon="13.945761210395908"><ele>22.666666666666668</ele><time>2026-04-09T10:14:13Z</time></trkpt><trkpt lat="38.02299461905431" lon="13.945918968258711"><ele>23.0</ele><time>2026-04-09T10:14:14Z</time></trkpt><trkpt lat="38.0231171762277" lon="13.946080147703274"><ele>25.0</ele><time>2026-04-09T10:14:15Z</time></trkpt><trkpt lat="38.023229546216" lon="13.946241885107321"><ele>27.0</ele><time>2026-04-09T10:14:16Z</time></trkpt><trkpt lat="38.023333447438894" lon="13.946411615189039"><ele>29.0</ele><time>2026-04-09T10:14:17Z</time></trkpt><trkpt lat="38.02343076196999" lon="13.946588952322012"><ele>31.0</ele><time>2026-04-09T10:14:18Z</time></trkpt><trkpt lat="38.02352715037246" lon="13.94676891250786"><ele>33.0</ele><time>2026-04-09T10:14:19Z</time></trkpt><trkpt lat="38.02362348755469" lon="13.946945750389206"><ele>35.0</ele><time>2026-04-09T10:14:20Z</time></trkpt><trkpt lat="38.02371876389732" lon="13.947121446654002"><ele>35.0</ele><time>2026-04-09T10:14:21Z</time></trkpt><trkpt lat="38.02381501090706" lon="13.947298089284725"><ele>35.0</ele><time>2026-04-09T10:14:22Z</time></trkpt><trkpt lat="38.02390904130945" lon="13.947481000796206"><ele>35.0</ele><time>2026-04-09T10:14:23Z</time></trkpt><trkpt lat="38.024004623612804" lon="13.947660485166434"><ele>35.0</ele><time>2026-04-09T10:14:24Z</time></trkpt><trkpt lat="38.0241025115904" lon="13.947840456094491"><ele>35.0</ele><time>2026-04-09T10:14:25Z</time></trkpt><trkpt lat="38.02420100769168" lon="13.94802251693897"><ele>35.0</ele><time>2026-04-09T10:14:26Z</time></trkpt><trkpt lat="38.02430092398178" lon="13.948209056503142"><ele>36.666666666666664</ele><time>2026-04-09T10:14:27Z</time></trkpt><trkpt lat="38.02440029229817" lon="13.948397702576008"><ele>38.333333333333336</ele><time>2026-04-09T10:14:28Z</time></trkpt><trkpt lat="38.02449967279241" lon="13.948586538381733"><ele>40.0</ele><time>2026-04-09T10:14:29Z</time></trkpt><trkpt lat="38.02459934292659" lon="13.948776613329597"><ele>40.0</ele><time>2026-04-09T10:14:30Z</time></trkpt><trkpt lat="38.02470329745199" lon="13.948963510928836"><ele>40.0</ele><time>2026-04-09T10:14:31Z</time></trkpt><trkpt lat="38.0248038259229" lon="13.949155174304485"><ele>40.0</ele><time>2026-04-09T10:14:32Z</time></trkpt><trkpt lat="38.02490492572056" lon="13.94935061530589"><ele>39.66666666666667</ele><time>2026-04-09T10:14:33Z</time></trkpt><trkpt lat="38.02500332269753" lon="13.949553765502982"><ele>39.333333333333336</ele><time>2026-04-09T10:14:34Z</time></trkpt><trkpt lat="38.02509754134989" lon="13.949759314703643"><ele>39.0</ele><time>2026-04-09T10:14:35Z</time></trkpt><trkpt lat="38.025182754691805" lon="13.949970082524786"><ele>39.666666666666664</ele><time>2026-04-09T10:14:36Z</time></trkpt><trkpt lat="38.02525818232397" lon="13.950200424261153"><ele>40.33333333333333</ele><time>2026-04-09T10:14:37Z</time></trkpt><trkpt lat="38.02533648489933" lon="13.950431444056417"><ele>41.0</ele><time>2026-04-09T10:14:38Z</time></trkpt><trkpt lat="38.02540575926291" lon="13.950658241277242"><ele>41.666666666666664</ele><time>2026-04-09T10:14:39Z</time></trkpt><trkpt lat="38.02546429943718" lon="13.950889999904582"><ele>42.333333333333336</ele><time>2026-04-09T10:14:40Z</time></trkpt><trkpt lat="38.025515423470196" lon="13.951125992741588"><ele>43.0</ele><time>2026-04-09T10:14:41Z</time></trkpt><trkpt lat="38.02555644530116" lon="13.95136953905253"><ele>43.0</ele><time>2026-04-09T10:14:42Z</time></trkpt><trkpt lat="38.02559286456349" lon="13.951614332632737"><ele>43.0</ele><time>2026-04-09T10:14:43Z</time></trkpt><trkpt lat="38.02561822728113" lon="13.951857445286114"><ele>43.0</ele><time>2026-04-09T10:14:44Z</time></trkpt><trkpt lat="38.02564121145881" lon="13.952100105955624"><ele>43.0</ele><time>2026-04-09T10:14:45Z</time></trkpt><trkpt lat="38.025670446881435" lon="13.952348884084122"><ele>43.0</ele><time>2026-04-09T10:14:46Z</time></trkpt><trkpt lat="38.025699128446526" lon="13.952598380370713"><ele>43.0</ele><time>2026-04-09T10:14:47Z</time></trkpt><trkpt lat="38.02572521984922" lon="13.952846344991764"><ele>43.66666666666667</ele><time>2026-04-09T10:14:48Z</time></trkpt><trkpt lat="38.02574680307537" lon="13.95309389309635"><ele>44.333333333333336</ele><time>2026-04-09T10:14:49Z</time></trkpt><trkpt lat="38.02576875457906" lon="13.953340975938143"><ele>45.0</ele><time>2026-04-09T10:14:50Z</time></trkpt><trkpt lat="38.02578793737609" lon="13.953584341684438"><ele>45.333333333333336</ele><time>2026-04-09T10:14:51Z</time></trkpt><trkpt lat="38.02580629749562" lon="13.953826918337656"><ele>45.66666666666667</ele><time>2026-04-09T10:14:52Z</time></trkpt><trkpt lat="38.0258244176861" lon="13.954065923673244"><ele>46.0</ele><time>2026-04-09T10:14:53Z</time></trkpt><trkpt lat="38.02584600229156" lon="13.954306109932514"><ele>43.333333333333336</ele><time>2026-04-09T10:14:54Z</time></trkpt><trkpt lat="38.02586516174237" lon="13.954546282109586"><ele>40.666666666666664</ele><time>2026-04-09T10:14:55Z</time></trkpt><trkpt lat="38.025878318249305" lon="13.954791735885697"><ele>38.0</ele><time>2026-04-09T10:14:56Z</time></trkpt><trkpt lat="38.02588894902489" lon="13.955045715531986"><ele>38.0</ele><time>2026-04-09T10:14:57Z</time></trkpt><trkpt lat="38.025894394517216" lon="13.955308836655808"><ele>38.0</ele><time>2026-04-09T10:14:58Z</time></trkpt><trkpt lat="38.02589369890118" lon="13.955581191370836"><ele>38.0</ele><time>2026-04-09T10:14:59.001Z</time></trkpt><trkpt lat="38.02588146844507" lon="13.955860606960963"><ele>38.0</ele><time>2026-04-09T10:15:00.001Z</time></trkpt><trkpt lat="38.025862034158216" lon="13.956130725104366"><ele>38.0</ele><time>2026-04-09T10:15:01.001Z</time></trkpt><trkpt lat="38.02583579523603" lon="13.95639149650412"><ele>38.0</ele><time>2026-04-09T10:15:02.001Z</time></trkpt><trkpt lat="38.02580767319167" lon="13.95665554409001"><ele>42.33333333333333</ele><time>2026-04-09T10:15:03.001Z</time></trkpt><trkpt lat="38.02578256931484" lon="13.956910505401396"><ele>46.666666666666664</ele><time>2026-04-09T10:15:04.001Z</time></trkpt><trkpt lat="38.02576333765881" lon="13.95715762192105"><ele>51.0</ele><time>2026-04-09T10:15:05.001Z</time></trkpt><trkpt lat="38.025745981352955" lon="13.957403838494857"><ele>50.33333333333333</ele><time>2026-04-09T10:15:06.001Z</time></trkpt><trkpt lat="38.025726415917646" lon="13.95764304702969"><ele>49.666666666666664</ele><time>2026-04-09T10:15:07.001Z</time></trkpt><trkpt lat="38.0257091615875" lon="13.95787913998107"><ele>49.0</ele><time>2026-04-09T10:15:08.001Z</time></trkpt><trkpt lat="38.025698090848074" lon="13.958111736595624"><ele>49.0</ele><time>2026-04-09T10:15:09.001Z</time></trkpt><trkpt lat="38.025698042521675" lon="13.958341186569797"><ele>49.0</ele><time>2026-04-09T10:15:10.001Z</time></trkpt><trkpt lat="38.02570937680828" lon="13.958582564897213"><ele>49.0</ele><time>2026-04-09T10:15:11.001Z</time></trkpt><trkpt lat="38.025728812605834" lon="13.95883161821971"><ele>49.0</ele><time>2026-04-09T10:15:12.001Z</time></trkpt><trkpt lat="38.02575282081018" lon="13.959081609921974"><ele>49.0</ele><time>2026-04-09T10:15:13.001Z</time></trkpt><trkpt lat="38.02578375229657" lon="13.95932611202135"><ele>49.0</ele><time>2026-04-09T10:15:14.001Z</time></trkpt><trkpt lat="38.025820648615934" lon="13.959560280354458"><ele>45.666666666666664</ele><time>2026-04-09T10:15:15.001Z</time></trkpt><trkpt lat="38.025869421473004" lon="13.959789743150589"><ele>42.33333333333333</ele><time>2026-04-09T10:15:16.001Z</time></trkpt><trkpt lat="38.025920358095725" lon="13.96001574232351"><ele>39.0</ele><time>2026-04-09T10:15:17.001Z</time></trkpt><trkpt lat="38.02596740466323" lon="13.960239699502472"><ele>39.0</ele><time>2026-04-09T10:15:18.001Z</time></trkpt><trkpt lat="38.0260149833144" lon="13.960461992830009"><ele>39.0</ele><time>2026-04-09T10:15:19.001Z</time></trkpt><trkpt lat="38.026057834532814" lon="13.960674314975"><ele>39.0</ele><time>2026-04-09T10:15:20.001Z</time></trkpt><trkpt lat="38.02609797302884" lon="13.960885630658641"><ele>39.0</ele><time>2026-04-09T10:15:21.001Z</time></trkpt><trkpt lat="38.026138931367925" lon="13.961100820453552"><ele>39.0</ele><time>2026-04-09T10:15:22.001Z</time></trkpt><trkpt lat="38.0261830281531" lon="13.961319750560207"><ele>39.0</ele><time>2026-04-09T10:15:23.001Z</time></trkpt><trkpt lat="38.026218076182595" lon="13.961545488609056"><ele>39.333333333333336</ele><time>2026-04-09T10:15:24.001Z</time></trkpt><trkpt lat="38.02623997635119" lon="13.961769835368498"><ele>39.66666666666667</ele><time>2026-04-09T10:15:25.001Z</time></trkpt><trkpt lat="38.02625873640999" lon="13.961993490429576"><ele>40.0</ele><time>2026-04-09T10:15:26.001Z</time></trkpt><trkpt lat="38.026272940643615" lon="13.962220043482825"><ele>40.0</ele><time>2026-04-09T10:15:27.001Z</time></trkpt><trkpt lat="38.02627927709239" lon="13.962440576551812"><ele>40.0</ele><time>2026-04-09T10:15:28.001Z</time></trkpt><trkpt lat="38.026280537472715" lon="13.962658860784547"><ele>40.0</ele><time>2026-04-09T10:15:29.001Z</time></trkpt><trkpt lat="38.02628255508411" lon="13.962879871572019"><ele>40.0</ele><time>2026-04-09T10:15:30.001Z</time></trkpt><trkpt lat="38.02627653006226" lon="13.9631021879749"><ele>40.0</ele><time>2026-04-09T10:15:31.001Z</time></trkpt><trkpt lat="38.02626784029625" lon="13.963331057324774"><ele>40.0</ele><time>2026-04-09T10:15:32.001Z</time></trkpt><trkpt lat="38.02625487722995" lon="13.963554141115564"><ele>39.66666666666667</ele><time>2026-04-09T10:15:33.001Z</time></trkpt><trkpt lat="38.02623842977486" lon="13.963766812106238"><ele>39.333333333333336</ele><time>2026-04-09T10:15:34.001Z</time></trkpt><trkpt lat="38.026216493368636" lon="13.963964543237264"><ele>39.0</ele><time>2026-04-09T10:15:35.001Z</time></trkpt><trkpt lat="38.02619934666933" lon="13.96417212329532"><ele>39.0</ele><time>2026-04-09T10:15:36.001Z</time></trkpt><trkpt lat="38.02618546828543" lon="13.964388537645346"><ele>39.0</ele><time>2026-04-09T10:15:37.001Z</time></trkpt><trkpt lat="38.02617431693107" lon="13.96460447305615"><ele>39.0</ele><time>2026-04-09T10:15:38.001Z</time></trkpt><trkpt lat="38.02615290773655" lon="13.964808098384655"><ele>39.0</ele><time>2026-04-09T10:15:39.001Z</time></trkpt><trkpt lat="38.02613818621091" lon="13.965006221730246"><ele>39.0</ele><time>2026-04-09T10:15:40.001Z</time></trkpt><trkpt lat="38.02612394271973" lon="13.96520355225177"><ele>39.0</ele><time>2026-04-09T10:15:41.001Z</time></trkpt><trkpt lat="38.026115406040795" lon="13.9654117414365"><ele>39.0</ele><time>2026-04-09T10:15:42.001Z</time></trkpt><trkpt lat="38.026109814375914" lon="13.965626116916155"><ele>39.0</ele><time>2026-04-09T10:15:43.001Z</time></trkpt><trkpt lat="38.026111764929446" lon="13.965857706196884"><ele>39.0</ele><time>2026-04-09T10:15:44.001Z</time></trkpt><trkpt lat="38.02612666916614" lon="13.966117202424478"><ele>39.0</ele><time>2026-04-09T10:15:45.001Z</time></trkpt><trkpt lat="38.026146313577264" lon="13.96640901469613"><ele>39.0</ele><time>2026-04-09T10:15:46Z</time></trkpt><trkpt lat="38.02616530743442" lon="13.966711979532086"><ele>39.0</ele><time>2026-04-09T10:15:47Z</time></trkpt><trkpt lat="38.026180242316684" lon="13.967040470802587"><ele>39.0</ele><time>2026-04-09T10:15:48Z</time></trkpt><trkpt lat="38.02619074406176" lon="13.967397764469293"><ele>40.0</ele><time>2026-04-09T10:15:49Z</time></trkpt><trkpt lat="38.026211772452044" lon="13.967744932857126"><ele>41.0</ele><time>2026-04-09T10:15:50Z</time></trkpt><trkpt lat="38.02623434873297" lon="13.96807150829479"><ele>42.0</ele><time>2026-04-09T10:15:51Z</time></trkpt><trkpt lat="38.0262604203501" lon="13.968392120668945"><ele>43.0</ele><time>2026-04-09T10:15:52Z</time></trkpt><trkpt lat="38.02628323391281" lon="13.968688833725704"><ele>43.0</ele><time>2026-04-09T10:15:53Z</time></trkpt><trkpt lat="38.02630790994257" lon="13.968976543176966"><ele>43.0</ele><time>2026-04-09T10:15:54Z</time></trkpt><trkpt lat="38.02632693790581" lon="13.969248677376735"><ele>43.0</ele><time>2026-04-09T10:15:55Z</time></trkpt><trkpt lat="38.02634308409826" lon="13.969522260688539"><ele>43.0</ele><time>2026-04-09T10:15:56Z</time></trkpt><trkpt lat="38.02635930067075" lon="13.969795360200745"><ele>43.0</ele><time>2026-04-09T10:15:57Z</time></trkpt><trkpt lat="38.02637745865725" lon="13.970064563366034"><ele>43.0</ele><time>2026-04-09T10:15:58Z</time></trkpt><trkpt lat="38.02639272694171" lon="13.970332315297215"><ele>43.0</ele><time>2026-04-09T10:15:59Z</time></trkpt><trkpt lat="38.02641200872338" lon="13.970590552710346"><ele>43.0</ele><time>2026-04-09T10:16:00Z</time></trkpt><trkpt lat="38.026431740395395" lon="13.970826037723947"><ele>43.0</ele><time>2026-04-09T10:16:01Z</time></trkpt><trkpt lat="38.02644957825074" lon="13.971042718288519"><ele>44.0</ele><time>2026-04-09T10:16:02Z</time></trkpt><trkpt lat="38.02646397133888" lon="13.97126060466467"><ele>45.0</ele><time>2026-04-09T10:16:03Z</time></trkpt><trkpt lat="38.02647491693019" lon="13.971467879861821"><ele>46.0</ele><time>2026-04-09T10:16:04Z</time></trkpt><trkpt lat="38.02648226467637" lon="13.971665812785888"><ele>47.25</ele><time>2026-04-09T10:16:05Z</time></trkpt><trkpt lat="38.02649468505212" lon="13.971848322821858"><ele>48.5</ele><time>2026-04-09T10:16:06Z</time></trkpt><trkpt lat="38.026500578498286" lon="13.972029766471772"><ele>49.75</ele><time>2026-04-09T10:16:07Z</time></trkpt><trkpt lat="38.026509860356256" lon="13.97220984037043"><ele>51.0</ele><time>2026-04-09T10:16:08Z</time></trkpt><trkpt lat="38.026512703237515" lon="13.97239991788597"><ele>51.0</ele><time>2026-04-09T10:16:09Z</time></trkpt><trkpt lat="38.02651208643287" lon="13.972591087068034"><ele>51.0</ele><time>2026-04-09T10:16:10Z</time></trkpt><trkpt lat="38.02650430819978" lon="13.972780025282985"><ele>51.0</ele><time>2026-04-09T10:16:11Z</time></trkpt><trkpt lat="38.02649472751691" lon="13.972971047294916"><ele>51.0</ele><time>2026-04-09T10:16:12Z</time></trkpt><trkpt lat="38.02647179938581" lon="13.9731515742364"><ele>51.0</ele><time>2026-04-09T10:16:13Z</time></trkpt><trkpt lat="38.026440816757024" lon="13.973333935314912"><ele>51.0</ele><time>2026-04-09T10:16:14Z</time></trkpt><trkpt lat="38.0264051836288" lon="13.973520406456613"><ele>51.0</ele><time>2026-04-09T10:16:15Z</time></trkpt><trkpt lat="38.02636425903769" lon="13.973710642609484"><ele>49.666666666666664</ele><time>2026-04-09T10:16:16Z</time></trkpt><trkpt lat="38.02631832556384" lon="13.97390168152073"><ele>48.33333333333333</ele><time>2026-04-09T10:16:17Z</time></trkpt><trkpt lat="38.026270193623375" lon="13.97408891203875"><ele>47.0</ele><time>2026-04-09T10:16:18Z</time></trkpt><trkpt lat="38.02622144487276" lon="13.974287200288938"><ele>46.33333333333333</ele><time>2026-04-09T10:16:19Z</time></trkpt><trkpt lat="38.026174942087195" lon="13.97450063239328"><ele>45.666666666666664</ele><time>2026-04-09T10:16:20Z</time></trkpt><trkpt lat="38.026122557922285" lon="13.974726725289713"><ele>45.0</ele><time>2026-04-09T10:16:21Z</time></trkpt><trkpt lat="38.02606256732416" lon="13.974962867840723"><ele>44.333333333333336</ele><time>2026-04-09T10:16:22Z</time></trkpt><trkpt lat="38.02600279408979" lon="13.975196171651193"><ele>43.66666666666667</ele><time>2026-04-09T10:16:23Z</time></trkpt><trkpt lat="38.02593879946199" lon="13.975432276362119"><ele>43.0</ele><time>2026-04-09T10:16:24Z</time></trkpt><trkpt lat="38.02587536584641" lon="13.975672283375502"><ele>45.66666666666667</ele><time>2026-04-09T10:16:25Z</time></trkpt><trkpt lat="38.02580598513685" lon="13.975919899738898"><ele>48.333333333333336</ele><time>2026-04-09T10:16:26Z</time></trkpt><trkpt lat="38.02574690218172" lon="13.976163623261442"><ele>51.0</ele><time>2026-04-09T10:16:27Z</time></trkpt><trkpt lat="38.0256965391588" lon="13.976397941848354"><ele>51.0</ele><time>2026-04-09T10:16:28Z</time></trkpt><trkpt lat="38.02564811597574" lon="13.976627992100068"><ele>51.0</ele><time>2026-04-09T10:16:29Z</time></trkpt><trkpt lat="38.0256020598402" lon="13.976865311336553"><ele>51.0</ele><time>2026-04-09T10:16:30Z</time></trkpt><trkpt lat="38.025571789123646" lon="13.977104825216065"><ele>50.66666666666667</ele><time>2026-04-09T10:16:31Z</time></trkpt><trkpt lat="38.02555146578919" lon="13.97734279747107"><ele>50.333333333333336</ele><time>2026-04-09T10:16:32Z</time></trkpt><trkpt lat="38.025543444978325" lon="13.977569184508672"><ele>50.0</ele><time>2026-04-09T10:16:33Z</time></trkpt><trkpt lat="38.02554409681637" lon="13.977804397948406"><ele>50.333333333333336</ele><time>2026-04-09T10:16:34Z</time></trkpt><trkpt lat="38.025554936871735" lon="13.978034728808494"><ele>50.66666666666667</ele><time>2026-04-09T10:16:35Z</time></trkpt><trkpt lat="38.02556807913137" lon="13.978258525772732"><ele>51.0</ele><time>2026-04-09T10:16:36Z</time></trkpt><trkpt lat="38.025584758741886" lon="13.978476177364639"><ele>51.0</ele><time>2026-04-09T10:16:37Z</time></trkpt><trkpt lat="38.025609021433155" lon="13.978687106180281"><ele>51.0</ele><time>2026-04-09T10:16:38Z</time></trkpt><trkpt lat="38.02564269503379" lon="13.978891440894671"><ele>51.0</ele><time>2026-04-09T10:16:39Z</time></trkpt><trkpt lat="38.025680661254796" lon="13.979089479250712"><ele>52.75</ele><time>2026-04-09T10:16:40Z</time></trkpt><trkpt lat="38.02571648354454" lon="13.979273272859656"><ele>54.5</ele><time>2026-04-09T10:16:41Z</time></trkpt><trkpt lat="38.025744854014455" lon="13.979458571962567"><ele>56.25</ele><time>2026-04-09T10:16:42Z</time></trkpt><trkpt lat="38.02577234932273" lon="13.979632880232245"><ele>58.0</ele><time>2026-04-09T10:16:43Z</time></trkpt><trkpt lat="38.02579751164949" lon="13.979796200693388"><ele>54.5</ele><time>2026-04-09T10:16:44Z</time></trkpt><trkpt lat="38.02582593429234" lon="13.979956095239174"><ele>51.0</ele><time>2026-04-09T10:16:45Z</time></trkpt><trkpt lat="38.02585288423054" lon="13.980114867370862"><ele>47.5</ele><time>2026-04-09T10:16:46Z</time></trkpt><trkpt lat="38.02588196607007" lon="13.980271302405816"><ele>44.0</ele><time>2026-04-09T10:16:47Z</time></trkpt><trkpt lat="38.02591255928012" lon="13.980432475926174"><ele>44.0</ele><time>2026-04-09T10:16:48Z</time></trkpt><trkpt lat="38.02593768775245" lon="13.9805954024203"><ele>44.0</ele><time>2026-04-09T10:16:49Z</time></trkpt><trkpt lat="38.02596884921393" lon="13.980751038987963"><ele>44.0</ele><time>2026-04-09T10:16:50Z</time></trkpt><trkpt lat="38.02599524820283" lon="13.980909599811453"><ele>44.0</ele><time>2026-04-09T10:16:51Z</time></trkpt><trkpt lat="38.02602373274577" lon="13.981068501871759"><ele>45.0</ele><time>2026-04-09T10:16:52Z</time></trkpt><trkpt lat="38.02605148788491" lon="13.981237010508528"><ele>46.0</ele><time>2026-04-09T10:16:53Z</time></trkpt><trkpt lat="38.026078468392384" lon="13.981405445241364"><ele>47.0</ele><time>2026-04-09T10:16:54Z</time></trkpt><trkpt lat="38.02611002900286" lon="13.981576624514732"><ele>48.0</ele><time>2026-04-09T10:16:55Z</time></trkpt><trkpt lat="38.02613869779212" lon="13.981747194705143"><ele>48.0</ele><time>2026-04-09T10:16:56Z</time></trkpt><trkpt lat="38.026166604653575" lon="13.98191589918876"><ele>48.0</ele><time>2026-04-09T10:16:57Z</time></trkpt><trkpt lat="38.02619126794306" lon="13.982075165995544"><ele>48.0</ele><time>2026-04-09T10:16:58Z</time></trkpt><trkpt lat="38.02621914348182" lon="13.982234057609304"><ele>48.0</ele><time>2026-04-09T10:16:59Z</time></trkpt><trkpt lat="38.026251311848256" lon="13.982396149982515"><ele>48.25</ele><time>2026-04-09T10:17:00Z</time></trkpt><trkpt lat="38.02628250920324" lon="13.98256550697904"><ele>48.5</ele><time>2026-04-09T10:17:01Z</time></trkpt><trkpt lat="38.02631036323122" lon="13.982725283016721"><ele>48.75</ele><time>2026-04-09T10:17:02Z</time></trkpt><trkpt lat="38.026336034943434" lon="13.98288494406366"><ele>49.0</ele><time>2026-04-09T10:17:03.001Z</time></trkpt><trkpt lat="38.02636160789918" lon="13.983042763127981"><ele>49.0</ele><time>2026-04-09T10:17:04.001Z</time></trkpt><trkpt lat="38.02638844010921" lon="13.983199484761439"><ele>49.0</ele><time>2026-04-09T10:17:05.001Z</time></trkpt><trkpt lat="38.02641385319074" lon="13.983351267120177"><ele>49.0</ele><time>2026-04-09T10:17:06.001Z</time></trkpt><trkpt lat="38.02643723160569" lon="13.983498346977571"><ele>49.0</ele><time>2026-04-09T10:17:07.001Z</time></trkpt><trkpt lat="38.0264629978268" lon="13.98365152282974"><ele>49.0</ele><time>2026-04-09T10:17:08.001Z</time></trkpt><trkpt lat="38.02648944665228" lon="13.983809774146273"><ele>49.0</ele><time>2026-04-09T10:17:09.001Z</time></trkpt><trkpt lat="38.02651735018405" lon="13.98397070853239"><ele>49.0</ele><time>2026-04-09T10:17:10.001Z</time></trkpt><trkpt lat="38.02654447707927" lon="13.984126732000917"><ele>49.0</ele><time>2026-04-09T10:17:11.001Z</time></trkpt><trkpt lat="38.02657067571084" lon="13.984277747062569"><ele>49.25</ele><time>2026-04-09T10:17:12.001Z</time></trkpt><trkpt lat="38.02659314111018" lon="13.984426448758763"><ele>49.5</ele><time>2026-04-09T10:17:13.001Z</time></trkpt><trkpt lat="38.02661772713236" lon="13.9845799690637"><ele>49.75</ele><time>2026-04-09T10:17:14.001Z</time></trkpt><trkpt lat="38.02664508847465" lon="13.984739316701127"><ele>50.0</ele><time>2026-04-09T10:17:15.001Z</time></trkpt><trkpt lat="38.02667771884245" lon="13.9849019915692"><ele>49.5</ele><time>2026-04-09T10:17:16.001Z</time></trkpt><trkpt lat="38.02670360034131" lon="13.98507623515578"><ele>49.0</ele><time>2026-04-09T10:17:17.001Z</time></trkpt><trkpt lat="38.02673626639421" lon="13.985247129802127"><ele>48.5</ele><time>2026-04-09T10:17:18.001Z</time></trkpt><trkpt lat="38.02675857855061" lon="13.985424607251256"><ele>48.0</ele><time>2026-04-09T10:17:19.001Z</time></trkpt><trkpt lat="38.026784775118976" lon="13.985585690144495"><ele>48.0</ele><time>2026-04-09T10:17:20.001Z</time></trkpt><trkpt lat="38.02681471849801" lon="13.985754496123226"><ele>48.0</ele><time>2026-04-09T10:17:21.001Z</time></trkpt><trkpt lat="38.026845993636336" lon="13.985926708127534"><ele>48.0</ele><time>2026-04-09T10:17:22.001Z</time></trkpt><trkpt lat="38.02687440135712" lon="13.986106611862088"><ele>48.0</ele><time>2026-04-09T10:17:23.001Z</time></trkpt><trkpt lat="38.026901779359676" lon="13.986285220014986"><ele>48.75</ele><time>2026-04-09T10:17:24.001Z</time></trkpt><trkpt lat="38.02693321085344" lon="13.98645696915185"><ele>49.5</ele><time>2026-04-09T10:17:25.001Z</time></trkpt><trkpt lat="38.02696101336388" lon="13.986611752900032"><ele>50.25</ele><time>2026-04-09T10:17:26.001Z</time></trkpt><trkpt lat="38.02698754768675" lon="13.986760206776218"><ele>51.0</ele><time>2026-04-09T10:17:27.001Z</time></trkpt><trkpt lat="38.02701690161722" lon="13.98690864490975"><ele>52.25</ele><time>2026-04-09T10:17:28.001Z</time></trkpt><trkpt lat="38.0270464530122" lon="13.987050400313084"><ele>53.5</ele><time>2026-04-09T10:17:29.001Z</time></trkpt><trkpt lat="38.02707009295353" lon="13.987199534415529"><ele>54.75</ele><time>2026-04-09T10:17:30.001Z</time></trkpt><trkpt lat="38.02709918691246" lon="13.987348206571113"><ele>56.0</ele><time>2026-04-09T10:17:31.001Z</time></trkpt><trkpt lat="38.027135217340124" lon="13.987501463194757"><ele>58.25</ele><time>2026-04-09T10:17:32.001Z</time></trkpt><trkpt lat="38.027187790734295" lon="13.987638163313855"><ele>60.5</ele><time>2026-04-09T10:17:33.001Z</time></trkpt><trkpt lat="38.02725220372964" lon="13.987767683355877"><ele>62.75</ele><time>2026-04-09T10:17:34.001Z</time></trkpt><trkpt lat="38.027322402742435" lon="13.987882844591711"><ele>65.0</ele><time>2026-04-09T10:17:35.001Z</time></trkpt><trkpt lat="38.02739865950257" lon="13.987992061651985"><ele>65.75</ele><time>2026-04-09T10:17:36.001Z</time></trkpt><trkpt lat="38.02754121079679" lon="13.98819434725008"><ele>66.5</ele><time>2026-04-09T10:17:38.001Z</time></trkpt><trkpt lat="38.027606658854886" lon="13.988294258217215"><ele>67.25</ele><time>2026-04-09T10:17:39.001Z</time></trkpt><trkpt lat="38.02767480954456" lon="13.988392678927006"><ele>68.0</ele><time>2026-04-09T10:17:40.001Z</time></trkpt><trkpt lat="38.02773525111784" lon="13.988494833959855"><ele>68.0</ele><time>2026-04-09T10:17:41.001Z</time></trkpt><trkpt lat="38.02779399109195" lon="13.98859307323633"><ele>68.0</ele><time>2026-04-09T10:17:42.001Z</time></trkpt><trkpt lat="38.027850706243946" lon="13.988685347773028"><ele>68.0</ele><time>2026-04-09T10:17:43.001Z</time></trkpt><trkpt lat="38.02790330250097" lon="13.988772672888036"><ele>68.0</ele><time>2026-04-09T10:17:44.001Z</time></trkpt><trkpt lat="38.02793787400163" lon="13.988862406127677"><ele>68.0</ele><time>2026-04-09T10:17:45.001Z</time></trkpt><trkpt lat="38.02798732570815" lon="13.989002153166355"><ele>68.0</ele><time>2026-04-09T10:17:47.001Z</time></trkpt><trkpt lat="38.02803430917721" lon="13.989144478379368"><ele>68.0</ele><time>2026-04-09T10:17:49.001Z</time></trkpt><trkpt lat="38.02808776087044" lon="13.98929319460108"><ele>68.0</ele><time>2026-04-09T10:17:51.001Z</time></trkpt><trkpt lat="38.02811627991289" lon="13.989382103378006"><ele>68.0</ele><time>2026-04-09T10:17:52Z</time></trkpt><trkpt lat="38.02814897992206" lon="13.98948282677011"><ele>68.0</ele><time>2026-04-09T10:17:53Z</time></trkpt><trkpt lat="38.028175231542306" lon="13.989592753187702"><ele>69.0</ele><time>2026-04-09T10:17:54Z</time></trkpt><trkpt lat="38.02819266456391" lon="13.989716768592322"><ele>70.0</ele><time>2026-04-09T10:17:55Z</time></trkpt><trkpt lat="38.028200468054244" lon="13.989847017843973"><ele>71.0</ele><time>2026-04-09T10:17:56Z</time></trkpt><trkpt lat="38.02821185941992" lon="13.989966904407973"><ele>72.0</ele><time>2026-04-09T10:17:57Z</time></trkpt><trkpt lat="38.028222529141324" lon="13.990089513790151"><ele>73.0</ele><time>2026-04-09T10:17:58Z</time></trkpt><trkpt lat="38.02823054693032" lon="13.990210331261558"><ele>74.4</ele><time>2026-04-09T10:17:59Z</time></trkpt><trkpt lat="38.0282407096018" lon="13.990335157713071"><ele>75.8</ele><time>2026-04-09T10:18:00Z</time></trkpt><trkpt lat="38.028263246900075" lon="13.99045560450802"><ele>77.2</ele><time>2026-04-09T10:18:01Z</time></trkpt><trkpt lat="38.0283071894981" lon="13.990569075510294"><ele>78.6</ele><time>2026-04-09T10:18:02Z</time></trkpt><trkpt lat="38.02836879669971" lon="13.990665865557851"><ele>80.0</ele><time>2026-04-09T10:18:03Z</time></trkpt><trkpt lat="38.02844818991811" lon="13.990749425004381"><ele>77.8</ele><time>2026-04-09T10:18:04Z</time></trkpt><trkpt lat="38.02853883487889" lon="13.990810992471083"><ele>75.6</ele><time>2026-04-09T10:18:05Z</time></trkpt><trkpt lat="38.02863003343246" lon="13.990868662015977"><ele>73.4</ele><time>2026-04-09T10:18:06Z</time></trkpt><trkpt lat="38.02872228092786" lon="13.990927535078535"><ele>71.2</ele><time>2026-04-09T10:18:07Z</time></trkpt><trkpt lat="38.028812428420736" lon="13.991003701061501"><ele>69.0</ele><time>2026-04-09T10:18:08Z</time></trkpt><trkpt lat="38.028893334041776" lon="13.991093460403771"><ele>69.0</ele><time>2026-04-09T10:18:09Z</time></trkpt><trkpt lat="38.028965648865416" lon="13.991194257346532"><ele>69.0</ele><time>2026-04-09T10:18:10Z</time></trkpt><trkpt lat="38.029033299306036" lon="13.991290609478344"><ele>69.0</ele><time>2026-04-09T10:18:11Z</time></trkpt><trkpt lat="38.02909868259765" lon="13.991393287101873"><ele>69.0</ele><time>2026-04-09T10:18:12Z</time></trkpt><trkpt lat="38.02915149790596" lon="13.991495009738681"><ele>69.0</ele><time>2026-04-09T10:18:13Z</time></trkpt><trkpt lat="38.02920259055994" lon="13.991604384874147"><ele>65.8</ele><time>2026-04-09T10:18:14Z</time></trkpt><trkpt lat="38.02923897872742" lon="13.99172382276175"><ele>62.60000000000001</ele><time>2026-04-09T10:18:15Z</time></trkpt><trkpt lat="38.029260580075196" lon="13.991850331036629"><ele>59.4</ele><time>2026-04-09T10:18:16Z</time></trkpt><trkpt lat="38.02926413167113" lon="13.991984021231273"><ele>56.2</ele><time>2026-04-09T10:18:17Z</time></trkpt><trkpt lat="38.02925222104378" lon="13.992118014325381"><ele>53.0</ele><time>2026-04-09T10:18:18Z</time></trkpt><trkpt lat="38.02923107031062" lon="13.992245694572457"><ele>53.0</ele><time>2026-04-09T10:18:19Z</time></trkpt><trkpt lat="38.029201421920966" lon="13.992375619198208"><ele>53.0</ele><time>2026-04-09T10:18:20Z</time></trkpt><trkpt lat="38.02916998217555" lon="13.99250140197263"><ele>53.0</ele><time>2026-04-09T10:18:21Z</time></trkpt><trkpt lat="38.02913616340426" lon="13.99262318880886"><ele>53.0</ele><time>2026-04-09T10:18:22Z</time></trkpt><trkpt lat="38.029101176355525" lon="13.992747372197616"><ele>53.0</ele><time>2026-04-09T10:18:23Z</time></trkpt><trkpt lat="38.02906874462566" lon="13.992870879188533"><ele>55.0</ele><time>2026-04-09T10:18:24Z</time></trkpt><trkpt lat="38.02903368555021" lon="13.992988632760914"><ele>57.0</ele><time>2026-04-09T10:18:25Z</time></trkpt><trkpt lat="38.0289970478804" lon="13.993101539228102"><ele>59.0</ele><time>2026-04-09T10:18:26Z</time></trkpt><trkpt lat="38.02896134341213" lon="13.993216797902331"><ele>61.0</ele><time>2026-04-09T10:18:27Z</time></trkpt><trkpt lat="38.028926982503684" lon="13.993329753594823"><ele>63.0</ele><time>2026-04-09T10:18:28Z</time></trkpt><trkpt lat="38.02889992719231" lon="13.993433520015216"><ele>63.2</ele><time>2026-04-09T10:18:29Z</time></trkpt><trkpt lat="38.02889144233976" lon="13.993549578634775"><ele>63.4</ele><time>2026-04-09T10:18:30Z</time></trkpt><trkpt lat="38.02890237228504" lon="13.993665341970067"><ele>63.60000000000001</ele><time>2026-04-09T10:18:31Z</time></trkpt><trkpt lat="38.02893537871364" lon="13.993775005051162"><ele>63.800000000000004</ele><time>2026-04-09T10:18:32Z</time></trkpt><trkpt lat="38.02897078862574" lon="13.993883641534262"><ele>64.0</ele><time>2026-04-09T10:18:33Z</time></trkpt><trkpt lat="38.02900911313001" lon="13.99398606602724"><ele>64.0</ele><time>2026-04-09T10:18:34Z</time></trkpt><trkpt lat="38.02904325311228" lon="13.994074942345343"><ele>63.99999999999999</ele><time>2026-04-09T10:18:35Z</time></trkpt><trkpt lat="38.02907353449764" lon="13.994156782193917"><ele>64.0</ele><time>2026-04-09T10:18:36Z</time></trkpt><trkpt lat="38.02910254164582" lon="13.994229534907761"><ele>64.0</ele><time>2026-04-09T10:18:37Z</time></trkpt><trkpt lat="38.029126472817495" lon="13.994312216971345"><ele>63.99999999999999</ele><time>2026-04-09T10:18:38Z</time></trkpt><trkpt lat="38.029156721316085" lon="13.994394818370614"><ele>64.0</ele><time>2026-04-09T10:18:39Z</time></trkpt><trkpt lat="38.0291864830587" lon="13.994479560393545"><ele>64.0</ele><time>2026-04-09T10:18:40Z</time></trkpt><trkpt lat="38.02921919073003" lon="13.994568221353097"><ele>61.800000000000004</ele><time>2026-04-09T10:18:41Z</time></trkpt><trkpt lat="38.02925672176527" lon="13.994674592534771"><ele>59.60000000000001</ele><time>2026-04-09T10:18:42Z</time></trkpt><trkpt lat="38.02929281756647" lon="13.994788453092289"><ele>57.4</ele><time>2026-04-09T10:18:43Z</time></trkpt><trkpt lat="38.02933113301968" lon="13.994896624126213"><ele>55.2</ele><time>2026-04-09T10:18:44Z</time></trkpt><trkpt lat="38.029368021274415" lon="13.994996710214302"><ele>53.0</ele><time>2026-04-09T10:18:45Z</time></trkpt><trkpt lat="38.02940122953844" lon="13.995098110103633"><ele>53.00000000000001</ele><time>2026-04-09T10:18:46Z</time></trkpt><trkpt lat="38.0294398271523" lon="13.995192705350753"><ele>53.0</ele><time>2026-04-09T10:18:47Z</time></trkpt><trkpt lat="38.029477638100396" lon="13.995297005985954"><ele>53.0</ele><time>2026-04-09T10:18:48Z</time></trkpt><trkpt lat="38.02950880108665" lon="13.995389593848907"><ele>53.0</ele><time>2026-04-09T10:18:49.001Z</time></trkpt><trkpt lat="38.02954553217248" lon="13.995482689093427"><ele>53.00000000000001</ele><time>2026-04-09T10:18:50.001Z</time></trkpt><trkpt lat="38.02958262717777" lon="13.995571989613977"><ele>53.0</ele><time>2026-04-09T10:18:51.001Z</time></trkpt><trkpt lat="38.02962226805752" lon="13.995656887705193"><ele>53.00000000000001</ele><time>2026-04-09T10:18:52.001Z</time></trkpt><trkpt lat="38.02966160750865" lon="13.9957431012084"><ele>53.0</ele><time>2026-04-09T10:18:53.001Z</time></trkpt><trkpt lat="38.02970217948062" lon="13.995832269247002"><ele>53.0</ele><time>2026-04-09T10:18:54.001Z</time></trkpt><trkpt lat="38.02975065539771" lon="13.995924038769237"><ele>53.0</ele><time>2026-04-09T10:18:55.001Z</time></trkpt><trkpt lat="38.02979594388893" lon="13.996021633666352"><ele>53.00000000000001</ele><time>2026-04-09T10:18:56.001Z</time></trkpt><trkpt lat="38.02984819985083" lon="13.99612126089149"><ele>53.0</ele><time>2026-04-09T10:18:57.001Z</time></trkpt><trkpt lat="38.02990224414267" lon="13.996219298429041"><ele>53.599999999999994</ele><time>2026-04-09T10:18:58.001Z</time></trkpt><trkpt lat="38.02995094666532" lon="13.996331199903716"><ele>54.199999999999996</ele><time>2026-04-09T10:18:59.001Z</time></trkpt><trkpt lat="38.030000863762375" lon="13.996436347403097"><ele>54.8</ele><time>2026-04-09T10:19:00.001Z</time></trkpt><trkpt lat="38.03004928573125" lon="13.996534327825717"><ele>55.4</ele><time>2026-04-09T10:19:01.001Z</time></trkpt><trkpt lat="38.03009193507717" lon="13.996634261932579"><ele>56.0</ele><time>2026-04-09T10:19:02.001Z</time></trkpt><trkpt lat="38.03013731896758" lon="13.996729366253723"><ele>53.599999999999994</ele><time>2026-04-09T10:19:03.001Z</time></trkpt><trkpt lat="38.03018455363943" lon="13.996818869313469"><ele>51.199999999999996</ele><time>2026-04-09T10:19:04.001Z</time></trkpt><trkpt lat="38.03023103189893" lon="13.996918787592465"><ele>48.8</ele><time>2026-04-09T10:19:05.001Z</time></trkpt><trkpt lat="38.030281952185604" lon="13.997027961068179"><ele>46.400000000000006</ele><time>2026-04-09T10:19:06.001Z</time></trkpt><trkpt lat="38.03033477690437" lon="13.997136942872388"><ele>44.0</ele><time>2026-04-09T10:19:07.001Z</time></trkpt><trkpt lat="38.03038492243845" lon="13.997245355655732"><ele>44.0</ele><time>2026-04-09T10:19:08.001Z</time></trkpt><trkpt lat="38.03043044657216" lon="13.997347894597759"><ele>44.0</ele><time>2026-04-09T10:19:09.001Z</time></trkpt><trkpt lat="38.030479862629086" lon="13.997456062806796"><ele>44.0</ele><time>2026-04-09T10:19:10.001Z</time></trkpt><trkpt lat="38.03052816167772" lon="13.997565851185163"><ele>44.0</ele><time>2026-04-09T10:19:11.001Z</time></trkpt><trkpt lat="38.03057020003945" lon="13.997672049339613"><ele>44.0</ele><time>2026-04-09T10:19:12.001Z</time></trkpt><trkpt lat="38.03060214878581" lon="13.997775349106607"><ele>43.800000000000004</ele><time>2026-04-09T10:19:13.001Z</time></trkpt><trkpt lat="38.03062517547238" lon="13.997885137052783"><ele>43.6</ele><time>2026-04-09T10:19:14.001Z</time></trkpt><trkpt lat="38.030646541300094" lon="13.998004047813797"><ele>43.4</ele><time>2026-04-09T10:19:15.001Z</time></trkpt><trkpt lat="38.03065908230149" lon="13.998130316567366"><ele>43.2</ele><time>2026-04-09T10:19:16.001Z</time></trkpt><trkpt lat="38.03066536083531" lon="13.998260975710311"><ele>43.0</ele><time>2026-04-09T10:19:17.001Z</time></trkpt><trkpt lat="38.03066830291895" lon="13.998387352377065"><ele>43.5</ele><time>2026-04-09T10:19:18.001Z</time></trkpt><trkpt lat="38.03067242568412" lon="13.998503465585369"><ele>44.0</ele><time>2026-04-09T10:19:19.001Z</time></trkpt><trkpt lat="38.03067523504152" lon="13.998607698879601"><ele>44.5</ele><time>2026-04-09T10:19:20.001Z</time></trkpt><trkpt lat="38.03067966439301" lon="13.998715851762526"><ele>45.0</ele><time>2026-04-09T10:19:21.001Z</time></trkpt><trkpt lat="38.03068632869186" lon="13.998816686751319"><ele>45.5</ele><time>2026-04-09T10:19:22.001Z</time></trkpt><trkpt lat="38.03069138545125" lon="13.998903277364981"><ele>46.0</ele><time>2026-04-09T10:19:23.001Z</time></trkpt><trkpt lat="38.030698773445145" lon="13.999034995747852"><ele>46.0</ele><time>2026-04-09T10:19:25.001Z</time></trkpt><trkpt lat="38.03069985646077" lon="13.99914157252417"><ele>46.0</ele><time>2026-04-09T10:19:27.001Z</time></trkpt><trkpt lat="38.03070586962346" lon="13.999264801924495"><ele>46.0</ele><time>2026-04-09T10:19:29.001Z</time></trkpt><trkpt lat="38.0307110488687" lon="13.999384025922746"><ele>46.0</ele><time>2026-04-09T10:19:31.001Z</time></trkpt><trkpt lat="38.03071893650904" lon="13.999520026394265"><ele>46.0</ele><time>2026-04-09T10:19:33.001Z</time></trkpt><trkpt lat="38.03071971965422" lon="13.999655396281074"><ele>46.16666666666667</ele><time>2026-04-09T10:19:35.001Z</time></trkpt><trkpt lat="38.03072882314902" lon="13.999814601359082"><ele>46.333333333333336</ele><time>2026-04-09T10:19:37.001Z</time></trkpt><trkpt lat="38.030738025070775" lon="13.99989401220117"><ele>46.5</ele><time>2026-04-09T10:19:38.001Z</time></trkpt><trkpt lat="38.03074465338414" lon="13.999981244195634"><ele>46.666666666666664</ele><time>2026-04-09T10:19:39.001Z</time></trkpt><trkpt lat="38.03074906855392" lon="14.000074942662305"><ele>46.83333333333333</ele><time>2026-04-09T10:19:40.001Z</time></trkpt><trkpt lat="38.03075202450881" lon="14.000174413360241"><ele>47.0</ele><time>2026-04-09T10:19:41.001Z</time></trkpt><trkpt lat="38.03075528726333" lon="14.000275341743514"><ele>47.0</ele><time>2026-04-09T10:19:42.001Z</time></trkpt><trkpt lat="38.0307609923933" lon="14.000374261038155"><ele>47.0</ele><time>2026-04-09T10:19:43.001Z</time></trkpt><trkpt lat="38.030766413114314" lon="14.000472066712534"><ele>47.0</ele><time>2026-04-09T10:19:44.001Z</time></trkpt><trkpt lat="38.03077167594299" lon="14.000564000421592"><ele>47.0</ele><time>2026-04-09T10:19:45.001Z</time></trkpt><trkpt lat="38.030780143366385" lon="14.000649904413146"><ele>47.0</ele><time>2026-04-09T10:19:46.001Z</time></trkpt><trkpt lat="38.03078436269823" lon="14.000744775067513"><ele>47.0</ele><time>2026-04-09T10:19:47.001Z</time></trkpt><trkpt lat="38.03078704976673" lon="14.000830991825785"><ele>47.0</ele><time>2026-04-09T10:19:48.001Z</time></trkpt><trkpt lat="38.03078057940177" lon="14.000985249782959"><ele>47.6</ele><time>2026-04-09T10:19:50.001Z</time></trkpt><trkpt lat="38.03069615366945" lon="14.00110106383942"><ele>48.2</ele><time>2026-04-09T10:19:52.001Z</time></trkpt><trkpt lat="38.03062646252459" lon="14.001136081289198"><ele>48.8</ele><time>2026-04-09T10:19:53.001Z</time></trkpt><trkpt lat="38.03054955891483" lon="14.001168557919298"><ele>49.4</ele><time>2026-04-09T10:19:54.001Z</time></trkpt><trkpt lat="38.03046979342243" lon="14.001213614550753"><ele>50.0</ele><time>2026-04-09T10:19:55.001Z</time></trkpt><trkpt lat="38.03039002310022" lon="14.001275266317867"><ele>50.0</ele><time>2026-04-09T10:19:56.001Z</time></trkpt><trkpt lat="38.030316195914374" lon="14.001367646261736"><ele>50.0</ele><time>2026-04-09T10:19:57.001Z</time></trkpt><trkpt lat="38.03025771765806" lon="14.001475755182556"><ele>50.0</ele><time>2026-04-09T10:19:58Z</time></trkpt><trkpt lat="38.03020020277994" lon="14.001578447498432"><ele>50.0</ele><time>2026-04-09T10:19:59Z</time></trkpt><trkpt lat="38.03012881912122" lon="14.00167398717794"><ele>50.0</ele><time>2026-04-09T10:20:00Z</time></trkpt><trkpt lat="38.03005266108998" lon="14.001758580314723"><ele>50.2</ele><time>2026-04-09T10:20:01Z</time></trkpt><trkpt lat="38.029981141960064" lon="14.001837637448137"><ele>50.4</ele><time>2026-04-09T10:20:02Z</time></trkpt><trkpt lat="38.029911708718345" lon="14.00191647848707"><ele>50.599999999999994</ele><time>2026-04-09T10:20:03Z</time></trkpt><trkpt lat="38.029852216207885" lon="14.00200657696636"><ele>50.8</ele><time>2026-04-09T10:20:04Z</time></trkpt><trkpt lat="38.02980490345365" lon="14.002113078592075"><ele>51.0</ele><time>2026-04-09T10:20:05Z</time></trkpt><trkpt lat="38.02977903068183" lon="14.002211670360143"><ele>54.166666666666664</ele><time>2026-04-09T10:20:06Z</time></trkpt><trkpt lat="38.02975141590256" lon="14.002301335776512"><ele>57.33333333333333</ele><time>2026-04-09T10:20:07Z</time></trkpt><trkpt lat="38.02972879081949" lon="14.002386733293264"><ele>60.5</ele><time>2026-04-09T10:20:08Z</time></trkpt><trkpt lat="38.02968794748036" lon="14.00244955986871"><ele>63.666666666666664</ele><time>2026-04-09T10:20:09Z</time></trkpt><trkpt lat="38.029621949922905" lon="14.00254211013511"><ele>66.83333333333333</ele><time>2026-04-09T10:20:11Z</time></trkpt><trkpt lat="38.02950942171932" lon="14.00248839026895"><ele>70.0</ele><time>2026-04-09T10:20:13Z</time></trkpt><trkpt lat="38.02951667132638" lon="14.002339420145512"><ele>70.16666666666666</ele><time>2026-04-09T10:20:15Z</time></trkpt><trkpt lat="38.02956445780771" lon="14.002281861989854"><ele>70.33333333333333</ele><time>2026-04-09T10:20:16Z</time></trkpt><trkpt lat="38.02962636011025" lon="14.002231052068552"><ele>70.5</ele><time>2026-04-09T10:20:17Z</time></trkpt><trkpt lat="38.02967782297929" lon="14.002154432292132"><ele>70.66666666666667</ele><time>2026-04-09T10:20:18Z</time></trkpt><trkpt lat="38.02972805342508" lon="14.00205835886648"><ele>70.83333333333334</ele><time>2026-04-09T10:20:19Z</time></trkpt><trkpt lat="38.02975671523554" lon="14.001966592128602"><ele>71.0</ele><time>2026-04-09T10:20:20Z</time></trkpt><trkpt lat="38.02979717186121" lon="14.001872193271641"><ele>71.0</ele><time>2026-04-09T10:20:21Z</time></trkpt><trkpt lat="38.0297968782917" lon="14.001763794035922"><ele>71.0</ele><time>2026-04-09T10:20:22Z</time></trkpt><trkpt lat="38.02981528086761" lon="14.001670480547704"><ele>71.0</ele><time>2026-04-09T10:20:23Z</time></trkpt><trkpt lat="38.02983434998774" lon="14.001575997092221"><ele>71.0</ele><time>2026-04-09T10:20:24Z</time></trkpt><trkpt lat="38.02982633937727" lon="14.001479241008076"><ele>71.0</ele><time>2026-04-09T10:20:25Z</time></trkpt><trkpt lat="38.02973074836052" lon="14.001375186077857"><ele>71.0</ele><time>2026-04-09T10:20:27Z</time></trkpt><trkpt lat="38.0296155699487" lon="14.001407483980746"><ele>71.0</ele><time>2026-04-09T10:20:29Z</time></trkpt><trkpt lat="38.02953716723956" lon="14.001505363006842"><ele>71.0</ele><time>2026-04-09T10:20:31Z</time></trkpt><trkpt lat="38.02955416433349" lon="14.001585236986186"><ele>71.0</ele><time>2026-04-09T10:20:32Z</time></trkpt><trkpt lat="38.02954462726861" lon="14.001671497871635"><ele>71.0</ele><time>2026-04-09T10:20:33Z</time></trkpt><trkpt lat="38.02953122807749" lon="14.001838748232021"><ele>71.0</ele><time>2026-04-09T10:20:35Z</time></trkpt><trkpt lat="38.02950254359186" lon="14.001933112105013"><ele>71.0</ele><time>2026-04-09T10:20:36Z</time></trkpt><trkpt lat="38.029458319717044" lon="14.002025343767968"><ele>71.0</ele><time>2026-04-09T10:20:37Z</time></trkpt><trkpt lat="38.0293928822504" lon="14.002112857338837"><ele>71.0</ele><time>2026-04-09T10:20:38Z</time></trkpt><trkpt lat="38.02931639782871" lon="14.002189694500482"><ele>71.0</ele><time>2026-04-09T10:20:39Z</time></trkpt><trkpt lat="38.029235352437176" lon="14.002261453307927"><ele>71.0</ele><time>2026-04-09T10:20:40Z</time></trkpt><trkpt lat="38.02916598332251" lon="14.002351148044259"><ele>76.0</ele><time>2026-04-09T10:20:41Z</time></trkpt><trkpt lat="38.029111934287755" lon="14.00245883524509"><ele>81.0</ele><time>2026-04-09T10:20:42Z</time></trkpt><trkpt lat="38.029090105287004" lon="14.002596990528545"><ele>86.0</ele><time>2026-04-09T10:20:43Z</time></trkpt><trkpt lat="38.02909333058306" lon="14.002737420457331"><ele>91.0</ele><time>2026-04-09T10:20:44Z</time></trkpt><trkpt lat="38.02908756606414" lon="14.002851198662933"><ele>96.0</ele><time>2026-04-09T10:20:45Z</time></trkpt><trkpt lat="38.02909553725226" lon="14.002973715696276"><ele>96.0</ele><time>2026-04-09T10:20:46Z</time></trkpt><trkpt lat="38.02908443801209" lon="14.003088571185486"><ele>96.0</ele><time>2026-04-09T10:20:47Z</time></trkpt><trkpt lat="38.029070997874726" lon="14.003198430329617"><ele>96.0</ele><time>2026-04-09T10:20:48Z</time></trkpt><trkpt lat="38.029045403036775" lon="14.003304591901363"><ele>96.0</ele><time>2026-04-09T10:20:49Z</time></trkpt><trkpt lat="38.02899976136017" lon="14.00339946827232"><ele>96.0</ele><time>2026-04-09T10:20:50Z</time></trkpt><trkpt lat="38.028939311207345" lon="14.00348420585041"><ele>96.0</ele><time>2026-04-09T10:20:51Z</time></trkpt><trkpt lat="38.02888464256933" lon="14.003570419229634"><ele>96.0</ele><time>2026-04-09T10:20:52Z</time></trkpt><trkpt lat="38.028846351085754" lon="14.00366632191406"><ele>96.0</ele><time>2026-04-09T10:20:53Z</time></trkpt><trkpt lat="38.028832234710194" lon="14.003773810285942"><ele>96.0</ele><time>2026-04-09T10:20:54Z</time></trkpt><trkpt lat="38.02884070644499" lon="14.003879297292452"><ele>96.0</ele><time>2026-04-09T10:20:55Z</time></trkpt><trkpt lat="38.028865396850506" lon="14.003982861506076"><ele>96.0</ele><time>2026-04-09T10:20:56Z</time></trkpt><trkpt lat="38.028894505419515" lon="14.0040799908807"><ele>96.0</ele><time>2026-04-09T10:20:57Z</time></trkpt><trkpt lat="38.028923843542316" lon="14.00418327969056"><ele>94.8</ele><time>2026-04-09T10:20:58Z</time></trkpt><trkpt lat="38.02903756563078" lon="14.004197163132577"><ele>93.6</ele><time>2026-04-09T10:20:59Z</time></trkpt><trkpt lat="38.0291019341755" lon="14.004261029397929"><ele>92.4</ele><time>2026-04-09T10:21:00Z</time></trkpt><trkpt lat="38.029146720505445" lon="14.004352817838967"><ele>91.2</ele><time>2026-04-09T10:21:01Z</time></trkpt><trkpt lat="38.02917612807675" lon="14.004453652625521"><ele>90.0</ele><time>2026-04-09T10:21:02Z</time></trkpt><trkpt lat="38.02918062163744" lon="14.004578078032631"><ele>90.0</ele><time>2026-04-09T10:21:03Z</time></trkpt><trkpt lat="38.02916626160804" lon="14.004702426551333"><ele>90.0</ele><time>2026-04-09T10:21:04Z</time></trkpt><trkpt lat="38.02912846394609" lon="14.00483535010125"><ele>90.0</ele><time>2026-04-09T10:21:05Z</time></trkpt><trkpt lat="38.029108330905444" lon="14.004980438091376"><ele>90.0</ele><time>2026-04-09T10:21:06Z</time></trkpt><trkpt lat="38.02904949372401" lon="14.005129297923498"><ele>88.5</ele><time>2026-04-09T10:21:07.001Z</time></trkpt><trkpt lat="38.02898061589069" lon="14.00527608379818"><ele>87.0</ele><time>2026-04-09T10:21:08.001Z</time></trkpt><trkpt lat="38.02887807152337" lon="14.005391795172873"><ele>85.5</ele><time>2026-04-09T10:21:09.001Z</time></trkpt><trkpt lat="38.02876155051723" lon="14.00549727455044"><ele>84.0</ele><time>2026-04-09T10:21:10.001Z</time></trkpt><trkpt lat="38.02863283862357" lon="14.005606925397753"><ele>84.0</ele><time>2026-04-09T10:21:11.001Z</time></trkpt><trkpt lat="38.02851327687485" lon="14.005719558615507"><ele>84.0</ele><time>2026-04-09T10:21:12.001Z</time></trkpt><trkpt lat="38.02842089996618" lon="14.005834582642489"><ele>84.0</ele><time>2026-04-09T10:21:13.001Z</time></trkpt><trkpt lat="38.0283309529011" lon="14.005938524838763"><ele>84.0</ele><time>2026-04-09T10:21:14.001Z</time></trkpt><trkpt lat="38.02823644366279" lon="14.006035971851228"><ele>89.75</ele><time>2026-04-09T10:21:15.001Z</time></trkpt><trkpt lat="38.02814478376287" lon="14.006147339049198"><ele>95.5</ele><time>2026-04-09T10:21:16.001Z</time></trkpt><trkpt lat="38.02805998801872" lon="14.006280691324122"><ele>101.25</ele><time>2026-04-09T10:21:17.001Z</time></trkpt><trkpt lat="38.02798341675528" lon="14.006419354496154"><ele>107.0</ele><time>2026-04-09T10:21:18.001Z</time></trkpt><trkpt lat="38.02790689996632" lon="14.006568103783726"><ele>104.0</ele><time>2026-04-09T10:21:19.001Z</time></trkpt><trkpt lat="38.027828439633105" lon="14.006727599195349"><ele>101.0</ele><time>2026-04-09T10:21:20.001Z</time></trkpt><trkpt lat="38.02778248167101" lon="14.00688949367143"><ele>98.0</ele><time>2026-04-09T10:21:21.001Z</time></trkpt><trkpt lat="38.02773155873499" lon="14.007061241602548"><ele>95.0</ele><time>2026-04-09T10:21:22.001Z</time></trkpt><trkpt lat="38.02769519084977" lon="14.00722326738946"><ele>95.0</ele><time>2026-04-09T10:21:23.001Z</time></trkpt><trkpt lat="38.02766472031919" lon="14.0073912506351"><ele>95.0</ele><time>2026-04-09T10:21:24.001Z</time></trkpt><trkpt lat="38.0276494830734" lon="14.007556569286997"><ele>95.0</ele><time>2026-04-09T10:21:25.001Z</time></trkpt><trkpt lat="38.02763608323082" lon="14.00771843590952"><ele>95.0</ele><time>2026-04-09T10:21:26.001Z</time></trkpt><trkpt lat="38.02762725744702" lon="14.007880705505247"><ele>94.75</ele><time>2026-04-09T10:21:27.001Z</time></trkpt><trkpt lat="38.027626737813854" lon="14.008044605764484"><ele>94.5</ele><time>2026-04-09T10:21:28.001Z</time></trkpt><trkpt lat="38.027621845143436" lon="14.008206448431855"><ele>94.25</ele><time>2026-04-09T10:21:29.001Z</time></trkpt><trkpt lat="38.0276113482864" lon="14.008363179368642"><ele>94.0</ele><time>2026-04-09T10:21:30.001Z</time></trkpt><trkpt lat="38.02760501899296" lon="14.00851911249705"><ele>94.0</ele><time>2026-04-09T10:21:31.001Z</time></trkpt><trkpt lat="38.02759594490577" lon="14.008671096182068"><ele>94.0</ele><time>2026-04-09T10:21:32.001Z</time></trkpt><trkpt lat="38.02759080504751" lon="14.008814823986276"><ele>94.0</ele><time>2026-04-09T10:21:33.001Z</time></trkpt><trkpt lat="38.02758710181739" lon="14.008958131997096"><ele>94.0</ele><time>2026-04-09T10:21:34.001Z</time></trkpt><trkpt lat="38.02757999667711" lon="14.009093476075813"><ele>94.0</ele><time>2026-04-09T10:21:35.001Z</time></trkpt><trkpt lat="38.02757135122013" lon="14.009230437480243"><ele>94.0</ele><time>2026-04-09T10:21:36.001Z</time></trkpt><trkpt lat="38.027566042322945" lon="14.009365403944352"><ele>94.0</ele><time>2026-04-09T10:21:37.001Z</time></trkpt><trkpt lat="38.02756364075161" lon="14.0094942758051"><ele>94.0</ele><time>2026-04-09T10:21:38.001Z</time></trkpt><trkpt lat="38.02756572684005" lon="14.009619109294539"><ele>94.0</ele><time>2026-04-09T10:21:39.001Z</time></trkpt><trkpt lat="38.02756082049666" lon="14.009752229803489"><ele>94.0</ele><time>2026-04-09T10:21:40.001Z</time></trkpt><trkpt lat="38.02755897442337" lon="14.009889985299703"><ele>94.0</ele><time>2026-04-09T10:21:41.001Z</time></trkpt><trkpt lat="38.02755914059686" lon="14.010044373710734"><ele>94.0</ele><time>2026-04-09T10:21:42.001Z</time></trkpt><trkpt lat="38.02754354678767" lon="14.010250971164288"><ele>94.0</ele><time>2026-04-09T10:21:43.001Z</time></trkpt><trkpt lat="38.027535831582256" lon="14.010454933172866"><ele>92.0</ele><time>2026-04-09T10:21:44.001Z</time></trkpt><trkpt lat="38.02752716730265" lon="14.010683985220517"><ele>90.0</ele><time>2026-04-09T10:21:45.001Z</time></trkpt><trkpt lat="38.02752031099226" lon="14.010928307252165"><ele>88.0</ele><time>2026-04-09T10:21:46.001Z</time></trkpt><trkpt lat="38.02750269676164" lon="14.0111631747444"><ele>87.66666666666666</ele><time>2026-04-09T10:21:47.001Z</time></trkpt><trkpt lat="38.02749441322692" lon="14.01139507651745"><ele>87.33333333333333</ele><time>2026-04-09T10:21:48.001Z</time></trkpt><trkpt lat="38.02749310181678" lon="14.011635234233866"><ele>87.0</ele><time>2026-04-09T10:21:49.001Z</time></trkpt><trkpt lat="38.02748815306885" lon="14.011878751547936"><ele>87.66666666666667</ele><time>2026-04-09T10:21:50.001Z</time></trkpt><trkpt lat="38.02748036649674" lon="14.012118611195618"><ele>88.33333333333334</ele><time>2026-04-09T10:21:51.001Z</time></trkpt><trkpt lat="38.02746865949043" lon="14.012351795332343"><ele>89.0</ele><time>2026-04-09T10:21:52.001Z</time></trkpt><trkpt lat="38.02744642057606" lon="14.012555745882299"><ele>97.75</ele><time>2026-04-09T10:21:53.001Z</time></trkpt><trkpt lat="38.02740591894296" lon="14.012744407756669"><ele>106.5</ele><time>2026-04-09T10:21:54.001Z</time></trkpt><trkpt lat="38.02735254527925" lon="14.012915783136974"><ele>115.25</ele><time>2026-04-09T10:21:55.001Z</time></trkpt><trkpt lat="38.0272705143846" lon="14.013057756518181"><ele>124.0</ele><time>2026-04-09T10:21:56.001Z</time></trkpt><trkpt lat="38.02720079924145" lon="14.013194656929576"><ele>120.25</ele><time>2026-04-09T10:21:57.001Z</time></trkpt><trkpt lat="38.027138489157316" lon="14.01332871715435"><ele>116.5</ele><time>2026-04-09T10:21:58.001Z</time></trkpt><trkpt lat="38.027037027094096" lon="14.01342258177021"><ele>112.75</ele><time>2026-04-09T10:21:59.001Z</time></trkpt><trkpt lat="38.026958948432785" lon="14.013529380493317"><ele>109.0</ele><time>2026-04-09T10:22:00.001Z</time></trkpt><trkpt lat="38.02687661326099" lon="14.0135928437193"><ele>109.00000000000001</ele><time>2026-04-09T10:22:01.001Z</time></trkpt><trkpt lat="38.0267950377239" lon="14.013649166973515"><ele>109.0</ele><time>2026-04-09T10:22:02.001Z</time></trkpt><trkpt lat="38.026741801695394" lon="14.013703030301219"><ele>109.0</ele><time>2026-04-09T10:22:04Z</time></trkpt><trkpt lat="38.02665433644131" lon="14.013763415707018"><ele>109.0</ele><time>2026-04-09T10:22:09Z</time></trkpt><trkpt lat="38.026583924659136" lon="14.01380978926958"><ele>109.00000000000001</ele><time>2026-04-09T10:22:11Z</time></trkpt><trkpt lat="38.02650574444946" lon="14.013876213808222"><ele>109.0</ele><time>2026-04-09T10:22:13Z</time></trkpt><trkpt lat="38.02643382586645" lon="14.013985281493394"><ele>108.50000000000001</ele><time>2026-04-09T10:22:15Z</time></trkpt><trkpt lat="38.02640287507259" lon="14.01405808997094"><ele>108.0</ele><time>2026-04-09T10:22:16Z</time></trkpt><trkpt lat="38.02636732104075" lon="14.01413422158963"><ele>107.5</ele><time>2026-04-09T10:22:17Z</time></trkpt><trkpt lat="38.02633635690148" lon="14.014209051564777"><ele>107.0</ele><time>2026-04-09T10:22:18Z</time></trkpt><trkpt lat="38.02629961996992" lon="14.014289536984437"><ele>106.50000000000001</ele><time>2026-04-09T10:22:19Z</time></trkpt><trkpt lat="38.02626157192033" lon="14.01439374138082"><ele>106.0</ele><time>2026-04-09T10:22:20Z</time></trkpt><trkpt lat="38.02623216497939" lon="14.014520671706265"><ele>106.0</ele><time>2026-04-09T10:22:21Z</time></trkpt><trkpt lat="38.0262166452865" lon="14.014651998217431"><ele>106.0</ele><time>2026-04-09T10:22:22Z</time></trkpt><trkpt lat="38.02622702040794" lon="14.014788769934203"><ele>106.0</ele><time>2026-04-09T10:22:23Z</time></trkpt><trkpt lat="38.02624272480102" lon="14.014933845392697"><ele>106.0</ele><time>2026-04-09T10:22:24Z</time></trkpt><trkpt lat="38.026272001093474" lon="14.015065037048066"><ele>106.0</ele><time>2026-04-09T10:22:25Z</time></trkpt><trkpt lat="38.026310811834584" lon="14.01519112956407"><ele>107.0</ele><time>2026-04-09T10:22:26Z</time></trkpt><trkpt lat="38.0263586145773" lon="14.015317353762066"><ele>108.0</ele><time>2026-04-09T10:22:27Z</time></trkpt><trkpt lat="38.02642610508094" lon="14.015440028455668"><ele>109.0</ele><time>2026-04-09T10:22:28Z</time></trkpt><trkpt lat="38.026504337589564" lon="14.015564379442896"><ele>110.0</ele><time>2026-04-09T10:22:29Z</time></trkpt><trkpt lat="38.02659079424402" lon="14.01566386164554"><ele>110.0</ele><time>2026-04-09T10:22:30Z</time></trkpt><trkpt lat="38.02667306070481" lon="14.015743354651008"><ele>110.0</ele><time>2026-04-09T10:22:31Z</time></trkpt><trkpt lat="38.026756027252475" lon="14.015819400194689"><ele>110.0</ele><time>2026-04-09T10:22:32Z</time></trkpt><trkpt lat="38.02683433421158" lon="14.015890586595773"><ele>110.0</ele><time>2026-04-09T10:22:33Z</time></trkpt><trkpt lat="38.026913980588276" lon="14.015969145731088"><ele>110.0</ele><time>2026-04-09T10:22:34Z</time></trkpt><trkpt lat="38.026995652871506" lon="14.016041123848314"><ele>110.0</ele><time>2026-04-09T10:22:35Z</time></trkpt><trkpt lat="38.027081840070366" lon="14.016122214737079"><ele>110.0</ele><time>2026-04-09T10:22:36Z</time></trkpt><trkpt lat="38.027172890390084" lon="14.016209872919902"><ele>110.0</ele><time>2026-04-09T10:22:37Z</time></trkpt><trkpt lat="38.02725503738013" lon="14.016287157331373"><ele>110.0</ele><time>2026-04-09T10:22:38Z</time></trkpt><trkpt lat="38.027334430274855" lon="14.016361395772675"><ele>110.0</ele><time>2026-04-09T10:22:39Z</time></trkpt><trkpt lat="38.02740922122573" lon="14.016432573098436"><ele>110.0</ele><time>2026-04-09T10:22:40Z</time></trkpt><trkpt lat="38.02748441118147" lon="14.016493179558621"><ele>110.0</ele><time>2026-04-09T10:22:41Z</time></trkpt><trkpt lat="38.02755401889524" lon="14.01655920355876"><ele>110.0</ele><time>2026-04-09T10:22:42Z</time></trkpt><trkpt lat="38.02762170527928" lon="14.016627041149606"><ele>110.0</ele><time>2026-04-09T10:22:43Z</time></trkpt><trkpt lat="38.02769855495722" lon="14.016688993390677"><ele>110.0</ele><time>2026-04-09T10:22:44Z</time></trkpt><trkpt lat="38.027787635471554" lon="14.016748570873032"><ele>109.99999999999999</ele><time>2026-04-09T10:22:45Z</time></trkpt><trkpt lat="38.02786111265156" lon="14.016806117257536"><ele>110.0</ele><time>2026-04-09T10:22:46Z</time></trkpt><trkpt lat="38.02792536649149" lon="14.016875059019268"><ele>110.0</ele><time>2026-04-09T10:22:47Z</time></trkpt><trkpt lat="38.02798712594598" lon="14.016944310049647"><ele>110.0</ele><time>2026-04-09T10:22:48Z</time></trkpt><trkpt lat="38.028043068399946" lon="14.016988713323215"><ele>109.99999999999999</ele><time>2026-04-09T10:22:49Z</time></trkpt><trkpt lat="38.028134698900764" lon="14.017062507111769"><ele>110.0</ele><time>2026-04-09T10:22:51Z</time></trkpt><trkpt lat="38.028213276150346" lon="14.017128831671515"><ele>109.99999999999999</ele><time>2026-04-09T10:22:53Z</time></trkpt><trkpt lat="38.028282898170616" lon="14.017206747648144"><ele>110.0</ele><time>2026-04-09T10:22:55Z</time></trkpt><trkpt lat="38.028333818778556" lon="14.017278958121887"><ele>110.0</ele><time>2026-04-09T10:22:57Z</time></trkpt><trkpt lat="38.02836353237505" lon="14.017367541178256"><ele>110.0</ele><time>2026-04-09T10:22:59Z</time></trkpt><trkpt lat="38.02840149409346" lon="14.017473673678685"><ele>109.99999999999999</ele><time>2026-04-09T10:23:02Z</time></trkpt><trkpt lat="38.028477005837914" lon="14.01751568786074"><ele>110.0</ele><time>2026-04-09T10:23:04Z</time></trkpt><trkpt lat="38.028609003014644" lon="14.01753944941841"><ele>108.66666666666666</ele><time>2026-04-09T10:23:06Z</time></trkpt><trkpt lat="38.02866750217519" lon="14.017594213431575"><ele>107.33333333333333</ele><time>2026-04-09T10:23:07Z</time></trkpt><trkpt lat="38.028715257159604" lon="14.01767052079151"><ele>106.0</ele><time>2026-04-09T10:23:08Z</time></trkpt><trkpt lat="38.02876023380526" lon="14.017752433030319"><ele>104.66666666666666</ele><time>2026-04-09T10:23:09Z</time></trkpt><trkpt lat="38.02880606335128" lon="14.017841148018876"><ele>103.33333333333333</ele><time>2026-04-09T10:23:10Z</time></trkpt><trkpt lat="38.02885599551362" lon="14.017932470666569"><ele>102.0</ele><time>2026-04-09T10:23:11Z</time></trkpt><trkpt lat="38.028908558717994" lon="14.018027579197245"><ele>102.0</ele><time>2026-04-09T10:23:12Z</time></trkpt><trkpt lat="38.028958608218716" lon="14.01813389758088"><ele>102.0</ele><time>2026-04-09T10:23:13Z</time></trkpt><trkpt lat="38.029018267056344" lon="14.018242012555248"><ele>102.0</ele><time>2026-04-09T10:23:14Z</time></trkpt><trkpt lat="38.02908084131485" lon="14.018350661737216"><ele>102.0</ele><time>2026-04-09T10:23:15Z</time></trkpt><trkpt lat="38.02914460854997" lon="14.018449787410555"><ele>102.0</ele><time>2026-04-09T10:23:16Z</time></trkpt><trkpt lat="38.02921073858141" lon="14.018544837794021"><ele>100.0</ele><time>2026-04-09T10:23:17Z</time></trkpt><trkpt lat="38.02927394627321" lon="14.018635088526825"><ele>98.0</ele><time>2026-04-09T10:23:18.001Z</time></trkpt><trkpt lat="38.029338504774636" lon="14.018722418944673"><ele>96.0</ele><time>2026-04-09T10:23:19.001Z</time></trkpt><trkpt lat="38.029404191503616" lon="14.018815816253696"><ele>94.0</ele><time>2026-04-09T10:23:20.001Z</time></trkpt><trkpt lat="38.02947338127668" lon="14.0189147530522"><ele>92.0</ele><time>2026-04-09T10:23:21.001Z</time></trkpt><trkpt lat="38.029547669834685" lon="14.019013694996952"><ele>92.0</ele><time>2026-04-09T10:23:22.001Z</time></trkpt><trkpt lat="38.02962358345192" lon="14.019114545909847"><ele>92.0</ele><time>2026-04-09T10:23:23.001Z</time></trkpt><trkpt lat="38.029698002483194" lon="14.019216651436668"><ele>92.0</ele><time>2026-04-09T10:23:24.001Z</time></trkpt><trkpt lat="38.02976679494112" lon="14.019318397024072"><ele>92.0</ele><time>2026-04-09T10:23:25.001Z</time></trkpt><trkpt lat="38.02982722562672" lon="14.019414231585692"><ele>92.0</ele><time>2026-04-09T10:23:26.001Z</time></trkpt><trkpt lat="38.02989353343317" lon="14.01950733690783"><ele>91.6</ele><time>2026-04-09T10:23:27.001Z</time></trkpt><trkpt lat="38.02996300618358" lon="14.019606717444358"><ele>91.19999999999999</ele><time>2026-04-09T10:23:28.001Z</time></trkpt><trkpt lat="38.03003336690197" lon="14.019708318622355"><ele>90.8</ele><time>2026-04-09T10:23:29.001Z</time></trkpt><trkpt lat="38.03009913814262" lon="14.019822750465943"><ele>90.4</ele><time>2026-04-09T10:23:30.001Z</time></trkpt><trkpt lat="38.03017013945996" lon="14.019930004467914"><ele>90.0</ele><time>2026-04-09T10:23:31.001Z</time></trkpt><trkpt lat="38.03023594981259" lon="14.02004725693221"><ele>90.0</ele><time>2026-04-09T10:23:32.001Z</time></trkpt><trkpt lat="38.030289554658744" lon="14.020167015680817"><ele>90.0</ele><time>2026-04-09T10:23:33.001Z</time></trkpt><trkpt lat="38.03034208655249" lon="14.020288907754393"><ele>90.0</ele><time>2026-04-09T10:23:34.001Z</time></trkpt><trkpt lat="38.03040149483523" lon="14.020407988552842"><ele>90.0</ele><time>2026-04-09T10:23:35.001Z</time></trkpt><trkpt lat="38.03046410184816" lon="14.020531537633634"><ele>90.0</ele><time>2026-04-09T10:23:36.001Z</time></trkpt><trkpt lat="38.03052863788828" lon="14.020658958634275"><ele>90.0</ele><time>2026-04-09T10:23:37.001Z</time></trkpt><trkpt lat="38.03058687299428" lon="14.020783993575446"><ele>90.0</ele><time>2026-04-09T10:23:38.001Z</time></trkpt><trkpt lat="38.03064151033387" lon="14.020904124102056"><ele>90.0</ele><time>2026-04-09T10:23:39.001Z</time></trkpt><trkpt lat="38.030702650611175" lon="14.021027521659613"><ele>90.0</ele><time>2026-04-09T10:23:40.001Z</time></trkpt><trkpt lat="38.03077212824464" lon="14.021141693369872"><ele>89.4</ele><time>2026-04-09T10:23:41.001Z</time></trkpt><trkpt lat="38.03083106009506" lon="14.021261197768213"><ele>88.8</ele><time>2026-04-09T10:23:42.001Z</time></trkpt><trkpt lat="38.03089367951767" lon="14.02136876325575"><ele>88.19999999999999</ele><time>2026-04-09T10:23:43.001Z</time></trkpt><trkpt lat="38.030959433317165" lon="14.021473696744195"><ele>87.6</ele><time>2026-04-09T10:23:44.001Z</time></trkpt><trkpt lat="38.03101514066364" lon="14.021589470652183"><ele>87.0</ele><time>2026-04-09T10:23:45.001Z</time></trkpt><trkpt lat="38.03107466256952" lon="14.021695058569682"><ele>87.0</ele><time>2026-04-09T10:23:46.001Z</time></trkpt><trkpt lat="38.031140955399344" lon="14.021795674890424"><ele>87.0</ele><time>2026-04-09T10:23:47.001Z</time></trkpt><trkpt lat="38.03120646723373" lon="14.021900742945617"><ele>87.0</ele><time>2026-04-09T10:23:48.001Z</time></trkpt><trkpt lat="38.03128384327402" lon="14.022000240675052"><ele>87.0</ele><time>2026-04-09T10:23:49.001Z</time></trkpt><trkpt lat="38.03137577968443" lon="14.022082972802714"><ele>87.0</ele><time>2026-04-09T10:23:50.001Z</time></trkpt><trkpt lat="38.03143233760717" lon="14.022181426120685"><ele>87.0</ele><time>2026-04-09T10:23:51.001Z</time></trkpt><trkpt lat="38.031459420982245" lon="14.02229287552943"><ele>87.0</ele><time>2026-04-09T10:23:52.001Z</time></trkpt><trkpt lat="38.0314775290298" lon="14.022405198796159"><ele>87.0</ele><time>2026-04-09T10:23:53.001Z</time></trkpt><trkpt lat="38.031500791198866" lon="14.022521287719416"><ele>87.0</ele><time>2026-04-09T10:23:54.001Z</time></trkpt><trkpt lat="38.03152941533783" lon="14.022632367702526"><ele>87.0</ele><time>2026-04-09T10:23:55.001Z</time></trkpt><trkpt lat="38.03156575158777" lon="14.02273691034887"><ele>87.83333333333333</ele><time>2026-04-09T10:23:56.001Z</time></trkpt><trkpt lat="38.031609058283465" lon="14.02282687351346"><ele>88.66666666666667</ele><time>2026-04-09T10:23:57.001Z</time></trkpt><trkpt lat="38.031653186047556" lon="14.02290782784835"><ele>89.5</ele><time>2026-04-09T10:23:58.001Z</time></trkpt><trkpt lat="38.0316971474475" lon="14.022981572260232"><ele>90.33333333333334</ele><time>2026-04-09T10:23:59.001Z</time></trkpt><trkpt lat="38.03174114757629" lon="14.023049221674256"><ele>91.16666666666667</ele><time>2026-04-09T10:24:00.001Z</time></trkpt><trkpt lat="38.0317821244477" lon="14.023113480405465"><ele>92.0</ele><time>2026-04-09T10:24:01.001Z</time></trkpt><trkpt lat="38.03183330430785" lon="14.02319699732785"><ele>89.0</ele><time>2026-04-09T10:24:03.001Z</time></trkpt><trkpt lat="38.0318763542867" lon="14.023276641971911"><ele>86.0</ele><time>2026-04-09T10:24:06.001Z</time></trkpt><trkpt lat="38.03192503329482" lon="14.023341066027308"><ele>83.0</ele><time>2026-04-09T10:24:08.001Z</time></trkpt><trkpt lat="38.03199404384388" lon="14.023436443553022"><ele>80.0</ele><time>2026-04-09T10:24:09.999Z</time></trkpt><trkpt lat="38.03204792781743" lon="14.023547601784802"><ele>77.0</ele><time>2026-04-09T10:24:11.999Z</time></trkpt><trkpt lat="38.032118348784664" lon="14.023664245803358"><ele>77.0</ele><time>2026-04-09T10:24:13.999Z</time></trkpt><trkpt lat="38.03220543786945" lon="14.023802308209712"><ele>77.0</ele><time>2026-04-09T10:24:15.999Z</time></trkpt><trkpt lat="38.03226461257789" lon="14.023892236608376"><ele>77.0</ele><time>2026-04-09T10:24:16.999Z</time></trkpt><trkpt lat="38.03232361304844" lon="14.023991237202003"><ele>77.0</ele><time>2026-04-09T10:24:17.999Z</time></trkpt><trkpt lat="38.032386548846034" lon="14.024090488467934"><ele>77.0</ele><time>2026-04-09T10:24:18.999Z</time></trkpt><trkpt lat="38.0324459477674" lon="14.02418867221218"><ele>74.16666666666667</ele><time>2026-04-09T10:24:19.999Z</time></trkpt><trkpt lat="38.032502431725426" lon="14.02428681364229"><ele>71.33333333333334</ele><time>2026-04-09T10:24:20.999Z</time></trkpt><trkpt lat="38.03255772844293" lon="14.024384959322388"><ele>68.5</ele><time>2026-04-09T10:24:21.999Z</time></trkpt><trkpt lat="38.03261863415491" lon="14.024468443262784"><ele>65.66666666666667</ele><time>2026-04-09T10:24:22.999Z</time></trkpt><trkpt lat="38.032676337119895" lon="14.024539919305214"><ele>62.833333333333336</ele><time>2026-04-09T10:24:23.999Z</time></trkpt><trkpt lat="38.03272785494473" lon="14.024601019547251"><ele>60.0</ele><time>2026-04-09T10:24:25Z</time></trkpt><trkpt lat="38.03277595372789" lon="14.024664677864118"><ele>60.0</ele><time>2026-04-09T10:24:26Z</time></trkpt><trkpt lat="38.0328487365034" lon="14.024769194440829"><ele>60.0</ele><time>2026-04-09T10:24:28Z</time></trkpt><trkpt lat="38.032884497009896" lon="14.024874193179466"><ele>60.0</ele><time>2026-04-09T10:24:30Z</time></trkpt><trkpt lat="38.03288251231067" lon="14.025053844673636"><ele>60.0</ele><time>2026-04-09T10:24:32Z</time></trkpt><trkpt lat="38.032873538480956" lon="14.025161268151953"><ele>60.0</ele><time>2026-04-09T10:24:33Z</time></trkpt><trkpt lat="38.03286237173868" lon="14.0252711551771"><ele>61.166666666666664</ele><time>2026-04-09T10:24:34Z</time></trkpt><trkpt lat="38.032845852711205" lon="14.025381310605677"><ele>62.33333333333333</ele><time>2026-04-09T10:24:35Z</time></trkpt><trkpt lat="38.03283249658544" lon="14.025473536946496"><ele>63.5</ele><time>2026-04-09T10:24:36Z</time></trkpt><trkpt lat="38.03282467379715" lon="14.02556220220644"><ele>64.66666666666666</ele><time>2026-04-09T10:24:37Z</time></trkpt><trkpt lat="38.03281324205984" lon="14.025705832086551"><ele>65.83333333333333</ele><time>2026-04-09T10:24:39Z</time></trkpt><trkpt lat="38.03283162222711" lon="14.025783902683651"><ele>67.0</ele><time>2026-04-09T10:24:40Z</time></trkpt><trkpt lat="38.03285732859452" lon="14.025870262390391"><ele>68.0</ele><time>2026-04-09T10:24:41Z</time></trkpt><trkpt lat="38.03287284870355" lon="14.025979916383587"><ele>69.0</ele><time>2026-04-09T10:24:42Z</time></trkpt><trkpt lat="38.03289407606929" lon="14.026109253837154"><ele>70.0</ele><time>2026-04-09T10:24:43Z</time></trkpt><trkpt lat="38.03291087764697" lon="14.026256233662396"><ele>71.0</ele><time>2026-04-09T10:24:44Z</time></trkpt><trkpt lat="38.03292673047034" lon="14.026400911172322"><ele>72.0</ele><time>2026-04-09T10:24:45Z</time></trkpt><trkpt lat="38.03294684235529" lon="14.026544986909528"><ele>74.0</ele><time>2026-04-09T10:24:46Z</time></trkpt><trkpt lat="38.03296795471658" lon="14.026691643919364"><ele>76.0</ele><time>2026-04-09T10:24:47Z</time></trkpt><trkpt lat="38.03299240798833" lon="14.026838345601512"><ele>78.0</ele><time>2026-04-09T10:24:48Z</time></trkpt><trkpt lat="38.03301715970133" lon="14.026986675436603"><ele>80.0</ele><time>2026-04-09T10:24:49Z</time></trkpt><trkpt lat="38.03302698724942" lon="14.027166216434036"><ele>80.0</ele><time>2026-04-09T10:24:50Z</time></trkpt><trkpt lat="38.033040106752544" lon="14.02734601592898"><ele>80.0</ele><time>2026-04-09T10:24:51Z</time></trkpt><trkpt lat="38.03305623058029" lon="14.02751657768709"><ele>80.0</ele><time>2026-04-09T10:24:52.022Z</time></trkpt><trkpt lat="38.03306927595195" lon="14.027691858612753"><ele>80.0</ele><time>2026-04-09T10:24:53.02Z</time></trkpt><trkpt lat="38.03308373598205" lon="14.027863293207208"><ele>83.33333333333334</ele><time>2026-04-09T10:24:54.02Z</time></trkpt><trkpt lat="38.03310086163593" lon="14.02803615894601"><ele>86.66666666666667</ele><time>2026-04-09T10:24:55.02Z</time></trkpt><trkpt lat="38.03311445878325" lon="14.028213383110835"><ele>90.0</ele><time>2026-04-09T10:24:56.015Z</time></trkpt><trkpt lat="38.03312205247398" lon="14.029403636245084"><ele>90.25</ele><time>2026-04-09T10:25:04Z</time></trkpt><trkpt lat="38.03309489394627" lon="14.029570887555705"><ele>90.5</ele><time>2026-04-09T10:25:05Z</time></trkpt><trkpt lat="38.033050492704" lon="14.029745289372439"><ele>90.75</ele><time>2026-04-09T10:25:06Z</time></trkpt><trkpt lat="38.033003312794214" lon="14.029921014887998"><ele>91.0</ele><time>2026-04-09T10:25:07Z</time></trkpt><trkpt lat="38.03294571841998" lon="14.030092430714557"><ele>87.0</ele><time>2026-04-09T10:25:08Z</time></trkpt><trkpt lat="38.032887743758224" lon="14.030232508090577"><ele>83.0</ele><time>2026-04-09T10:25:09Z</time></trkpt><trkpt lat="38.032831839790994" lon="14.03037453962746"><ele>79.0</ele><time>2026-04-09T10:25:10Z</time></trkpt><trkpt lat="38.032761748926454" lon="14.030512736840862"><ele>75.0</ele><time>2026-04-09T10:25:11Z</time></trkpt><trkpt lat="38.03268251748289" lon="14.030648873301915"><ele>75.0</ele><time>2026-04-09T10:25:12Z</time></trkpt><trkpt lat="38.03261166288311" lon="14.030770460692091"><ele>75.0</ele><time>2026-04-09T10:25:13Z</time></trkpt><trkpt lat="38.032544778568116" lon="14.030905655360568"><ele>75.0</ele><time>2026-04-09T10:25:14Z</time></trkpt><trkpt lat="38.03249574514979" lon="14.03106483127208"><ele>75.0</ele><time>2026-04-09T10:25:15Z</time></trkpt><trkpt lat="38.03246866328322" lon="14.031242855460343"><ele>74.5</ele><time>2026-04-09T10:25:16Z</time></trkpt><trkpt lat="38.03246122680959" lon="14.031425563555365"><ele>74.0</ele><time>2026-04-09T10:25:17Z</time></trkpt><trkpt lat="38.0324730804488" lon="14.03160120368908"><ele>73.5</ele><time>2026-04-09T10:25:18Z</time></trkpt><trkpt lat="38.032495115201904" lon="14.031776797969403"><ele>73.0</ele><time>2026-04-09T10:25:19Z</time></trkpt><trkpt lat="38.03252793214967" lon="14.031950892947888"><ele>72.0</ele><time>2026-04-09T10:25:20Z</time></trkpt><trkpt lat="38.03255927935762" lon="14.032133923096595"><ele>71.0</ele><time>2026-04-09T10:25:21Z</time></trkpt><trkpt lat="38.032589798265604" lon="14.03231930482915"><ele>70.0</ele><time>2026-04-09T10:25:22.001Z</time></trkpt><trkpt lat="38.032614761607974" lon="14.032502302338855"><ele>69.0</ele><time>2026-04-09T10:25:23.001Z</time></trkpt><trkpt lat="38.03262918109521" lon="14.032689106652416"><ele>69.0</ele><time>2026-04-09T10:25:24.001Z</time></trkpt><trkpt lat="38.03264112358706" lon="14.032884160776394"><ele>69.0</ele><time>2026-04-09T10:25:25.001Z</time></trkpt><trkpt lat="38.03264104698003" lon="14.033077581458176"><ele>69.0</ele><time>2026-04-09T10:25:26.001Z</time></trkpt><trkpt lat="38.03263931862125" lon="14.033269084666617"><ele>68.5</ele><time>2026-04-09T10:25:27.001Z</time></trkpt><trkpt lat="38.03263431379435" lon="14.033455001056383"><ele>68.0</ele><time>2026-04-09T10:25:28.001Z</time></trkpt><trkpt lat="38.032622601277815" lon="14.033629056772995"><ele>67.5</ele><time>2026-04-09T10:25:29.001Z</time></trkpt><trkpt lat="38.03261269992007" lon="14.033800728371247"><ele>67.0</ele><time>2026-04-09T10:25:30.001Z</time></trkpt><trkpt lat="38.032606694742505" lon="14.03397089069882"><ele>67.0</ele><time>2026-04-09T10:25:31.001Z</time></trkpt><trkpt lat="38.03259551335687" lon="14.034129964802773"><ele>67.0</ele><time>2026-04-09T10:25:32.001Z</time></trkpt><trkpt lat="38.03259545406307" lon="14.034272082071658"><ele>67.0</ele><time>2026-04-09T10:25:33.001Z</time></trkpt><trkpt lat="38.03258358790205" lon="14.034412780628957"><ele>67.0</ele><time>2026-04-09T10:25:34.001Z</time></trkpt><trkpt lat="38.03258908656732" lon="14.034549182766437"><ele>66.0</ele><time>2026-04-09T10:25:35.001Z</time></trkpt><trkpt lat="38.0326052608535" lon="14.034682083202876"><ele>65.0</ele><time>2026-04-09T10:25:36.001Z</time></trkpt><trkpt lat="38.032631835468436" lon="14.034811554140731"><ele>64.0</ele><time>2026-04-09T10:25:37.001Z</time></trkpt><trkpt lat="38.03266158338976" lon="14.034944753937491"><ele>63.0</ele><time>2026-04-09T10:25:38.001Z</time></trkpt><trkpt lat="38.03268664447925" lon="14.035076430680355"><ele>62.0</ele><time>2026-04-09T10:25:39.001Z</time></trkpt><trkpt lat="38.03270790153363" lon="14.035215094731598"><ele>60.25</ele><time>2026-04-09T10:25:40.001Z</time></trkpt><trkpt lat="38.03272336425279" lon="14.035356530793118"><ele>58.5</ele><time>2026-04-09T10:25:41.001Z</time></trkpt><trkpt lat="38.03273821967417" lon="14.035514703313703"><ele>56.75</ele><time>2026-04-09T10:25:42.001Z</time></trkpt><trkpt lat="38.03275694881633" lon="14.035682497631221"><ele>55.0</ele><time>2026-04-09T10:25:43.001Z</time></trkpt><trkpt lat="38.032781826127696" lon="14.035842719291757"><ele>54.25</ele><time>2026-04-09T10:25:44.001Z</time></trkpt><trkpt lat="38.0328101206069" lon="14.035996024437523"><ele>53.5</ele><time>2026-04-09T10:25:45.001Z</time></trkpt><trkpt lat="38.03283844117222" lon="14.036143799725219"><ele>52.75</ele><time>2026-04-09T10:25:46.001Z</time></trkpt><trkpt lat="38.0328657863903" lon="14.036288899557695"><ele>52.0</ele><time>2026-04-09T10:25:47.001Z</time></trkpt><trkpt lat="38.03288683522828" lon="14.036440633104004"><ele>52.0</ele><time>2026-04-09T10:25:48.001Z</time></trkpt><trkpt lat="38.032888062541446" lon="14.036598822798805"><ele>52.0</ele><time>2026-04-09T10:25:49.001Z</time></trkpt><trkpt lat="38.03287785567455" lon="14.036742306270614"><ele>52.0</ele><time>2026-04-09T10:25:50.001Z</time></trkpt><trkpt lat="38.032861188655765" lon="14.036872371887505"><ele>52.0</ele><time>2026-04-09T10:25:51.001Z</time></trkpt><trkpt lat="38.03283260723531" lon="14.036998376995893"><ele>52.0</ele><time>2026-04-09T10:25:52.001Z</time></trkpt><trkpt lat="38.03279394475886" lon="14.037120301659634"><ele>51.6</ele><time>2026-04-09T10:25:53.001Z</time></trkpt><trkpt lat="38.032756652581156" lon="14.037237996511855"><ele>51.2</ele><time>2026-04-09T10:25:54.001Z</time></trkpt><trkpt lat="38.032736826999695" lon="14.037350921627814"><ele>50.8</ele><time>2026-04-09T10:25:55.001Z</time></trkpt><trkpt lat="38.032752372371895" lon="14.037480549994902"><ele>50.4</ele><time>2026-04-09T10:25:56.001Z</time></trkpt><trkpt lat="38.032794869661146" lon="14.037613669044552"><ele>50.0</ele><time>2026-04-09T10:25:57.001Z</time></trkpt><trkpt lat="38.03284880331558" lon="14.037734741168746"><ele>49.0</ele><time>2026-04-09T10:25:58.001Z</time></trkpt><trkpt lat="38.032888494009796" lon="14.037853646885136"><ele>48.0</ele><time>2026-04-09T10:25:59.001Z</time></trkpt><trkpt lat="38.032888324510246" lon="14.037976097831551"><ele>47.0</ele><time>2026-04-09T10:26:00.001Z</time></trkpt><trkpt lat="38.032850908841525" lon="14.03809071929447"><ele>46.0</ele><time>2026-04-09T10:26:01.001Z</time></trkpt><trkpt lat="38.03279518001594" lon="14.038199822680147"><ele>45.0</ele><time>2026-04-09T10:26:02.001Z</time></trkpt><trkpt lat="38.032693756658105" lon="14.038257564933748"><ele>45.75</ele><time>2026-04-09T10:26:03.001Z</time></trkpt><trkpt lat="38.03257880406514" lon="14.038317381988115"><ele>46.5</ele><time>2026-04-09T10:26:04.001Z</time></trkpt><trkpt lat="38.03245305921849" lon="14.03836255012522"><ele>47.25</ele><time>2026-04-09T10:26:05.001Z</time></trkpt><trkpt lat="38.0323374165934" lon="14.038416276918218"><ele>48.0</ele><time>2026-04-09T10:26:06.001Z</time></trkpt><trkpt lat="38.03222860540851" lon="14.038458786115864"><ele>48.0</ele><time>2026-04-09T10:26:07.001Z</time></trkpt><trkpt lat="38.03211423687561" lon="14.038501331029877"><ele>48.0</ele><time>2026-04-09T10:26:08.001Z</time></trkpt><trkpt lat="38.03200110651708" lon="14.038566401415222"><ele>48.0</ele><time>2026-04-09T10:26:09.001Z</time></trkpt><trkpt lat="38.03189176668314" lon="14.038642220214975"><ele>48.0</ele><time>2026-04-09T10:26:10.001Z</time></trkpt><trkpt lat="38.03177859634432" lon="14.038732006293857"><ele>48.0</ele><time>2026-04-09T10:26:11.001Z</time></trkpt><trkpt lat="38.03166481447185" lon="14.038854914109477"><ele>48.0</ele><time>2026-04-09T10:26:12.001Z</time></trkpt><trkpt lat="38.03155262710428" lon="14.03900755845794"><ele>48.0</ele><time>2026-04-09T10:26:13.001Z</time></trkpt><trkpt lat="38.03144478434239" lon="14.039158520275132"><ele>48.66666666666667</ele><time>2026-04-09T10:26:14.001Z</time></trkpt><trkpt lat="38.031340374721545" lon="14.039299080586103"><ele>49.333333333333336</ele><time>2026-04-09T10:26:15.001Z</time></trkpt><trkpt lat="38.031227923255194" lon="14.039435556836677"><ele>50.0</ele><time>2026-04-09T10:26:16Z</time></trkpt><trkpt lat="38.03111340261996" lon="14.039581844471448"><ele>50.0</ele><time>2026-04-09T10:26:17Z</time></trkpt><trkpt lat="38.030997679092586" lon="14.039733676668297"><ele>50.0</ele><time>2026-04-09T10:26:18Z</time></trkpt><trkpt lat="38.03088583442565" lon="14.03988155050638"><ele>50.0</ele><time>2026-04-09T10:26:19Z</time></trkpt><trkpt lat="38.03077343313594" lon="14.040030174561094"><ele>53.66666666666667</ele><time>2026-04-09T10:26:20Z</time></trkpt><trkpt lat="38.030659598741394" lon="14.040185061755244"><ele>57.33333333333333</ele><time>2026-04-09T10:26:21Z</time></trkpt><trkpt lat="38.030554228611685" lon="14.040352794202944"><ele>61.0</ele><time>2026-04-09T10:26:22Z</time></trkpt><trkpt lat="38.03047280512158" lon="14.040533315997521"><ele>61.0</ele><time>2026-04-09T10:26:23Z</time></trkpt><trkpt lat="38.03039374346177" lon="14.040701671921218"><ele>61.0</ele><time>2026-04-09T10:26:24Z</time></trkpt><trkpt lat="38.030308127686254" lon="14.040861758869331"><ele>61.0</ele><time>2026-04-09T10:26:25Z</time></trkpt><trkpt lat="38.03022534503411" lon="14.041016880229341"><ele>59.75</ele><time>2026-04-09T10:26:26Z</time></trkpt><trkpt lat="38.030156261731626" lon="14.04117456817586"><ele>58.5</ele><time>2026-04-09T10:26:27Z</time></trkpt><trkpt lat="38.030087172140966" lon="14.041337044763134"><ele>57.25</ele><time>2026-04-09T10:26:28Z</time></trkpt><trkpt lat="38.03002264669291" lon="14.041499882773767"><ele>56.0</ele><time>2026-04-09T10:26:29Z</time></trkpt><trkpt lat="38.029952850468696" lon="14.041660745512834"><ele>56.0</ele><time>2026-04-09T10:26:30Z</time></trkpt><trkpt lat="38.029875102978835" lon="14.041823164826392"><ele>56.0</ele><time>2026-04-09T10:26:31Z</time></trkpt><trkpt lat="38.02978263158413" lon="14.041976292831453"><ele>56.0</ele><time>2026-04-09T10:26:32Z</time></trkpt><trkpt lat="38.029674337751366" lon="14.042123014552061"><ele>56.0</ele><time>2026-04-09T10:26:33Z</time></trkpt><trkpt lat="38.029560037991466" lon="14.042253095661072"><ele>56.0</ele><time>2026-04-09T10:26:34Z</time></trkpt><trkpt lat="38.02944159143446" lon="14.042387807691044"><ele>56.0</ele><time>2026-04-09T10:26:35Z</time></trkpt><trkpt lat="38.02934927321229" lon="14.042541875343144"><ele>49.333333333333336</ele><time>2026-04-09T10:26:36Z</time></trkpt><trkpt lat="38.029272879614865" lon="14.042720777062264"><ele>42.66666666666667</ele><time>2026-04-09T10:26:37Z</time></trkpt><trkpt lat="38.02921559167791" lon="14.042903751005017"><ele>36.0</ele><time>2026-04-09T10:26:38Z</time></trkpt><trkpt lat="38.02917515823773" lon="14.043085899379461"><ele>36.0</ele><time>2026-04-09T10:26:39Z</time></trkpt><trkpt lat="38.029154730507514" lon="14.043260962358891"><ele>36.0</ele><time>2026-04-09T10:26:40Z</time></trkpt><trkpt lat="38.0291452522134" lon="14.043427811242694"><ele>36.0</ele><time>2026-04-09T10:26:41Z</time></trkpt><trkpt lat="38.029111936025316" lon="14.043594000805752"><ele>36.0</ele><time>2026-04-09T10:26:42Z</time></trkpt><trkpt lat="38.02905934646866" lon="14.043751893140112"><ele>41.25</ele><time>2026-04-09T10:26:43Z</time></trkpt><trkpt lat="38.02902703964846" lon="14.043912597075888"><ele>46.5</ele><time>2026-04-09T10:26:44Z</time></trkpt><trkpt lat="38.028995024694204" lon="14.044071132916768"><ele>51.75</ele><time>2026-04-09T10:26:45Z</time></trkpt><trkpt lat="38.029020935249925" lon="14.044227235569673"><ele>57.0</ele><time>2026-04-09T10:26:46Z</time></trkpt><trkpt lat="38.02901550009366" lon="14.044376869115139"><ele>57.0</ele><time>2026-04-09T10:26:47Z</time></trkpt><trkpt lat="38.02899719042164" lon="14.044522237825344"><ele>57.0</ele><time>2026-04-09T10:26:48Z</time></trkpt><trkpt lat="38.028984592458535" lon="14.044669953167183"><ele>57.0</ele><time>2026-04-09T10:26:49Z</time></trkpt><trkpt lat="38.02899336578259" lon="14.044817074153237"><ele>57.0</ele><time>2026-04-09T10:26:50Z</time></trkpt><trkpt lat="38.02900575872884" lon="14.044963139121313"><ele>53.0</ele><time>2026-04-09T10:26:51Z</time></trkpt><trkpt lat="38.02899263161887" lon="14.045116256017428"><ele>49.0</ele><time>2026-04-09T10:26:52Z</time></trkpt><trkpt lat="38.02896088263832" lon="14.045262307559728"><ele>45.0</ele><time>2026-04-09T10:26:53Z</time></trkpt><trkpt lat="38.028910596988446" lon="14.045398383662558"><ele>41.0</ele><time>2026-04-09T10:26:54Z</time></trkpt><trkpt lat="38.02883567216182" lon="14.045526386275329"><ele>41.0</ele><time>2026-04-09T10:26:55Z</time></trkpt><trkpt lat="38.0287428468922" lon="14.045641191187778"><ele>41.0</ele><time>2026-04-09T10:26:56Z</time></trkpt><trkpt lat="38.02863921586934" lon="14.04574810152523"><ele>41.0</ele><time>2026-04-09T10:26:57Z</time></trkpt><trkpt lat="38.028530375687865" lon="14.04585238520416"><ele>41.0</ele><time>2026-04-09T10:26:58Z</time></trkpt><trkpt lat="38.02842524472516" lon="14.045955993300678"><ele>36.25</ele><time>2026-04-09T10:26:59Z</time></trkpt><trkpt lat="38.02831856410703" lon="14.046059245087495"><ele>31.5</ele><time>2026-04-09T10:27:00Z</time></trkpt><trkpt lat="38.028216434609604" lon="14.046168227592714"><ele>26.75</ele><time>2026-04-09T10:27:01Z</time></trkpt><trkpt lat="38.02812085929328" lon="14.046298855407581"><ele>22.0</ele><time>2026-04-09T10:27:02Z</time></trkpt><trkpt lat="38.02804852802858" lon="14.046452825819744"><ele>25.0</ele><time>2026-04-09T10:27:03Z</time></trkpt><trkpt lat="38.02798409868288" lon="14.046607209983893"><ele>28.0</ele><time>2026-04-09T10:27:04Z</time></trkpt><trkpt lat="38.02790436859101" lon="14.046740661139555"><ele>31.0</ele><time>2026-04-09T10:27:05Z</time></trkpt><trkpt lat="38.027823075227374" lon="14.046871371485306"><ele>34.0</ele><time>2026-04-09T10:27:06Z</time></trkpt><trkpt lat="38.027746801138896" lon="14.04700559814913"><ele>34.0</ele><time>2026-04-09T10:27:07Z</time></trkpt><trkpt lat="38.027670774088804" lon="14.047142629681577"><ele>34.0</ele><time>2026-04-09T10:27:08Z</time></trkpt><trkpt lat="38.02760570579207" lon="14.04730000218955"><ele>34.0</ele><time>2026-04-09T10:27:09Z</time></trkpt><trkpt lat="38.02755986752588" lon="14.04747403394578"><ele>34.0</ele><time>2026-04-09T10:27:10Z</time></trkpt><trkpt lat="38.02751769727407" lon="14.047654884012896"><ele>34.75</ele><time>2026-04-09T10:27:11.001Z</time></trkpt><trkpt lat="38.02746729837962" lon="14.04782370897313"><ele>35.5</ele><time>2026-04-09T10:27:12.001Z</time></trkpt><trkpt lat="38.02740748773728" lon="14.047983503855594"><ele>36.25</ele><time>2026-04-09T10:27:13.001Z</time></trkpt><trkpt lat="38.02734305308561" lon="14.04813788614988"><ele>37.0</ele><time>2026-04-09T10:27:14.001Z</time></trkpt><trkpt lat="38.02728347744208" lon="14.048297965359097"><ele>37.0</ele><time>2026-04-09T10:27:15.001Z</time></trkpt><trkpt lat="38.027227701776845" lon="14.04844450909445"><ele>37.0</ele><time>2026-04-09T10:27:16.001Z</time></trkpt><trkpt lat="38.0271613171389" lon="14.048584844689268"><ele>37.0</ele><time>2026-04-09T10:27:17.001Z</time></trkpt><trkpt lat="38.02707785528486" lon="14.048715309505017"><ele>37.0</ele><time>2026-04-09T10:27:18.001Z</time></trkpt><trkpt lat="38.02698380576156" lon="14.048843584142867"><ele>37.0</ele><time>2026-04-09T10:27:19.001Z</time></trkpt><trkpt lat="38.02689505313996" lon="14.048973547234839"><ele>37.0</ele><time>2026-04-09T10:27:20.001Z</time></trkpt><trkpt lat="38.026806061703105" lon="14.0491031180474"><ele>37.0</ele><time>2026-04-09T10:27:21.001Z</time></trkpt><trkpt lat="38.026717957204966" lon="14.049233298085845"><ele>37.0</ele><time>2026-04-09T10:27:22.001Z</time></trkpt><trkpt lat="38.02663893938402" lon="14.04936905691876"><ele>38.0</ele><time>2026-04-09T10:27:23.001Z</time></trkpt><trkpt lat="38.02656858260645" lon="14.049509740656704"><ele>39.0</ele><time>2026-04-09T10:27:24.001Z</time></trkpt><trkpt lat="38.02651029416426" lon="14.049663370483753"><ele>40.0</ele><time>2026-04-09T10:27:25.001Z</time></trkpt><trkpt lat="38.02644796417389" lon="14.049812334903919"><ele>41.0</ele><time>2026-04-09T10:27:26.001Z</time></trkpt><trkpt lat="38.026385500272575" lon="14.049960003164127"><ele>41.0</ele><time>2026-04-09T10:27:27.001Z</time></trkpt><trkpt lat="38.0263329696461" lon="14.050110888747827"><ele>41.0</ele><time>2026-04-09T10:27:28.001Z</time></trkpt><trkpt lat="38.02630381428141" lon="14.050274262869113"><ele>41.0</ele><time>2026-04-09T10:27:29.001Z</time></trkpt><trkpt lat="38.02628221264718" lon="14.050439560801282"><ele>41.0</ele><time>2026-04-09T10:27:30.001Z</time></trkpt><trkpt lat="38.026252294422115" lon="14.050605189781331"><ele>41.0</ele><time>2026-04-09T10:27:31.001Z</time></trkpt><trkpt lat="38.02622038051816" lon="14.050766449539735"><ele>41.0</ele><time>2026-04-09T10:27:32.001Z</time></trkpt><trkpt lat="38.02618866972354" lon="14.0509184850026"><ele>41.0</ele><time>2026-04-09T10:27:33.001Z</time></trkpt><trkpt lat="38.026160494911586" lon="14.051073986794313"><ele>41.0</ele><time>2026-04-09T10:27:34.001Z</time></trkpt><trkpt lat="38.02612353472649" lon="14.051222630085682"><ele>37.75</ele><time>2026-04-09T10:27:35.001Z</time></trkpt><trkpt lat="38.026090022753095" lon="14.05136445858093"><ele>34.5</ele><time>2026-04-09T10:27:36.001Z</time></trkpt><trkpt lat="38.02604714904661" lon="14.051499976821413"><ele>31.25</ele><time>2026-04-09T10:27:37.001Z</time></trkpt><trkpt lat="38.02598600616449" lon="14.051631095413857"><ele>28.0</ele><time>2026-04-09T10:27:38.001Z</time></trkpt><trkpt lat="38.025910436690026" lon="14.051752500107114"><ele>30.0</ele><time>2026-04-09T10:27:39.001Z</time></trkpt><trkpt lat="38.02582839321478" lon="14.05185560315982"><ele>31.999999999999996</ele><time>2026-04-09T10:27:40.001Z</time></trkpt><trkpt lat="38.02575297562063" lon="14.051955192587714"><ele>34.0</ele><time>2026-04-09T10:27:41.001Z</time></trkpt><trkpt lat="38.025681898761434" lon="14.052049427827093"><ele>36.0</ele><time>2026-04-09T10:27:42.001Z</time></trkpt><trkpt lat="38.02559518711025" lon="14.052127978053283"><ele>38.0</ele><time>2026-04-09T10:27:43.001Z</time></trkpt><trkpt lat="38.025510855895895" lon="14.052204847633318"><ele>38.0</ele><time>2026-04-09T10:27:44.001Z</time></trkpt><trkpt lat="38.0254244215135" lon="14.052276432005806"><ele>38.0</ele><time>2026-04-09T10:27:45.001Z</time></trkpt><trkpt lat="38.02533593942631" lon="14.052360611403806"><ele>38.0</ele><time>2026-04-09T10:27:46.001Z</time></trkpt><trkpt lat="38.02523816139483" lon="14.052435825222"><ele>38.0</ele><time>2026-04-09T10:27:47.001Z</time></trkpt><trkpt lat="38.02514385001068" lon="14.052507338620702"><ele>38.0</ele><time>2026-04-09T10:27:48.001Z</time></trkpt><trkpt lat="38.02504868251813" lon="14.052576822993661"><ele>44.25</ele><time>2026-04-09T10:27:49.001Z</time></trkpt><trkpt lat="38.024952033234136" lon="14.052650685201256"><ele>50.5</ele><time>2026-04-09T10:27:50.001Z</time></trkpt><trkpt lat="38.024863685249414" lon="14.05273844597209"><ele>56.75</ele><time>2026-04-09T10:27:51.001Z</time></trkpt><trkpt lat="38.02478709692523" lon="14.052847670228564"><ele>63.0</ele><time>2026-04-09T10:27:52.001Z</time></trkpt><trkpt lat="38.02472936247344" lon="14.05298142945032"><ele>63.0</ele><time>2026-04-09T10:27:53.001Z</time></trkpt><trkpt lat="38.02469471160726" lon="14.053136396653917"><ele>63.0</ele><time>2026-04-09T10:27:54.001Z</time></trkpt><trkpt lat="38.02468271427629" lon="14.053295476390565"><ele>63.0</ele><time>2026-04-09T10:27:55.001Z</time></trkpt><trkpt lat="38.02466356618843" lon="14.053466539587548"><ele>63.0</ele><time>2026-04-09T10:27:56.001Z</time></trkpt><trkpt lat="38.02464097857853" lon="14.053645669979673"><ele>59.0</ele><time>2026-04-09T10:27:57.001Z</time></trkpt><trkpt lat="38.024618365345916" lon="14.05382471304269"><ele>55.0</ele><time>2026-04-09T10:27:58.001Z</time></trkpt><trkpt lat="38.024597993925504" lon="14.053994263321439"><ele>51.0</ele><time>2026-04-09T10:27:59.001Z</time></trkpt><trkpt lat="38.02457325707016" lon="14.054167135891769"><ele>47.0</ele><time>2026-04-09T10:28:00.001Z</time></trkpt><trkpt lat="38.024549057331676" lon="14.054337671584875"><ele>43.0</ele><time>2026-04-09T10:28:01.001Z</time></trkpt><trkpt lat="38.02451115770637" lon="14.054501240734227"><ele>39.0</ele><time>2026-04-09T10:28:02.001Z</time></trkpt><trkpt lat="38.02443100071726" lon="14.054648914342188"><ele>35.0</ele><time>2026-04-09T10:28:03.001Z</time></trkpt><trkpt lat="38.0243099257263" lon="14.054752397881916"><ele>31.0</ele><time>2026-04-09T10:28:04.001Z</time></trkpt><trkpt lat="38.024205434390545" lon="14.054870413789006"><ele>32.0</ele><time>2026-04-09T10:28:05.001Z</time></trkpt><trkpt lat="38.02410144383384" lon="14.054963255197652"><ele>33.0</ele><time>2026-04-09T10:28:06.001Z</time></trkpt><trkpt lat="38.02399334665977" lon="14.05506221434505"><ele>34.0</ele><time>2026-04-09T10:28:07.001Z</time></trkpt><trkpt lat="38.02388096559503" lon="14.055157651282135"><ele>35.0</ele><time>2026-04-09T10:28:08.001Z</time></trkpt><trkpt lat="38.02376452241358" lon="14.05523866093298"><ele>35.0</ele><time>2026-04-09T10:28:09.001Z</time></trkpt><trkpt lat="38.02364450864091" lon="14.055293856327717"><ele>35.0</ele><time>2026-04-09T10:28:10.001Z</time></trkpt><trkpt lat="38.02353178163161" lon="14.055328714377861"><ele>35.0</ele><time>2026-04-09T10:28:11.001Z</time></trkpt><trkpt lat="38.023423830514936" lon="14.055373402168685"><ele>35.0</ele><time>2026-04-09T10:28:12.001Z</time></trkpt><trkpt lat="38.023310807937335" lon="14.055435867196547"><ele>32.25</ele><time>2026-04-09T10:28:13.001Z</time></trkpt><trkpt lat="38.02320195314528" lon="14.055504790980146"><ele>29.5</ele><time>2026-04-09T10:28:14.001Z</time></trkpt><trkpt lat="38.023099593284286" lon="14.055600143784194"><ele>26.75</ele><time>2026-04-09T10:28:15.001Z</time></trkpt><trkpt lat="38.0229882303293" lon="14.055706365968089"><ele>24.0</ele><time>2026-04-09T10:28:16.001Z</time></trkpt><trkpt lat="38.02287862186235" lon="14.055806335181655"><ele>24.0</ele><time>2026-04-09T10:28:17.001Z</time></trkpt><trkpt lat="38.022776138936926" lon="14.055895280655845"><ele>24.0</ele><time>2026-04-09T10:28:18.001Z</time></trkpt><trkpt lat="38.02267313966271" lon="14.055987426860856"><ele>24.0</ele><time>2026-04-09T10:28:19.001Z</time></trkpt><trkpt lat="38.022576469091014" lon="14.056082085646995"><ele>24.0</ele><time>2026-04-09T10:28:20.001Z</time></trkpt><trkpt lat="38.02247855598577" lon="14.056178634167807"><ele>26.5</ele><time>2026-04-09T10:28:21.001Z</time></trkpt><trkpt lat="38.022395105629016" lon="14.056287856202722"><ele>29.0</ele><time>2026-04-09T10:28:22.001Z</time></trkpt><trkpt lat="38.022328895183826" lon="14.056413905142643"><ele>31.5</ele><time>2026-04-09T10:28:23.001Z</time></trkpt><trkpt lat="38.02227589023457" lon="14.056545062737847"><ele>34.0</ele><time>2026-04-09T10:28:24.001Z</time></trkpt><trkpt lat="38.02221793939151" lon="14.056675978841126"><ele>34.0</ele><time>2026-04-09T10:28:25.001Z</time></trkpt><trkpt lat="38.022168692731306" lon="14.056814813471904"><ele>34.0</ele><time>2026-04-09T10:28:26.001Z</time></trkpt><trkpt lat="38.02211549691785" lon="14.056945077368411"><ele>34.0</ele><time>2026-04-09T10:28:27.001Z</time></trkpt><trkpt lat="38.02206818010926" lon="14.057062937858056"><ele>34.0</ele><time>2026-04-09T10:28:28.001Z</time></trkpt><trkpt lat="38.02202069970532" lon="14.057178129464024"><ele>34.0</ele><time>2026-04-09T10:28:29.001Z</time></trkpt><trkpt lat="38.021974567348614" lon="14.057292203533645"><ele>34.0</ele><time>2026-04-09T10:28:30.001Z</time></trkpt><trkpt lat="38.02192892577833" lon="14.057397447154157"><ele>34.0</ele><time>2026-04-09T10:28:31.001Z</time></trkpt><trkpt lat="38.02188246142601" lon="14.057501620958696"><ele>34.0</ele><time>2026-04-09T10:28:32.001Z</time></trkpt><trkpt lat="38.02183751341406" lon="14.057609642953123"><ele>34.0</ele><time>2026-04-09T10:28:33.001Z</time></trkpt><trkpt lat="38.021791368063305" lon="14.057716566265885"><ele>34.0</ele><time>2026-04-09T10:28:34.001Z</time></trkpt><trkpt lat="38.02173472485146" lon="14.057803255235608"><ele>33.66666666666667</ele><time>2026-04-09T10:28:35.001Z</time></trkpt><trkpt lat="38.02164932804777" lon="14.05784188307859"><ele>33.333333333333336</ele><time>2026-04-09T10:28:36.001Z</time></trkpt><trkpt lat="38.02155622222119" lon="14.057869188012646"><ele>33.0</ele><time>2026-04-09T10:28:37.001Z</time></trkpt><trkpt lat="38.021475760327164" lon="14.057911729087243"><ele>32.666666666666664</ele><time>2026-04-09T10:28:38.001Z</time></trkpt><trkpt lat="38.02139364486428" lon="14.057970664924799"><ele>32.33333333333333</ele><time>2026-04-09T10:28:39.001Z</time></trkpt><trkpt lat="38.021328642435215" lon="14.058028467197994"><ele>32.0</ele><time>2026-04-09T10:28:40.001Z</time></trkpt><trkpt lat="38.0212581679313" lon="14.058105481593188"><ele>32.0</ele><time>2026-04-09T10:28:41.001Z</time></trkpt><trkpt lat="38.021193914531075" lon="14.05820214806812"><ele>32.0</ele><time>2026-04-09T10:28:42.001Z</time></trkpt><trkpt lat="38.02115147796149" lon="14.058302760434715"><ele>32.0</ele><time>2026-04-09T10:28:43.001Z</time></trkpt><trkpt lat="38.02109899989996" lon="14.058385013574162"><ele>32.0</ele><time>2026-04-09T10:28:44.001Z</time></trkpt><trkpt lat="38.021040941312044" lon="14.058476651005646"><ele>32.0</ele><time>2026-04-09T10:28:45.001Z</time></trkpt><trkpt lat="38.02097847564583" lon="14.058577274513546"><ele>28.8</ele><time>2026-04-09T10:28:46.001Z</time></trkpt><trkpt lat="38.02092021195346" lon="14.058682556347224"><ele>25.6</ele><time>2026-04-09T10:28:47.001Z</time></trkpt><trkpt lat="38.02087331433219" lon="14.05878751706917"><ele>22.400000000000002</ele><time>2026-04-09T10:28:48.001Z</time></trkpt><trkpt lat="38.0208267033524" lon="14.058907300611711"><ele>19.200000000000003</ele><time>2026-04-09T10:28:49.001Z</time></trkpt><trkpt lat="38.02083504767732" lon="14.059054536742154"><ele>16.0</ele><time>2026-04-09T10:28:50.001Z</time></trkpt><trkpt lat="38.02082548680095" lon="14.059195968117953"><ele>18.5</ele><time>2026-04-09T10:28:51.001Z</time></trkpt><trkpt lat="38.02079767962249" lon="14.059340347585568"><ele>21.0</ele><time>2026-04-09T10:28:52.001Z</time></trkpt><trkpt lat="38.02073939389603" lon="14.059471086833693"><ele>23.5</ele><time>2026-04-09T10:28:53.001Z</time></trkpt><trkpt lat="38.02068566754647" lon="14.059615233509959"><ele>26.0</ele><time>2026-04-09T10:28:54.001Z</time></trkpt><trkpt lat="38.02062962621028" lon="14.059761878948928"><ele>26.0</ele><time>2026-04-09T10:28:55.001Z</time></trkpt><trkpt lat="38.02057202142872" lon="14.059912755127899"><ele>26.0</ele><time>2026-04-09T10:28:56.001Z</time></trkpt><trkpt lat="38.02051644524897" lon="14.060075241476655"><ele>26.0</ele><time>2026-04-09T10:28:57.001Z</time></trkpt><trkpt lat="38.02042588920214" lon="14.060218584466444"><ele>26.0</ele><time>2026-04-09T10:28:58.001Z</time></trkpt><trkpt lat="38.02033233178335" lon="14.060376642077273"><ele>26.666666666666664</ele><time>2026-04-09T10:28:59.001Z</time></trkpt><trkpt lat="38.020218432061945" lon="14.060551757638422"><ele>27.333333333333336</ele><time>2026-04-09T10:29:00.001Z</time></trkpt><trkpt lat="38.020094105816355" lon="14.060723073447347"><ele>28.0</ele><time>2026-04-09T10:29:01.001Z</time></trkpt><trkpt lat="38.01996359348053" lon="14.060887790160889"><ele>31.666666666666668</ele><time>2026-04-09T10:29:02.001Z</time></trkpt><trkpt lat="38.019826678772525" lon="14.06105131058626"><ele>35.333333333333336</ele><time>2026-04-09T10:29:03.001Z</time></trkpt><trkpt lat="38.01968473342422" lon="14.061217558727076"><ele>39.0</ele><time>2026-04-09T10:29:04.001Z</time></trkpt><trkpt lat="38.01954970374366" lon="14.061398999373461"><ele>39.0</ele><time>2026-04-09T10:29:05.001Z</time></trkpt><trkpt lat="38.019408171090355" lon="14.061553191500105"><ele>39.0</ele><time>2026-04-09T10:29:06.001Z</time></trkpt><trkpt lat="38.01928222769876" lon="14.061697233927353"><ele>39.0</ele><time>2026-04-09T10:29:07.001Z</time></trkpt><trkpt lat="38.01917061758391" lon="14.061832287892553"><ele>40.75</ele><time>2026-04-09T10:29:08.001Z</time></trkpt><trkpt lat="38.01906738790982" lon="14.06195908543113"><ele>42.5</ele><time>2026-04-09T10:29:09.001Z</time></trkpt><trkpt lat="38.018970513306854" lon="14.062072774662655"><ele>44.25</ele><time>2026-04-09T10:29:10.001Z</time></trkpt><trkpt lat="38.018878280963676" lon="14.062181563959063"><ele>46.0</ele><time>2026-04-09T10:29:11.001Z</time></trkpt><trkpt lat="38.01879531066531" lon="14.062277697505188"><ele>46.0</ele><time>2026-04-09T10:29:12.001Z</time></trkpt><trkpt lat="38.0187150544479" lon="14.062362914313944"><ele>46.0</ele><time>2026-04-09T10:29:13.001Z</time></trkpt><trkpt lat="38.01864318660963" lon="14.062465551408348"><ele>46.0</ele><time>2026-04-09T10:29:14.001Z</time></trkpt><trkpt lat="38.01857430075194" lon="14.062588991784528"><ele>46.0</ele><time>2026-04-09T10:29:15.001Z</time></trkpt><trkpt lat="38.01851543796531" lon="14.062719819172862"><ele>49.25</ele><time>2026-04-09T10:29:16.001Z</time></trkpt><trkpt lat="38.01845711228089" lon="14.062840123559242"><ele>52.5</ele><time>2026-04-09T10:29:17.001Z</time></trkpt><trkpt lat="38.01839509785006" lon="14.062958841076382"><ele>55.75</ele><time>2026-04-09T10:29:18.001Z</time></trkpt><trkpt lat="38.01833736222586" lon="14.063085274502097"><ele>59.0</ele><time>2026-04-09T10:29:19.001Z</time></trkpt><trkpt lat="38.01828935050659" lon="14.063218165619183"><ele>58.25</ele><time>2026-04-09T10:29:20.001Z</time></trkpt><trkpt lat="38.01821731678983" lon="14.063343878988485"><ele>57.5</ele><time>2026-04-09T10:29:21.001Z</time></trkpt><trkpt lat="38.0181641083405" lon="14.063486092690363"><ele>56.75</ele><time>2026-04-09T10:29:22.001Z</time></trkpt><trkpt lat="38.01812815764531" lon="14.063636956592186"><ele>56.0</ele><time>2026-04-09T10:29:23.001Z</time></trkpt><trkpt lat="38.01809921671144" lon="14.063789826316215"><ele>56.0</ele><time>2026-04-09T10:29:24.001Z</time></trkpt><trkpt lat="38.01807386555054" lon="14.063949201690596"><ele>56.0</ele><time>2026-04-09T10:29:25.001Z</time></trkpt><trkpt lat="38.018052795901355" lon="14.064097889242344"><ele>56.0</ele><time>2026-04-09T10:29:26.001Z</time></trkpt><trkpt lat="38.018033359209376" lon="14.064229204074083"><ele>56.0</ele><time>2026-04-09T10:29:27.001Z</time></trkpt><trkpt lat="38.01800918737611" lon="14.064386059682072"><ele>52.75</ele><time>2026-04-09T10:29:28.001Z</time></trkpt><trkpt lat="38.0179834518663" lon="14.064539139441687"><ele>49.5</ele><time>2026-04-09T10:29:29.001Z</time></trkpt><trkpt lat="38.01795553770805" lon="14.064697593332259"><ele>46.25</ele><time>2026-04-09T10:29:30.001Z</time></trkpt><trkpt lat="38.01792616243523" lon="14.064864341217756"><ele>43.0</ele><time>2026-04-09T10:29:31.001Z</time></trkpt><trkpt lat="38.01790575113446" lon="14.064979702615448"><ele>41.4</ele><time>2026-04-09T10:29:33.001Z</time></trkpt><trkpt lat="38.017895741170996" lon="14.065117653106348"><ele>39.8</ele><time>2026-04-09T10:29:34.001Z</time></trkpt><trkpt lat="38.01786502087612" lon="14.065250239810876"><ele>38.2</ele><time>2026-04-09T10:29:35.001Z</time></trkpt><trkpt lat="38.0178371889317" lon="14.065386439573398"><ele>36.6</ele><time>2026-04-09T10:29:36.001Z</time></trkpt><trkpt lat="38.01781064997891" lon="14.065525733910203"><ele>35.0</ele><time>2026-04-09T10:29:37.001Z</time></trkpt><trkpt lat="38.01778120231998" lon="14.065667333270818"><ele>33.5</ele><time>2026-04-09T10:29:38.001Z</time></trkpt><trkpt lat="38.01775752774046" lon="14.065811399348771"><ele>32.0</ele><time>2026-04-09T10:29:39.001Z</time></trkpt><trkpt lat="38.01773930514536" lon="14.065957877744381"><ele>30.5</ele><time>2026-04-09T10:29:40.001Z</time></trkpt><trkpt lat="38.0177353336471" lon="14.066112226577593"><ele>29.0</ele><time>2026-04-09T10:29:41.001Z</time></trkpt><trkpt lat="38.01773138537622" lon="14.0662759689904"><ele>29.0</ele><time>2026-04-09T10:29:42.001Z</time></trkpt><trkpt lat="38.017729603408384" lon="14.0664434327073"><ele>29.0</ele><time>2026-04-09T10:29:43.001Z</time></trkpt><trkpt lat="38.01772334223958" lon="14.06660185686701"><ele>29.0</ele><time>2026-04-09T10:29:44.001Z</time></trkpt><trkpt lat="38.01771445384511" lon="14.066764415811747"><ele>29.0</ele><time>2026-04-09T10:29:45.001Z</time></trkpt><trkpt lat="38.017704783254025" lon="14.066925876220315"><ele>29.25</ele><time>2026-04-09T10:29:46.001Z</time></trkpt><trkpt lat="38.01770521602238" lon="14.067082944009245"><ele>29.5</ele><time>2026-04-09T10:29:47.001Z</time></trkpt><trkpt lat="38.017722101378034" lon="14.067239129459212"><ele>29.75</ele><time>2026-04-09T10:29:48.001Z</time></trkpt><trkpt lat="38.01775150406353" lon="14.067401860335941"><ele>30.0</ele><time>2026-04-09T10:29:49.001Z</time></trkpt><trkpt lat="38.017771865210655" lon="14.067557056785228"><ele>30.0</ele><time>2026-04-09T10:29:50.001Z</time></trkpt><trkpt lat="38.01778700073618" lon="14.06771120538111"><ele>30.0</ele><time>2026-04-09T10:29:51.001Z</time></trkpt><trkpt lat="38.01779714675117" lon="14.06786648928073"><ele>30.0</ele><time>2026-04-09T10:29:52.001Z</time></trkpt><trkpt lat="38.01780525600802" lon="14.068008533467339"><ele>30.0</ele><time>2026-04-09T10:29:53.001Z</time></trkpt><trkpt lat="38.01780438717841" lon="14.068141712799315"><ele>31.0</ele><time>2026-04-09T10:29:54.001Z</time></trkpt><trkpt lat="38.01779626486689" lon="14.06828289150471"><ele>32.0</ele><time>2026-04-09T10:29:55.001Z</time></trkpt><trkpt lat="38.01778204218844" lon="14.06842717893765"><ele>33.0</ele><time>2026-04-09T10:29:56.001Z</time></trkpt><trkpt lat="38.01776727679902" lon="14.068578475156535"><ele>34.0</ele><time>2026-04-09T10:29:57.001Z</time></trkpt><trkpt lat="38.01775313595195" lon="14.068722105830924"><ele>34.0</ele><time>2026-04-09T10:29:58.001Z</time></trkpt><trkpt lat="38.01773255898405" lon="14.068868559589294"><ele>34.0</ele><time>2026-04-09T10:29:59.001Z</time></trkpt><trkpt lat="38.0177148618043" lon="14.069004577377692"><ele>34.0</ele><time>2026-04-09T10:30:00.001Z</time></trkpt><trkpt lat="38.017694032175825" lon="14.069143273462023"><ele>34.0</ele><time>2026-04-09T10:30:01.001Z</time></trkpt><trkpt lat="38.01766177028568" lon="14.069285571391724"><ele>32.0</ele><time>2026-04-09T10:30:02.001Z</time></trkpt><trkpt lat="38.01762214628953" lon="14.069426352196029"><ele>30.0</ele><time>2026-04-09T10:30:03.001Z</time></trkpt><trkpt lat="38.01757452122907" lon="14.069565413521701"><ele>28.0</ele><time>2026-04-09T10:30:04.001Z</time></trkpt><trkpt lat="38.01753161576987" lon="14.069694940899291"><ele>26.0</ele><time>2026-04-09T10:30:05.001Z</time></trkpt><trkpt lat="38.01749655933809" lon="14.069824154532537"><ele>32.6</ele><time>2026-04-09T10:30:06.001Z</time></trkpt><trkpt lat="38.01746573124662" lon="14.069956007235955"><ele>39.2</ele><time>2026-04-09T10:30:07.001Z</time></trkpt><trkpt lat="38.01743033996173" lon="14.070082024483494"><ele>45.800000000000004</ele><time>2026-04-09T10:30:08.001Z</time></trkpt><trkpt lat="38.017399906654184" lon="14.07021162829325"><ele>52.400000000000006</ele><time>2026-04-09T10:30:09.001Z</time></trkpt><trkpt lat="38.01737278246941" lon="14.070343060597555"><ele>59.0</ele><time>2026-04-09T10:30:10.001Z</time></trkpt><trkpt lat="38.01734568288878" lon="14.07047634024531"><ele>59.0</ele><time>2026-04-09T10:30:11.001Z</time></trkpt><trkpt lat="38.01732280278363" lon="14.070607620705015"><ele>59.00000000000001</ele><time>2026-04-09T10:30:12.001Z</time></trkpt><trkpt lat="38.017301699784795" lon="14.070737268784834"><ele>59.00000000000001</ele><time>2026-04-09T10:30:13.001Z</time></trkpt><trkpt lat="38.01727490034627" lon="14.070871575071207"><ele>59.0</ele><time>2026-04-09T10:30:14.001Z</time></trkpt><trkpt lat="38.01724418942628" lon="14.071000368831447"><ele>59.0</ele><time>2026-04-09T10:30:15.002Z</time></trkpt><trkpt lat="38.017211664547155" lon="14.07112968537684"><ele>56.6</ele><time>2026-04-09T10:30:16.002Z</time></trkpt><trkpt lat="38.01718108183318" lon="14.07126247789972"><ele>54.2</ele><time>2026-04-09T10:30:17.002Z</time></trkpt><trkpt lat="38.017158838366775" lon="14.071397713346961"><ele>51.800000000000004</ele><time>2026-04-09T10:30:18.002Z</time></trkpt><trkpt lat="38.01713820174972" lon="14.0715348934184"><ele>49.400000000000006</ele><time>2026-04-09T10:30:19.002Z</time></trkpt><trkpt lat="38.01712393449276" lon="14.071671576525192"><ele>47.0</ele><time>2026-04-09T10:30:20.002Z</time></trkpt><trkpt lat="38.017115623396045" lon="14.071814965065236"><ele>44.75</ele><time>2026-04-09T10:30:21.002Z</time></trkpt><trkpt lat="38.01711364358639" lon="14.071968648105702"><ele>42.5</ele><time>2026-04-09T10:30:22.002Z</time></trkpt><trkpt lat="38.017123749335866" lon="14.072120913133856"><ele>40.25</ele><time>2026-04-09T10:30:23.002Z</time></trkpt><trkpt lat="38.01713426729515" lon="14.072273487687337"><ele>38.0</ele><time>2026-04-09T10:30:24.002Z</time></trkpt><trkpt lat="38.017144338861556" lon="14.072429313181964"><ele>38.75</ele><time>2026-04-09T10:30:25.002Z</time></trkpt><trkpt lat="38.017153855657625" lon="14.072585497821626"><ele>39.5</ele><time>2026-04-09T10:30:26.002Z</time></trkpt><trkpt lat="38.017166022371484" lon="14.07273521850528"><ele>40.25</ele><time>2026-04-09T10:30:27.002Z</time></trkpt><trkpt lat="38.01718449310374" lon="14.072887469243064"><ele>41.0</ele><time>2026-04-09T10:30:28.001Z</time></trkpt><trkpt lat="38.01720742571723" lon="14.073043055007725"><ele>41.0</ele><time>2026-04-09T10:30:29.001Z</time></trkpt><trkpt lat="38.0172322287215" lon="14.073189377571115"><ele>41.0</ele><time>2026-04-09T10:30:30.001Z</time></trkpt><trkpt lat="38.017254278794006" lon="14.073330771474794"><ele>41.0</ele><time>2026-04-09T10:30:31.001Z</time></trkpt><trkpt lat="38.01728674536851" lon="14.0734746597516"><ele>41.0</ele><time>2026-04-09T10:30:32.001Z</time></trkpt><trkpt lat="38.01731924355151" lon="14.073613359640564"><ele>41.4</ele><time>2026-04-09T10:30:33.001Z</time></trkpt><trkpt lat="38.01734353567109" lon="14.073747730383554"><ele>41.8</ele><time>2026-04-09T10:30:34.001Z</time></trkpt><trkpt lat="38.017367782158175" lon="14.07387185498901"><ele>42.199999999999996</ele><time>2026-04-09T10:30:35.001Z</time></trkpt><trkpt lat="38.01739789585086" lon="14.073992737296953"><ele>42.599999999999994</ele><time>2026-04-09T10:30:36.001Z</time></trkpt><trkpt lat="38.017422871835095" lon="14.074105358850447"><ele>43.0</ele><time>2026-04-09T10:30:37.001Z</time></trkpt><trkpt lat="38.017445778866666" lon="14.074213207484185"><ele>43.0</ele><time>2026-04-09T10:30:38.001Z</time></trkpt><trkpt lat="38.01745729645304" lon="14.074331533038885"><ele>43.0</ele><time>2026-04-09T10:30:39.001Z</time></trkpt><trkpt lat="38.017455737734004" lon="14.074444808375294"><ele>43.0</ele><time>2026-04-09T10:30:40.001Z</time></trkpt><trkpt lat="38.01744726131886" lon="14.074551184330534"><ele>43.0</ele><time>2026-04-09T10:30:41.001Z</time></trkpt><trkpt lat="38.01743873023158" lon="14.074651055047472"><ele>43.0</ele><time>2026-04-09T10:30:42.001Z</time></trkpt><trkpt lat="38.01742440993734" lon="14.074751452451508"><ele>43.0</ele><time>2026-04-09T10:30:43.001Z</time></trkpt><trkpt lat="38.017411020217104" lon="14.07485142870797"><ele>43.5</ele><time>2026-04-09T10:30:44.001Z</time></trkpt><trkpt lat="38.01741131167737" lon="14.074975430906163"><ele>44.0</ele><time>2026-04-09T10:30:46.001Z</time></trkpt><trkpt lat="38.017412984806406" lon="14.075072981977012"><ele>44.5</ele><time>2026-04-09T10:30:49.001Z</time></trkpt><trkpt lat="38.01740802668075" lon="14.075186314667924"><ele>45.0</ele><time>2026-04-09T10:30:53.001Z</time></trkpt><trkpt lat="38.01742216949903" lon="14.075283378586834"><ele>45.5</ele><time>2026-04-09T10:30:56.001Z</time></trkpt><trkpt lat="38.01744103323869" lon="14.075388489169846"><ele>46.0</ele><time>2026-04-09T10:31:04.001Z</time></trkpt><trkpt lat="38.017452739651276" lon="14.075478624875835"><ele>46.0</ele><time>2026-04-09T10:31:06.001Z</time></trkpt><trkpt lat="38.017467329909614" lon="14.07558867616005"><ele>46.0</ele><time>2026-04-09T10:31:08.001Z</time></trkpt><trkpt lat="38.01749336119687" lon="14.075736523100058"><ele>46.0</ele><time>2026-04-09T10:31:10.001Z</time></trkpt><trkpt lat="38.01751972513883" lon="14.07582823371746"><ele>46.0</ele><time>2026-04-09T10:31:11.001Z</time></trkpt><trkpt lat="38.01756743271399" lon="14.075940277475018"><ele>46.0</ele><time>2026-04-09T10:31:12.001Z</time></trkpt><trkpt lat="38.01762846605905" lon="14.076053855648414"><ele>41.8</ele><time>2026-04-09T10:31:13.001Z</time></trkpt><trkpt lat="38.01769059707665" lon="14.076174725435042"><ele>37.599999999999994</ele><time>2026-04-09T10:31:14.001Z</time></trkpt><trkpt lat="38.0177524228487" lon="14.076290887901465"><ele>33.4</ele><time>2026-04-09T10:31:15.001Z</time></trkpt><trkpt lat="38.017810563265215" lon="14.076407954999077"><ele>29.2</ele><time>2026-04-09T10:31:16.001Z</time></trkpt><trkpt lat="38.01785872334582" lon="14.076527938552106"><ele>25.0</ele><time>2026-04-09T10:31:17.001Z</time></trkpt><trkpt lat="38.01789325076215" lon="14.076650854217066"><ele>25.0</ele><time>2026-04-09T10:31:18.001Z</time></trkpt><trkpt lat="38.01791158337793" lon="14.076780875289959"><ele>25.0</ele><time>2026-04-09T10:31:19.001Z</time></trkpt><trkpt lat="38.01792074269563" lon="14.07692574514355"><ele>25.0</ele><time>2026-04-09T10:31:20.001Z</time></trkpt><trkpt lat="38.017923062771224" lon="14.077077828068049"><ele>25.0</ele><time>2026-04-09T10:31:21.001Z</time></trkpt><trkpt lat="38.01792842208947" lon="14.077242274979714"><ele>25.0</ele><time>2026-04-09T10:31:22.001Z</time></trkpt><trkpt lat="38.017936630789784" lon="14.077425851336073"><ele>25.0</ele><time>2026-04-09T10:31:23.001Z</time></trkpt><trkpt lat="38.01793658798016" lon="14.07761782689111"><ele>25.0</ele><time>2026-04-09T10:31:24.001Z</time></trkpt><trkpt lat="38.017940202065105" lon="14.07781073811867"><ele>25.0</ele><time>2026-04-09T10:31:25.001Z</time></trkpt><trkpt lat="38.017946144622485" lon="14.078003747290433"><ele>26.75</ele><time>2026-04-09T10:31:26.001Z</time></trkpt><trkpt lat="38.017956720505246" lon="14.078184176204259"><ele>28.5</ele><time>2026-04-09T10:31:27.001Z</time></trkpt><trkpt lat="38.01798780948448" lon="14.078352739349985"><ele>30.25</ele><time>2026-04-09T10:31:28.001Z</time></trkpt><trkpt lat="38.01802806973531" lon="14.07852961553689"><ele>32.0</ele><time>2026-04-09T10:31:29.001Z</time></trkpt><trkpt lat="38.01804342288324" lon="14.078696799278145"><ele>34.5</ele><time>2026-04-09T10:31:30.001Z</time></trkpt><trkpt lat="38.0180438836629" lon="14.07885195485628"><ele>37.0</ele><time>2026-04-09T10:31:31.001Z</time></trkpt><trkpt lat="38.01804077038889" lon="14.079008416125701"><ele>39.5</ele><time>2026-04-09T10:31:32.001Z</time></trkpt><trkpt lat="38.01804179933777" lon="14.079173617359778"><ele>42.0</ele><time>2026-04-09T10:31:33.001Z</time></trkpt><trkpt lat="38.018045864373185" lon="14.079342152605095"><ele>42.25</ele><time>2026-04-09T10:31:34.001Z</time></trkpt><trkpt lat="38.01804583540937" lon="14.079514505007603"><ele>42.5</ele><time>2026-04-09T10:31:35.001Z</time></trkpt><trkpt lat="38.018055721094285" lon="14.079689793467846"><ele>42.75</ele><time>2026-04-09T10:31:36.001Z</time></trkpt><trkpt lat="38.018059204532484" lon="14.079868740430149"><ele>43.0</ele><time>2026-04-09T10:31:37.001Z</time></trkpt><trkpt lat="38.01806782384714" lon="14.080039893212236"><ele>43.0</ele><time>2026-04-09T10:31:38.001Z</time></trkpt><trkpt lat="38.01807590690387" lon="14.080189947191137"><ele>43.0</ele><time>2026-04-09T10:31:39.001Z</time></trkpt><trkpt lat="38.018077022412086" lon="14.08033156121113"><ele>43.0</ele><time>2026-04-09T10:31:40.001Z</time></trkpt><trkpt lat="38.01806067353321" lon="14.08046310212548"><ele>43.0</ele><time>2026-04-09T10:31:41.001Z</time></trkpt><trkpt lat="38.01804042713348" lon="14.08057447888302"><ele>43.0</ele><time>2026-04-09T10:31:42.001Z</time></trkpt><trkpt lat="38.01804090150392" lon="14.080678360700517"><ele>42.333333333333336</ele><time>2026-04-09T10:31:43.001Z</time></trkpt><trkpt lat="38.01806544634122" lon="14.080780166909584"><ele>41.66666666666667</ele><time>2026-04-09T10:31:44.001Z</time></trkpt><trkpt lat="38.01809655752152" lon="14.080855740911687"><ele>41.0</ele><time>2026-04-09T10:31:45.001Z</time></trkpt><trkpt lat="38.01813321564964" lon="14.080922958069745"><ele>40.333333333333336</ele><time>2026-04-09T10:31:46.001Z</time></trkpt><trkpt lat="38.01822422158957" lon="14.081020902173595"><ele>39.666666666666664</ele><time>2026-04-09T10:31:48.001Z</time></trkpt><trkpt lat="38.01827863793801" lon="14.081079353496914"><ele>39.0</ele><time>2026-04-09T10:31:49.001Z</time></trkpt><trkpt lat="38.01835192083894" lon="14.081136167950403"><ele>38.2</ele><time>2026-04-09T10:31:50.001Z</time></trkpt><trkpt lat="38.018432468792646" lon="14.081195229015846"><ele>37.4</ele><time>2026-04-09T10:31:51.001Z</time></trkpt><trkpt lat="38.018514244797736" lon="14.081277969171367"><ele>36.6</ele><time>2026-04-09T10:31:52.001Z</time></trkpt><trkpt lat="38.01858394587682" lon="14.081399229653059"><ele>35.8</ele><time>2026-04-09T10:31:53.001Z</time></trkpt><trkpt lat="38.018636142757906" lon="14.081532646861799"><ele>35.0</ele><time>2026-04-09T10:31:54.001Z</time></trkpt><trkpt lat="38.01867914997346" lon="14.081661563362042"><ele>35.0</ele><time>2026-04-09T10:31:55.001Z</time></trkpt><trkpt lat="38.01872158158417" lon="14.081796159450446"><ele>35.0</ele><time>2026-04-09T10:31:56.001Z</time></trkpt><trkpt lat="38.01878573332644" lon="14.08191329438507"><ele>35.0</ele><time>2026-04-09T10:31:57.001Z</time></trkpt><trkpt lat="38.01885883299454" lon="14.082004762589952"><ele>35.0</ele><time>2026-04-09T10:31:58.001Z</time></trkpt><trkpt lat="38.018928184278714" lon="14.082109566249201"><ele>35.0</ele><time>2026-04-09T10:31:59.001Z</time></trkpt><trkpt lat="38.01893651310007" lon="14.082261180579552"><ele>35.0</ele><time>2026-04-09T10:32:00.001Z</time></trkpt><trkpt lat="38.018944462561024" lon="14.08241384361794"><ele>35.0</ele><time>2026-04-09T10:32:01.001Z</time></trkpt><trkpt lat="38.018965626888644" lon="14.082562856522573"><ele>35.0</ele><time>2026-04-09T10:32:02.001Z</time></trkpt><trkpt lat="38.01895026761989" lon="14.08270692275227"><ele>35.0</ele><time>2026-04-09T10:32:03.001Z</time></trkpt><trkpt lat="38.01890954251962" lon="14.082852175757735"><ele>37.0</ele><time>2026-04-09T10:32:04.001Z</time></trkpt><trkpt lat="38.018881185147926" lon="14.08300276867732"><ele>39.0</ele><time>2026-04-09T10:32:05.001Z</time></trkpt><trkpt lat="38.01884711056798" lon="14.08313561905556"><ele>41.0</ele><time>2026-04-09T10:32:06.001Z</time></trkpt><trkpt lat="38.01883113862041" lon="14.083280576830836"><ele>43.0</ele><time>2026-04-09T10:32:07.001Z</time></trkpt><trkpt lat="38.01884592127447" lon="14.083428857239078"><ele>43.0</ele><time>2026-04-09T10:32:08.001Z</time></trkpt><trkpt lat="38.01889129449691" lon="14.08357839133239"><ele>43.0</ele><time>2026-04-09T10:32:09.001Z</time></trkpt><trkpt lat="38.01894467999065" lon="14.083733374234379"><ele>43.0</ele><time>2026-04-09T10:32:10.001Z</time></trkpt><trkpt lat="38.018996204096084" lon="14.083901848026347"><ele>43.0</ele><time>2026-04-09T10:32:11.001Z</time></trkpt><trkpt lat="38.01903899340364" lon="14.08407844097138"><ele>45.75</ele><time>2026-04-09T10:32:12.001Z</time></trkpt><trkpt lat="38.01907796201657" lon="14.084237838626677"><ele>48.5</ele><time>2026-04-09T10:32:13.001Z</time></trkpt><trkpt lat="38.01911527540023" lon="14.084408580209576"><ele>51.25</ele><time>2026-04-09T10:32:14.001Z</time></trkpt><trkpt lat="38.019147131769586" lon="14.084572297599713"><ele>54.0</ele><time>2026-04-09T10:32:15.001Z</time></trkpt><trkpt lat="38.019190002136014" lon="14.084722678029244"><ele>48.0</ele><time>2026-04-09T10:32:16.001Z</time></trkpt><trkpt lat="38.01927810547768" lon="14.084854040599645"><ele>42.0</ele><time>2026-04-09T10:32:17.001Z</time></trkpt><trkpt lat="38.01939195460135" lon="14.08497538294516"><ele>36.0</ele><time>2026-04-09T10:32:18.001Z</time></trkpt><trkpt lat="38.019504270848934" lon="14.08507394338899"><ele>30.0</ele><time>2026-04-09T10:32:19.001Z</time></trkpt><trkpt lat="38.019603568945556" lon="14.085176316380302"><ele>30.0</ele><time>2026-04-09T10:32:20.001Z</time></trkpt><trkpt lat="38.019693050933306" lon="14.085273029645341"><ele>30.0</ele><time>2026-04-09T10:32:21.001Z</time></trkpt><trkpt lat="38.01976474208706" lon="14.085391567559872"><ele>30.0</ele><time>2026-04-09T10:32:22.001Z</time></trkpt><trkpt lat="38.01981457993882" lon="14.085539104334824"><ele>30.0</ele><time>2026-04-09T10:32:23.001Z</time></trkpt><trkpt lat="38.01984479490605" lon="14.085710650611734"><ele>36.5</ele><time>2026-04-09T10:32:24.002Z</time></trkpt><trkpt lat="38.01986395039111" lon="14.085890678052396"><ele>43.0</ele><time>2026-04-09T10:32:25.002Z</time></trkpt><trkpt lat="38.0198744758127" lon="14.086073243873178"><ele>49.5</ele><time>2026-04-09T10:32:26.002Z</time></trkpt><trkpt lat="38.01990449405259" lon="14.086258732992285"><ele>56.0</ele><time>2026-04-09T10:32:27.002Z</time></trkpt><trkpt lat="38.019965545912136" lon="14.086433321147167"><ele>46.5</ele><time>2026-04-09T10:32:28.002Z</time></trkpt><trkpt lat="38.02003956004161" lon="14.08660047535399"><ele>37.0</ele><time>2026-04-09T10:32:29.002Z</time></trkpt><trkpt lat="38.02011275263749" lon="14.08676144146043"><ele>27.5</ele><time>2026-04-09T10:32:30.002Z</time></trkpt><trkpt lat="38.0201716759054" lon="14.086923253094481"><ele>18.0</ele><time>2026-04-09T10:32:31.002Z</time></trkpt><trkpt lat="38.02022380310554" lon="14.087090494221625"><ele>18.0</ele><time>2026-04-09T10:32:32.002Z</time></trkpt><trkpt lat="38.02027182092057" lon="14.087251554029459"><ele>18.0</ele><time>2026-04-09T10:32:33.002Z</time></trkpt><trkpt lat="38.020285541031186" lon="14.08742437869915"><ele>18.0</ele><time>2026-04-09T10:32:34.001Z</time></trkpt><trkpt lat="38.02031860802031" lon="14.087599416138533"><ele>18.0</ele><time>2026-04-09T10:32:35.001Z</time></trkpt><trkpt lat="38.02033589628542" lon="14.087783428328004"><ele>20.25</ele><time>2026-04-09T10:32:36.001Z</time></trkpt><trkpt lat="38.02033542082264" lon="14.087961481941152"><ele>22.5</ele><time>2026-04-09T10:32:37.001Z</time></trkpt><trkpt lat="38.02033444773697" lon="14.088133581639052"><ele>24.75</ele><time>2026-04-09T10:32:38.001Z</time></trkpt><trkpt lat="38.02030561934632" lon="14.088301949247487"><ele>27.0</ele><time>2026-04-09T10:32:39.001Z</time></trkpt><trkpt lat="38.02025733616145" lon="14.0884697016778"><ele>27.0</ele><time>2026-04-09T10:32:40.001Z</time></trkpt><trkpt lat="38.02019508898915" lon="14.088638963233212"><ele>27.0</ele><time>2026-04-09T10:32:41.001Z</time></trkpt><trkpt lat="38.0201321454524" lon="14.088805759540561"><ele>27.0</ele><time>2026-04-09T10:32:42.001Z</time></trkpt><trkpt lat="38.02007733056181" lon="14.088967859497153"><ele>27.0</ele><time>2026-04-09T10:32:43.001Z</time></trkpt><trkpt lat="38.01999422499737" lon="14.089101190940662"><ele>33.75</ele><time>2026-04-09T10:32:44.001Z</time></trkpt><trkpt lat="38.01988713273994" lon="14.08919531136746"><ele>40.5</ele><time>2026-04-09T10:32:45.001Z</time></trkpt><trkpt lat="38.019802845639575" lon="14.08931579588308"><ele>47.25</ele><time>2026-04-09T10:32:46.001Z</time></trkpt><trkpt lat="38.019708175805086" lon="14.089427113426579"><ele>54.0</ele><time>2026-04-09T10:32:47.001Z</time></trkpt><trkpt lat="38.01965223295622" lon="14.089579007138651"><ele>54.0</ele><time>2026-04-09T10:32:48.001Z</time></trkpt><trkpt lat="38.019598544908106" lon="14.089730615180489"><ele>54.0</ele><time>2026-04-09T10:32:49.001Z</time></trkpt><trkpt lat="38.019551111966884" lon="14.089890769471392"><ele>54.0</ele><time>2026-04-09T10:32:50.001Z</time></trkpt><trkpt lat="38.01950556128515" lon="14.090051107154036"><ele>54.0</ele><time>2026-04-09T10:32:51.001Z</time></trkpt><trkpt lat="38.0194670148659" lon="14.090216775578915"><ele>49.75</ele><time>2026-04-09T10:32:52.001Z</time></trkpt><trkpt lat="38.019434633560785" lon="14.090385862872486"><ele>45.5</ele><time>2026-04-09T10:32:53.001Z</time></trkpt><trkpt lat="38.019404388415175" lon="14.090553415957894"><ele>41.25</ele><time>2026-04-09T10:32:54.001Z</time></trkpt><trkpt lat="38.01936062514575" lon="14.090711731364712"><ele>37.0</ele><time>2026-04-09T10:32:55.001Z</time></trkpt><trkpt lat="38.01930981831702" lon="14.090863561865321"><ele>33.0</ele><time>2026-04-09T10:32:56.001Z</time></trkpt><trkpt lat="38.019239313137824" lon="14.09099947447947"><ele>29.0</ele><time>2026-04-09T10:32:57.001Z</time></trkpt><trkpt lat="38.01916849108578" lon="14.09113214026266"><ele>25.0</ele><time>2026-04-09T10:32:58.001Z</time></trkpt><trkpt lat="38.01909976957922" lon="14.091268100313632"><ele>21.0</ele><time>2026-04-09T10:32:59.001Z</time></trkpt><trkpt lat="38.01903124770923" lon="14.091404725942299"><ele>26.25</ele><time>2026-04-09T10:33:00.001Z</time></trkpt><trkpt lat="38.01894898468899" lon="14.091530986760905"><ele>31.5</ele><time>2026-04-09T10:33:01.001Z</time></trkpt><trkpt lat="38.01885386394918" lon="14.091648857932126"><ele>36.75</ele><time>2026-04-09T10:33:02.001Z</time></trkpt><trkpt lat="38.018748150366534" lon="14.0917567250852"><ele>42.0</ele><time>2026-04-09T10:33:03.001Z</time></trkpt><trkpt lat="38.018645072725434" lon="14.091880818154852"><ele>42.0</ele><time>2026-04-09T10:33:04.001Z</time></trkpt><trkpt lat="38.018531860938346" lon="14.0919984891839"><ele>42.0</ele><time>2026-04-09T10:33:05.001Z</time></trkpt><trkpt lat="38.01850463236875" lon="14.09221446398484"><ele>42.0</ele><time>2026-04-09T10:33:06.001Z</time></trkpt><trkpt lat="38.01840094173248" lon="14.092352958086847"><ele>49.33333333333333</ele><time>2026-04-09T10:33:07.001Z</time></trkpt><trkpt lat="38.018300895159896" lon="14.092502793227075"><ele>56.666666666666664</ele><time>2026-04-09T10:33:08.001Z</time></trkpt><trkpt lat="38.01821129886743" lon="14.092656313739779"><ele>64.0</ele><time>2026-04-09T10:33:09.001Z</time></trkpt><trkpt lat="38.01812720205402" lon="14.092819082433495"><ele>64.0</ele><time>2026-04-09T10:33:10.001Z</time></trkpt><trkpt lat="38.018042566712" lon="14.092980157731267"><ele>64.0</ele><time>2026-04-09T10:33:11.001Z</time></trkpt><trkpt lat="38.01796089858326" lon="14.09314718489567"><ele>64.0</ele><time>2026-04-09T10:33:12.001Z</time></trkpt><trkpt lat="38.017889852275125" lon="14.093322730942283"><ele>55.666666666666664</ele><time>2026-04-09T10:33:13.001Z</time></trkpt><trkpt lat="38.01783018364985" lon="14.093506518195944"><ele>47.33333333333333</ele><time>2026-04-09T10:33:14.001Z</time></trkpt><trkpt lat="38.017786474462376" lon="14.093704860501619"><ele>39.0</ele><time>2026-04-09T10:33:15.001Z</time></trkpt><trkpt lat="38.017750354929916" lon="14.093903051462258"><ele>34.333333333333336</ele><time>2026-04-09T10:33:16.001Z</time></trkpt><trkpt lat="38.01771080037649" lon="14.094096021709888"><ele>29.666666666666668</ele><time>2026-04-09T10:33:17.001Z</time></trkpt><trkpt lat="38.01763321446166" lon="14.094263910329362"><ele>25.0</ele><time>2026-04-09T10:33:18.001Z</time></trkpt><trkpt lat="38.017561783008794" lon="14.094432423949128"><ele>25.0</ele><time>2026-04-09T10:33:19.001Z</time></trkpt><trkpt lat="38.01752159733483" lon="14.094605496596644"><ele>25.0</ele><time>2026-04-09T10:33:20.001Z</time></trkpt><trkpt lat="38.017500415918654" lon="14.094774825928914"><ele>25.0</ele><time>2026-04-09T10:33:21.001Z</time></trkpt><trkpt lat="38.01750776324181" lon="14.09495505637013"><ele>25.0</ele><time>2026-04-09T10:33:22.001Z</time></trkpt><trkpt lat="38.01752014202238" lon="14.09512583676294"><ele>22.25</ele><time>2026-04-09T10:33:23.001Z</time></trkpt><trkpt lat="38.01751853317869" lon="14.095298276388654"><ele>19.5</ele><time>2026-04-09T10:33:24.001Z</time></trkpt><trkpt lat="38.01750112515269" lon="14.095479413057966"><ele>16.75</ele><time>2026-04-09T10:33:25.001Z</time></trkpt><trkpt lat="38.017445877245315" lon="14.095642416570003"><ele>14.0</ele><time>2026-04-09T10:33:26.001Z</time></trkpt><trkpt lat="38.01739260132154" lon="14.095799741603004"><ele>22.25</ele><time>2026-04-09T10:33:27.001Z</time></trkpt><trkpt lat="38.01733642469531" lon="14.095951421252698"><ele>30.5</ele><time>2026-04-09T10:33:28.001Z</time></trkpt><trkpt lat="38.017291131082295" lon="14.096115818907121"><ele>38.75</ele><time>2026-04-09T10:33:29.001Z</time></trkpt><trkpt lat="38.01721271716422" lon="14.096270847562211"><ele>47.0</ele><time>2026-04-09T10:33:30.001Z</time></trkpt><trkpt lat="38.01715030785905" lon="14.096435508087213"><ele>45.0</ele><time>2026-04-09T10:33:31.001Z</time></trkpt><trkpt lat="38.0171065283986" lon="14.096607939273893"><ele>43.0</ele><time>2026-04-09T10:33:32.001Z</time></trkpt><trkpt lat="38.01706598154518" lon="14.096769154647493"><ele>41.0</ele><time>2026-04-09T10:33:33.001Z</time></trkpt><trkpt lat="38.01704399279758" lon="14.096937799950526"><ele>39.0</ele><time>2026-04-09T10:33:34.001Z</time></trkpt><trkpt lat="38.01702329689423" lon="14.09711934909947"><ele>39.0</ele><time>2026-04-09T10:33:35.001Z</time></trkpt><trkpt lat="38.017002001814376" lon="14.097300544317612"><ele>39.0</ele><time>2026-04-09T10:33:36.001Z</time></trkpt><trkpt lat="38.016987474457046" lon="14.097485874840672"><ele>39.0</ele><time>2026-04-09T10:33:37.001Z</time></trkpt><trkpt lat="38.01697050583506" lon="14.097673701176612"><ele>39.0</ele><time>2026-04-09T10:33:38.001Z</time></trkpt><trkpt lat="38.01693482418241" lon="14.09786804776084"><ele>37.0</ele><time>2026-04-09T10:33:39.001Z</time></trkpt><trkpt lat="38.01687958513634" lon="14.098060381248583"><ele>35.0</ele><time>2026-04-09T10:33:40.001Z</time></trkpt><trkpt lat="38.016822352201906" lon="14.09825495704752"><ele>33.0</ele><time>2026-04-09T10:33:41.001Z</time></trkpt><trkpt lat="38.016770311703446" lon="14.098448638379828"><ele>29.333333333333332</ele><time>2026-04-09T10:33:42.001Z</time></trkpt><trkpt lat="38.01671928945079" lon="14.09863752844381"><ele>25.666666666666664</ele><time>2026-04-09T10:33:43.001Z</time></trkpt><trkpt lat="38.01667003546493" lon="14.098829100484448"><ele>22.0</ele><time>2026-04-09T10:33:44.001Z</time></trkpt><trkpt lat="38.01663074033185" lon="14.09902536664593"><ele>33.666666666666664</ele><time>2026-04-09T10:33:45.001Z</time></trkpt><trkpt lat="38.01658302630306" lon="14.099216235896739"><ele>45.333333333333336</ele><time>2026-04-09T10:33:46.001Z</time></trkpt><trkpt lat="38.01651213903462" lon="14.099396250721759"><ele>57.0</ele><time>2026-04-09T10:33:47.001Z</time></trkpt><trkpt lat="38.016434818223985" lon="14.099580213614843"><ele>57.0</ele><time>2026-04-09T10:33:48.001Z</time></trkpt><trkpt lat="38.016363023152195" lon="14.099757557410847"><ele>57.0</ele><time>2026-04-09T10:33:49.001Z</time></trkpt><trkpt lat="38.01629994386081" lon="14.09992712597924"><ele>57.0</ele><time>2026-04-09T10:33:50.001Z</time></trkpt><trkpt lat="38.01623912100564" lon="14.100098470283118"><ele>52.666666666666664</ele><time>2026-04-09T10:33:51.001Z</time></trkpt><trkpt lat="38.01617623875032" lon="14.100271027210956"><ele>48.33333333333333</ele><time>2026-04-09T10:33:52.001Z</time></trkpt><trkpt lat="38.01611259334808" lon="14.100447269037755"><ele>44.0</ele><time>2026-04-09T10:33:53.001Z</time></trkpt><trkpt lat="38.016064204494896" lon="14.100626292777093"><ele>40.75</ele><time>2026-04-09T10:33:54.001Z</time></trkpt><trkpt lat="38.01602566612669" lon="14.100810175101257"><ele>37.5</ele><time>2026-04-09T10:33:55.001Z</time></trkpt><trkpt lat="38.01600343725204" lon="14.100991285656841"><ele>34.25</ele><time>2026-04-09T10:33:56.001Z</time></trkpt><trkpt lat="38.01597434610163" lon="14.10116604890651"><ele>31.0</ele><time>2026-04-09T10:33:57.001Z</time></trkpt><trkpt lat="38.01593816568902" lon="14.101342391033736"><ele>31.0</ele><time>2026-04-09T10:33:58.001Z</time></trkpt><trkpt lat="38.01588211791051" lon="14.101521461094055"><ele>31.0</ele><time>2026-04-09T10:33:59.001Z</time></trkpt><trkpt lat="38.015830972480614" lon="14.10169677659624"><ele>31.0</ele><time>2026-04-09T10:34:00.001Z</time></trkpt><trkpt lat="38.01578383823588" lon="14.101858114217336"><ele>31.0</ele><time>2026-04-09T10:34:01.001Z</time></trkpt><trkpt lat="38.01573654703398" lon="14.102022360910471"><ele>33.0</ele><time>2026-04-09T10:34:02.001Z</time></trkpt><trkpt lat="38.01569336220378" lon="14.102189410785334"><ele>35.0</ele><time>2026-04-09T10:34:03.001Z</time></trkpt><trkpt lat="38.015656625492895" lon="14.102344438477784"><ele>37.0</ele><time>2026-04-09T10:34:04.001Z</time></trkpt><trkpt lat="38.015621060455764" lon="14.102494311210114"><ele>39.0</ele><time>2026-04-09T10:34:05.001Z</time></trkpt><trkpt lat="38.015584979538836" lon="14.102646028028175"><ele>39.0</ele><time>2026-04-09T10:34:06.001Z</time></trkpt><trkpt lat="38.01556265581924" lon="14.102798913344179"><ele>39.0</ele><time>2026-04-09T10:34:07.001Z</time></trkpt><trkpt lat="38.01552272900122" lon="14.102930786079575"><ele>39.0</ele><time>2026-04-09T10:34:08.001Z</time></trkpt><trkpt lat="38.01549478411559" lon="14.10305424924883"><ele>39.0</ele><time>2026-04-09T10:34:09.001Z</time></trkpt><trkpt lat="38.01547662690738" lon="14.103152828343648"><ele>39.0</ele><time>2026-04-09T10:34:10.001Z</time></trkpt><trkpt lat="38.01545950040794" lon="14.103235364704688"><ele>33.4</ele><time>2026-04-09T10:34:11.001Z</time></trkpt><trkpt lat="38.015423604144935" lon="14.10335483718189"><ele>27.799999999999997</ele><time>2026-04-09T10:34:13.001Z</time></trkpt><trkpt lat="38.015403195617765" lon="14.10344749395804"><ele>22.2</ele><time>2026-04-09T10:34:16.001Z</time></trkpt><trkpt lat="38.01536814698449" lon="14.103557896343723"><ele>16.6</ele><time>2026-04-09T10:35:10Z</time></trkpt><trkpt lat="38.01529121628993" lon="14.103658348035802"><ele>11.0</ele><time>2026-04-09T10:35:12Z</time></trkpt><trkpt lat="38.01523922148517" lon="14.103732413818902"><ele>11.0</ele><time>2026-04-09T10:35:13Z</time></trkpt><trkpt lat="38.01519314296961" lon="14.103792736373265"><ele>11.0</ele><time>2026-04-09T10:35:14Z</time></trkpt><trkpt lat="38.01513912864739" lon="14.103860031325905"><ele>11.0</ele><time>2026-04-09T10:35:15Z</time></trkpt><trkpt lat="38.015080933358874" lon="14.103921766508547"><ele>11.0</ele><time>2026-04-09T10:35:16Z</time></trkpt><trkpt lat="38.015022671218006" lon="14.103962612163128"><ele>11.0</ele><time>2026-04-09T10:35:17Z</time></trkpt><trkpt lat="38.01493741515154" lon="14.104044244631801"><ele>11.0</ele><time>2026-04-09T10:35:19Z</time></trkpt><trkpt lat="38.01491645612393" lon="14.104148765990223"><ele>10.833333333333332</ele><time>2026-04-09T10:35:21Z</time></trkpt><trkpt lat="38.0149483072459" lon="14.104225929144611"><ele>10.666666666666666</ele><time>2026-04-09T10:35:23Z</time></trkpt><trkpt lat="38.01500399024609" lon="14.104326318294797"><ele>10.5</ele><time>2026-04-09T10:35:35.001Z</time></trkpt><trkpt lat="38.01501943614542" lon="14.104417785247907"><ele>10.333333333333334</ele><time>2026-04-09T10:35:36.001Z</time></trkpt><trkpt lat="38.01498312562417" lon="14.104506951464284"><ele>10.166666666666668</ele><time>2026-04-09T10:35:37.001Z</time></trkpt><trkpt lat="38.01496483956658" lon="14.104619506205742"><ele>10.0</ele><time>2026-04-09T10:35:38.001Z</time></trkpt><trkpt lat="38.01493825045427" lon="14.104726512531634"><ele>11.25</ele><time>2026-04-09T10:35:39.001Z</time></trkpt><trkpt lat="38.01488803577995" lon="14.1048402116016"><ele>12.5</ele><time>2026-04-09T10:35:40.001Z</time></trkpt><trkpt lat="38.01483825768966" lon="14.104965851409737"><ele>13.75</ele><time>2026-04-09T10:35:41.001Z</time></trkpt><trkpt lat="38.01478239390719" lon="14.10510199925055"><ele>15.0</ele><time>2026-04-09T10:35:42.001Z</time></trkpt><trkpt lat="38.01472546913356" lon="14.105245647240398"><ele>17.5</ele><time>2026-04-09T10:35:43.001Z</time></trkpt><trkpt lat="38.014661690446644" lon="14.105408515866095"><ele>20.0</ele><time>2026-04-09T10:35:44.001Z</time></trkpt><trkpt lat="38.014601827348436" lon="14.10556764891859"><ele>22.5</ele><time>2026-04-09T10:35:45.001Z</time></trkpt><trkpt lat="38.014546601155935" lon="14.105727373696782"><ele>25.0</ele><time>2026-04-09T10:35:46.001Z</time></trkpt><trkpt lat="38.014496600884044" lon="14.10589246797164"><ele>26.75</ele><time>2026-04-09T10:35:47.001Z</time></trkpt><trkpt lat="38.01445308076118" lon="14.10605672591307"><ele>28.5</ele><time>2026-04-09T10:35:48.001Z</time></trkpt><trkpt lat="38.01441255973515" lon="14.106216779426793"><ele>30.25</ele><time>2026-04-09T10:35:49.001Z</time></trkpt><trkpt lat="38.01437749829684" lon="14.106367490495625"><ele>32.0</ele><time>2026-04-09T10:35:50.001Z</time></trkpt><trkpt lat="38.0143442144229" lon="14.106528336383551"><ele>30.25</ele><time>2026-04-09T10:35:51.001Z</time></trkpt><trkpt lat="38.014313862549514" lon="14.106695824848273"><ele>28.5</ele><time>2026-04-09T10:35:52.001Z</time></trkpt><trkpt lat="38.01428673679544" lon="14.106864438736336"><ele>26.75</ele><time>2026-04-09T10:35:53.001Z</time></trkpt><trkpt lat="38.01426308320542" lon="14.1070342419178"><ele>25.0</ele><time>2026-04-09T10:35:54.001Z</time></trkpt><trkpt lat="38.01424200924167" lon="14.107205211744532"><ele>25.0</ele><time>2026-04-09T10:35:55.001Z</time></trkpt><trkpt lat="38.01422256451475" lon="14.107368833245227"><ele>25.0</ele><time>2026-04-09T10:35:56.001Z</time></trkpt><trkpt lat="38.01420405908588" lon="14.107535857349033"><ele>25.0</ele><time>2026-04-09T10:35:57.001Z</time></trkpt><trkpt lat="38.0141807744662" lon="14.1077474152949"><ele>25.0</ele><time>2026-04-09T10:35:58.001Z</time></trkpt><trkpt lat="38.0141932162415" lon="14.107964217630602"><ele>24.0</ele><time>2026-04-09T10:35:59.001Z</time></trkpt><trkpt lat="38.01421656276809" lon="14.108150818981231"><ele>23.0</ele><time>2026-04-09T10:36:00.001Z</time></trkpt><trkpt lat="38.01424365713444" lon="14.108340621815032"><ele>22.0</ele><time>2026-04-09T10:36:01.001Z</time></trkpt><trkpt lat="38.01427361335484" lon="14.10853832727907"><ele>22.0</ele><time>2026-04-09T10:36:02.001Z</time></trkpt><trkpt lat="38.014308955970094" lon="14.108733668937372"><ele>22.0</ele><time>2026-04-09T10:36:03.001Z</time></trkpt><trkpt lat="38.01435654515722" lon="14.108936831153896"><ele>22.0</ele><time>2026-04-09T10:36:04.001Z</time></trkpt><trkpt lat="38.014423700243746" lon="14.109139035303423"><ele>23.75</ele><time>2026-04-09T10:36:05.001Z</time></trkpt><trkpt lat="38.01451715241624" lon="14.109305594664203"><ele>25.5</ele><time>2026-04-09T10:36:06.001Z</time></trkpt><trkpt lat="38.01457809649772" lon="14.10945104713927"><ele>27.25</ele><time>2026-04-09T10:36:07.001Z</time></trkpt><trkpt lat="38.014619621985524" lon="14.109597641505788"><ele>29.0</ele><time>2026-04-09T10:36:08.001Z</time></trkpt><trkpt lat="38.01465303643743" lon="14.109742873613571"><ele>29.0</ele><time>2026-04-09T10:36:09.001Z</time></trkpt><trkpt lat="38.01468195909953" lon="14.109876548216643"><ele>29.0</ele><time>2026-04-09T10:36:10.001Z</time></trkpt><trkpt lat="38.01471271165908" lon="14.110021324290766"><ele>29.0</ele><time>2026-04-09T10:36:11.001Z</time></trkpt><trkpt lat="38.014731825625084" lon="14.110127250929256"><ele>29.0</ele><time>2026-04-09T10:36:12.001Z</time></trkpt><trkpt lat="38.014748462240846" lon="14.11023139041499"><ele>29.0</ele><time>2026-04-09T10:36:13.001Z</time></trkpt><trkpt lat="38.01476680701677" lon="14.110353721092743"><ele>30.4</ele><time>2026-04-09T10:36:14.001Z</time></trkpt><trkpt lat="38.01478381703562" lon="14.110485286581287"><ele>31.799999999999997</ele><time>2026-04-09T10:36:15.001Z</time></trkpt><trkpt lat="38.01479881490296" lon="14.110608187289657"><ele>33.2</ele><time>2026-04-09T10:36:16.001Z</time></trkpt><trkpt lat="38.014814458078426" lon="14.110736375998215"><ele>34.6</ele><time>2026-04-09T10:36:17.001Z</time></trkpt><trkpt lat="38.01483136102722" lon="14.110873054765552"><ele>36.0</ele><time>2026-04-09T10:36:18.001Z</time></trkpt><trkpt lat="38.0148635419363" lon="14.11099331801846"><ele>38.6</ele><time>2026-04-09T10:36:19.001Z</time></trkpt><trkpt lat="38.014871388737504" lon="14.111111252716064"><ele>41.2</ele><time>2026-04-09T10:36:20.001Z</time></trkpt><trkpt lat="38.01488545046306" lon="14.111219369886882"><ele>43.800000000000004</ele><time>2026-04-09T10:36:21.001Z</time></trkpt><trkpt lat="38.0148945549502" lon="14.111338510498678"><ele>46.400000000000006</ele><time>2026-04-09T10:36:22.001Z</time></trkpt><trkpt lat="38.014906161773126" lon="14.111454212720968"><ele>49.0</ele><time>2026-04-09T10:36:23.001Z</time></trkpt><trkpt lat="38.01491363933884" lon="14.111581626499664"><ele>50.0</ele><time>2026-04-09T10:36:24.001Z</time></trkpt><trkpt lat="38.01490303287206" lon="14.111715746600552"><ele>51.0</ele><time>2026-04-09T10:36:25.001Z</time></trkpt><trkpt lat="38.01490512489123" lon="14.111856856264437"><ele>52.0</ele><time>2026-04-09T10:36:26.001Z</time></trkpt><trkpt lat="38.01491375602654" lon="14.112004754968654"><ele>53.0</ele><time>2026-04-09T10:36:27.001Z</time></trkpt><trkpt lat="38.014928368202064" lon="14.11215671542027"><ele>53.0</ele><time>2026-04-09T10:36:28.001Z</time></trkpt><trkpt lat="38.01494955197917" lon="14.112316782071568"><ele>53.0</ele><time>2026-04-09T10:36:29.001Z</time></trkpt><trkpt lat="38.01497801931413" lon="14.112486486142824"><ele>53.0</ele><time>2026-04-09T10:36:30.001Z</time></trkpt><trkpt lat="38.015012791163755" lon="14.11264832075403"><ele>53.0</ele><time>2026-04-09T10:36:31.001Z</time></trkpt><trkpt lat="38.01504804491412" lon="14.112801199351901"><ele>45.0</ele><time>2026-04-09T10:36:32.001Z</time></trkpt><trkpt lat="38.01508644998078" lon="14.112950613652577"><ele>37.0</ele><time>2026-04-09T10:36:33.001Z</time></trkpt><trkpt lat="38.01513485089864" lon="14.113115717308096"><ele>29.0</ele><time>2026-04-09T10:36:34.001Z</time></trkpt><trkpt lat="38.015179881087626" lon="14.11326977473125"><ele>21.0</ele><time>2026-04-09T10:36:35.001Z</time></trkpt><trkpt lat="38.01521410324618" lon="14.113397094691026"><ele>21.0</ele><time>2026-04-09T10:36:36.001Z</time></trkpt><trkpt lat="38.01524871153634" lon="14.113535726020485"><ele>21.0</ele><time>2026-04-09T10:36:37.001Z</time></trkpt><trkpt lat="38.015277290988045" lon="14.113668380212966"><ele>21.0</ele><time>2026-04-09T10:36:38.001Z</time></trkpt><trkpt lat="38.01530409083816" lon="14.113794432468397"><ele>21.0</ele><time>2026-04-09T10:36:39.001Z</time></trkpt><trkpt lat="38.015323058510155" lon="14.11392416196818"><ele>21.0</ele><time>2026-04-09T10:36:40.001Z</time></trkpt><trkpt lat="38.01533277379554" lon="14.11408910164329"><ele>24.5</ele><time>2026-04-09T10:36:41.001Z</time></trkpt><trkpt lat="38.01534972471566" lon="14.114247971730395"><ele>28.0</ele><time>2026-04-09T10:36:42.001Z</time></trkpt><trkpt lat="38.01536026752153" lon="14.114403199229981"><ele>31.5</ele><time>2026-04-09T10:36:43.001Z</time></trkpt><trkpt lat="38.01536256892616" lon="14.114549081163178"><ele>35.0</ele><time>2026-04-09T10:36:44.001Z</time></trkpt><trkpt lat="38.015371130977364" lon="14.114697385599905"><ele>35.0</ele><time>2026-04-09T10:36:45.001Z</time></trkpt><trkpt lat="38.01537752466049" lon="14.114840755508856"><ele>35.0</ele><time>2026-04-09T10:36:46.001Z</time></trkpt><trkpt lat="38.015412947046286" lon="14.114976363490651"><ele>35.0</ele><time>2026-04-09T10:36:47.001Z</time></trkpt><trkpt lat="38.015455642200116" lon="14.115109136431231"><ele>35.0</ele><time>2026-04-09T10:36:48.001Z</time></trkpt><trkpt lat="38.015504305100386" lon="14.115239182319193"><ele>35.6</ele><time>2026-04-09T10:36:49.001Z</time></trkpt><trkpt lat="38.01555120940332" lon="14.115361762382054"><ele>36.2</ele><time>2026-04-09T10:36:50.001Z</time></trkpt><trkpt lat="38.015600222505775" lon="14.115484954836093"><ele>36.8</ele><time>2026-04-09T10:36:51.001Z</time></trkpt><trkpt lat="38.01566491240937" lon="14.115600696290365"><ele>37.4</ele><time>2026-04-09T10:36:52.001Z</time></trkpt><trkpt lat="38.015749264941874" lon="14.11570131746169"><ele>38.0</ele><time>2026-04-09T10:36:53.001Z</time></trkpt><trkpt lat="38.01583863610956" lon="14.115807336033864"><ele>33.75</ele><time>2026-04-09T10:36:54.001Z</time></trkpt><trkpt lat="38.015931154099455" lon="14.115919640802327"><ele>29.5</ele><time>2026-04-09T10:36:55Z</time></trkpt><trkpt lat="38.01601624018251" lon="14.116022848452122"><ele>25.25</ele><time>2026-04-09T10:36:56Z</time></trkpt><trkpt lat="38.016092982595055" lon="14.11612229236588"><ele>21.0</ele><time>2026-04-09T10:36:57Z</time></trkpt><trkpt lat="38.01615533396876" lon="14.116218511030754"><ele>21.0</ele><time>2026-04-09T10:36:58Z</time></trkpt><trkpt lat="38.016200923669274" lon="14.11631855932943"><ele>21.0</ele><time>2026-04-09T10:36:59Z</time></trkpt><trkpt lat="38.01624146938179" lon="14.116436434029008"><ele>21.0</ele><time>2026-04-09T10:37:00Z</time></trkpt><trkpt lat="38.016257192886975" lon="14.11656995783438"><ele>21.0</ele><time>2026-04-09T10:37:01Z</time></trkpt><trkpt lat="38.016278037875324" lon="14.11669370150548"><ele>21.0</ele><time>2026-04-09T10:37:02Z</time></trkpt><trkpt lat="38.01628555474421" lon="14.11682367296849"><ele>26.200000000000003</ele><time>2026-04-09T10:37:03Z</time></trkpt><trkpt lat="38.01628166346147" lon="14.116953684164692"><ele>31.400000000000002</ele><time>2026-04-09T10:37:04Z</time></trkpt><trkpt lat="38.01624263526619" lon="14.117077362122176"><ele>36.6</ele><time>2026-04-09T10:37:05Z</time></trkpt><trkpt lat="38.01623093252343" lon="14.117209309604672"><ele>41.800000000000004</ele><time>2026-04-09T10:37:06Z</time></trkpt><trkpt lat="38.016203977694005" lon="14.117330818104033"><ele>47.0</ele><time>2026-04-09T10:37:07Z</time></trkpt><trkpt lat="38.016199739638836" lon="14.117452957152587"><ele>47.33333333333333</ele><time>2026-04-09T10:37:08Z</time></trkpt><trkpt lat="38.01620542467085" lon="14.117570345552185"><ele>47.666666666666664</ele><time>2026-04-09T10:37:09Z</time></trkpt><trkpt lat="38.01621086553455" lon="14.117683969585377"><ele>48.0</ele><time>2026-04-09T10:37:10Z</time></trkpt><trkpt lat="38.016190548165994" lon="14.117784938565674"><ele>48.33333333333333</ele><time>2026-04-09T10:37:11Z</time></trkpt><trkpt lat="38.016158240187686" lon="14.117886351934319"><ele>48.666666666666664</ele><time>2026-04-09T10:37:12Z</time></trkpt><trkpt lat="38.016117729590455" lon="14.117979373891629"><ele>49.0</ele><time>2026-04-09T10:37:13Z</time></trkpt><trkpt lat="38.01607657193332" lon="14.118077364105586"><ele>49.0</ele><time>2026-04-09T10:37:14Z</time></trkpt><trkpt lat="38.01604087256007" lon="14.118196417359638"><ele>49.0</ele><time>2026-04-09T10:37:15Z</time></trkpt><trkpt lat="38.01601358682372" lon="14.118313395801236"><ele>49.0</ele><time>2026-04-09T10:37:16Z</time></trkpt><trkpt lat="38.015997512682546" lon="14.118434420164679"><ele>49.0</ele><time>2026-04-09T10:37:17Z</time></trkpt><trkpt lat="38.01598823682101" lon="14.118551012095056"><ele>49.0</ele><time>2026-04-09T10:37:18Z</time></trkpt><trkpt lat="38.01597718112182" lon="14.118674924516057"><ele>46.25</ele><time>2026-04-09T10:37:19Z</time></trkpt><trkpt lat="38.015966240284165" lon="14.118806831157627"><ele>43.5</ele><time>2026-04-09T10:37:20Z</time></trkpt><trkpt lat="38.01597630148081" lon="14.1189452017531"><ele>40.75</ele><time>2026-04-09T10:37:21Z</time></trkpt><trkpt lat="38.015993460727344" lon="14.119103178295465"><ele>38.0</ele><time>2026-04-09T10:37:22Z</time></trkpt><trkpt lat="38.016010420106554" lon="14.119292458415735"><ele>37.666666666666664</ele><time>2026-04-09T10:37:23Z</time></trkpt><trkpt lat="38.01604357357836" lon="14.11948833930967"><ele>37.333333333333336</ele><time>2026-04-09T10:37:24Z</time></trkpt><trkpt lat="38.01610014945332" lon="14.11970291627939"><ele>37.0</ele><time>2026-04-09T10:37:25Z</time></trkpt><trkpt lat="38.016124330119325" lon="14.119969881971034"><ele>35.5</ele><time>2026-04-09T10:37:26Z</time></trkpt><trkpt lat="38.01615062709398" lon="14.120260046473158"><ele>34.0</ele><time>2026-04-09T10:37:27Z</time></trkpt><trkpt lat="38.01614824291982" lon="14.120545080625686"><ele>33.66666666666667</ele><time>2026-04-09T10:37:28Z</time></trkpt><trkpt lat="38.01616955801003" lon="14.120812905141452"><ele>33.333333333333336</ele><time>2026-04-09T10:37:29Z</time></trkpt><trkpt lat="38.01620538193488" lon="14.121076164661599"><ele>33.0</ele><time>2026-04-09T10:37:30Z</time></trkpt><trkpt lat="38.01624946535629" lon="14.121338003861842"><ele>33.666666666666664</ele><time>2026-04-09T10:37:31Z</time></trkpt><trkpt lat="38.01630206974445" lon="14.121579947242113"><ele>34.33333333333333</ele><time>2026-04-09T10:37:32Z</time></trkpt><trkpt lat="38.01634843923546" lon="14.121808976465347"><ele>35.0</ele><time>2026-04-09T10:37:33Z</time></trkpt><trkpt lat="38.01639635132158" lon="14.122042214887113"><ele>35.0</ele><time>2026-04-09T10:37:34Z</time></trkpt><trkpt lat="38.01644936207903" lon="14.12228404158807"><ele>35.0</ele><time>2026-04-09T10:37:35Z</time></trkpt><trkpt lat="38.016497361980385" lon="14.122527155637838"><ele>35.0</ele><time>2026-04-09T10:37:36Z</time></trkpt><trkpt lat="38.01654005029775" lon="14.12277557112181"><ele>37.0</ele><time>2026-04-09T10:37:37Z</time></trkpt><trkpt lat="38.01656351740959" lon="14.123030513655852"><ele>39.0</ele><time>2026-04-09T10:37:38Z</time></trkpt><trkpt lat="38.0165801883318" lon="14.123274265865644"><ele>41.0</ele><time>2026-04-09T10:37:39Z</time></trkpt><trkpt lat="38.01656768570482" lon="14.123508412333166"><ele>44.0</ele><time>2026-04-09T10:37:40Z</time></trkpt><trkpt lat="38.016558822029715" lon="14.1237383273326"><ele>47.0</ele><time>2026-04-09T10:37:41Z</time></trkpt><trkpt lat="38.01654861678858" lon="14.123963422803506"><ele>50.0</ele><time>2026-04-09T10:37:42Z</time></trkpt><trkpt lat="38.016548546163975" lon="14.124198811380602"><ele>51.333333333333336</ele><time>2026-04-09T10:37:43Z</time></trkpt><trkpt lat="38.01653490970709" lon="14.124428949622125"><ele>52.66666666666667</ele><time>2026-04-09T10:37:44Z</time></trkpt><trkpt lat="38.01652745998008" lon="14.124653016881602"><ele>54.0</ele><time>2026-04-09T10:37:45Z</time></trkpt><trkpt lat="38.01653220807576" lon="14.124872780158372"><ele>56.66666666666667</ele><time>2026-04-09T10:37:46Z</time></trkpt><trkpt lat="38.01654361640999" lon="14.125079597755045"><ele>59.333333333333336</ele><time>2026-04-09T10:37:47Z</time></trkpt><trkpt lat="38.01655377636836" lon="14.125287467289283"><ele>62.0</ele><time>2026-04-09T10:37:48Z</time></trkpt><trkpt lat="38.016558957483056" lon="14.125496175262045"><ele>62.0</ele><time>2026-04-09T10:37:49Z</time></trkpt><trkpt lat="38.016570756447685" lon="14.125700691509369"><ele>62.0</ele><time>2026-04-09T10:37:50Z</time></trkpt><trkpt lat="38.01657824088507" lon="14.12590126545378"><ele>62.0</ele><time>2026-04-09T10:37:51Z</time></trkpt><trkpt lat="38.01657487389349" lon="14.126096532756298"><ele>63.75</ele><time>2026-04-09T10:37:52Z</time></trkpt><trkpt lat="38.016573528098704" lon="14.126268778836003"><ele>65.5</ele><time>2026-04-09T10:37:53Z</time></trkpt><trkpt lat="38.016569678838415" lon="14.126419586527968"><ele>67.25</ele><time>2026-04-09T10:37:54Z</time></trkpt><trkpt lat="38.01657017645769" lon="14.126554835940158"><ele>69.0</ele><time>2026-04-09T10:37:55Z</time></trkpt><trkpt lat="38.01657067614676" lon="14.126669256719438"><ele>69.83333333333333</ele><time>2026-04-09T10:37:56Z</time></trkpt><trkpt lat="38.0165794024842" lon="14.126767567052344"><ele>70.66666666666667</ele><time>2026-04-09T10:37:57Z</time></trkpt><trkpt lat="38.01661473425358" lon="14.126856157739377"><ele>71.5</ele><time>2026-04-09T10:37:58Z</time></trkpt><trkpt lat="38.01665831765694" lon="14.12692139888922"><ele>72.33333333333334</ele><time>2026-04-09T10:37:59Z</time></trkpt><trkpt lat="38.01671899421031" lon="14.127000473686296"><ele>73.16666666666667</ele><time>2026-04-09T10:38:00Z</time></trkpt><trkpt lat="38.01678452863466" lon="14.12710784896645"><ele>74.0</ele><time>2026-04-09T10:38:01Z</time></trkpt><trkpt lat="38.016850341478246" lon="14.127232832078787"><ele>63.25</ele><time>2026-04-09T10:38:02Z</time></trkpt><trkpt lat="38.016907194538284" lon="14.12736951369965"><ele>52.5</ele><time>2026-04-09T10:38:03Z</time></trkpt><trkpt lat="38.01695536407438" lon="14.1275039747761"><ele>41.75</ele><time>2026-04-09T10:38:04Z</time></trkpt><trkpt lat="38.01701085043651" lon="14.127615747495733"><ele>31.0</ele><time>2026-04-09T10:38:05Z</time></trkpt><trkpt lat="38.01708234900278" lon="14.12772374144425"><ele>31.0</ele><time>2026-04-09T10:38:06Z</time></trkpt><trkpt lat="38.01718134891345" lon="14.127808442069284"><ele>31.0</ele><time>2026-04-09T10:38:07Z</time></trkpt><trkpt lat="38.017287779753254" lon="14.127883740180403"><ele>31.0</ele><time>2026-04-09T10:38:08Z</time></trkpt><trkpt lat="38.01740152714759" lon="14.127950568734084"><ele>31.0</ele><time>2026-04-09T10:38:09Z</time></trkpt><trkpt lat="38.01751965061429" lon="14.128022199591447"><ele>28.0</ele><time>2026-04-09T10:38:10Z</time></trkpt><trkpt lat="38.0176240555528" lon="14.128127021725092"><ele>25.0</ele><time>2026-04-09T10:38:11Z</time></trkpt><trkpt lat="38.01770526995549" lon="14.12828008907861"><ele>22.0</ele><time>2026-04-09T10:38:12Z</time></trkpt><trkpt lat="38.01773245729964" lon="14.128477414516105"><ele>19.0</ele><time>2026-04-09T10:38:13Z</time></trkpt><trkpt lat="38.01776544626884" lon="14.128664158376488"><ele>19.0</ele><time>2026-04-09T10:38:14Z</time></trkpt><trkpt lat="38.01778572729029" lon="14.128850339584524"><ele>19.0</ele><time>2026-04-09T10:38:15Z</time></trkpt><trkpt lat="38.0177512790822" lon="14.12901541017837"><ele>19.0</ele><time>2026-04-09T10:38:16Z</time></trkpt><trkpt lat="38.01772211169552" lon="14.129185387303854"><ele>19.0</ele><time>2026-04-09T10:38:17Z</time></trkpt><trkpt lat="38.01770111416716" lon="14.12937686302812"><ele>21.0</ele><time>2026-04-09T10:38:18Z</time></trkpt><trkpt lat="38.01766513203695" lon="14.129558416453575"><ele>23.0</ele><time>2026-04-09T10:38:19Z</time></trkpt><trkpt lat="38.017636736571404" lon="14.129727943342953"><ele>25.0</ele><time>2026-04-09T10:38:20Z</time></trkpt><trkpt lat="38.017613612148224" lon="14.129885713435186"><ele>27.0</ele><time>2026-04-09T10:38:21Z</time></trkpt><trkpt lat="38.01761331435141" lon="14.130050618056838"><ele>28.0</ele><time>2026-04-09T10:38:22Z</time></trkpt><trkpt lat="38.017643017533544" lon="14.130212330688494"><ele>29.0</ele><time>2026-04-09T10:38:23Z</time></trkpt><trkpt lat="38.01770950286416" lon="14.130366328024495"><ele>30.0</ele><time>2026-04-09T10:38:24Z</time></trkpt><trkpt lat="38.01779256103604" lon="14.130513311544913"><ele>31.0</ele><time>2026-04-09T10:38:25Z</time></trkpt><trkpt lat="38.01787297510665" lon="14.130672133740513"><ele>34.333333333333336</ele><time>2026-04-09T10:38:26Z</time></trkpt><trkpt lat="38.01794491260936" lon="14.130840871781645"><ele>37.666666666666664</ele><time>2026-04-09T10:38:27.001Z</time></trkpt><trkpt lat="38.018020203586026" lon="14.131033942292644"><ele>41.0</ele><time>2026-04-09T10:38:28.001Z</time></trkpt><trkpt lat="38.01810906421353" lon="14.131234395617406"><ele>41.0</ele><time>2026-04-09T10:38:29.001Z</time></trkpt><trkpt lat="38.018198079843344" lon="14.131442858575891"><ele>41.0</ele><time>2026-04-09T10:38:30.001Z</time></trkpt><trkpt lat="38.01828682409409" lon="14.131647645530773"><ele>41.0</ele><time>2026-04-09T10:38:31.001Z</time></trkpt><trkpt lat="38.01837325852436" lon="14.131866787900092"><ele>38.0</ele><time>2026-04-09T10:38:32.001Z</time></trkpt><trkpt lat="38.01846984195677" lon="14.132078788711322"><ele>35.0</ele><time>2026-04-09T10:38:33.001Z</time></trkpt><trkpt lat="38.0185658630351" lon="14.132292560761801"><ele>32.0</ele><time>2026-04-09T10:38:34.001Z</time></trkpt><trkpt lat="38.01865834874955" lon="14.132512367013495"><ele>32.0</ele><time>2026-04-09T10:38:35.001Z</time></trkpt><trkpt lat="38.01875088517428" lon="14.132732197424666"><ele>32.0</ele><time>2026-04-09T10:38:36.001Z</time></trkpt><trkpt lat="38.018841809787965" lon="14.132948910797378"><ele>32.0</ele><time>2026-04-09T10:38:37.001Z</time></trkpt><trkpt lat="38.0189331036552" lon="14.133156743406706"><ele>27.333333333333332</ele><time>2026-04-09T10:38:38.001Z</time></trkpt><trkpt lat="38.01900922779646" lon="14.1333794230776"><ele>22.666666666666664</ele><time>2026-04-09T10:38:39.001Z</time></trkpt><trkpt lat="38.01909939422055" lon="14.13360142102592"><ele>18.0</ele><time>2026-04-09T10:38:40.001Z</time></trkpt><trkpt lat="38.01919386358077" lon="14.133834012967695"><ele>21.333333333333336</ele><time>2026-04-09T10:38:41.001Z</time></trkpt><trkpt lat="38.01928573010339" lon="14.13406019653108"><ele>24.666666666666668</ele><time>2026-04-09T10:38:42.001Z</time></trkpt><trkpt lat="38.01937692389263" lon="14.13428876777775"><ele>28.0</ele><time>2026-04-09T10:38:43.001Z</time></trkpt><trkpt lat="38.01947918383924" lon="14.134511921189002"><ele>28.0</ele><time>2026-04-09T10:38:44.001Z</time></trkpt><trkpt lat="38.01956731460883" lon="14.13474426990853"><ele>28.0</ele><time>2026-04-09T10:38:45.001Z</time></trkpt><trkpt lat="38.01964607160991" lon="14.134975462178044"><ele>28.0</ele><time>2026-04-09T10:38:46.001Z</time></trkpt><trkpt lat="38.019747252132085" lon="14.135210299455583"><ele>27.666666666666668</ele><time>2026-04-09T10:38:47.001Z</time></trkpt><trkpt lat="38.01983514820038" lon="14.135439491139465"><ele>27.333333333333336</ele><time>2026-04-09T10:38:48.001Z</time></trkpt><trkpt lat="38.019931814090185" lon="14.135658040489407"><ele>27.0</ele><time>2026-04-09T10:38:49.001Z</time></trkpt><trkpt lat="38.020028834828054" lon="14.135866003625674"><ele>27.0</ele><time>2026-04-09T10:38:50.001Z</time></trkpt><trkpt lat="38.02012730604046" lon="14.136083537171757"><ele>27.0</ele><time>2026-04-09T10:38:51.001Z</time></trkpt><trkpt lat="38.02020234937209" lon="14.136315650900913"><ele>27.0</ele><time>2026-04-09T10:38:52Z</time></trkpt><trkpt lat="38.020268649861016" lon="14.13654853344747"><ele>34.66666666666667</ele><time>2026-04-09T10:38:53Z</time></trkpt><trkpt lat="38.02033698974224" lon="14.136784298368507"><ele>42.333333333333336</ele><time>2026-04-09T10:38:54Z</time></trkpt><trkpt lat="38.02038602444064" lon="14.136999998942727"><ele>50.0</ele><time>2026-04-09T10:38:55Z</time></trkpt><trkpt lat="38.020490137572956" lon="14.137189213693368"><ele>50.0</ele><time>2026-04-09T10:38:56Z</time></trkpt><trkpt lat="38.02061648701937" lon="14.137359632333881"><ele>50.0</ele><time>2026-04-09T10:38:57Z</time></trkpt><trkpt lat="38.02068223999627" lon="14.137572807643599"><ele>50.0</ele><time>2026-04-09T10:38:58Z</time></trkpt><trkpt lat="38.02076379268816" lon="14.137780072156406"><ele>48.333333333333336</ele><time>2026-04-09T10:38:59Z</time></trkpt><trkpt lat="38.02089282425405" lon="14.137935280056467"><ele>46.66666666666667</ele><time>2026-04-09T10:39:00Z</time></trkpt><trkpt lat="38.021000482724524" lon="14.138105890405145"><ele>45.0</ele><time>2026-04-09T10:39:01Z</time></trkpt><trkpt lat="38.02110033384494" lon="14.138276549568378"><ele>45.0</ele><time>2026-04-09T10:39:02Z</time></trkpt><trkpt lat="38.02118026105679" lon="14.138445769793005"><ele>45.0</ele><time>2026-04-09T10:39:03Z</time></trkpt><trkpt lat="38.021212543816986" lon="14.13863002533333"><ele>45.0</ele><time>2026-04-09T10:39:04Z</time></trkpt><trkpt lat="38.02124958626692" lon="14.138792947692252"><ele>45.0</ele><time>2026-04-09T10:39:05Z</time></trkpt><trkpt lat="38.021302658565126" lon="14.138935941183805"><ele>47.75</ele><time>2026-04-09T10:39:06Z</time></trkpt><trkpt lat="38.02137215651252" lon="14.139058677590155"><ele>50.5</ele><time>2026-04-09T10:39:07Z</time></trkpt><trkpt lat="38.02146240230848" lon="14.139145026829697"><ele>53.25</ele><time>2026-04-09T10:39:08Z</time></trkpt><trkpt lat="38.021589398813354" lon="14.139219467697961"><ele>56.0</ele><time>2026-04-09T10:39:09Z</time></trkpt><trkpt lat="38.021717489900325" lon="14.139257813772364"><ele>49.5</ele><time>2026-04-09T10:39:10Z</time></trkpt><trkpt lat="38.02183510170763" lon="14.139309940998768"><ele>43.0</ele><time>2026-04-09T10:39:11Z</time></trkpt><trkpt lat="38.02192642768949" lon="14.139411232064578"><ele>36.5</ele><time>2026-04-09T10:39:12Z</time></trkpt><trkpt lat="38.02197875913246" lon="14.1395457390385"><ele>30.0</ele><time>2026-04-09T10:39:13Z</time></trkpt><trkpt lat="38.021994779370125" lon="14.1396892332696"><ele>30.0</ele><time>2026-04-09T10:39:14Z</time></trkpt><trkpt lat="38.0219709644747" lon="14.139848715834766"><ele>30.0</ele><time>2026-04-09T10:39:15Z</time></trkpt><trkpt lat="38.02195332662935" lon="14.140003292391983"><ele>30.0</ele><time>2026-04-09T10:39:16Z</time></trkpt><trkpt lat="38.02192233575177" lon="14.140169597975737"><ele>30.0</ele><time>2026-04-09T10:39:17Z</time></trkpt><trkpt lat="38.02188032762391" lon="14.140317083023671"><ele>33.75</ele><time>2026-04-09T10:39:18Z</time></trkpt><trkpt lat="38.02185885280194" lon="14.140477585539216"><ele>37.5</ele><time>2026-04-09T10:39:19Z</time></trkpt><trkpt lat="38.02181772759" lon="14.140628892363946"><ele>41.25</ele><time>2026-04-09T10:39:20Z</time></trkpt><trkpt lat="38.021777014487746" lon="14.140781729445344"><ele>45.0</ele><time>2026-04-09T10:39:21Z</time></trkpt><trkpt lat="38.02174208607743" lon="14.140935569913884"><ele>45.0</ele><time>2026-04-09T10:39:22Z</time></trkpt><trkpt lat="38.02170971091533" lon="14.141091670529999"><ele>45.0</ele><time>2026-04-09T10:39:23Z</time></trkpt><trkpt lat="38.02167591320438" lon="14.141249079012676"><ele>45.0</ele><time>2026-04-09T10:39:24Z</time></trkpt><trkpt lat="38.02164163451246" lon="14.14140680564097"><ele>45.0</ele><time>2026-04-09T10:39:25Z</time></trkpt><trkpt lat="38.0216042520993" lon="14.141567543594029"><ele>53.33333333333333</ele><time>2026-04-09T10:39:26Z</time></trkpt><trkpt lat="38.02158199859971" lon="14.14174406714031"><ele>61.666666666666664</ele><time>2026-04-09T10:39:27Z</time></trkpt><trkpt lat="38.02157450771903" lon="14.141941103430387"><ele>70.0</ele><time>2026-04-09T10:39:28Z</time></trkpt><trkpt lat="38.021583724454786" lon="14.142145686666694"><ele>70.0</ele><time>2026-04-09T10:39:29Z</time></trkpt><trkpt lat="38.02160963385556" lon="14.142357975490981"><ele>70.0</ele><time>2026-04-09T10:39:30Z</time></trkpt><trkpt lat="38.02164744313822" lon="14.142571780203816"><ele>70.0</ele><time>2026-04-09T10:39:31Z</time></trkpt><trkpt lat="38.02170253595375" lon="14.142778770003774"><ele>68.0</ele><time>2026-04-09T10:39:32Z</time></trkpt><trkpt lat="38.02175648044674" lon="14.142978646670361"><ele>66.0</ele><time>2026-04-09T10:39:33Z</time></trkpt><trkpt lat="38.02182624551641" lon="14.143172282626203"><ele>64.0</ele><time>2026-04-09T10:39:34Z</time></trkpt><trkpt lat="38.021907944518254" lon="14.143345605317325"><ele>64.0</ele><time>2026-04-09T10:39:35Z</time></trkpt><trkpt lat="38.022001840366734" lon="14.143510219742096"><ele>64.0</ele><time>2026-04-09T10:39:36Z</time></trkpt><trkpt lat="38.02211176291335" lon="14.143660811805665"><ele>64.0</ele><time>2026-04-09T10:39:37Z</time></trkpt><trkpt lat="38.022233995505864" lon="14.143798744403329"><ele>64.0</ele><time>2026-04-09T10:39:38Z</time></trkpt><trkpt lat="38.022365490817045" lon="14.143923561791418"><ele>64.0</ele><time>2026-04-09T10:39:39Z</time></trkpt><trkpt lat="38.02249337907903" lon="14.144041803339547"><ele>64.0</ele><time>2026-04-09T10:39:40Z</time></trkpt><trkpt lat="38.02263562171368" lon="14.144153683577636"><ele>64.0</ele><time>2026-04-09T10:39:41Z</time></trkpt><trkpt lat="38.02275568195964" lon="14.144275798130181"><ele>64.0</ele><time>2026-04-09T10:39:42Z</time></trkpt><trkpt lat="38.022871398261636" lon="14.14439356336526"><ele>64.0</ele><time>2026-04-09T10:39:43Z</time></trkpt><trkpt lat="38.02297036079864" lon="14.144519148657482"><ele>64.0</ele><time>2026-04-09T10:39:44Z</time></trkpt><trkpt lat="38.023065998644086" lon="14.144664100422336"><ele>64.0</ele><time>2026-04-09T10:39:45Z</time></trkpt><trkpt lat="38.02316406833521" lon="14.144810726291762"><ele>64.0</ele><time>2026-04-09T10:39:46Z</time></trkpt><trkpt lat="38.02326952558314" lon="14.14495939406653"><ele>64.0</ele><time>2026-04-09T10:39:47Z</time></trkpt><trkpt lat="38.023380309916995" lon="14.145105589886372"><ele>63.33333333333333</ele><time>2026-04-09T10:39:48Z</time></trkpt><trkpt lat="38.02349581821738" lon="14.145257183323892"><ele>62.66666666666667</ele><time>2026-04-09T10:39:49Z</time></trkpt><trkpt lat="38.023610984402" lon="14.145416642273299"><ele>62.0</ele><time>2026-04-09T10:39:50Z</time></trkpt><trkpt lat="38.0237349171444" lon="14.145569032714949"><ele>63.66666666666667</ele><time>2026-04-09T10:39:51Z</time></trkpt><trkpt lat="38.02386473838635" lon="14.145713866182506"><ele>65.33333333333333</ele><time>2026-04-09T10:39:52Z</time></trkpt><trkpt lat="38.02400568762479" lon="14.14584613549557"><ele>67.0</ele><time>2026-04-09T10:39:53Z</time></trkpt><trkpt lat="38.02414397316319" lon="14.14597560313884"><ele>63.666666666666664</ele><time>2026-04-09T10:39:54Z</time></trkpt><trkpt lat="38.024271992169574" lon="14.146107242783332"><ele>60.33333333333333</ele><time>2026-04-09T10:39:55Z</time></trkpt><trkpt lat="38.024397971560504" lon="14.146237473286122"><ele>57.0</ele><time>2026-04-09T10:39:56Z</time></trkpt><trkpt lat="38.024529603906224" lon="14.146368317091332"><ele>57.0</ele><time>2026-04-09T10:39:57Z</time></trkpt><trkpt lat="38.02465093446877" lon="14.146512701404895"><ele>57.0</ele><time>2026-04-09T10:39:58Z</time></trkpt><trkpt lat="38.024755183136364" lon="14.146671964157804"><ele>57.0</ele><time>2026-04-09T10:39:59Z</time></trkpt><trkpt lat="38.02483213145949" lon="14.146862385197212"><ele>57.66666666666667</ele><time>2026-04-09T10:40:00Z</time></trkpt><trkpt lat="38.02488052711335" lon="14.147073119699288"><ele>58.333333333333336</ele><time>2026-04-09T10:40:01Z</time></trkpt><trkpt lat="38.024905217257604" lon="14.147292407580018"><ele>59.0</ele><time>2026-04-09T10:40:02Z</time></trkpt><trkpt lat="38.02490319656467" lon="14.147511748636939"><ele>59.0</ele><time>2026-04-09T10:40:03Z</time></trkpt><trkpt lat="38.0248605895666" lon="14.147711460898245"><ele>59.0</ele><time>2026-04-09T10:40:04Z</time></trkpt><trkpt lat="38.02480371978374" lon="14.147905847221907"><ele>59.0</ele><time>2026-04-09T10:40:05Z</time></trkpt><trkpt lat="38.02474152768784" lon="14.14810861755338"><ele>57.0</ele><time>2026-04-09T10:40:06Z</time></trkpt><trkpt lat="38.02462490448967" lon="14.14827094669469"><ele>55.0</ele><time>2026-04-09T10:40:07Z</time></trkpt><trkpt lat="38.024520968544806" lon="14.148453010531671"><ele>53.0</ele><time>2026-04-09T10:40:08Z</time></trkpt><trkpt lat="38.02439765947187" lon="14.148621984729925"><ele>53.0</ele><time>2026-04-09T10:40:09Z</time></trkpt><trkpt lat="38.024283350186806" lon="14.148795901198232"><ele>53.0</ele><time>2026-04-09T10:40:10Z</time></trkpt><trkpt lat="38.02417877861154" lon="14.148970013517511"><ele>53.0</ele><time>2026-04-09T10:40:11Z</time></trkpt><trkpt lat="38.02407392997407" lon="14.149144790651427"><ele>53.0</ele><time>2026-04-09T10:40:12Z</time></trkpt><trkpt lat="38.023965761193324" lon="14.149319061991003"><ele>53.0</ele><time>2026-04-09T10:40:13Z</time></trkpt><trkpt lat="38.02385558069879" lon="14.149488895990624"><ele>53.0</ele><time>2026-04-09T10:40:14Z</time></trkpt><trkpt lat="38.023749507002435" lon="14.149654805125106"><ele>53.0</ele><time>2026-04-09T10:40:15Z</time></trkpt><trkpt lat="38.02364795698749" lon="14.14982907854131"><ele>53.0</ele><time>2026-04-09T10:40:16Z</time></trkpt><trkpt lat="38.0235482637599" lon="14.150006113093697"><ele>53.0</ele><time>2026-04-09T10:40:17Z</time></trkpt><trkpt lat="38.02345975736557" lon="14.150192579428298"><ele>50.333333333333336</ele><time>2026-04-09T10:40:18Z</time></trkpt><trkpt lat="38.023398102493644" lon="14.150401185399652"><ele>47.66666666666667</ele><time>2026-04-09T10:40:19Z</time></trkpt><trkpt lat="38.023364430405955" lon="14.150631665010442"><ele>45.0</ele><time>2026-04-09T10:40:20Z</time></trkpt><trkpt lat="38.023343493716794" lon="14.150870630496174"><ele>45.333333333333336</ele><time>2026-04-09T10:40:21Z</time></trkpt><trkpt lat="38.02332732933703" lon="14.151107467383893"><ele>45.66666666666667</ele><time>2026-04-09T10:40:22Z</time></trkpt><trkpt lat="38.02330531251079" lon="14.151337358496573"><ele>46.0</ele><time>2026-04-09T10:40:23Z</time></trkpt><trkpt lat="38.02327816778186" lon="14.151565709030306"><ele>44.333333333333336</ele><time>2026-04-09T10:40:24Z</time></trkpt><trkpt lat="38.02324586783591" lon="14.151794947413904"><ele>42.666666666666664</ele><time>2026-04-09T10:40:25Z</time></trkpt><trkpt lat="38.02319909799764" lon="14.15202182803566"><ele>41.0</ele><time>2026-04-09T10:40:26Z</time></trkpt><trkpt lat="38.023144332996395" lon="14.152251794601343"><ele>39.33333333333333</ele><time>2026-04-09T10:40:27Z</time></trkpt><trkpt lat="38.02308569725686" lon="14.152484002047187"><ele>37.666666666666664</ele><time>2026-04-09T10:40:28Z</time></trkpt><trkpt lat="38.023027769554986" lon="14.152724934159998"><ele>36.0</ele><time>2026-04-09T10:40:29Z</time></trkpt><trkpt lat="38.02297396850811" lon="14.152961790909975"><ele>36.0</ele><time>2026-04-09T10:40:30Z</time></trkpt><trkpt lat="38.02292187701892" lon="14.153201453970585"><ele>36.0</ele><time>2026-04-09T10:40:31Z</time></trkpt><trkpt lat="38.022868182448114" lon="14.153440376368922"><ele>36.0</ele><time>2026-04-09T10:40:32Z</time></trkpt><trkpt lat="38.022814256820496" lon="14.153683841473718"><ele>35.333333333333336</ele><time>2026-04-09T10:40:33Z</time></trkpt><trkpt lat="38.022759374168146" lon="14.153924946966857"><ele>34.66666666666667</ele><time>2026-04-09T10:40:34Z</time></trkpt><trkpt lat="38.02270271452588" lon="14.154163065105749"><ele>34.0</ele><time>2026-04-09T10:40:35Z</time></trkpt><trkpt lat="38.02264579406886" lon="14.154399838664501"><ele>33.333333333333336</ele><time>2026-04-09T10:40:36Z</time></trkpt><trkpt lat="38.02259136383335" lon="14.15463191304296"><ele>32.666666666666664</ele><time>2026-04-09T10:40:37Z</time></trkpt><trkpt lat="38.02254048932897" lon="14.15485666790664"><ele>32.0</ele><time>2026-04-09T10:40:38Z</time></trkpt><trkpt lat="38.02249216631263" lon="14.155084497002177"><ele>29.0</ele><time>2026-04-09T10:40:39Z</time></trkpt><trkpt lat="38.0224394506243" lon="14.155313839585018"><ele>26.0</ele><time>2026-04-09T10:40:40Z</time></trkpt><trkpt lat="38.022384350222474" lon="14.155542848375541"><ele>23.0</ele><time>2026-04-09T10:40:41Z</time></trkpt><trkpt lat="38.022319842977346" lon="14.1557718631462"><ele>21.666666666666668</ele><time>2026-04-09T10:40:42Z</time></trkpt><trkpt lat="38.02224698472604" lon="14.15599766259222"><ele>20.333333333333332</ele><time>2026-04-09T10:40:43Z</time></trkpt><trkpt lat="38.02216562256868" lon="14.15622034488184"><ele>19.0</ele><time>2026-04-09T10:40:44Z</time></trkpt><trkpt lat="38.02206406383621" lon="14.156430684624162"><ele>21.666666666666664</ele><time>2026-04-09T10:40:45Z</time></trkpt><trkpt lat="38.02195241062645" lon="14.156636758116438"><ele>24.333333333333332</ele><time>2026-04-09T10:40:46Z</time></trkpt><trkpt lat="38.02183103304833" lon="14.156829812210347"><ele>27.0</ele><time>2026-04-09T10:40:47Z</time></trkpt><trkpt lat="38.021702806027214" lon="14.157009369643728"><ele>29.333333333333336</ele><time>2026-04-09T10:40:48Z</time></trkpt><trkpt lat="38.021566552916944" lon="14.157180371739015"><ele>31.666666666666668</ele><time>2026-04-09T10:40:49Z</time></trkpt><trkpt lat="38.021429363298566" lon="14.157333408322652"><ele>34.0</ele><time>2026-04-09T10:40:50Z</time></trkpt><trkpt lat="38.02129462794027" lon="14.157473338290046"><ele>34.66666666666667</ele><time>2026-04-09T10:40:51Z</time></trkpt><trkpt lat="38.02116446228432" lon="14.157608548014373"><ele>35.333333333333336</ele><time>2026-04-09T10:40:52Z</time></trkpt><trkpt lat="38.0210392682558" lon="14.157738997290343"><ele>36.0</ele><time>2026-04-09T10:40:53Z</time></trkpt><trkpt lat="38.02092107919949" lon="14.157852500674403"><ele>37.25</ele><time>2026-04-09T10:40:54Z</time></trkpt><trkpt lat="38.020813674813546" lon="14.157966245529664"><ele>38.5</ele><time>2026-04-09T10:40:55Z</time></trkpt><trkpt lat="38.02071021713177" lon="14.158086909804165"><ele>39.75</ele><time>2026-04-09T10:40:56Z</time></trkpt><trkpt lat="38.020609814499" lon="14.15820118227209"><ele>41.0</ele><time>2026-04-09T10:40:57Z</time></trkpt><trkpt lat="38.020509493790186" lon="14.15830727100621"><ele>41.0</ele><time>2026-04-09T10:40:58Z</time></trkpt><trkpt lat="38.02042629975734" lon="14.158421323763235"><ele>41.0</ele><time>2026-04-09T10:40:59Z</time></trkpt><trkpt lat="38.02036552204633" lon="14.15855733772529"><ele>41.0</ele><time>2026-04-09T10:41:00Z</time></trkpt><trkpt lat="38.020324817012245" lon="14.158709075912402"><ele>41.0</ele><time>2026-04-09T10:41:01Z</time></trkpt><trkpt lat="38.02030214974169" lon="14.158867617069621"><ele>41.0</ele><time>2026-04-09T10:41:02Z</time></trkpt><trkpt lat="38.02028803364963" lon="14.159013774471628"><ele>41.0</ele><time>2026-04-09T10:41:03Z</time></trkpt><trkpt lat="38.020280026345716" lon="14.159152860402507"><ele>41.0</ele><time>2026-04-09T10:41:04Z</time></trkpt><trkpt lat="38.020272694110766" lon="14.159283107002025"><ele>41.0</ele><time>2026-04-09T10:41:05Z</time></trkpt><trkpt lat="38.02025943519955" lon="14.159422371180643"><ele>41.0</ele><time>2026-04-09T10:41:06Z</time></trkpt><trkpt lat="38.02025242118607" lon="14.159562234708572"><ele>41.0</ele><time>2026-04-09T10:41:07Z</time></trkpt><trkpt lat="38.020245742924395" lon="14.159710141288386"><ele>41.0</ele><time>2026-04-09T10:41:08Z</time></trkpt><trkpt lat="38.02023398037636" lon="14.159860057539374"><ele>41.0</ele><time>2026-04-09T10:41:09Z</time></trkpt><trkpt lat="38.02021841687856" lon="14.160013461149997"><ele>41.0</ele><time>2026-04-09T10:41:10Z</time></trkpt><trkpt lat="38.02020261558513" lon="14.160172510709083"><ele>42.0</ele><time>2026-04-09T10:41:11Z</time></trkpt><trkpt lat="38.02017894198587" lon="14.160336241202321"><ele>43.0</ele><time>2026-04-09T10:41:12Z</time></trkpt><trkpt lat="38.020161621160376" lon="14.16050557819048"><ele>44.0</ele><time>2026-04-09T10:41:13Z</time></trkpt><trkpt lat="38.020142974927964" lon="14.16067569695372"><ele>45.0</ele><time>2026-04-09T10:41:14Z</time></trkpt><trkpt lat="38.02013031134354" lon="14.160835544489078"><ele>45.0</ele><time>2026-04-09T10:41:15Z</time></trkpt><trkpt lat="38.020113656060914" lon="14.161005006070749"><ele>45.0</ele><time>2026-04-09T10:41:16Z</time></trkpt><trkpt lat="38.02009564635911" lon="14.161175820765093"><ele>45.0</ele><time>2026-04-09T10:41:17Z</time></trkpt><trkpt lat="38.020082194045656" lon="14.161340111055619"><ele>45.0</ele><time>2026-04-09T10:41:18Z</time></trkpt><trkpt lat="38.02006098389055" lon="14.161510876926583"><ele>45.25</ele><time>2026-04-09T10:41:19Z</time></trkpt><trkpt lat="38.02004375237872" lon="14.161683338490933"><ele>45.5</ele><time>2026-04-09T10:41:20Z</time></trkpt><trkpt lat="38.020033863010205" lon="14.1618453462054"><ele>45.75</ele><time>2026-04-09T10:41:21Z</time></trkpt><trkpt lat="38.02001717907652" lon="14.16198334210691"><ele>46.0</ele><time>2026-04-09T10:41:22Z</time></trkpt><trkpt lat="38.01999995549996" lon="14.16212788331196"><ele>46.0</ele><time>2026-04-09T10:41:23Z</time></trkpt><trkpt lat="38.019987614169196" lon="14.162274821377814"><ele>46.0</ele><time>2026-04-09T10:41:24Z</time></trkpt><trkpt lat="38.01996033811595" lon="14.162415546145892"><ele>46.0</ele><time>2026-04-09T10:41:25Z</time></trkpt><trkpt lat="38.019945359206226" lon="14.162556387202452"><ele>46.0</ele><time>2026-04-09T10:41:26Z</time></trkpt><trkpt lat="38.01992930065339" lon="14.162707044306073"><ele>47.25</ele><time>2026-04-09T10:41:27Z</time></trkpt><trkpt lat="38.019912919672095" lon="14.162860121607693"><ele>48.5</ele><time>2026-04-09T10:41:28Z</time></trkpt><trkpt lat="38.019911224019665" lon="14.163017218890486"><ele>49.75</ele><time>2026-04-09T10:41:29Z</time></trkpt><trkpt lat="38.01989506774287" lon="14.163163955387855"><ele>51.0</ele><time>2026-04-09T10:41:30Z</time></trkpt><trkpt lat="38.019880582297986" lon="14.163293048396412"><ele>51.199999999999996</ele><time>2026-04-09T10:41:31Z</time></trkpt><trkpt lat="38.01986470278154" lon="14.163400927861526"><ele>51.4</ele><time>2026-04-09T10:41:32Z</time></trkpt><trkpt lat="38.01985420439055" lon="14.163504713149347"><ele>51.6</ele><time>2026-04-09T10:41:33Z</time></trkpt><trkpt lat="38.019839103838024" lon="14.163645158234711"><ele>51.8</ele><time>2026-04-09T10:41:35Z</time></trkpt><trkpt lat="38.01982570089925" lon="14.163795774204388"><ele>52.0</ele><time>2026-04-09T10:41:37Z</time></trkpt><trkpt lat="38.01979837317393" lon="14.163901239691318"><ele>51.75</ele><time>2026-04-09T10:41:38Z</time></trkpt><trkpt lat="38.019783034149164" lon="14.164038684605819"><ele>51.5</ele><time>2026-04-09T10:41:39Z</time></trkpt><trkpt lat="38.01977352109974" lon="14.164185841790403"><ele>51.25</ele><time>2026-04-09T10:41:40Z</time></trkpt><trkpt lat="38.019745321665894" lon="14.164341354028885"><ele>51.0</ele><time>2026-04-09T10:41:41Z</time></trkpt><trkpt lat="38.019717584326585" lon="14.164488738767117"><ele>51.0</ele><time>2026-04-09T10:41:42Z</time></trkpt><trkpt lat="38.01968202512667" lon="14.164644264698921"><ele>51.0</ele><time>2026-04-09T10:41:43Z</time></trkpt><trkpt lat="38.019634354892546" lon="14.164816717237626"><ele>51.0</ele><time>2026-04-09T10:41:44Z</time></trkpt><trkpt lat="38.01958710315659" lon="14.164992535402252"><ele>51.0</ele><time>2026-04-09T10:41:45Z</time></trkpt><trkpt lat="38.019545929884785" lon="14.165181158846105"><ele>51.33333333333333</ele><time>2026-04-09T10:41:46Z</time></trkpt><trkpt lat="38.01950890186323" lon="14.165369815137796"><ele>51.666666666666664</ele><time>2026-04-09T10:41:47Z</time></trkpt><trkpt lat="38.01945409502618" lon="14.165550190900447"><ele>52.0</ele><time>2026-04-09T10:41:48Z</time></trkpt><trkpt lat="38.019360112135395" lon="14.165709589033806"><ele>49.75</ele><time>2026-04-09T10:41:49Z</time></trkpt><trkpt lat="38.01927653758736" lon="14.165873276896182"><ele>47.5</ele><time>2026-04-09T10:41:50Z</time></trkpt><trkpt lat="38.019200234841456" lon="14.166021132512748"><ele>45.25</ele><time>2026-04-09T10:41:51Z</time></trkpt><trkpt lat="38.019153367227915" lon="14.166199540161339"><ele>43.0</ele><time>2026-04-09T10:41:52Z</time></trkpt><trkpt lat="38.01912364485492" lon="14.166366384293864"><ele>45.5</ele><time>2026-04-09T10:41:53Z</time></trkpt><trkpt lat="38.01909394743748" lon="14.166526134738024"><ele>48.0</ele><time>2026-04-09T10:41:54Z</time></trkpt><trkpt lat="38.01903622385435" lon="14.166678556613519"><ele>50.5</ele><time>2026-04-09T10:41:55Z</time></trkpt><trkpt lat="38.01894224269429" lon="14.166814225576081"><ele>53.0</ele><time>2026-04-09T10:41:56Z</time></trkpt><trkpt lat="38.01884019534947" lon="14.166951084541255"><ele>53.0</ele><time>2026-04-09T10:41:57Z</time></trkpt><trkpt lat="38.01873064076578" lon="14.16707894348484"><ele>53.0</ele><time>2026-04-09T10:41:58Z</time></trkpt><trkpt lat="38.0186158583878" lon="14.167190281313243"><ele>53.0</ele><time>2026-04-09T10:41:59Z</time></trkpt><trkpt lat="38.01850468394685" lon="14.16729372710275"><ele>53.0</ele><time>2026-04-09T10:42:00Z</time></trkpt><trkpt lat="38.01841127079592" lon="14.167413898379733"><ele>54.0</ele><time>2026-04-09T10:42:01Z</time></trkpt><trkpt lat="38.01832471784267" lon="14.16756280633562"><ele>55.0</ele><time>2026-04-09T10:42:02Z</time></trkpt><trkpt lat="38.018242997932475" lon="14.167732481863114"><ele>56.0</ele><time>2026-04-09T10:42:03Z</time></trkpt><trkpt lat="38.01816003199175" lon="14.16790339809396"><ele>56.0</ele><time>2026-04-09T10:42:04Z</time></trkpt><trkpt lat="38.0180854240531" lon="14.168070885158425"><ele>56.0</ele><time>2026-04-09T10:42:05Z</time></trkpt><trkpt lat="38.01802122387889" lon="14.168257350787394"><ele>56.0</ele><time>2026-04-09T10:42:06Z</time></trkpt><trkpt lat="38.01797467407518" lon="14.168456348972036"><ele>52.66666666666667</ele><time>2026-04-09T10:42:07Z</time></trkpt><trkpt lat="38.01794830062499" lon="14.168659947547694"><ele>49.333333333333336</ele><time>2026-04-09T10:42:08Z</time></trkpt><trkpt lat="38.01792681059034" lon="14.168865113864328"><ele>46.0</ele><time>2026-04-09T10:42:09Z</time></trkpt><trkpt lat="38.01789533773541" lon="14.16905765547873"><ele>43.333333333333336</ele><time>2026-04-09T10:42:10Z</time></trkpt><trkpt lat="38.01784196336654" lon="14.169249658510271"><ele>40.666666666666664</ele><time>2026-04-09T10:42:11Z</time></trkpt><trkpt lat="38.017768438718015" lon="14.169433242034255"><ele>38.0</ele><time>2026-04-09T10:42:12Z</time></trkpt><trkpt lat="38.017698404696525" lon="14.169611502093705"><ele>38.0</ele><time>2026-04-09T10:42:13Z</time></trkpt><trkpt lat="38.01763794309235" lon="14.169787626584666"><ele>38.0</ele><time>2026-04-09T10:42:14Z</time></trkpt><trkpt lat="38.01758025258656" lon="14.169966956143321"><ele>38.0</ele><time>2026-04-09T10:42:15Z</time></trkpt><trkpt lat="38.01753715470747" lon="14.170154714893588"><ele>34.33333333333333</ele><time>2026-04-09T10:42:16Z</time></trkpt><trkpt lat="38.01753069714206" lon="14.170343715783552"><ele>30.666666666666664</ele><time>2026-04-09T10:42:17Z</time></trkpt><trkpt lat="38.01755216639859" lon="14.170538140889299"><ele>27.0</ele><time>2026-04-09T10:42:18Z</time></trkpt><trkpt lat="38.017601908041215" lon="14.170724681059209"><ele>26.0</ele><time>2026-04-09T10:42:19Z</time></trkpt><trkpt lat="38.017660730778196" lon="14.170894734812682"><ele>25.0</ele><time>2026-04-09T10:42:20Z</time></trkpt><trkpt lat="38.01768417362374" lon="14.171090029703004"><ele>24.0</ele><time>2026-04-09T10:42:21Z</time></trkpt><trkpt lat="38.01768579169299" lon="14.171291544906598"><ele>24.0</ele><time>2026-04-09T10:42:22Z</time></trkpt><trkpt lat="38.01768823644659" lon="14.171500048858773"><ele>24.0</ele><time>2026-04-09T10:42:23Z</time></trkpt><trkpt lat="38.01771315297742" lon="14.171714539484068"><ele>24.0</ele><time>2026-04-09T10:42:24Z</time></trkpt><trkpt lat="38.01774393834495" lon="14.171926341532814"><ele>24.0</ele><time>2026-04-09T10:42:25Z</time></trkpt><trkpt lat="38.017763088119814" lon="14.172135974247967"><ele>24.0</ele><time>2026-04-09T10:42:26Z</time></trkpt><trkpt lat="38.017775662744974" lon="14.172348451042511"><ele>24.0</ele><time>2026-04-09T10:42:27Z</time></trkpt><trkpt lat="38.01778758537621" lon="14.172546915054514"><ele>23.5</ele><time>2026-04-09T10:42:28Z</time></trkpt><trkpt lat="38.017789219540646" lon="14.172732314071583"><ele>23.0</ele><time>2026-04-09T10:42:29Z</time></trkpt><trkpt lat="38.01776598489447" lon="14.17290529255486"><ele>22.5</ele><time>2026-04-09T10:42:30Z</time></trkpt><trkpt lat="38.01771460850027" lon="14.173057859768505"><ele>22.0</ele><time>2026-04-09T10:42:31Z</time></trkpt><trkpt lat="38.01762878227752" lon="14.173167623966583"><ele>20.5</ele><time>2026-04-09T10:42:32Z</time></trkpt><trkpt lat="38.017517152349335" lon="14.173215143972138"><ele>19.0</ele><time>2026-04-09T10:42:33Z</time></trkpt><trkpt lat="38.01739687490484" lon="14.173228748662083"><ele>17.5</ele><time>2026-04-09T10:42:34Z</time></trkpt><trkpt lat="38.0172711695319" lon="14.173232335681883"><ele>16.0</ele><time>2026-04-09T10:42:35Z</time></trkpt><trkpt lat="38.01714622667183" lon="14.17323029834745"><ele>16.0</ele><time>2026-04-09T10:42:36Z</time></trkpt><trkpt lat="38.01702675682369" lon="14.173235653630291"><ele>16.0</ele><time>2026-04-09T10:42:37Z</time></trkpt><trkpt lat="38.01690637929126" lon="14.173245294804724"><ele>16.0</ele><time>2026-04-09T10:42:38Z</time></trkpt><trkpt lat="38.01677944734067" lon="14.173249171341713"><ele>16.0</ele><time>2026-04-09T10:42:39Z</time></trkpt><trkpt lat="38.01664614332022" lon="14.17324462900895"><ele>17.75</ele><time>2026-04-09T10:42:40Z</time></trkpt><trkpt lat="38.01651633199216" lon="14.173249034155383"><ele>19.5</ele><time>2026-04-09T10:42:41Z</time></trkpt><trkpt lat="38.01638694745647" lon="14.173274477259195"><ele>21.25</ele><time>2026-04-09T10:42:42Z</time></trkpt><trkpt lat="38.01625764114133" lon="14.173321328392486"><ele>23.0</ele><time>2026-04-09T10:42:43Z</time></trkpt><trkpt lat="38.01612910497142" lon="14.17337866855048"><ele>23.0</ele><time>2026-04-09T10:42:44Z</time></trkpt><trkpt lat="38.015998438917485" lon="14.173445571466258"><ele>23.0</ele><time>2026-04-09T10:42:45Z</time></trkpt><trkpt lat="38.01586402950667" lon="14.173531530235019"><ele>23.0</ele><time>2026-04-09T10:42:46Z</time></trkpt><trkpt lat="38.015729563393364" lon="14.173617961974436"><ele>23.0</ele><time>2026-04-09T10:42:47Z</time></trkpt><trkpt lat="38.015590128395615" lon="14.17370386180618"><ele>26.0</ele><time>2026-04-09T10:42:48Z</time></trkpt><trkpt lat="38.01545241678886" lon="14.173783704168423"><ele>29.0</ele><time>2026-04-09T10:42:49Z</time></trkpt><trkpt lat="38.01531345444491" lon="14.173862550320514"><ele>32.0</ele><time>2026-04-09T10:42:50Z</time></trkpt><trkpt lat="38.01517433128471" lon="14.173941282335104"><ele>32.0</ele><time>2026-04-09T10:42:51Z</time></trkpt><trkpt lat="38.0150395149359" lon="14.174015084527825"><ele>32.0</ele><time>2026-04-09T10:42:52Z</time></trkpt><trkpt lat="38.01490858174405" lon="14.174086921191133"><ele>32.0</ele><time>2026-04-09T10:42:53Z</time></trkpt><trkpt lat="38.014786345313425" lon="14.174155920811176"><ele>32.0</ele><time>2026-04-09T10:42:54Z</time></trkpt><trkpt lat="38.01467290636085" lon="14.174220363437902"><ele>28.75</ele><time>2026-04-09T10:42:55Z</time></trkpt><trkpt lat="38.014573524365574" lon="14.17430236200888"><ele>25.5</ele><time>2026-04-09T10:42:56Z</time></trkpt><trkpt lat="38.014482745813275" lon="14.174409721790243"><ele>22.25</ele><time>2026-04-09T10:42:57Z</time></trkpt><trkpt lat="38.01442051508284" lon="14.174541596994558"><ele>19.0</ele><time>2026-04-09T10:42:58Z</time></trkpt><trkpt lat="38.01438734781726" lon="14.174694192665623"><ele>17.5</ele><time>2026-04-09T10:42:59Z</time></trkpt><trkpt lat="38.014370500146725" lon="14.174862077303684"><ele>16.0</ele><time>2026-04-09T10:43:00Z</time></trkpt><trkpt lat="38.014361756629796" lon="14.175035333576858"><ele>14.5</ele><time>2026-04-09T10:43:01Z</time></trkpt><trkpt lat="38.01435356146167" lon="14.175216648082632"><ele>13.0</ele><time>2026-04-09T10:43:02Z</time></trkpt><trkpt lat="38.014340469168964" lon="14.175399521879665"><ele>13.0</ele><time>2026-04-09T10:43:03Z</time></trkpt><trkpt lat="38.01432449285202" lon="14.175593534161864"><ele>13.0</ele><time>2026-04-09T10:43:04Z</time></trkpt><trkpt lat="38.014313670512124" lon="14.175786927462298"><ele>13.0</ele><time>2026-04-09T10:43:05Z</time></trkpt><trkpt lat="38.014303471286276" lon="14.175982354129705"><ele>13.0</ele><time>2026-04-09T10:43:06Z</time></trkpt><trkpt lat="38.014291578266004" lon="14.17617936925226"><ele>13.0</ele><time>2026-04-09T10:43:07Z</time></trkpt><trkpt lat="38.01427686103925" lon="14.176377814511884"><ele>13.0</ele><time>2026-04-09T10:43:08Z</time></trkpt><trkpt lat="38.01426294846519" lon="14.176574925579962"><ele>12.75</ele><time>2026-04-09T10:43:09Z</time></trkpt><trkpt lat="38.014249752448706" lon="14.176764526629453"><ele>12.5</ele><time>2026-04-09T10:43:10Z</time></trkpt><trkpt lat="38.014238102352195" lon="14.17694772363048"><ele>12.25</ele><time>2026-04-09T10:43:11Z</time></trkpt><trkpt lat="38.014225372783216" lon="14.17713951275695"><ele>12.0</ele><time>2026-04-09T10:43:12Z</time></trkpt><trkpt lat="38.0142151178929" lon="14.177331230127379"><ele>11.75</ele><time>2026-04-09T10:43:13Z</time></trkpt><trkpt lat="38.014201837320186" lon="14.177517288379766"><ele>11.5</ele><time>2026-04-09T10:43:14Z</time></trkpt><trkpt lat="38.01418897164598" lon="14.177697449915003"><ele>11.25</ele><time>2026-04-09T10:43:15Z</time></trkpt><trkpt lat="38.014176341192886" lon="14.17787553751158"><ele>11.0</ele><time>2026-04-09T10:43:16Z</time></trkpt><trkpt lat="38.014166101251035" lon="14.178054739332374"><ele>10.5</ele><time>2026-04-09T10:43:17Z</time></trkpt><trkpt lat="38.014159361533956" lon="14.17823704605644"><ele>10.0</ele><time>2026-04-09T10:43:18Z</time></trkpt><trkpt lat="38.014148967352135" lon="14.178417461212222"><ele>9.5</ele><time>2026-04-09T10:43:19Z</time></trkpt><trkpt lat="38.01413517065618" lon="14.178589578431632"><ele>9.0</ele><time>2026-04-09T10:43:20Z</time></trkpt><trkpt lat="38.01412779318807" lon="14.178765372068524"><ele>9.0</ele><time>2026-04-09T10:43:21Z</time></trkpt><trkpt lat="38.014117787095664" lon="14.178936415482372"><ele>9.0</ele><time>2026-04-09T10:43:22Z</time></trkpt><trkpt lat="38.0141074165209" lon="14.179103243395387"><ele>9.0</ele><time>2026-04-09T10:43:23Z</time></trkpt><trkpt lat="38.01409523429913" lon="14.179260683050206"><ele>9.0</ele><time>2026-04-09T10:43:24Z</time></trkpt><trkpt lat="38.01409959812833" lon="14.179422850794174"><ele>10.25</ele><time>2026-04-09T10:43:25Z</time></trkpt><trkpt lat="38.014128544649516" lon="14.179565143032313"><ele>11.5</ele><time>2026-04-09T10:43:26Z</time></trkpt><trkpt lat="38.01417630334636" lon="14.179692458986905"><ele>12.75</ele><time>2026-04-09T10:43:27Z</time></trkpt><trkpt lat="38.01424965170565" lon="14.17982028135351"><ele>14.0</ele><time>2026-04-09T10:43:28Z</time></trkpt><trkpt lat="38.01433586221015" lon="14.179950039225869"><ele>16.0</ele><time>2026-04-09T10:43:29Z</time></trkpt><trkpt lat="38.014430039691256" lon="14.180086154011915"><ele>18.0</ele><time>2026-04-09T10:43:30Z</time></trkpt><trkpt lat="38.01453410132136" lon="14.18021422194575"><ele>20.0</ele><time>2026-04-09T10:43:31Z</time></trkpt><trkpt lat="38.01465344280996" lon="14.180324776208218"><ele>22.0</ele><time>2026-04-09T10:43:32Z</time></trkpt><trkpt lat="38.01478955399583" lon="14.180420587274847"><ele>22.0</ele><time>2026-04-09T10:43:33Z</time></trkpt><trkpt lat="38.01493066934487" lon="14.180496429360078"><ele>22.0</ele><time>2026-04-09T10:43:34Z</time></trkpt><trkpt lat="38.01506555566681" lon="14.180567134675885"><ele>22.0</ele><time>2026-04-09T10:43:35Z</time></trkpt><trkpt lat="38.015202484377326" lon="14.180638699598623"><ele>22.0</ele><time>2026-04-09T10:43:36Z</time></trkpt><trkpt lat="38.01534090236099" lon="14.18070933779983"><ele>23.25</ele><time>2026-04-09T10:43:37Z</time></trkpt><trkpt lat="38.01547242926528" lon="14.180778676935747"><ele>24.5</ele><time>2026-04-09T10:43:38Z</time></trkpt><trkpt lat="38.01559598055449" lon="14.180843635460107"><ele>25.75</ele><time>2026-04-09T10:43:39Z</time></trkpt><trkpt lat="38.01572606031199" lon="14.180908439015877"><ele>27.0</ele><time>2026-04-09T10:43:40Z</time></trkpt><trkpt lat="38.01585504966603" lon="14.180968485884078"><ele>24.5</ele><time>2026-04-09T10:43:41Z</time></trkpt><trkpt lat="38.01598179549095" lon="14.18102549668572"><ele>22.0</ele><time>2026-04-09T10:43:42Z</time></trkpt><trkpt lat="38.01612008652568" lon="14.181063171273008"><ele>19.5</ele><time>2026-04-09T10:43:43Z</time></trkpt><trkpt lat="38.01627068704018" lon="14.181074126312264"><ele>17.0</ele><time>2026-04-09T10:43:44Z</time></trkpt><trkpt lat="38.01641695272678" lon="14.181074505864206"><ele>17.0</ele><time>2026-04-09T10:43:45Z</time></trkpt><trkpt lat="38.01656731997819" lon="14.181071568786118"><ele>17.0</ele><time>2026-04-09T10:43:46Z</time></trkpt><trkpt lat="38.016714610888776" lon="14.181064054834827"><ele>17.0</ele><time>2026-04-09T10:43:47Z</time></trkpt><trkpt lat="38.01686148294119" lon="14.18105538264066"><ele>17.0</ele><time>2026-04-09T10:43:48Z</time></trkpt><trkpt lat="38.01701283833362" lon="14.18103779687302"><ele>16.333333333333336</ele><time>2026-04-09T10:43:49Z</time></trkpt><trkpt lat="38.017160593717875" lon="14.18100754429524"><ele>15.666666666666668</ele><time>2026-04-09T10:43:50Z</time></trkpt><trkpt lat="38.017310888674004" lon="14.180955812829025"><ele>15.0</ele><time>2026-04-09T10:43:51Z</time></trkpt><trkpt lat="38.0174516562869" lon="14.180898377990275"><ele>16.25</ele><time>2026-04-09T10:43:52Z</time></trkpt><trkpt lat="38.01758847931134" lon="14.180842981998332"><ele>17.5</ele><time>2026-04-09T10:43:53Z</time></trkpt><trkpt lat="38.01772333087855" lon="14.180782372023714"><ele>18.75</ele><time>2026-04-09T10:43:54Z</time></trkpt><trkpt lat="38.01785584801788" lon="14.180733067063294"><ele>20.0</ele><time>2026-04-09T10:43:55Z</time></trkpt><trkpt lat="38.01797843799899" lon="14.180702461228108"><ele>20.0</ele><time>2026-04-09T10:43:56Z</time></trkpt><trkpt lat="38.0181025470515" lon="14.180687499249586"><ele>20.0</ele><time>2026-04-09T10:43:57Z</time></trkpt><trkpt lat="38.018236138306136" lon="14.180706181348334"><ele>20.0</ele><time>2026-04-09T10:43:58Z</time></trkpt><trkpt lat="38.01836597059967" lon="14.180750981920031"><ele>20.0</ele><time>2026-04-09T10:43:59Z</time></trkpt><trkpt lat="38.018472308986766" lon="14.180814767486064"><ele>19.5</ele><time>2026-04-09T10:44:00Z</time></trkpt><trkpt lat="38.01856479908011" lon="14.180900114908187"><ele>19.0</ele><time>2026-04-09T10:44:01Z</time></trkpt><trkpt lat="38.018642343492594" lon="14.181019962340672"><ele>18.5</ele><time>2026-04-09T10:44:02Z</time></trkpt><trkpt lat="38.01867266502467" lon="14.181179664275508"><ele>18.0</ele><time>2026-04-09T10:44:03Z</time></trkpt><trkpt lat="38.01871697852484" lon="14.181343538901286"><ele>18.0</ele><time>2026-04-09T10:44:04Z</time></trkpt><trkpt lat="38.01876189046383" lon="14.181509626389895"><ele>18.0</ele><time>2026-04-09T10:44:05Z</time></trkpt><trkpt lat="38.018818012435915" lon="14.181660896108571"><ele>18.0</ele><time>2026-04-09T10:44:06Z</time></trkpt><trkpt lat="38.01885609368651" lon="14.181813428911092"><ele>18.0</ele><time>2026-04-09T10:44:07Z</time></trkpt><trkpt lat="38.01889263270885" lon="14.18196675193948"><ele>22.5</ele><time>2026-04-09T10:44:08Z</time></trkpt><trkpt lat="38.01892974506543" lon="14.182117262228363"><ele>27.0</ele><time>2026-04-09T10:44:09Z</time></trkpt><trkpt lat="38.018971610178696" lon="14.182259191498188"><ele>31.5</ele><time>2026-04-09T10:44:10Z</time></trkpt><trkpt lat="38.019005307993595" lon="14.182387287580463"><ele>36.0</ele><time>2026-04-09T10:44:11Z</time></trkpt><trkpt lat="38.01901837629411" lon="14.182524319391995"><ele>39.5</ele><time>2026-04-09T10:44:12Z</time></trkpt><trkpt lat="38.018999309807924" lon="14.182664689541237"><ele>43.0</ele><time>2026-04-09T10:44:13Z</time></trkpt><trkpt lat="38.01893500863614" lon="14.182792670874862"><ele>46.5</ele><time>2026-04-09T10:44:14Z</time></trkpt><trkpt lat="38.01890487588861" lon="14.182947240243132"><ele>50.0</ele><time>2026-04-09T10:44:15Z</time></trkpt><trkpt lat="38.01888075120968" lon="14.18310107267321"><ele>50.5</ele><time>2026-04-09T10:44:16Z</time></trkpt><trkpt lat="38.01888034945106" lon="14.183259532128345"><ele>51.0</ele><time>2026-04-09T10:44:17Z</time></trkpt><trkpt lat="38.01888721698722" lon="14.183410477921415"><ele>51.5</ele><time>2026-04-09T10:44:18Z</time></trkpt><trkpt lat="38.01890146962755" lon="14.183561314323741"><ele>52.0</ele><time>2026-04-09T10:44:19Z</time></trkpt><trkpt lat="38.01891181922567" lon="14.183716661962459"><ele>52.0</ele><time>2026-04-09T10:44:20Z</time></trkpt><trkpt lat="38.01891597140976" lon="14.183870499212219"><ele>52.0</ele><time>2026-04-09T10:44:21Z</time></trkpt><trkpt lat="38.018919219483315" lon="14.184026838806368"><ele>52.0</ele><time>2026-04-09T10:44:22Z</time></trkpt><trkpt lat="38.01891452350762" lon="14.184190753101939"><ele>52.0</ele><time>2026-04-09T10:44:23Z</time></trkpt><trkpt lat="38.01889785731749" lon="14.184348510496866"><ele>49.25</ele><time>2026-04-09T10:44:24Z</time></trkpt><trkpt lat="38.018848065204814" lon="14.184493538772326"><ele>46.5</ele><time>2026-04-09T10:44:25Z</time></trkpt><trkpt lat="38.0187783878393" lon="14.184623396502865"><ele>43.75</ele><time>2026-04-09T10:44:26Z</time></trkpt><trkpt lat="38.01870150704908" lon="14.184746325595865"><ele>41.0</ele><time>2026-04-09T10:44:27Z</time></trkpt><trkpt lat="38.01862728729068" lon="14.18488043040349"><ele>37.0</ele><time>2026-04-09T10:44:28Z</time></trkpt><trkpt lat="38.0185748022164" lon="14.185024119255166"><ele>33.0</ele><time>2026-04-09T10:44:29Z</time></trkpt><trkpt lat="38.01853835692342" lon="14.185180889155163"><ele>29.0</ele><time>2026-04-09T10:44:30Z</time></trkpt><trkpt lat="38.01851912164478" lon="14.18534717335149"><ele>25.0</ele><time>2026-04-09T10:44:31Z</time></trkpt><trkpt lat="38.0184986382324" lon="14.18551247582651"><ele>25.0</ele><time>2026-04-09T10:44:32Z</time></trkpt><trkpt lat="38.01847336948226" lon="14.18567221356907"><ele>25.0</ele><time>2026-04-09T10:44:33Z</time></trkpt><trkpt lat="38.01842910834067" lon="14.185826816425639"><ele>25.0</ele><time>2026-04-09T10:44:34Z</time></trkpt><trkpt lat="38.018374173249924" lon="14.185960390829921"><ele>25.0</ele><time>2026-04-09T10:44:35Z</time></trkpt><trkpt lat="38.01832268671406" lon="14.186075110858"><ele>26.000000000000004</ele><time>2026-04-09T10:44:36Z</time></trkpt><trkpt lat="38.01827933229394" lon="14.186182950054741"><ele>27.0</ele><time>2026-04-09T10:44:37Z</time></trkpt><trkpt lat="38.01824884858344" lon="14.18628597772788"><ele>28.0</ele><time>2026-04-09T10:44:38Z</time></trkpt><trkpt lat="38.018218507368566" lon="14.186381844729219"><ele>29.0</ele><time>2026-04-09T10:44:39Z</time></trkpt><trkpt lat="38.01817169295137" lon="14.186475104433002"><ele>30.000000000000004</ele><time>2026-04-09T10:44:40Z</time></trkpt><trkpt lat="38.018117058313926" lon="14.186578596658535"><ele>31.0</ele><time>2026-04-09T10:44:41Z</time></trkpt><trkpt lat="38.01806200699393" lon="14.18668743538343"><ele>31.0</ele><time>2026-04-09T10:44:42Z</time></trkpt><trkpt lat="38.01800066479974" lon="14.186788649225404"><ele>31.0</ele><time>2026-04-09T10:44:43Z</time></trkpt><trkpt lat="38.0179357395303" lon="14.186876444555786"><ele>31.0</ele><time>2026-04-09T10:44:44Z</time></trkpt><trkpt lat="38.01784797553187" lon="14.186913524677582"><ele>31.0</ele><time>2026-04-09T10:44:45Z</time></trkpt><trkpt lat="38.01778184445194" lon="14.1869915392763"><ele>31.0</ele><time>2026-04-09T10:44:46Z</time></trkpt><trkpt lat="38.01769615427212" lon="14.187048252398899"><ele>31.0</ele><time>2026-04-09T10:44:47Z</time></trkpt><trkpt lat="38.01761237476826" lon="14.187131581412991"><ele>31.0</ele><time>2026-04-09T10:44:48Z</time></trkpt><trkpt lat="38.017519474190024" lon="14.187217694868187"><ele>31.0</ele><time>2026-04-09T10:44:49Z</time></trkpt><trkpt lat="38.01741155437995" lon="14.187292350025766"><ele>31.0</ele><time>2026-04-09T10:44:50Z</time></trkpt><trkpt lat="38.01729672579916" lon="14.187350806770278"><ele>31.75</ele><time>2026-04-09T10:44:51Z</time></trkpt><trkpt lat="38.017176912102656" lon="14.187397317982057"><ele>32.5</ele><time>2026-04-09T10:44:52Z</time></trkpt><trkpt lat="38.017060503428574" lon="14.187441281553602"><ele>33.25</ele><time>2026-04-09T10:44:53Z</time></trkpt><trkpt lat="38.01695439654335" lon="14.18749383936427"><ele>34.0</ele><time>2026-04-09T10:44:54Z</time></trkpt><trkpt lat="38.01685797118057" lon="14.18757150596432"><ele>34.0</ele><time>2026-04-09T10:44:55Z</time></trkpt><trkpt lat="38.01677610545969" lon="14.187687798359603"><ele>34.0</ele><time>2026-04-09T10:44:56Z</time></trkpt><trkpt lat="38.0167155462229" lon="14.187840824382679"><ele>34.0</ele><time>2026-04-09T10:44:57Z</time></trkpt><trkpt lat="38.01668352249125" lon="14.188007796381934"><ele>34.0</ele><time>2026-04-09T10:44:58Z</time></trkpt><trkpt lat="38.016676162283446" lon="14.18817420871334"><ele>32.25</ele><time>2026-04-09T10:44:59Z</time></trkpt><trkpt lat="38.016689983435676" lon="14.188317511381237"><ele>30.5</ele><time>2026-04-09T10:45:00Z</time></trkpt><trkpt lat="38.016734624379076" lon="14.188452937880278"><ele>28.75</ele><time>2026-04-09T10:45:01Z</time></trkpt><trkpt lat="38.01681531392993" lon="14.18855801768921"><ele>27.0</ele><time>2026-04-09T10:45:02Z</time></trkpt><trkpt lat="38.016908550553325" lon="14.188646043514145"><ele>27.0</ele><time>2026-04-09T10:45:03Z</time></trkpt><trkpt lat="38.016981015991" lon="14.1887600532682"><ele>27.000000000000004</ele><time>2026-04-09T10:45:04Z</time></trkpt><trkpt lat="38.01702943484081" lon="14.188878744092902"><ele>27.000000000000004</ele><time>2026-04-09T10:45:05Z</time></trkpt><trkpt lat="38.01700337555079" lon="14.18901185986061"><ele>27.0</ele><time>2026-04-09T10:45:06Z</time></trkpt><trkpt lat="38.01694257201349" lon="14.189119012416493"><ele>27.0</ele><time>2026-04-09T10:45:07Z</time></trkpt><trkpt lat="38.016826958950936" lon="14.189159694305644"><ele>27.25</ele><time>2026-04-09T10:45:08Z</time></trkpt><trkpt lat="38.01672198598773" lon="14.189230781902413"><ele>27.5</ele><time>2026-04-09T10:45:09Z</time></trkpt><trkpt lat="38.01662509956544" lon="14.189330556199296"><ele>27.75</ele><time>2026-04-09T10:45:10Z</time></trkpt><trkpt lat="38.01653047921494" lon="14.189428539756817"><ele>28.0</ele><time>2026-04-09T10:45:11Z</time></trkpt><trkpt lat="38.01646593110803" lon="14.189567444540371"><ele>29.5</ele><time>2026-04-09T10:45:12Z</time></trkpt><trkpt lat="38.016417141702895" lon="14.189721685459945"><ele>31.0</ele><time>2026-04-09T10:45:13Z</time></trkpt><trkpt lat="38.01637582950319" lon="14.189875423854884"><ele>32.5</ele><time>2026-04-09T10:45:14Z</time></trkpt><trkpt lat="38.01632458884059" lon="14.190019228974403"><ele>34.0</ele><time>2026-04-09T10:45:15Z</time></trkpt><trkpt lat="38.01625739974286" lon="14.190150583982689"><ele>34.0</ele><time>2026-04-09T10:45:16Z</time></trkpt><trkpt lat="38.016173488280934" lon="14.190274719808041"><ele>34.0</ele><time>2026-04-09T10:45:17Z</time></trkpt><trkpt lat="38.01609454550633" lon="14.190394871045763"><ele>34.0</ele><time>2026-04-09T10:45:18Z</time></trkpt><trkpt lat="38.0160127070689" lon="14.190516836791701"><ele>34.0</ele><time>2026-04-09T10:45:19Z</time></trkpt><trkpt lat="38.015935046492025" lon="14.19064494195105"><ele>33.0</ele><time>2026-04-09T10:45:20Z</time></trkpt><trkpt lat="38.015880125975194" lon="14.190797586202065"><ele>32.0</ele><time>2026-04-09T10:45:21Z</time></trkpt><trkpt lat="38.015848899646336" lon="14.190958741994242"><ele>31.0</ele><time>2026-04-09T10:45:22Z</time></trkpt><trkpt lat="38.01584335901902" lon="14.191115191701876"><ele>30.0</ele><time>2026-04-09T10:45:23Z</time></trkpt><trkpt lat="38.015860650785825" lon="14.191266778099159"><ele>30.0</ele><time>2026-04-09T10:45:24Z</time></trkpt><trkpt lat="38.01589416705239" lon="14.19140843099569"><ele>30.0</ele><time>2026-04-09T10:45:25Z</time></trkpt><trkpt lat="38.01593456665294" lon="14.191545214662616"><ele>30.0</ele><time>2026-04-09T10:45:26Z</time></trkpt><trkpt lat="38.01596628991661" lon="14.191686190402724"><ele>30.0</ele><time>2026-04-09T10:45:27Z</time></trkpt><trkpt lat="38.01599429006131" lon="14.191832892968895"><ele>30.4</ele><time>2026-04-09T10:45:28Z</time></trkpt><trkpt lat="38.016013246807475" lon="14.19196529890921"><ele>30.8</ele><time>2026-04-09T10:45:29Z</time></trkpt><trkpt lat="38.01599002970156" lon="14.192091237396667"><ele>31.200000000000003</ele><time>2026-04-09T10:45:30Z</time></trkpt><trkpt lat="38.01593803694137" lon="14.192193400573858"><ele>31.6</ele><time>2026-04-09T10:45:31Z</time></trkpt><trkpt lat="38.01581965569619" lon="14.192246762817"><ele>32.0</ele><time>2026-04-09T10:45:32Z</time></trkpt><trkpt lat="38.01572293209649" lon="14.192337660480243"><ele>36.25</ele><time>2026-04-09T10:45:33Z</time></trkpt><trkpt lat="38.01564076351429" lon="14.192427128489859"><ele>40.5</ele><time>2026-04-09T10:45:34Z</time></trkpt><trkpt lat="38.0155935269055" lon="14.192551562595801"><ele>44.75</ele><time>2026-04-09T10:45:35Z</time></trkpt><trkpt lat="38.01555658221672" lon="14.19269082573278"><ele>49.0</ele><time>2026-04-09T10:45:36Z</time></trkpt><trkpt lat="38.01552202694013" lon="14.192839495452633"><ele>49.0</ele><time>2026-04-09T10:45:37Z</time></trkpt><trkpt lat="38.01548293783999" lon="14.192996679199007"><ele>49.0</ele><time>2026-04-09T10:45:38Z</time></trkpt><trkpt lat="38.015447559779034" lon="14.193166701516574"><ele>49.0</ele><time>2026-04-09T10:45:39Z</time></trkpt><trkpt lat="38.01541147817278" lon="14.193339781903106"><ele>49.0</ele><time>2026-04-09T10:45:40Z</time></trkpt><trkpt lat="38.015372866283954" lon="14.193522951858219"><ele>47.0</ele><time>2026-04-09T10:45:41Z</time></trkpt><trkpt lat="38.01532885938525" lon="14.193714375148293"><ele>45.0</ele><time>2026-04-09T10:45:42Z</time></trkpt><trkpt lat="38.01528375034979" lon="14.193919970529127"><ele>43.0</ele><time>2026-04-09T10:45:43Z</time></trkpt><trkpt lat="38.01524374038444" lon="14.1941178033397"><ele>40.66666666666667</ele><time>2026-04-09T10:45:44Z</time></trkpt><trkpt lat="38.0152017082333" lon="14.194324686016476"><ele>38.333333333333336</ele><time>2026-04-09T10:45:45Z</time></trkpt><trkpt lat="38.015156924743664" lon="14.19452287664431"><ele>36.0</ele><time>2026-04-09T10:45:46Z</time></trkpt><trkpt lat="38.015109440069295" lon="14.194725504896791"><ele>35.0</ele><time>2026-04-09T10:45:47Z</time></trkpt><trkpt lat="38.01506562081143" lon="14.194925885135952"><ele>34.0</ele><time>2026-04-09T10:45:48Z</time></trkpt><trkpt lat="38.0150232145849" lon="14.195127600964492"><ele>33.0</ele><time>2026-04-09T10:45:49Z</time></trkpt><trkpt lat="38.01497631308517" lon="14.195332237762226"><ele>39.0</ele><time>2026-04-09T10:45:50Z</time></trkpt><trkpt lat="38.01493190644488" lon="14.195540993304277"><ele>45.0</ele><time>2026-04-09T10:45:51Z</time></trkpt><trkpt lat="38.014886689257956" lon="14.19574943826715"><ele>51.0</ele><time>2026-04-09T10:45:52Z</time></trkpt><trkpt lat="38.01484075751134" lon="14.195961576921203"><ele>52.0</ele><time>2026-04-09T10:45:53Z</time></trkpt><trkpt lat="38.014780469834896" lon="14.196163849622954"><ele>53.0</ele><time>2026-04-09T10:45:54Z</time></trkpt><trkpt lat="38.014754705962176" lon="14.196367515254483"><ele>54.0</ele><time>2026-04-09T10:45:55Z</time></trkpt><trkpt lat="38.01471433678571" lon="14.196560113063363"><ele>55.33333333333333</ele><time>2026-04-09T10:45:56Z</time></trkpt><trkpt lat="38.01468149374563" lon="14.196760003382854"><ele>56.666666666666664</ele><time>2026-04-09T10:45:57Z</time></trkpt><trkpt lat="38.01465394305745" lon="14.196961536192468"><ele>58.0</ele><time>2026-04-09T10:45:58Z</time></trkpt><trkpt lat="38.01464657106133" lon="14.197153332488334"><ele>58.0</ele><time>2026-04-09T10:45:59Z</time></trkpt><trkpt lat="38.01465878865892" lon="14.197328692850082"><ele>58.0</ele><time>2026-04-09T10:46:00Z</time></trkpt><trkpt lat="38.0146819388242" lon="14.197483693335752"><ele>58.0</ele><time>2026-04-09T10:46:01Z</time></trkpt><trkpt lat="38.014712016028355" lon="14.197616551956633"><ele>58.0</ele><time>2026-04-09T10:46:02Z</time></trkpt><trkpt lat="38.01472005421039" lon="14.197750266900428"><ele>58.2</ele><time>2026-04-09T10:46:03Z</time></trkpt><trkpt lat="38.014750124235526" lon="14.197872754622756"><ele>58.4</ele><time>2026-04-09T10:46:04Z</time></trkpt><trkpt lat="38.01473943729636" lon="14.197996212333186"><ele>58.60000000000001</ele><time>2026-04-09T10:46:05Z</time></trkpt><trkpt lat="38.01467473579799" lon="14.19810769014161"><ele>58.800000000000004</ele><time>2026-04-09T10:46:06Z</time></trkpt><trkpt lat="38.014618093342726" lon="14.19821736293318"><ele>59.0</ele><time>2026-04-09T10:46:07Z</time></trkpt><trkpt lat="38.01457440578059" lon="14.198333265325354"><ele>57.6</ele><time>2026-04-09T10:46:08Z</time></trkpt><trkpt lat="38.014519881032264" lon="14.198438598635667"><ele>56.2</ele><time>2026-04-09T10:46:09Z</time></trkpt><trkpt lat="38.01447294673338" lon="14.198535867814174"><ele>54.800000000000004</ele><time>2026-04-09T10:46:10Z</time></trkpt><trkpt lat="38.01443150273758" lon="14.198637159537265"><ele>53.400000000000006</ele><time>2026-04-09T10:46:11Z</time></trkpt><trkpt lat="38.014414923043745" lon="14.198750558170895"><ele>52.0</ele><time>2026-04-09T10:46:12Z</time></trkpt><trkpt lat="38.014416182531974" lon="14.198865535913452"><ele>52.0</ele><time>2026-04-09T10:46:13Z</time></trkpt><trkpt lat="38.01442639919811" lon="14.198987370593477"><ele>52.0</ele><time>2026-04-09T10:46:14Z</time></trkpt><trkpt lat="38.01443474825762" lon="14.199112839577603"><ele>52.0</ele><time>2026-04-09T10:46:15Z</time></trkpt><trkpt lat="38.01444459553782" lon="14.199244647460132"><ele>52.0</ele><time>2026-04-09T10:46:16Z</time></trkpt><trkpt lat="38.01445565796398" lon="14.199373001938381"><ele>52.0</ele><time>2026-04-09T10:46:17Z</time></trkpt><trkpt lat="38.01446949164723" lon="14.199499627563208"><ele>51.0</ele><time>2026-04-09T10:46:18Z</time></trkpt><trkpt lat="38.014480115040904" lon="14.199625772841454"><ele>50.0</ele><time>2026-04-09T10:46:19Z</time></trkpt><trkpt lat="38.01448040792187" lon="14.199756465718815"><ele>49.0</ele><time>2026-04-09T10:46:20Z</time></trkpt><trkpt lat="38.014487294185805" lon="14.199890731415588"><ele>48.0</ele><time>2026-04-09T10:46:21Z</time></trkpt><trkpt lat="38.01449812295745" lon="14.200036035134083"><ele>47.0</ele><time>2026-04-09T10:46:22Z</time></trkpt><trkpt lat="38.014513091018955" lon="14.20019307985659"><ele>47.0</ele><time>2026-04-09T10:46:23Z</time></trkpt><trkpt lat="38.01453069648952" lon="14.200354592331783"><ele>47.0</ele><time>2026-04-09T10:46:24Z</time></trkpt><trkpt lat="38.014549830076305" lon="14.20051779671009"><ele>47.0</ele><time>2026-04-09T10:46:25Z</time></trkpt><trkpt lat="38.014567398634654" lon="14.200678150770592"><ele>47.0</ele><time>2026-04-09T10:46:26Z</time></trkpt><trkpt lat="38.014584359921955" lon="14.200827357001836"><ele>46.75</ele><time>2026-04-09T10:46:27Z</time></trkpt><trkpt lat="38.01460229771422" lon="14.200986685445756"><ele>46.5</ele><time>2026-04-09T10:46:28Z</time></trkpt><trkpt lat="38.014619920307744" lon="14.201145531529553"><ele>46.25</ele><time>2026-04-09T10:46:29Z</time></trkpt><trkpt lat="38.01464219160781" lon="14.201315714430992"><ele>46.0</ele><time>2026-04-09T10:46:30Z</time></trkpt><trkpt lat="38.01465386269842" lon="14.201465926171098"><ele>46.25</ele><time>2026-04-09T10:46:31Z</time></trkpt><trkpt lat="38.01464179028812" lon="14.201637753784262"><ele>46.5</ele><time>2026-04-09T10:46:32Z</time></trkpt><trkpt lat="38.01463079471006" lon="14.201802002177715"><ele>46.75</ele><time>2026-04-09T10:46:33Z</time></trkpt><trkpt lat="38.01459402096973" lon="14.20196092406569"><ele>47.0</ele><time>2026-04-09T10:46:34Z</time></trkpt><trkpt lat="38.0145011214962" lon="14.202098034800171"><ele>47.0</ele><time>2026-04-09T10:46:35Z</time></trkpt><trkpt lat="38.014442683924614" lon="14.202254887278297"><ele>47.0</ele><time>2026-04-09T10:46:36Z</time></trkpt><trkpt lat="38.01439919937045" lon="14.20241139792103"><ele>47.0</ele><time>2026-04-09T10:46:37Z</time></trkpt><trkpt lat="38.01439588626187" lon="14.202584906954705"><ele>47.0</ele><time>2026-04-09T10:46:38Z</time></trkpt><trkpt lat="38.014406919099045" lon="14.202760055689838"><ele>46.0</ele><time>2026-04-09T10:46:39Z</time></trkpt><trkpt lat="38.0144245455146" lon="14.202930550022517"><ele>45.0</ele><time>2026-04-09T10:46:40Z</time></trkpt><trkpt lat="38.01444985078606" lon="14.203098734442637"><ele>44.0</ele><time>2026-04-09T10:46:41Z</time></trkpt><trkpt lat="38.01448283334762" lon="14.203266428347503"><ele>43.0</ele><time>2026-04-09T10:46:42Z</time></trkpt><trkpt lat="38.01452356340911" lon="14.203434204710968"><ele>45.5</ele><time>2026-04-09T10:46:43Z</time></trkpt><trkpt lat="38.01457204824483" lon="14.2035980507019"><ele>48.0</ele><time>2026-04-09T10:46:44Z</time></trkpt><trkpt lat="38.01462021918979" lon="14.203751148150765"><ele>50.5</ele><time>2026-04-09T10:46:45Z</time></trkpt><trkpt lat="38.01464602635138" lon="14.203911408962552"><ele>53.0</ele><time>2026-04-09T10:46:46Z</time></trkpt><trkpt lat="38.01465528652941" lon="14.204086521002019"><ele>56.0</ele><time>2026-04-09T10:46:47Z</time></trkpt><trkpt lat="38.01465664991564" lon="14.20426468561451"><ele>59.0</ele><time>2026-04-09T10:46:48Z</time></trkpt><trkpt lat="38.01465388695049" lon="14.204441683989668"><ele>62.0</ele><time>2026-04-09T10:46:49Z</time></trkpt><trkpt lat="38.014662308320155" lon="14.204623098790139"><ele>65.0</ele><time>2026-04-09T10:46:50Z</time></trkpt><trkpt lat="38.014665945161994" lon="14.204794562849612"><ele>65.75</ele><time>2026-04-09T10:46:51Z</time></trkpt><trkpt lat="38.014667153669976" lon="14.204966207413493"><ele>66.5</ele><time>2026-04-09T10:46:52Z</time></trkpt><trkpt lat="38.014672946416674" lon="14.2051299120197"><ele>67.25</ele><time>2026-04-09T10:46:53Z</time></trkpt><trkpt lat="38.01467885160153" lon="14.205295206795553"><ele>68.0</ele><time>2026-04-09T10:46:54Z</time></trkpt><trkpt lat="38.01468470631434" lon="14.205461803949074"><ele>68.0</ele><time>2026-04-09T10:46:55Z</time></trkpt><trkpt lat="38.0146909273193" lon="14.205632821709655"><ele>68.0</ele><time>2026-04-09T10:46:56Z</time></trkpt><trkpt lat="38.01469825688014" lon="14.205808279782406"><ele>68.0</ele><time>2026-04-09T10:46:57Z</time></trkpt><trkpt lat="38.014700943121966" lon="14.205978999937992"><ele>68.0</ele><time>2026-04-09T10:46:58Z</time></trkpt><trkpt lat="38.01470387227053" lon="14.20614130389851"><ele>68.25</ele><time>2026-04-09T10:46:59Z</time></trkpt><trkpt lat="38.01470337852603" lon="14.20630635540806"><ele>68.5</ele><time>2026-04-09T10:47:00Z</time></trkpt><trkpt lat="38.01470371912804" lon="14.206463555882548"><ele>68.75</ele><time>2026-04-09T10:47:01Z</time></trkpt><trkpt lat="38.014694823774256" lon="14.206614420256587"><ele>69.0</ele><time>2026-04-09T10:47:02Z</time></trkpt><trkpt lat="38.01466772782083" lon="14.206766410899105"><ele>68.5</ele><time>2026-04-09T10:47:03Z</time></trkpt><trkpt lat="38.01460724830117" lon="14.206921907913136"><ele>68.0</ele><time>2026-04-09T10:47:04Z</time></trkpt><trkpt lat="38.014566771558215" lon="14.20708955237017"><ele>67.5</ele><time>2026-04-09T10:47:05Z</time></trkpt><trkpt lat="38.01454058976758" lon="14.207256537818541"><ele>67.0</ele><time>2026-04-09T10:47:06Z</time></trkpt><trkpt lat="38.014494699114216" lon="14.207415034177288"><ele>63.25</ele><time>2026-04-09T10:47:07Z</time></trkpt><trkpt lat="38.01444713657953" lon="14.207571138411003"><ele>59.5</ele><time>2026-04-09T10:47:08Z</time></trkpt><trkpt lat="38.01442519446934" lon="14.207733810996888"><ele>55.75</ele><time>2026-04-09T10:47:09Z</time></trkpt><trkpt lat="38.01442904188077" lon="14.20790071491757"><ele>52.0</ele><time>2026-04-09T10:47:10Z</time></trkpt><trkpt lat="38.01444966467644" lon="14.208048905288297"><ele>49.4</ele><time>2026-04-09T10:47:11Z</time></trkpt><trkpt lat="38.014464238301514" lon="14.20818870335372"><ele>46.800000000000004</ele><time>2026-04-09T10:47:12Z</time></trkpt><trkpt lat="38.01448053538204" lon="14.208316337245348"><ele>44.2</ele><time>2026-04-09T10:47:13Z</time></trkpt><trkpt lat="38.014477590794925" lon="14.20844161170802"><ele>41.6</ele><time>2026-04-09T10:47:14Z</time></trkpt><trkpt lat="38.01444287956664" lon="14.20856427713436"><ele>39.0</ele><time>2026-04-09T10:47:15Z</time></trkpt><trkpt lat="38.014349930421815" lon="14.208661693447953"><ele>39.0</ele><time>2026-04-09T10:47:16Z</time></trkpt><trkpt lat="38.014245882953915" lon="14.208737054538402"><ele>39.0</ele><time>2026-04-09T10:47:17Z</time></trkpt><trkpt lat="38.01417790619035" lon="14.208830166761174"><ele>39.0</ele><time>2026-04-09T10:47:18Z</time></trkpt><trkpt lat="38.01412462481146" lon="14.208935048055583"><ele>39.0</ele><time>2026-04-09T10:47:19Z</time></trkpt><trkpt lat="38.01410398275437" lon="14.209092824156745"><ele>39.0</ele><time>2026-04-09T10:47:20Z</time></trkpt><trkpt lat="38.01408303323899" lon="14.209264078812998"><ele>46.5</ele><time>2026-04-09T10:47:21Z</time></trkpt><trkpt lat="38.014052398213664" lon="14.209434788163174"><ele>54.0</ele><time>2026-04-09T10:47:22Z</time></trkpt><trkpt lat="38.014024429329055" lon="14.209611700646255"><ele>61.5</ele><time>2026-04-09T10:47:23Z</time></trkpt><trkpt lat="38.01400089020813" lon="14.209783871517642"><ele>69.0</ele><time>2026-04-09T10:47:24Z</time></trkpt><trkpt lat="38.013991463775625" lon="14.209953318184253"><ele>69.0</ele><time>2026-04-09T10:47:25Z</time></trkpt><trkpt lat="38.01399913259101" lon="14.210123956520155"><ele>69.0</ele><time>2026-04-09T10:47:26Z</time></trkpt><trkpt lat="38.01401724556927" lon="14.210294844524139"><ele>69.0</ele><time>2026-04-09T10:47:27Z</time></trkpt><trkpt lat="38.01404243170372" lon="14.210451856075533"><ele>69.0</ele><time>2026-04-09T10:47:28Z</time></trkpt><trkpt lat="38.01408334157807" lon="14.21059639384303"><ele>68.0</ele><time>2026-04-09T10:47:29Z</time></trkpt><trkpt lat="38.0141152814546" lon="14.210738120167075"><ele>67.0</ele><time>2026-04-09T10:47:30Z</time></trkpt><trkpt lat="38.01412225892442" lon="14.210881676282973"><ele>66.0</ele><time>2026-04-09T10:47:31Z</time></trkpt><trkpt lat="38.01406011863108" lon="14.211022129523887"><ele>65.0</ele><time>2026-04-09T10:47:32Z</time></trkpt><trkpt lat="38.014031262757" lon="14.211186627896609"><ele>65.0</ele><time>2026-04-09T10:47:33Z</time></trkpt><trkpt lat="38.01399352164332" lon="14.211356122455271"><ele>65.0</ele><time>2026-04-09T10:47:34Z</time></trkpt><trkpt lat="38.01396557476472" lon="14.211523988179529"><ele>65.0</ele><time>2026-04-09T10:47:35Z</time></trkpt><trkpt lat="38.013930480820605" lon="14.211693925138201"><ele>65.0</ele><time>2026-04-09T10:47:36Z</time></trkpt><trkpt lat="38.01388000813502" lon="14.21185960083542"><ele>63.25</ele><time>2026-04-09T10:47:37Z</time></trkpt><trkpt lat="38.01382343062287" lon="14.2120318386784"><ele>61.5</ele><time>2026-04-09T10:47:38Z</time></trkpt><trkpt lat="38.013774768401625" lon="14.21221325217486"><ele>59.75</ele><time>2026-04-09T10:47:39Z</time></trkpt><trkpt lat="38.013721458709696" lon="14.212386228676532"><ele>58.0</ele><time>2026-04-09T10:47:40Z</time></trkpt><trkpt lat="38.01367043792876" lon="14.212560801565001"><ele>54.25</ele><time>2026-04-09T10:47:41Z</time></trkpt><trkpt lat="38.01362224284869" lon="14.212727870787244"><ele>50.5</ele><time>2026-04-09T10:47:42Z</time></trkpt><trkpt lat="38.01356941036139" lon="14.212879165496556"><ele>46.75</ele><time>2026-04-09T10:47:43Z</time></trkpt><trkpt lat="38.013497971416" lon="14.213016614297459"><ele>43.0</ele><time>2026-04-09T10:47:44Z</time></trkpt><trkpt lat="38.01339783393832" lon="14.213150149303319"><ele>49.66666666666667</ele><time>2026-04-09T10:47:45Z</time></trkpt><trkpt lat="38.01328174614476" lon="14.213281177147758"><ele>56.333333333333336</ele><time>2026-04-09T10:47:46Z</time></trkpt><trkpt lat="38.013156737311654" lon="14.213400423956529"><ele>63.0</ele><time>2026-04-09T10:47:47Z</time></trkpt><trkpt lat="38.01303597085587" lon="14.213518390777413"><ele>63.0</ele><time>2026-04-09T10:47:48Z</time></trkpt><trkpt lat="38.01294680434303" lon="14.213674291428918"><ele>63.0</ele><time>2026-04-09T10:47:49Z</time></trkpt><trkpt lat="38.01289028514359" lon="14.213855816390813"><ele>63.0</ele><time>2026-04-09T10:47:50Z</time></trkpt><trkpt lat="38.01284852567544" lon="14.21403588059721"><ele>56.25</ele><time>2026-04-09T10:47:51Z</time></trkpt><trkpt lat="38.0127956786241" lon="14.214199580523818"><ele>49.5</ele><time>2026-04-09T10:47:52Z</time></trkpt><trkpt lat="38.01271790390961" lon="14.214362433007036"><ele>42.75</ele><time>2026-04-09T10:47:53Z</time></trkpt><trkpt lat="38.01262632455773" lon="14.214511639429853"><ele>36.0</ele><time>2026-04-09T10:47:54Z</time></trkpt><trkpt lat="38.012524507870154" lon="14.214654249526365"><ele>39.666666666666664</ele><time>2026-04-09T10:47:55Z</time></trkpt><trkpt lat="38.01241431766558" lon="14.214790227763947"><ele>43.33333333333333</ele><time>2026-04-09T10:47:56Z</time></trkpt><trkpt lat="38.01230240511735" lon="14.214932673098483"><ele>47.0</ele><time>2026-04-09T10:47:57Z</time></trkpt><trkpt lat="38.01217988037373" lon="14.215075347719491"><ele>47.0</ele><time>2026-04-09T10:47:58Z</time></trkpt><trkpt lat="38.012071265190656" lon="14.21522309304849"><ele>47.0</ele><time>2026-04-09T10:47:59Z</time></trkpt><trkpt lat="38.01197185269691" lon="14.21538174404184"><ele>47.0</ele><time>2026-04-09T10:48:00Z</time></trkpt><trkpt lat="38.0118736516762" lon="14.215544528650387"><ele>50.33333333333333</ele><time>2026-04-09T10:48:01Z</time></trkpt><trkpt lat="38.011774315348575" lon="14.215707500503974"><ele>53.666666666666664</ele><time>2026-04-09T10:48:02Z</time></trkpt><trkpt lat="38.011681496160364" lon="14.215877451090142"><ele>57.0</ele><time>2026-04-09T10:48:03Z</time></trkpt><trkpt lat="38.011596396703446" lon="14.216056793405228"><ele>57.0</ele><time>2026-04-09T10:48:04Z</time></trkpt><trkpt lat="38.01151778852175" lon="14.216240386372887"><ele>57.0</ele><time>2026-04-09T10:48:05Z</time></trkpt><trkpt lat="38.01145495744472" lon="14.216433325338548"><ele>57.0</ele><time>2026-04-09T10:48:06Z</time></trkpt><trkpt lat="38.01140752284586" lon="14.21664118445037"><ele>53.0</ele><time>2026-04-09T10:48:07Z</time></trkpt><trkpt lat="38.0113646382311" lon="14.216855475506403"><ele>49.0</ele><time>2026-04-09T10:48:08Z</time></trkpt><trkpt lat="38.01132959678642" lon="14.21707414539093"><ele>45.0</ele><time>2026-04-09T10:48:09Z</time></trkpt><trkpt lat="38.01130374633645" lon="14.21729866630781"><ele>43.0</ele><time>2026-04-09T10:48:10Z</time></trkpt><trkpt lat="38.01129693248933" lon="14.217522851230639"><ele>41.0</ele><time>2026-04-09T10:48:11Z</time></trkpt><trkpt lat="38.011306616778015" lon="14.217741515028095"><ele>39.0</ele><time>2026-04-09T10:48:12Z</time></trkpt><trkpt lat="38.01132049227349" lon="14.217951720668461"><ele>36.333333333333336</ele><time>2026-04-09T10:48:13Z</time></trkpt><trkpt lat="38.01134754306308" lon="14.218170405651033"><ele>33.66666666666667</ele><time>2026-04-09T10:48:14Z</time></trkpt><trkpt lat="38.011384051116615" lon="14.21839179619227"><ele>31.0</ele><time>2026-04-09T10:48:15Z</time></trkpt><trkpt lat="38.011438042773385" lon="14.218620157100233"><ele>31.0</ele><time>2026-04-09T10:48:16Z</time></trkpt><trkpt lat="38.0115009286203" lon="14.218845902537602"><ele>31.0</ele><time>2026-04-09T10:48:17Z</time></trkpt><trkpt lat="38.0115678217887" lon="14.219069013895584"><ele>31.0</ele><time>2026-04-09T10:48:18Z</time></trkpt><trkpt lat="38.011640475488555" lon="14.219288796631513"><ele>32.333333333333336</ele><time>2026-04-09T10:48:19Z</time></trkpt><trkpt lat="38.01170466757293" lon="14.219487804241142"><ele>33.666666666666664</ele><time>2026-04-09T10:48:20Z</time></trkpt><trkpt lat="38.011758092691714" lon="14.219661194789428"><ele>35.0</ele><time>2026-04-09T10:48:21Z</time></trkpt><trkpt lat="38.011803221500195" lon="14.219821418893769"><ele>35.0</ele><time>2026-04-09T10:48:22Z</time></trkpt><trkpt lat="38.01184386134123" lon="14.219980869317196"><ele>35.0</ele><time>2026-04-09T10:48:23Z</time></trkpt><trkpt lat="38.01188559639409" lon="14.220138769773643"><ele>35.0</ele><time>2026-04-09T10:48:24Z</time></trkpt><trkpt lat="38.01193185695506" lon="14.220306441059003"><ele>35.0</ele><time>2026-04-09T10:48:25Z</time></trkpt><trkpt lat="38.011972984646164" lon="14.220480851591812"><ele>34.75</ele><time>2026-04-09T10:48:26Z</time></trkpt><trkpt lat="38.01200316043721" lon="14.220666117833446"><ele>34.5</ele><time>2026-04-09T10:48:27Z</time></trkpt><trkpt lat="38.01202734678046" lon="14.220854082574945"><ele>34.25</ele><time>2026-04-09T10:48:28Z</time></trkpt><trkpt lat="38.01204026441696" lon="14.221043427966185"><ele>34.0</ele><time>2026-04-09T10:48:29Z</time></trkpt><trkpt lat="38.01204606804839" lon="14.22123360149897"><ele>34.0</ele><time>2026-04-09T10:48:30Z</time></trkpt><trkpt lat="38.012036991133975" lon="14.221425121859586"><ele>34.0</ele><time>2026-04-09T10:48:31Z</time></trkpt><trkpt lat="38.01202340096189" lon="14.221615354960756"><ele>34.0</ele><time>2026-04-09T10:48:32Z</time></trkpt><trkpt lat="38.011997913874225" lon="14.22181090662775"><ele>31.0</ele><time>2026-04-09T10:48:33Z</time></trkpt><trkpt lat="38.01195799498407" lon="14.222008741783208"><ele>28.0</ele><time>2026-04-09T10:48:34Z</time></trkpt><trkpt lat="38.011903947045916" lon="14.222209874848003"><ele>25.0</ele><time>2026-04-09T10:48:35Z</time></trkpt><trkpt lat="38.011853879203706" lon="14.222409715919907"><ele>24.0</ele><time>2026-04-09T10:48:36Z</time></trkpt><trkpt lat="38.011804171970034" lon="14.222609501832288"><ele>23.0</ele><time>2026-04-09T10:48:37Z</time></trkpt><trkpt lat="38.01175798162484" lon="14.222810874427601"><ele>22.0</ele><time>2026-04-09T10:48:38Z</time></trkpt><trkpt lat="38.011715153221694" lon="14.223015117374338"><ele>20.0</ele><time>2026-04-09T10:48:39Z</time></trkpt><trkpt lat="38.01166507775366" lon="14.223218446846268"><ele>18.0</ele><time>2026-04-09T10:48:40Z</time></trkpt><trkpt lat="38.01161312696367" lon="14.223429329627772"><ele>16.0</ele><time>2026-04-09T10:48:41Z</time></trkpt><trkpt lat="38.01156610870282" lon="14.22363971469203"><ele>21.666666666666664</ele><time>2026-04-09T10:48:42Z</time></trkpt><trkpt lat="38.0115191677466" lon="14.223848209909244"><ele>27.333333333333332</ele><time>2026-04-09T10:48:43Z</time></trkpt><trkpt lat="38.01147222045729" lon="14.224059385694819"><ele>33.0</ele><time>2026-04-09T10:48:44Z</time></trkpt><trkpt lat="38.01142736077136" lon="14.224259926202771"><ele>35.0</ele><time>2026-04-09T10:48:45Z</time></trkpt><trkpt lat="38.0113674796488" lon="14.22444872310471"><ele>37.0</ele><time>2026-04-09T10:48:46Z</time></trkpt><trkpt lat="38.011284480932574" lon="14.224634256596893"><ele>39.0</ele><time>2026-04-09T10:48:47Z</time></trkpt><trkpt lat="38.01118472803999" lon="14.224809046829254"><ele>37.666666666666664</ele><time>2026-04-09T10:48:48Z</time></trkpt><trkpt lat="38.01110063125225" lon="14.224991909704501"><ele>36.33333333333333</ele><time>2026-04-09T10:48:49Z</time></trkpt><trkpt lat="38.011032488252326" lon="14.22519135460195"><ele>35.0</ele><time>2026-04-09T10:48:50Z</time></trkpt><trkpt lat="38.010973397132986" lon="14.225392182032838"><ele>35.0</ele><time>2026-04-09T10:48:51Z</time></trkpt><trkpt lat="38.01092547553074" lon="14.225581727496845"><ele>35.0</ele><time>2026-04-09T10:48:52Z</time></trkpt><trkpt lat="38.01085549870918" lon="14.225753015188578"><ele>35.0</ele><time>2026-04-09T10:48:53Z</time></trkpt><trkpt lat="38.01076758617331" lon="14.225910979823151"><ele>43.0</ele><time>2026-04-09T10:48:54Z</time></trkpt><trkpt lat="38.01066078153119" lon="14.226049489805245"><ele>51.0</ele><time>2026-04-09T10:48:55Z</time></trkpt><trkpt lat="38.010571633163785" lon="14.226211433144773"><ele>59.0</ele><time>2026-04-09T10:48:56Z</time></trkpt><trkpt lat="38.01051093612349" lon="14.226376337824602"><ele>52.75</ele><time>2026-04-09T10:48:57Z</time></trkpt><trkpt lat="38.01043158239621" lon="14.226511835138952"><ele>46.5</ele><time>2026-04-09T10:48:58Z</time></trkpt><trkpt lat="38.01032962290698" lon="14.22663284541755"><ele>40.25</ele><time>2026-04-09T10:48:59Z</time></trkpt><trkpt lat="38.01021759808723" lon="14.226744425281984"><ele>34.0</ele><time>2026-04-09T10:49:00Z</time></trkpt><trkpt lat="38.0101034194882" lon="14.226857455242586"><ele>34.0</ele><time>2026-04-09T10:49:01Z</time></trkpt><trkpt lat="38.00999722306943" lon="14.226971072453846"><ele>34.0</ele><time>2026-04-09T10:49:02Z</time></trkpt><trkpt lat="38.009896794043286" lon="14.227085773687609"><ele>34.0</ele><time>2026-04-09T10:49:03Z</time></trkpt><trkpt lat="38.00980571560636" lon="14.227217367448096"><ele>34.0</ele><time>2026-04-09T10:49:04Z</time></trkpt><trkpt lat="38.00973868830353" lon="14.227379755205813"><ele>40.5</ele><time>2026-04-09T10:49:05Z</time></trkpt><trkpt lat="38.009679560930834" lon="14.227548352691427"><ele>47.0</ele><time>2026-04-09T10:49:06Z</time></trkpt><trkpt lat="38.009627580969486" lon="14.227727766254835"><ele>53.5</ele><time>2026-04-09T10:49:07Z</time></trkpt><trkpt lat="38.00959074117101" lon="14.227914892400491"><ele>60.0</ele><time>2026-04-09T10:49:08Z</time></trkpt><trkpt lat="38.009578702739525" lon="14.22811041506005"><ele>59.0</ele><time>2026-04-09T10:49:09Z</time></trkpt><trkpt lat="38.00956799582096" lon="14.228302712014091"><ele>58.0</ele><time>2026-04-09T10:49:10Z</time></trkpt><trkpt lat="38.009557336199606" lon="14.228490774891052"><ele>57.0</ele><time>2026-04-09T10:49:11Z</time></trkpt><trkpt lat="38.009547558360325" lon="14.228672773426009"><ele>56.0</ele><time>2026-04-09T10:49:12Z</time></trkpt><trkpt lat="38.009547519957636" lon="14.228848253394057"><ele>55.75</ele><time>2026-04-09T10:49:13Z</time></trkpt><trkpt lat="38.009554219187486" lon="14.229024036507662"><ele>55.5</ele><time>2026-04-09T10:49:14Z</time></trkpt><trkpt lat="38.00956356654658" lon="14.22920523051647"><ele>55.25</ele><time>2026-04-09T10:49:15Z</time></trkpt><trkpt lat="38.00957305468793" lon="14.229384719755764"><ele>55.0</ele><time>2026-04-09T10:49:16Z</time></trkpt><trkpt lat="38.00957313598925" lon="14.229563471005502"><ele>55.0</ele><time>2026-04-09T10:49:17Z</time></trkpt><trkpt lat="38.0095600335319" lon="14.229733593398416"><ele>55.0</ele><time>2026-04-09T10:49:18Z</time></trkpt><trkpt lat="38.009537009821734" lon="14.22988976034506"><ele>55.0</ele><time>2026-04-09T10:49:19Z</time></trkpt><trkpt lat="38.00951687622012" lon="14.230012423665302"><ele>55.0</ele><time>2026-04-09T10:49:20Z</time></trkpt><trkpt lat="38.00952813696679" lon="14.23012408999291"><ele>55.0</ele><time>2026-04-09T10:49:21Z</time></trkpt><trkpt lat="38.00957647344632" lon="14.23022557732722"><ele>55.2</ele><time>2026-04-09T10:49:22Z</time></trkpt><trkpt lat="38.00963367129367" lon="14.230317723553659"><ele>55.4</ele><time>2026-04-09T10:49:23Z</time></trkpt><trkpt lat="38.00967815820391" lon="14.23042928792427"><ele>55.599999999999994</ele><time>2026-04-09T10:49:24Z</time></trkpt><trkpt lat="38.00970897634512" lon="14.230567253174893"><ele>55.8</ele><time>2026-04-09T10:49:25Z</time></trkpt><trkpt lat="38.009716501490786" lon="14.230716403002823"><ele>56.0</ele><time>2026-04-09T10:49:26Z</time></trkpt><trkpt lat="38.009723432801486" lon="14.230873462129955"><ele>56.0</ele><time>2026-04-09T10:49:27Z</time></trkpt><trkpt lat="38.009731301001985" lon="14.231039434627792"><ele>56.0</ele><time>2026-04-09T10:49:28Z</time></trkpt><trkpt lat="38.009740984347275" lon="14.231211265051883"><ele>56.0</ele><time>2026-04-09T10:49:29Z</time></trkpt><trkpt lat="38.00976345477505" lon="14.231381703590241"><ele>56.0</ele><time>2026-04-09T10:49:30Z</time></trkpt><trkpt lat="38.009786790709164" lon="14.231547066938942"><ele>55.75</ele><time>2026-04-09T10:49:31Z</time></trkpt><trkpt lat="38.009811938540004" lon="14.231715500640352"><ele>55.5</ele><time>2026-04-09T10:49:32Z</time></trkpt><trkpt lat="38.00983627763107" lon="14.231885253570097"><ele>55.25</ele><time>2026-04-09T10:49:33Z</time></trkpt><trkpt lat="38.00985922397537" lon="14.23205943899436"><ele>55.0</ele><time>2026-04-09T10:49:34Z</time></trkpt><trkpt lat="38.00988021103014" lon="14.23223376599225"><ele>56.0</ele><time>2026-04-09T10:49:35Z</time></trkpt><trkpt lat="38.00988917986104" lon="14.232400499061187"><ele>57.0</ele><time>2026-04-09T10:49:36Z</time></trkpt><trkpt lat="38.00989052710946" lon="14.232558315426164"><ele>58.0</ele><time>2026-04-09T10:49:37Z</time></trkpt><trkpt lat="38.009884585400215" lon="14.232728025020617"><ele>59.0</ele><time>2026-04-09T10:49:38Z</time></trkpt><trkpt lat="38.00986427614667" lon="14.232907462444716"><ele>59.0</ele><time>2026-04-09T10:49:39Z</time></trkpt><trkpt lat="38.0098271036714" lon="14.233088569266206"><ele>59.0</ele><time>2026-04-09T10:49:40Z</time></trkpt><trkpt lat="38.009778417581636" lon="14.23326986633456"><ele>59.0</ele><time>2026-04-09T10:49:41Z</time></trkpt><trkpt lat="38.009723212233034" lon="14.233463627161434"><ele>56.0</ele><time>2026-04-09T10:49:42Z</time></trkpt><trkpt lat="38.00967021832173" lon="14.23365670524498"><ele>53.0</ele><time>2026-04-09T10:49:43Z</time></trkpt><trkpt lat="38.00961825803581" lon="14.233848052959907"><ele>50.0</ele><time>2026-04-09T10:49:44Z</time></trkpt><trkpt lat="38.009565116183445" lon="14.234038552061024"><ele>50.0</ele><time>2026-04-09T10:49:45Z</time></trkpt><trkpt lat="38.009514801089374" lon="14.234230143646995"><ele>50.0</ele><time>2026-04-09T10:49:46Z</time></trkpt><trkpt lat="38.009458704747516" lon="14.234421181588575"><ele>50.0</ele><time>2026-04-09T10:49:47Z</time></trkpt><trkpt lat="38.009400470165694" lon="14.234598421869972"><ele>50.0</ele><time>2026-04-09T10:49:48Z</time></trkpt><trkpt lat="38.009352853037775" lon="14.23477894784322"><ele>50.0</ele><time>2026-04-09T10:49:49Z</time></trkpt><trkpt lat="38.009317257593004" lon="14.234958939202363"><ele>50.0</ele><time>2026-04-09T10:49:50Z</time></trkpt><trkpt lat="38.00930060352912" lon="14.235141039499354"><ele>50.0</ele><time>2026-04-09T10:49:51Z</time></trkpt><trkpt lat="38.00930244972407" lon="14.235326508813078"><ele>48.0</ele><time>2026-04-09T10:49:52Z</time></trkpt><trkpt lat="38.0092965875381" lon="14.235518335874126"><ele>46.0</ele><time>2026-04-09T10:49:53Z</time></trkpt><trkpt lat="38.00927866139951" lon="14.235711553018188"><ele>44.0</ele><time>2026-04-09T10:49:54Z</time></trkpt><trkpt lat="38.00926198723982" lon="14.235908900090639"><ele>42.75</ele><time>2026-04-09T10:49:55Z</time></trkpt><trkpt lat="38.009240973958505" lon="14.236094371670323"><ele>41.5</ele><time>2026-04-09T10:49:56Z</time></trkpt><trkpt lat="38.0092299664772" lon="14.236274185134604"><ele>40.25</ele><time>2026-04-09T10:49:57Z</time></trkpt><trkpt lat="38.0092542601254" lon="14.236469384330881"><ele>39.0</ele><time>2026-04-09T10:49:58Z</time></trkpt><trkpt lat="38.00930083471298" lon="14.236658215892176"><ele>39.0</ele><time>2026-04-09T10:49:59Z</time></trkpt><trkpt lat="38.0093547871464" lon="14.236833374073663"><ele>39.0</ele><time>2026-04-09T10:50:00Z</time></trkpt><trkpt lat="38.00940153563408" lon="14.236993000393788"><ele>39.0</ele><time>2026-04-09T10:50:01Z</time></trkpt><trkpt lat="38.009450772666035" lon="14.237139976482855"><ele>39.0</ele><time>2026-04-09T10:50:02Z</time></trkpt><trkpt lat="38.009521740447234" lon="14.237282485950297"><ele>41.5</ele><time>2026-04-09T10:50:03Z</time></trkpt><trkpt lat="38.0096279450223" lon="14.237394010229893"><ele>44.0</ele><time>2026-04-09T10:50:04Z</time></trkpt><trkpt lat="38.00973830778972" lon="14.237500423351124"><ele>46.5</ele><time>2026-04-09T10:50:05Z</time></trkpt><trkpt lat="38.00983575917858" lon="14.23760665373816"><ele>49.0</ele><time>2026-04-09T10:50:06Z</time></trkpt><trkpt lat="38.009928551379375" lon="14.237718323352537"><ele>46.0</ele><time>2026-04-09T10:50:07Z</time></trkpt><trkpt lat="38.01000157869763" lon="14.237850490363009"><ele>43.0</ele><time>2026-04-09T10:50:08Z</time></trkpt><trkpt lat="38.01006980183833" lon="14.237998772563895"><ele>40.0</ele><time>2026-04-09T10:50:09Z</time></trkpt><trkpt lat="38.01013122261532" lon="14.238160299306978"><ele>37.0</ele><time>2026-04-09T10:50:10Z</time></trkpt><trkpt lat="38.010192000312955" lon="14.238326739097774"><ele>37.0</ele><time>2026-04-09T10:50:11Z</time></trkpt><trkpt lat="38.010246367671094" lon="14.238488444180112"><ele>37.0</ele><time>2026-04-09T10:50:12Z</time></trkpt><trkpt lat="38.01028939803902" lon="14.238658713106554"><ele>37.0</ele><time>2026-04-09T10:50:13Z</time></trkpt><trkpt lat="38.010309322165476" lon="14.23882032343664"><ele>37.0</ele><time>2026-04-09T10:50:14Z</time></trkpt><trkpt lat="38.010308362648004" lon="14.23895696914394"><ele>38.0</ele><time>2026-04-09T10:50:15Z</time></trkpt><trkpt lat="38.01029947936354" lon="14.239086990243162"><ele>39.0</ele><time>2026-04-09T10:50:16Z</time></trkpt><trkpt lat="38.01026939713955" lon="14.239234611296764"><ele>40.0</ele><time>2026-04-09T10:50:17Z</time></trkpt><trkpt lat="38.01023032307728" lon="14.23938517509164"><ele>41.0</ele><time>2026-04-09T10:50:18Z</time></trkpt><trkpt lat="38.01018427616902" lon="14.239537858979324"><ele>41.0</ele><time>2026-04-09T10:50:19Z</time></trkpt><trkpt lat="38.01014670869748" lon="14.239695438812463"><ele>41.0</ele><time>2026-04-09T10:50:20Z</time></trkpt><trkpt lat="38.01012964780831" lon="14.239858438363337"><ele>41.0</ele><time>2026-04-09T10:50:21Z</time></trkpt><trkpt lat="38.010122752751776" lon="14.240025659373357"><ele>41.0</ele><time>2026-04-09T10:50:22Z</time></trkpt><trkpt lat="38.01012080390629" lon="14.24019943533556"><ele>40.75</ele><time>2026-04-09T10:50:23Z</time></trkpt><trkpt lat="38.010117035455025" lon="14.240374907631212"><ele>40.5</ele><time>2026-04-09T10:50:24Z</time></trkpt><trkpt lat="38.01011073659531" lon="14.240550069443403"><ele>40.25</ele><time>2026-04-09T10:50:25Z</time></trkpt><trkpt lat="38.01010819177518" lon="14.24072756581782"><ele>40.0</ele><time>2026-04-09T10:50:26Z</time></trkpt><trkpt lat="38.01010865148614" lon="14.240902239299189"><ele>40.0</ele><time>2026-04-09T10:50:27Z</time></trkpt><trkpt lat="38.010108372825144" lon="14.241071423202577"><ele>40.0</ele><time>2026-04-09T10:50:28Z</time></trkpt><trkpt lat="38.01009730785299" lon="14.241236838570103"><ele>40.0</ele><time>2026-04-09T10:50:29Z</time></trkpt><trkpt lat="38.01006326101261" lon="14.24140717282788"><ele>40.0</ele><time>2026-04-09T10:50:30Z</time></trkpt><trkpt lat="38.009998784716906" lon="14.241577354602207"><ele>46.5</ele><time>2026-04-09T10:50:31Z</time></trkpt><trkpt lat="38.00992486099045" lon="14.241740832953163"><ele>53.0</ele><time>2026-04-09T10:50:32Z</time></trkpt><trkpt lat="38.00988157795604" lon="14.241895868160633"><ele>59.5</ele><time>2026-04-09T10:50:33Z</time></trkpt><trkpt lat="38.00983609783056" lon="14.242055409774611"><ele>66.0</ele><time>2026-04-09T10:50:34Z</time></trkpt><trkpt lat="38.00979168785967" lon="14.242209433280156"><ele>66.5</ele><time>2026-04-09T10:50:35Z</time></trkpt><trkpt lat="38.009783443172324" lon="14.242357061340666"><ele>67.0</ele><time>2026-04-09T10:50:36Z</time></trkpt><trkpt lat="38.009813741602095" lon="14.242521933323385"><ele>67.5</ele><time>2026-04-09T10:50:37Z</time></trkpt><trkpt lat="38.00985423985353" lon="14.242697597378264"><ele>68.0</ele><time>2026-04-09T10:50:38Z</time></trkpt><trkpt lat="38.00987608501739" lon="14.242862372369064"><ele>68.0</ele><time>2026-04-09T10:50:39Z</time></trkpt><trkpt lat="38.00989363051571" lon="14.243017276275136"><ele>68.0</ele><time>2026-04-09T10:50:40Z</time></trkpt><trkpt lat="38.009917448802106" lon="14.2431644234003"><ele>68.0</ele><time>2026-04-09T10:50:41Z</time></trkpt><trkpt lat="38.00994339940572" lon="14.24330218232691"><ele>68.0</ele><time>2026-04-09T10:50:42Z</time></trkpt><trkpt lat="38.009961150024424" lon="14.243436932235033"><ele>66.5</ele><time>2026-04-09T10:50:43Z</time></trkpt><trkpt lat="38.009959290779335" lon="14.243579572916826"><ele>65.0</ele><time>2026-04-09T10:50:44Z</time></trkpt><trkpt lat="38.00991030252263" lon="14.243709026126417"><ele>63.5</ele><time>2026-04-09T10:50:45Z</time></trkpt><trkpt lat="38.00982307580842" lon="14.243818319626937"><ele>62.0</ele><time>2026-04-09T10:50:46Z</time></trkpt><trkpt lat="38.009716250911794" lon="14.24389728052511"><ele>62.0</ele><time>2026-04-09T10:50:47Z</time></trkpt><trkpt lat="38.009596570533034" lon="14.243948286870923"><ele>62.0</ele><time>2026-04-09T10:50:48Z</time></trkpt><trkpt lat="38.00948512244543" lon="14.244014087362284"><ele>62.0</ele><time>2026-04-09T10:50:49Z</time></trkpt><trkpt lat="38.00938846244975" lon="14.244122016698809"><ele>62.0</ele><time>2026-04-09T10:50:50Z</time></trkpt><trkpt lat="38.00930788789338" lon="14.244242993259277"><ele>65.66666666666667</ele><time>2026-04-09T10:50:51Z</time></trkpt><trkpt lat="38.00923765679436" lon="14.244369035078982"><ele>69.33333333333333</ele><time>2026-04-09T10:50:52Z</time></trkpt><trkpt lat="38.009174108665285" lon="14.244604600446191"><ele>73.0</ele><time>2026-04-09T10:50:53Z</time></trkpt><trkpt lat="38.00911831549677" lon="14.24476682795897"><ele>70.25</ele><time>2026-04-09T10:50:54Z</time></trkpt><trkpt lat="38.00907883874449" lon="14.244926709189901"><ele>67.5</ele><time>2026-04-09T10:50:55Z</time></trkpt><trkpt lat="38.00908874574119" lon="14.245087735386644"><ele>64.75</ele><time>2026-04-09T10:50:56Z</time></trkpt><trkpt lat="38.00911274129491" lon="14.245256059724932"><ele>62.0</ele><time>2026-04-09T10:50:57Z</time></trkpt><trkpt lat="38.00914823617274" lon="14.245429923335486"><ele>55.25</ele><time>2026-04-09T10:50:58Z</time></trkpt><trkpt lat="38.009190645088474" lon="14.245604326957373"><ele>48.5</ele><time>2026-04-09T10:50:59Z</time></trkpt><trkpt lat="38.009250156893735" lon="14.245777834164453"><ele>41.75</ele><time>2026-04-09T10:51:00Z</time></trkpt><trkpt lat="38.009303808391344" lon="14.245945788196149"><ele>35.0</ele><time>2026-04-09T10:51:01Z</time></trkpt><trkpt lat="38.00934469722957" lon="14.246097627686591"><ele>35.0</ele><time>2026-04-09T10:51:02Z</time></trkpt><trkpt lat="38.00938561331174" lon="14.246241200376767"><ele>35.0</ele><time>2026-04-09T10:51:03Z</time></trkpt><trkpt lat="38.009410697769034" lon="14.246389890051072"><ele>35.0</ele><time>2026-04-09T10:51:04Z</time></trkpt><trkpt lat="38.009407817052846" lon="14.246550914285347"><ele>35.0</ele><time>2026-04-09T10:51:05Z</time></trkpt><trkpt lat="38.009381577994404" lon="14.246717429382532"><ele>35.5</ele><time>2026-04-09T10:51:06Z</time></trkpt><trkpt lat="38.00936210125805" lon="14.246883657553543"><ele>36.0</ele><time>2026-04-09T10:51:07Z</time></trkpt><trkpt lat="38.00931052971044" lon="14.24704394312249"><ele>36.5</ele><time>2026-04-09T10:51:08Z</time></trkpt><trkpt lat="38.009259827788036" lon="14.247194681363263"><ele>37.0</ele><time>2026-04-09T10:51:09Z</time></trkpt><trkpt lat="38.009189794307666" lon="14.247331205310385"><ele>40.75</ele><time>2026-04-09T10:51:10Z</time></trkpt><trkpt lat="38.009084635129476" lon="14.24744387167117"><ele>44.5</ele><time>2026-04-09T10:51:11Z</time></trkpt><trkpt lat="38.00900578072055" lon="14.247572321942439"><ele>48.25</ele><time>2026-04-09T10:51:12Z</time></trkpt><trkpt lat="38.00892324971746" lon="14.247683489381682"><ele>52.0</ele><time>2026-04-09T10:51:13Z</time></trkpt><trkpt lat="38.00888862407254" lon="14.247811320041917"><ele>52.0</ele><time>2026-04-09T10:51:14Z</time></trkpt><trkpt lat="38.00889204839238" lon="14.247938813855649"><ele>52.0</ele><time>2026-04-09T10:51:15Z</time></trkpt><trkpt lat="38.00892929603931" lon="14.248064913938538"><ele>52.0</ele><time>2026-04-09T10:51:16Z</time></trkpt><trkpt lat="38.008973372225306" lon="14.248189584637812"><ele>52.0</ele><time>2026-04-09T10:51:17Z</time></trkpt><trkpt lat="38.00902358506067" lon="14.248301468188734"><ele>52.0</ele><time>2026-04-09T10:51:18Z</time></trkpt><trkpt lat="38.009064347181265" lon="14.248425864415394"><ele>51.0</ele><time>2026-04-09T10:51:19Z</time></trkpt><trkpt lat="38.00910319938801" lon="14.248555225937427"><ele>50.0</ele><time>2026-04-09T10:51:20Z</time></trkpt><trkpt lat="38.00914843610408" lon="14.248691981412389"><ele>49.0</ele><time>2026-04-09T10:51:21Z</time></trkpt><trkpt lat="38.009188427502245" lon="14.24882511015042"><ele>48.0</ele><time>2026-04-09T10:51:22Z</time></trkpt><trkpt lat="38.009233355642266" lon="14.248945915899023"><ele>47.0</ele><time>2026-04-09T10:51:23Z</time></trkpt><trkpt lat="38.009291734707375" lon="14.249068309619334"><ele>44.4</ele><time>2026-04-09T10:51:24Z</time></trkpt><trkpt lat="38.00936094622078" lon="14.249174434232966"><ele>41.800000000000004</ele><time>2026-04-09T10:51:25Z</time></trkpt><trkpt lat="38.009431845049015" lon="14.249263101946656"><ele>39.2</ele><time>2026-04-09T10:51:26Z</time></trkpt><trkpt lat="38.00949509281711" lon="14.249360410906831"><ele>36.6</ele><time>2026-04-09T10:51:27Z</time></trkpt><trkpt lat="38.00952747001942" lon="14.249466668610609"><ele>34.0</ele><time>2026-04-09T10:51:28Z</time></trkpt><trkpt lat="38.00952848848191" lon="14.24957057697888"><ele>34.0</ele><time>2026-04-09T10:51:29Z</time></trkpt><trkpt lat="38.00946127808205" lon="14.249634886679146"><ele>34.0</ele><time>2026-04-09T10:51:30Z</time></trkpt><trkpt lat="38.00942263155308" lon="14.249729425985317"><ele>34.0</ele><time>2026-04-09T10:51:31Z</time></trkpt><trkpt lat="38.00936691465146" lon="14.249831820811222"><ele>34.0</ele><time>2026-04-09T10:51:32Z</time></trkpt><trkpt lat="38.00929898458343" lon="14.249926410671963"><ele>34.0</ele><time>2026-04-09T10:51:33Z</time></trkpt><trkpt lat="38.00921750283749" lon="14.250012918642335"><ele>37.25</ele><time>2026-04-09T10:51:34Z</time></trkpt><trkpt lat="38.00912826137087" lon="14.250113058572204"><ele>40.5</ele><time>2026-04-09T10:51:35Z</time></trkpt><trkpt lat="38.00904580094139" lon="14.250212127932375"><ele>43.75</ele><time>2026-04-09T10:51:36Z</time></trkpt><trkpt lat="38.008958464669234" lon="14.250317055261208"><ele>47.0</ele><time>2026-04-09T10:51:37Z</time></trkpt><trkpt lat="38.00888011033364" lon="14.250420403192788"><ele>47.0</ele><time>2026-04-09T10:51:38Z</time></trkpt><trkpt lat="38.008805138968896" lon="14.250514974623439"><ele>47.0</ele><time>2026-04-09T10:51:39Z</time></trkpt><trkpt lat="38.00874119067486" lon="14.250626198169781"><ele>47.0</ele><time>2026-04-09T10:51:40Z</time></trkpt><trkpt lat="38.008679856807056" lon="14.250740802551082"><ele>47.0</ele><time>2026-04-09T10:51:41Z</time></trkpt><trkpt lat="38.00860752244491" lon="14.250849184719169"><ele>47.0</ele><time>2026-04-09T10:51:42Z</time></trkpt><trkpt lat="38.00852892483309" lon="14.250954826616193"><ele>47.8</ele><time>2026-04-09T10:51:43Z</time></trkpt><trkpt lat="38.008446508546406" lon="14.251038567456424"><ele>48.6</ele><time>2026-04-09T10:51:44Z</time></trkpt><trkpt lat="38.00837505523581" lon="14.251104704518367"><ele>49.4</ele><time>2026-04-09T10:51:45Z</time></trkpt><trkpt lat="38.00830902605335" lon="14.251154399507925"><ele>50.199999999999996</ele><time>2026-04-09T10:51:46Z</time></trkpt><trkpt lat="38.00824440556508" lon="14.251229838796705"><ele>51.0</ele><time>2026-04-09T10:51:47Z</time></trkpt><trkpt lat="38.008164269724084" lon="14.251320383819365"><ele>51.0</ele><time>2026-04-09T10:51:48Z</time></trkpt><trkpt lat="38.008074930260584" lon="14.25140346609731"><ele>51.0</ele><time>2026-04-09T10:51:49Z</time></trkpt><trkpt lat="38.00799597453393" lon="14.251500324762986"><ele>51.0</ele><time>2026-04-09T10:51:50Z</time></trkpt><trkpt lat="38.007907387451645" lon="14.251581986837087"><ele>51.0</ele><time>2026-04-09T10:51:51Z</time></trkpt><trkpt lat="38.00781367616396" lon="14.251660839468144"><ele>51.0</ele><time>2026-04-09T10:51:52Z</time></trkpt><trkpt lat="38.00772280773494" lon="14.251744453276519"><ele>51.0</ele><time>2026-04-09T10:51:53Z</time></trkpt><trkpt lat="38.00764192935422" lon="14.251829995506506"><ele>51.0</ele><time>2026-04-09T10:51:54Z</time></trkpt><trkpt lat="38.00756793366903" lon="14.251928208965433"><ele>51.0</ele><time>2026-04-09T10:51:55Z</time></trkpt><trkpt lat="38.007503441276754" lon="14.252048781704016"><ele>51.0</ele><time>2026-04-09T10:51:56Z</time></trkpt><trkpt lat="38.00745209491953" lon="14.252193971662171"><ele>49.25</ele><time>2026-04-09T10:51:57Z</time></trkpt><trkpt lat="38.007420676232826" lon="14.252359981751418"><ele>47.5</ele><time>2026-04-09T10:51:58Z</time></trkpt><trkpt lat="38.00741183368938" lon="14.252532301694767"><ele>45.75</ele><time>2026-04-09T10:51:59Z</time></trkpt><trkpt lat="38.007400486492905" lon="14.252694894590553"><ele>44.0</ele><time>2026-04-09T10:52:00Z</time></trkpt><trkpt lat="38.00738867608519" lon="14.252858595691235"><ele>44.0</ele><time>2026-04-09T10:52:01Z</time></trkpt><trkpt lat="38.00736970593119" lon="14.253015615770847"><ele>44.0</ele><time>2026-04-09T10:52:02Z</time></trkpt><trkpt lat="38.00735831326444" lon="14.253160104245772"><ele>44.0</ele><time>2026-04-09T10:52:03Z</time></trkpt><trkpt lat="38.00734521252142" lon="14.253314913340501"><ele>44.0</ele><time>2026-04-09T10:52:04Z</time></trkpt><trkpt lat="38.00734141326418" lon="14.253463886705758"><ele>42.5</ele><time>2026-04-09T10:52:05Z</time></trkpt><trkpt lat="38.00735206482708" lon="14.25360409876484"><ele>41.0</ele><time>2026-04-09T10:52:06Z</time></trkpt><trkpt lat="38.00738388968382" lon="14.25375246825378"><ele>39.5</ele><time>2026-04-09T10:52:07Z</time></trkpt><trkpt lat="38.00742456551141" lon="14.253904071264675"><ele>38.0</ele><time>2026-04-09T10:52:08Z</time></trkpt><trkpt lat="38.00744390013803" lon="14.25405720273494"><ele>36.0</ele><time>2026-04-09T10:52:09Z</time></trkpt><trkpt lat="38.00745678164591" lon="14.254208422479262"><ele>34.0</ele><time>2026-04-09T10:52:10Z</time></trkpt><trkpt lat="38.0074544820394" lon="14.254374281333321"><ele>32.0</ele><time>2026-04-09T10:52:11Z</time></trkpt><trkpt lat="38.00745737907897" lon="14.254543818066676"><ele>30.0</ele><time>2026-04-09T10:52:12Z</time></trkpt><trkpt lat="38.007457895286095" lon="14.254718052745877"><ele>28.25</ele><time>2026-04-09T10:52:13Z</time></trkpt><trkpt lat="38.00745539486996" lon="14.254887908777023"><ele>26.5</ele><time>2026-04-09T10:52:14Z</time></trkpt><trkpt lat="38.00745841326404" lon="14.255066438570351"><ele>24.75</ele><time>2026-04-09T10:52:15Z</time></trkpt><trkpt lat="38.00745808794014" lon="14.255249837921834"><ele>23.0</ele><time>2026-04-09T10:52:16Z</time></trkpt><trkpt lat="38.00745651637531" lon="14.255430349179584"><ele>23.0</ele><time>2026-04-09T10:52:17Z</time></trkpt><trkpt lat="38.007456302302145" lon="14.255608516703564"><ele>23.0</ele><time>2026-04-09T10:52:18Z</time></trkpt><trkpt lat="38.007456744581575" lon="14.255787457839723"><ele>23.0</ele><time>2026-04-09T10:52:19Z</time></trkpt><trkpt lat="38.007454981726454" lon="14.255966628516267"><ele>23.0</ele><time>2026-04-09T10:52:20Z</time></trkpt><trkpt lat="38.007455972677256" lon="14.256145049150554"><ele>27.0</ele><time>2026-04-09T10:52:21Z</time></trkpt><trkpt lat="38.00745785771943" lon="14.256324455635415"><ele>31.0</ele><time>2026-04-09T10:52:22Z</time></trkpt><trkpt lat="38.00745640342179" lon="14.25651419488184"><ele>35.0</ele><time>2026-04-09T10:52:23Z</time></trkpt><trkpt lat="38.007464738116084" lon="14.256700441742556"><ele>39.0</ele><time>2026-04-09T10:52:24Z</time></trkpt><trkpt lat="38.007479990977096" lon="14.256885522609954"><ele>34.25</ele><time>2026-04-09T10:52:25Z</time></trkpt><trkpt lat="38.00751540901564" lon="14.257069929657"><ele>29.5</ele><time>2026-04-09T10:52:26Z</time></trkpt><trkpt lat="38.007560203928726" lon="14.25724746640936"><ele>24.75</ele><time>2026-04-09T10:52:27Z</time></trkpt><trkpt lat="38.00760364489367" lon="14.257421750630977"><ele>20.0</ele><time>2026-04-09T10:52:28Z</time></trkpt><trkpt lat="38.00764271386489" lon="14.257595489656996"><ele>19.75</ele><time>2026-04-09T10:52:29Z</time></trkpt><trkpt lat="38.00767741522122" lon="14.257770972374004"><ele>19.5</ele><time>2026-04-09T10:52:30Z</time></trkpt><trkpt lat="38.00770740856543" lon="14.257940743526785"><ele>19.25</ele><time>2026-04-09T10:52:31Z</time></trkpt><trkpt lat="38.00772819309427" lon="14.258098204827592"><ele>19.0</ele><time>2026-04-09T10:52:32Z</time></trkpt><trkpt lat="38.00771772157894" lon="14.258248800552735"><ele>19.0</ele><time>2026-04-09T10:52:33Z</time></trkpt><trkpt lat="38.007672544026256" lon="14.258392765633108"><ele>19.0</ele><time>2026-04-09T10:52:34Z</time></trkpt><trkpt lat="38.0076322158143" lon="14.258526358063554"><ele>19.0</ele><time>2026-04-09T10:52:35Z</time></trkpt><trkpt lat="38.00763231661411" lon="14.258656061979435"><ele>19.0</ele><time>2026-04-09T10:52:36Z</time></trkpt><trkpt lat="38.00765836274527" lon="14.258789097966558"><ele>19.0</ele><time>2026-04-09T10:52:37Z</time></trkpt><trkpt lat="38.00769048814092" lon="14.25892439489643"><ele>20.75</ele><time>2026-04-09T10:52:38Z</time></trkpt><trkpt lat="38.00773000268029" lon="14.259053079257582"><ele>22.5</ele><time>2026-04-09T10:52:39Z</time></trkpt><trkpt lat="38.00778001846701" lon="14.259178886024586"><ele>24.25</ele><time>2026-04-09T10:52:40Z</time></trkpt><trkpt lat="38.007837915965496" lon="14.259308426065163"><ele>26.0</ele><time>2026-04-09T10:52:41Z</time></trkpt><trkpt lat="38.00789434582594" lon="14.259438167230643"><ele>26.0</ele><time>2026-04-09T10:52:42Z</time></trkpt><trkpt lat="38.00793677199388" lon="14.259573505603644"><ele>26.0</ele><time>2026-04-09T10:52:43Z</time></trkpt><trkpt lat="38.007966590226275" lon="14.259707989374336"><ele>26.0</ele><time>2026-04-09T10:52:44Z</time></trkpt><trkpt lat="38.00797312459436" lon="14.259839973659224"><ele>26.0</ele><time>2026-04-09T10:52:45Z</time></trkpt><trkpt lat="38.007948605912226" lon="14.25997310214658"><ele>26.0</ele><time>2026-04-09T10:52:46Z</time></trkpt><trkpt lat="38.0078898258079" lon="14.260093508347916"><ele>26.0</ele><time>2026-04-09T10:52:47Z</time></trkpt><trkpt lat="38.00784258508463" lon="14.26022401261066"><ele>26.0</ele><time>2026-04-09T10:52:48Z</time></trkpt><trkpt lat="38.00778395306977" lon="14.26032506445182"><ele>26.0</ele><time>2026-04-09T10:52:49Z</time></trkpt><trkpt lat="38.00774294273103" lon="14.260402525981943"><ele>26.0</ele><time>2026-04-09T10:52:50Z</time></trkpt><trkpt lat="38.0077016234774" lon="14.2605293899148"><ele>26.0</ele><time>2026-04-09T10:52:52Z</time></trkpt><trkpt lat="38.00768522015299" lon="14.260621100482295"><ele>25.0</ele><time>2026-04-09T10:52:54Z</time></trkpt><trkpt lat="38.00769671355862" lon="14.26072517042407"><ele>24.0</ele><time>2026-04-09T10:54:12Z</time></trkpt><trkpt lat="38.00771351788807" lon="14.260880268472452"><ele>23.0</ele><time>2026-04-09T10:54:14Z</time></trkpt><trkpt lat="38.00772241513916" lon="14.260972777220099"><ele>22.0</ele><time>2026-04-09T10:54:15Z</time></trkpt><trkpt lat="38.00775744757114" lon="14.261080179987873"><ele>21.0</ele><time>2026-04-09T10:54:16Z</time></trkpt><trkpt lat="38.00780129588103" lon="14.261190933460748"><ele>21.0</ele><time>2026-04-09T10:54:17Z</time></trkpt><trkpt lat="38.00785450909034" lon="14.261296811504435"><ele>21.0</ele><time>2026-04-09T10:54:18Z</time></trkpt><trkpt lat="38.007905126844555" lon="14.261407097908364"><ele>21.0</ele><time>2026-04-09T10:54:19Z</time></trkpt><trkpt lat="38.007960288183575" lon="14.261527572312295"><ele>21.0</ele><time>2026-04-09T10:54:20Z</time></trkpt><trkpt lat="38.00801752372885" lon="14.261640650221919"><ele>21.0</ele><time>2026-04-09T10:54:21Z</time></trkpt><trkpt lat="38.00806935894413" lon="14.261754398612474"><ele>22.0</ele><time>2026-04-09T10:54:22Z</time></trkpt><trkpt lat="38.00810409295372" lon="14.261881243284305"><ele>23.0</ele><time>2026-04-09T10:54:23Z</time></trkpt><trkpt lat="38.00812080757557" lon="14.262015298553688"><ele>24.0</ele><time>2026-04-09T10:54:24Z</time></trkpt><trkpt lat="38.00811830321716" lon="14.262153795687933"><ele>25.0</ele><time>2026-04-09T10:54:25Z</time></trkpt><trkpt lat="38.00810250071329" lon="14.262298376640006"><ele>26.0</ele><time>2026-04-09T10:54:26Z</time></trkpt><trkpt lat="38.00809031302594" lon="14.262440236871232"><ele>26.25</ele><time>2026-04-09T10:54:27Z</time></trkpt><trkpt lat="38.00807994111683" lon="14.262584047594254"><ele>26.5</ele><time>2026-04-09T10:54:28Z</time></trkpt><trkpt lat="38.00806842013221" lon="14.262732037833876"><ele>26.75</ele><time>2026-04-09T10:54:29Z</time></trkpt><trkpt lat="38.00805089893617" lon="14.262873383357594"><ele>27.0</ele><time>2026-04-09T10:54:30Z</time></trkpt><trkpt lat="38.008024676909244" lon="14.26300471701537"><ele>26.25</ele><time>2026-04-09T10:54:31Z</time></trkpt><trkpt lat="38.00799380320209" lon="14.263142295450647"><ele>25.5</ele><time>2026-04-09T10:54:32Z</time></trkpt><trkpt lat="38.007958912158124" lon="14.263286784259343"><ele>24.75</ele><time>2026-04-09T10:54:33Z</time></trkpt><trkpt lat="38.007912416526146" lon="14.26342846668916"><ele>24.0</ele><time>2026-04-09T10:54:34Z</time></trkpt><trkpt lat="38.00785792521823" lon="14.263561375696911"><ele>24.0</ele><time>2026-04-09T10:54:35Z</time></trkpt><trkpt lat="38.00781276973986" lon="14.263699890920392"><ele>24.0</ele><time>2026-04-09T10:54:36Z</time></trkpt><trkpt lat="38.00776761303702" lon="14.263841962306095"><ele>24.0</ele><time>2026-04-09T10:54:37Z</time></trkpt><trkpt lat="38.00772619763449" lon="14.263988455993077"><ele>24.0</ele><time>2026-04-09T10:54:38Z</time></trkpt><trkpt lat="38.00770087373917" lon="14.264143487506797"><ele>24.25</ele><time>2026-04-09T10:54:39Z</time></trkpt><trkpt lat="38.00769295394566" lon="14.264302636482716"><ele>24.5</ele><time>2026-04-09T10:54:40Z</time></trkpt><trkpt lat="38.00770350479382" lon="14.264467487075978"><ele>24.75</ele><time>2026-04-09T10:54:41Z</time></trkpt><trkpt lat="38.00772626520166" lon="14.26463122708711"><ele>25.0</ele><time>2026-04-09T10:54:42Z</time></trkpt><trkpt lat="38.007756036201535" lon="14.264791823435273"><ele>26.0</ele><time>2026-04-09T10:54:43Z</time></trkpt><trkpt lat="38.007789136347" lon="14.26494911251281"><ele>27.0</ele><time>2026-04-09T10:54:44Z</time></trkpt><trkpt lat="38.00782294542599" lon="14.26510173470429"><ele>28.0</ele><time>2026-04-09T10:54:45Z</time></trkpt><trkpt lat="38.00785537733622" lon="14.26525505860346"><ele>29.0</ele><time>2026-04-09T10:54:46Z</time></trkpt><trkpt lat="38.007878454466805" lon="14.265416059943481"><ele>29.0</ele><time>2026-04-09T10:54:47Z</time></trkpt><trkpt lat="38.00790264276665" lon="14.265582508054255"><ele>29.0</ele><time>2026-04-09T10:54:48Z</time></trkpt><trkpt lat="38.007930822845125" lon="14.265750858327218"><ele>29.0</ele><time>2026-04-09T10:54:49Z</time></trkpt><trkpt lat="38.007961571767794" lon="14.265918359150291"><ele>29.0</ele><time>2026-04-09T10:54:50Z</time></trkpt><trkpt lat="38.007996556337204" lon="14.266078595154278"><ele>30.25</ele><time>2026-04-09T10:54:51Z</time></trkpt><trkpt lat="38.00803461834619" lon="14.266237462975043"><ele>31.5</ele><time>2026-04-09T10:54:52Z</time></trkpt><trkpt lat="38.00807634383852" lon="14.266395068671448"><ele>32.75</ele><time>2026-04-09T10:54:53Z</time></trkpt><trkpt lat="38.00811551250376" lon="14.266553668818212"><ele>34.0</ele><time>2026-04-09T10:54:54Z</time></trkpt><trkpt lat="38.008156739195435" lon="14.266714670658171"><ele>30.0</ele><time>2026-04-09T10:54:55Z</time></trkpt><trkpt lat="38.00820003910837" lon="14.266875282870057"><ele>26.0</ele><time>2026-04-09T10:54:56Z</time></trkpt><trkpt lat="38.00824268123521" lon="14.26703970393123"><ele>22.0</ele><time>2026-04-09T10:54:57Z</time></trkpt><trkpt lat="38.008289456586986" lon="14.26720450568473"><ele>18.0</ele><time>2026-04-09T10:54:58Z</time></trkpt><trkpt lat="38.00833838889702" lon="14.267374230769617"><ele>16.0</ele><time>2026-04-09T10:54:59Z</time></trkpt><trkpt lat="38.008388232306224" lon="14.267546152438316"><ele>14.0</ele><time>2026-04-09T10:55:00Z</time></trkpt><trkpt lat="38.00844098877665" lon="14.26771920556282"><ele>12.0</ele><time>2026-04-09T10:55:01Z</time></trkpt><trkpt lat="38.00848943896553" lon="14.267891582897064"><ele>10.0</ele><time>2026-04-09T10:55:02Z</time></trkpt><trkpt lat="38.00853874709265" lon="14.268064221791736"><ele>10.0</ele><time>2026-04-09T10:55:03Z</time></trkpt><trkpt lat="38.008591087138825" lon="14.268233409012469"><ele>10.0</ele><time>2026-04-09T10:55:04Z</time></trkpt><trkpt lat="38.00864250144" lon="14.268404850099419"><ele>10.0</ele><time>2026-04-09T10:55:05Z</time></trkpt><trkpt lat="38.008693367495006" lon="14.268575995118262"><ele>10.0</ele><time>2026-04-09T10:55:06Z</time></trkpt><trkpt lat="38.00874427433218" lon="14.26874768113401"><ele>10.0</ele><time>2026-04-09T10:55:07Z</time></trkpt><trkpt lat="38.00879635525606" lon="14.268920010556673"><ele>10.0</ele><time>2026-04-09T10:55:08Z</time></trkpt><trkpt lat="38.00884737488232" lon="14.269088873328027"><ele>10.0</ele><time>2026-04-09T10:55:09Z</time></trkpt><trkpt lat="38.00889563150199" lon="14.269250856333562"><ele>10.0</ele><time>2026-04-09T10:55:10Z</time></trkpt><trkpt lat="38.008944355492915" lon="14.2694074710926"><ele>9.75</ele><time>2026-04-09T10:55:11Z</time></trkpt><trkpt lat="38.00898980623592" lon="14.269563690598755"><ele>9.5</ele><time>2026-04-09T10:55:12Z</time></trkpt><trkpt lat="38.00903621574579" lon="14.269717374811629"><ele>9.25</ele><time>2026-04-09T10:55:13Z</time></trkpt><trkpt lat="38.00908150952868" lon="14.269867437940082"><ele>9.0</ele><time>2026-04-09T10:55:14Z</time></trkpt><trkpt lat="38.009126170906896" lon="14.27002205318271"><ele>8.75</ele><time>2026-04-09T10:55:15Z</time></trkpt><trkpt lat="38.009172865028745" lon="14.270179213860704"><ele>8.5</ele><time>2026-04-09T10:55:16Z</time></trkpt><trkpt lat="38.00922024339641" lon="14.270324111445502"><ele>8.25</ele><time>2026-04-09T10:55:17Z</time></trkpt><trkpt lat="38.00926008723169" lon="14.270462749444992"><ele>8.0</ele><time>2026-04-09T10:55:18Z</time></trkpt><trkpt lat="38.009298620064655" lon="14.270596426942115"><ele>8.5</ele><time>2026-04-09T10:55:19Z</time></trkpt><trkpt lat="38.009334407196434" lon="14.270719460492343"><ele>9.0</ele><time>2026-04-09T10:55:20Z</time></trkpt><trkpt lat="38.00936791826585" lon="14.27084213272447"><ele>9.5</ele><time>2026-04-09T10:55:21Z</time></trkpt><trkpt lat="38.009400110473834" lon="14.270940906887542"><ele>10.0</ele><time>2026-04-09T10:55:22Z</time></trkpt><trkpt lat="38.00942388741056" lon="14.271022994959436"><ele>10.5</ele><time>2026-04-09T10:55:23Z</time></trkpt><trkpt lat="38.00941695932116" lon="14.271127879161137"><ele>11.0</ele><time>2026-04-09T10:55:25Z</time></trkpt><trkpt lat="38.00930749982967" lon="14.271157629399358"><ele>11.0</ele><time>2026-04-09T10:55:28Z</time></trkpt><trkpt lat="38.00921897722251" lon="14.271166904367279"><ele>11.0</ele><time>2026-04-09T10:55:30Z</time></trkpt><trkpt lat="38.009139088056315" lon="14.271187406734606"><ele>11.0</ele><time>2026-04-09T10:55:32Z</time></trkpt><trkpt lat="38.00903960111707" lon="14.271201136915066"><ele>11.0</ele><time>2026-04-09T10:55:34Z</time></trkpt><trkpt lat="38.008922514870456" lon="14.271227824724896"><ele>11.0</ele><time>2026-04-09T10:55:36Z</time></trkpt><trkpt lat="38.008851887552254" lon="14.271235790660944"><ele>10.833333333333332</ele><time>2026-04-09T10:55:37Z</time></trkpt><trkpt lat="38.00877211864261" lon="14.271242023373041"><ele>10.666666666666666</ele><time>2026-04-09T10:55:38Z</time></trkpt><trkpt lat="38.008703556076306" lon="14.27124155088139"><ele>10.5</ele><time>2026-04-09T10:55:39Z</time></trkpt><trkpt lat="38.008627707225244" lon="14.271247187999599"><ele>10.333333333333334</ele><time>2026-04-09T10:55:40Z</time></trkpt><trkpt lat="38.00854104418291" lon="14.271245946997416"><ele>10.166666666666668</ele><time>2026-04-09T10:55:41Z</time></trkpt><trkpt lat="38.00845131764396" lon="14.271249074813964"><ele>10.0</ele><time>2026-04-09T10:55:42Z</time></trkpt><trkpt lat="38.0083621138653" lon="14.271253047900313"><ele>10.4</ele><time>2026-04-09T10:55:43Z</time></trkpt><trkpt lat="38.00827382819663" lon="14.271258797113052"><ele>10.8</ele><time>2026-04-09T10:55:44Z</time></trkpt><trkpt lat="38.008183248978334" lon="14.271258639814205"><ele>11.2</ele><time>2026-04-09T10:55:45Z</time></trkpt><trkpt lat="38.00808686733192" lon="14.27126293068921"><ele>11.6</ele><time>2026-04-09T10:55:46Z</time></trkpt><trkpt lat="38.00798315564054" lon="14.271267990148194"><ele>12.0</ele><time>2026-04-09T10:55:47Z</time></trkpt><trkpt lat="38.007873956800644" lon="14.27127110291545"><ele>12.0</ele><time>2026-04-09T10:55:48Z</time></trkpt><trkpt lat="38.00775676245778" lon="14.271269102906158"><ele>12.0</ele><time>2026-04-09T10:55:49Z</time></trkpt><trkpt lat="38.0076464915566" lon="14.271262180226973"><ele>12.0</ele><time>2026-04-09T10:55:50Z</time></trkpt><trkpt lat="38.00752875275706" lon="14.271250364447987"><ele>12.0</ele><time>2026-04-09T10:55:51Z</time></trkpt><trkpt lat="38.00740744026822" lon="14.27123142349673"><ele>12.0</ele><time>2026-04-09T10:55:52Z</time></trkpt><trkpt lat="38.00728200558104" lon="14.271208000877184"><ele>12.0</ele><time>2026-04-09T10:55:53Z</time></trkpt><trkpt lat="38.00715601379564" lon="14.27118766087297"><ele>12.0</ele><time>2026-04-09T10:55:54Z</time></trkpt><trkpt lat="38.00703309759009" lon="14.271169313783442"><ele>12.0</ele><time>2026-04-09T10:55:55Z</time></trkpt><trkpt lat="38.006906681803" lon="14.271166281991992"><ele>12.0</ele><time>2026-04-09T10:55:56Z</time></trkpt><trkpt lat="38.00678522557832" lon="14.271175229960983"><ele>12.0</ele><time>2026-04-09T10:55:57Z</time></trkpt><trkpt lat="38.00666405199539" lon="14.27120220438394"><ele>12.0</ele><time>2026-04-09T10:55:58Z</time></trkpt><trkpt lat="38.006546449632474" lon="14.271259415027089"><ele>12.0</ele><time>2026-04-09T10:55:59Z</time></trkpt><trkpt lat="38.00642964840237" lon="14.271326038713807"><ele>12.0</ele><time>2026-04-09T10:56:00Z</time></trkpt><trkpt lat="38.00631594838313" lon="14.27139480406748"><ele>12.0</ele><time>2026-04-09T10:56:01Z</time></trkpt><trkpt lat="38.00620451403159" lon="14.271462819201652"><ele>12.0</ele><time>2026-04-09T10:56:02Z</time></trkpt><trkpt lat="38.006093250238735" lon="14.271534879172167"><ele>12.0</ele><time>2026-04-09T10:56:03Z</time></trkpt><trkpt lat="38.00598243551835" lon="14.271610932948018"><ele>13.0</ele><time>2026-04-09T10:56:04Z</time></trkpt><trkpt lat="38.00586417676478" lon="14.271672547767375"><ele>14.0</ele><time>2026-04-09T10:56:05Z</time></trkpt><trkpt lat="38.00574579741239" lon="14.271729461477001"><ele>15.0</ele><time>2026-04-09T10:56:06Z</time></trkpt><trkpt lat="38.005625589159536" lon="14.271788361447097"><ele>16.0</ele><time>2026-04-09T10:56:07Z</time></trkpt><trkpt lat="38.00550212249191" lon="14.271843538855967"><ele>16.0</ele><time>2026-04-09T10:56:08Z</time></trkpt><trkpt lat="38.00537897731011" lon="14.271896788859662"><ele>16.0</ele><time>2026-04-09T10:56:09Z</time></trkpt><trkpt lat="38.00525475104563" lon="14.271949367582843"><ele>16.0</ele><time>2026-04-09T10:56:10Z</time></trkpt><trkpt lat="38.00513256124702" lon="14.272007005005635"><ele>16.0</ele><time>2026-04-09T10:56:11Z</time></trkpt><trkpt lat="38.005011398589836" lon="14.272066027160328"><ele>15.75</ele><time>2026-04-09T10:56:12Z</time></trkpt><trkpt lat="38.00489025222602" lon="14.272116799686616"><ele>15.5</ele><time>2026-04-09T10:56:13Z</time></trkpt><trkpt lat="38.004764004397295" lon="14.272158177188697"><ele>15.25</ele><time>2026-04-09T10:56:14Z</time></trkpt><trkpt lat="38.0046365151983" lon="14.272189571938114"><ele>15.0</ele><time>2026-04-09T10:56:15Z</time></trkpt><trkpt lat="38.0045059423084" lon="14.272219267604802"><ele>15.0</ele><time>2026-04-09T10:56:16Z</time></trkpt><trkpt lat="38.00437464791643" lon="14.272247335863833"><ele>15.0</ele><time>2026-04-09T10:56:17Z</time></trkpt><trkpt lat="38.00424221352193" lon="14.272271541847125"><ele>15.0</ele><time>2026-04-09T10:56:18Z</time></trkpt><trkpt lat="38.004108792793595" lon="14.272286847128091"><ele>15.0</ele><time>2026-04-09T10:56:19Z</time></trkpt><trkpt lat="38.00396821654109" lon="14.27228360768298"><ele>20.5</ele><time>2026-04-09T10:56:20Z</time></trkpt><trkpt lat="38.00383678586552" lon="14.272296305947629"><ele>26.0</ele><time>2026-04-09T10:56:21Z</time></trkpt><trkpt lat="38.003704557994844" lon="14.272322863209125"><ele>31.5</ele><time>2026-04-09T10:56:22Z</time></trkpt><trkpt lat="38.003565473547674" lon="14.27235673679342"><ele>37.0</ele><time>2026-04-09T10:56:23Z</time></trkpt><trkpt lat="38.00342286229013" lon="14.272385465150599"><ele>36.0</ele><time>2026-04-09T10:56:24Z</time></trkpt><trkpt lat="38.003281276144115" lon="14.272415211352206"><ele>35.0</ele><time>2026-04-09T10:56:25Z</time></trkpt><trkpt lat="38.00314545726456" lon="14.272441871317607"><ele>34.0</ele><time>2026-04-09T10:56:26Z</time></trkpt><trkpt lat="38.003011680180215" lon="14.272464519575824"><ele>33.0</ele><time>2026-04-09T10:56:27Z</time></trkpt><trkpt lat="38.00287395692162" lon="14.272474127334107"><ele>33.0</ele><time>2026-04-09T10:56:28Z</time></trkpt><trkpt lat="38.00273381776508" lon="14.272473109092902"><ele>33.0</ele><time>2026-04-09T10:56:29Z</time></trkpt><trkpt lat="38.00259461033291" lon="14.272466039030936"><ele>33.0</ele><time>2026-04-09T10:56:30Z</time></trkpt><trkpt lat="38.00245434783537" lon="14.272462457219744"><ele>33.0</ele><time>2026-04-09T10:56:31Z</time></trkpt><trkpt lat="38.00231279374467" lon="14.272455365589435"><ele>34.0</ele><time>2026-04-09T10:56:32Z</time></trkpt><trkpt lat="38.00217242886906" lon="14.272453035695163"><ele>35.0</ele><time>2026-04-09T10:56:33Z</time></trkpt><trkpt lat="38.00203387400581" lon="14.27245771689116"><ele>36.0</ele><time>2026-04-09T10:56:34Z</time></trkpt><trkpt lat="38.00189671315124" lon="14.272465845532277"><ele>37.0</ele><time>2026-04-09T10:56:35Z</time></trkpt><trkpt lat="38.00176051655918" lon="14.272473504677485"><ele>34.75</ele><time>2026-04-09T10:56:36Z</time></trkpt><trkpt lat="38.00162660340408" lon="14.272483533538702"><ele>32.5</ele><time>2026-04-09T10:56:37Z</time></trkpt><trkpt lat="38.00149513215751" lon="14.272503597299918"><ele>30.25</ele><time>2026-04-09T10:56:38Z</time></trkpt><trkpt lat="38.00136296876621" lon="14.272536353927828"><ele>28.0</ele><time>2026-04-09T10:56:39Z</time></trkpt><trkpt lat="38.001231921692245" lon="14.272575420118507"><ele>28.0</ele><time>2026-04-09T10:56:40Z</time></trkpt><trkpt lat="38.001105057391435" lon="14.272614991921886"><ele>28.0</ele><time>2026-04-09T10:56:41Z</time></trkpt><trkpt lat="38.000979829867" lon="14.272657207828699"><ele>28.0</ele><time>2026-04-09T10:56:42Z</time></trkpt><trkpt lat="38.00085182150116" lon="14.272688477035551"><ele>28.0</ele><time>2026-04-09T10:56:43Z</time></trkpt><trkpt lat="38.00073490937459" lon="14.272727470854816"><ele>27.75</ele><time>2026-04-09T10:56:44Z</time></trkpt><trkpt lat="38.00062491048052" lon="14.272775092878812"><ele>27.5</ele><time>2026-04-09T10:56:45Z</time></trkpt><trkpt lat="38.00051649743114" lon="14.272829772279081"><ele>27.25</ele><time>2026-04-09T10:56:46Z</time></trkpt><trkpt lat="38.00040853052982" lon="14.272878471412474"><ele>27.0</ele><time>2026-04-09T10:56:47Z</time></trkpt><trkpt lat="38.00029880007015" lon="14.27293326530998"><ele>27.0</ele><time>2026-04-09T10:56:48Z</time></trkpt><trkpt lat="38.000185578112394" lon="14.272987739413894"><ele>27.0</ele><time>2026-04-09T10:56:49Z</time></trkpt><trkpt lat="38.00006234015546" lon="14.273020272906487"><ele>27.0</ele><time>2026-04-09T10:56:50Z</time></trkpt><trkpt lat="37.99993341208876" lon="14.273021144160113"><ele>27.0</ele><time>2026-04-09T10:56:51Z</time></trkpt><trkpt lat="37.99980373631132" lon="14.273007259787144"><ele>27.0</ele><time>2026-04-09T10:56:52Z</time></trkpt><trkpt lat="37.99967132103857" lon="14.272997322003686"><ele>27.0</ele><time>2026-04-09T10:56:53Z</time></trkpt><trkpt lat="37.99954503815836" lon="14.272992116603032"><ele>27.0</ele><time>2026-04-09T10:56:54Z</time></trkpt><trkpt lat="37.99941520951001" lon="14.273000665077934"><ele>27.0</ele><time>2026-04-09T10:56:55Z</time></trkpt><trkpt lat="37.999288152057744" lon="14.272993488214652"><ele>28.5</ele><time>2026-04-09T10:56:56Z</time></trkpt><trkpt lat="37.99916115424686" lon="14.272991934670507"><ele>30.0</ele><time>2026-04-09T10:56:57Z</time></trkpt><trkpt lat="37.999041842064884" lon="14.273056546155805"><ele>31.5</ele><time>2026-04-09T10:56:58Z</time></trkpt><trkpt lat="37.99894284515466" lon="14.273092503079619"><ele>33.0</ele><time>2026-04-09T10:56:59Z</time></trkpt><trkpt lat="37.99884428266387" lon="14.273130935430393"><ele>36.666666666666664</ele><time>2026-04-09T10:57:00Z</time></trkpt><trkpt lat="37.99875308043284" lon="14.273158820463223"><ele>40.33333333333333</ele><time>2026-04-09T10:57:01Z</time></trkpt><trkpt lat="37.99867668780913" lon="14.273180142583403"><ele>44.0</ele><time>2026-04-09T10:57:02Z</time></trkpt><trkpt lat="37.998602226057464" lon="14.273198608526432"><ele>47.666666666666664</ele><time>2026-04-09T10:57:03Z</time></trkpt><trkpt lat="37.998517040926096" lon="14.273214018423653"><ele>51.33333333333333</ele><time>2026-04-09T10:57:04Z</time></trkpt><trkpt lat="37.9984277995732" lon="14.273225980928462"><ele>55.0</ele><time>2026-04-09T10:57:05Z</time></trkpt><trkpt lat="37.99833846846278" lon="14.273228664444515"><ele>55.6</ele><time>2026-04-09T10:57:06Z</time></trkpt><trkpt lat="37.99824912539409" lon="14.273237924675747"><ele>56.2</ele><time>2026-04-09T10:57:07Z</time></trkpt><trkpt lat="37.99815840848592" lon="14.273248484410631"><ele>56.8</ele><time>2026-04-09T10:57:08Z</time></trkpt><trkpt lat="37.99806654785656" lon="14.273259187249199"><ele>57.4</ele><time>2026-04-09T10:57:09Z</time></trkpt><trkpt lat="37.99797529635457" lon="14.2732687434708"><ele>58.0</ele><time>2026-04-09T10:57:10Z</time></trkpt><trkpt lat="37.99788448518517" lon="14.273276438655282"><ele>58.0</ele><time>2026-04-09T10:57:11Z</time></trkpt><trkpt lat="37.997792692857445" lon="14.273286957265993"><ele>58.0</ele><time>2026-04-09T10:57:12Z</time></trkpt><trkpt lat="37.99769545026383" lon="14.273299110274783"><ele>58.0</ele><time>2026-04-09T10:57:13Z</time></trkpt><trkpt lat="37.99759334966763" lon="14.273307010865691"><ele>58.0</ele><time>2026-04-09T10:57:14Z</time></trkpt><trkpt lat="37.99748600934037" lon="14.273314030118234"><ele>58.0</ele><time>2026-04-09T10:57:15Z</time></trkpt><trkpt lat="37.99737702100375" lon="14.273328531270323"><ele>58.599999999999994</ele><time>2026-04-09T10:57:16Z</time></trkpt><trkpt lat="37.99726610752685" lon="14.273349369098275"><ele>59.199999999999996</ele><time>2026-04-09T10:57:17Z</time></trkpt><trkpt lat="37.99715621721828" lon="14.2733771060477"><ele>59.8</ele><time>2026-04-09T10:57:18Z</time></trkpt><trkpt lat="37.997049086856684" lon="14.273415091515613"><ele>60.4</ele><time>2026-04-09T10:57:19Z</time></trkpt><trkpt lat="37.99695251255891" lon="14.273449931624233"><ele>61.0</ele><time>2026-04-09T10:57:20Z</time></trkpt><trkpt lat="37.99685826812663" lon="14.27347278870707"><ele>61.0</ele><time>2026-04-09T10:57:21Z</time></trkpt><trkpt lat="37.9967646386741" lon="14.27347322368459"><ele>60.99999999999999</ele><time>2026-04-09T10:57:22Z</time></trkpt><trkpt lat="37.996659293016265" lon="14.273459544595449"><ele>60.99999999999999</ele><time>2026-04-09T10:57:23Z</time></trkpt><trkpt lat="37.996551670653574" lon="14.273427557352038"><ele>61.0</ele><time>2026-04-09T10:57:24Z</time></trkpt><trkpt lat="37.99644304992425" lon="14.27339391473659"><ele>61.0</ele><time>2026-04-09T10:57:25Z</time></trkpt><trkpt lat="37.99632201157974" lon="14.273389413998013"><ele>62.25</ele><time>2026-04-09T10:57:26Z</time></trkpt><trkpt lat="37.99619412979326" lon="14.273417513735707"><ele>63.5</ele><time>2026-04-09T10:57:27Z</time></trkpt><trkpt lat="37.99607955677844" lon="14.273454979451532"><ele>64.75</ele><time>2026-04-09T10:57:28Z</time></trkpt><trkpt lat="37.99597901879538" lon="14.273487094997549"><ele>66.0</ele><time>2026-04-09T10:57:29Z</time></trkpt><trkpt lat="37.99588339929905" lon="14.273529787481557"><ele>65.0</ele><time>2026-04-09T10:57:30Z</time></trkpt><trkpt lat="37.995797861192486" lon="14.27358581116302"><ele>63.99999999999999</ele><time>2026-04-09T10:57:31Z</time></trkpt><trkpt lat="37.99573023654144" lon="14.273674983822884"><ele>62.99999999999999</ele><time>2026-04-09T10:57:32Z</time></trkpt><trkpt lat="37.99571450911387" lon="14.273800272944701"><ele>62.0</ele><time>2026-04-09T10:57:33Z</time></trkpt><trkpt lat="37.99570197065081" lon="14.273913740006059"><ele>61.0</ele><time>2026-04-09T10:57:34Z</time></trkpt><trkpt lat="37.99569987705038" lon="14.274033853360455"><ele>63.8</ele><time>2026-04-09T10:57:35Z</time></trkpt><trkpt lat="37.995696568586744" lon="14.274146843987358"><ele>66.6</ele><time>2026-04-09T10:57:36Z</time></trkpt><trkpt lat="37.99566513549537" lon="14.274256852119741"><ele>69.4</ele><time>2026-04-09T10:57:37Z</time></trkpt><trkpt lat="37.99561439436699" lon="14.274362854776909"><ele>72.2</ele><time>2026-04-09T10:57:38Z</time></trkpt><trkpt lat="37.995542187819574" lon="14.274449224009205"><ele>75.0</ele><time>2026-04-09T10:57:39Z</time></trkpt><trkpt lat="37.99544674739585" lon="14.274507254423158"><ele>75.0</ele><time>2026-04-09T10:57:40Z</time></trkpt><trkpt lat="37.99533776319626" lon="14.274527537643113"><ele>75.0</ele><time>2026-04-09T10:57:41Z</time></trkpt><trkpt lat="37.995223870404885" lon="14.27452361516629"><ele>75.0</ele><time>2026-04-09T10:57:42Z</time></trkpt><trkpt lat="37.99511173530284" lon="14.274521665137799"><ele>75.0</ele><time>2026-04-09T10:57:43Z</time></trkpt><trkpt lat="37.99499578571366" lon="14.274531458710847"><ele>70.75</ele><time>2026-04-09T10:57:44Z</time></trkpt><trkpt lat="37.99488322476252" lon="14.274542963556103"><ele>66.5</ele><time>2026-04-09T10:57:45Z</time></trkpt><trkpt lat="37.99476571365262" lon="14.27454714842287"><ele>62.25</ele><time>2026-04-09T10:57:46Z</time></trkpt><trkpt lat="37.994640877308036" lon="14.27457533601728"><ele>58.0</ele><time>2026-04-09T10:57:47Z</time></trkpt><trkpt lat="37.99453473962325" lon="14.274607187727769"><ele>58.0</ele><time>2026-04-09T10:57:48Z</time></trkpt><trkpt lat="37.994414179418236" lon="14.274679357925404"><ele>58.0</ele><time>2026-04-09T10:57:49Z</time></trkpt><trkpt lat="37.99429267485177" lon="14.274748162715293"><ele>58.0</ele><time>2026-04-09T10:57:50Z</time></trkpt><trkpt lat="37.99417358787831" lon="14.274823332846024"><ele>58.0</ele><time>2026-04-09T10:57:51Z</time></trkpt><trkpt lat="37.99405833328263" lon="14.274900759314031"><ele>64.5</ele><time>2026-04-09T10:57:52Z</time></trkpt><trkpt lat="37.993950642734816" lon="14.274971995616099"><ele>71.0</ele><time>2026-04-09T10:57:53Z</time></trkpt><trkpt lat="37.99384377356974" lon="14.27501688910446"><ele>77.5</ele><time>2026-04-09T10:57:54Z</time></trkpt><trkpt lat="37.99373754067077" lon="14.274963206138729"><ele>84.0</ele><time>2026-04-09T10:57:55Z</time></trkpt><trkpt lat="37.99362290191632" lon="14.274921624091624"><ele>84.0</ele><time>2026-04-09T10:57:56Z</time></trkpt><trkpt lat="37.993497097873984" lon="14.274891159308273"><ele>84.0</ele><time>2026-04-09T10:57:57Z</time></trkpt><trkpt lat="37.99337350564076" lon="14.274892704834087"><ele>84.0</ele><time>2026-04-09T10:57:58Z</time></trkpt><trkpt lat="37.99326745249063" lon="14.27490329023853"><ele>84.0</ele><time>2026-04-09T10:57:59Z</time></trkpt><trkpt lat="37.993165850782084" lon="14.274959684064688"><ele>82.75</ele><time>2026-04-09T10:58:00Z</time></trkpt><trkpt lat="37.9930588513208" lon="14.275022307431845"><ele>81.5</ele><time>2026-04-09T10:58:01Z</time></trkpt><trkpt lat="37.99295297827697" lon="14.275077590335718"><ele>80.25</ele><time>2026-04-09T10:58:02Z</time></trkpt><trkpt lat="37.99284633492464" lon="14.275130476953594"><ele>79.0</ele><time>2026-04-09T10:58:03Z</time></trkpt><trkpt lat="37.99274496773888" lon="14.275186311985792"><ele>79.0</ele><time>2026-04-09T10:58:04Z</time></trkpt><trkpt lat="37.99264048730648" lon="14.27523515757457"><ele>79.0</ele><time>2026-04-09T10:58:05Z</time></trkpt><trkpt lat="37.99252715121515" lon="14.275263505844391"><ele>79.0</ele><time>2026-04-09T10:58:06Z</time></trkpt><trkpt lat="37.99240555163244" lon="14.275250742182088"><ele>79.0</ele><time>2026-04-09T10:58:07Z</time></trkpt><trkpt lat="37.992284578536534" lon="14.275262173839774"><ele>77.8</ele><time>2026-04-09T10:58:08Z</time></trkpt><trkpt lat="37.9921721833418" lon="14.275267941649291"><ele>76.60000000000001</ele><time>2026-04-09T10:58:09Z</time></trkpt><trkpt lat="37.992061045804775" lon="14.275274590366125"><ele>75.4</ele><time>2026-04-09T10:58:10Z</time></trkpt><trkpt lat="37.99195384240913" lon="14.275281326091498"><ele>74.2</ele><time>2026-04-09T10:58:11Z</time></trkpt><trkpt lat="37.991855044393255" lon="14.275285329775532"><ele>73.0</ele><time>2026-04-09T10:58:12Z</time></trkpt><trkpt lat="37.99176048366755" lon="14.27529618125349"><ele>73.0</ele><time>2026-04-09T10:58:13Z</time></trkpt><trkpt lat="37.991676138933606" lon="14.275331175732262"><ele>73.0</ele><time>2026-04-09T10:58:14Z</time></trkpt><trkpt lat="37.99159456555879" lon="14.275410141921355"><ele>73.0</ele><time>2026-04-09T10:58:15Z</time></trkpt><trkpt lat="37.99152685905392" lon="14.275513980868787"><ele>73.0</ele><time>2026-04-09T10:58:16Z</time></trkpt><trkpt lat="37.99149419088231" lon="14.275639462672011"><ele>73.0</ele><time>2026-04-09T10:58:17Z</time></trkpt><trkpt lat="37.991491411808" lon="14.275769445139067"><ele>77.8</ele><time>2026-04-09T10:58:18Z</time></trkpt><trkpt lat="37.99149459084082" lon="14.275897859588236"><ele>82.6</ele><time>2026-04-09T10:58:19Z</time></trkpt><trkpt lat="37.991498955304735" lon="14.276025027569563"><ele>87.39999999999999</ele><time>2026-04-09T10:58:20Z</time></trkpt><trkpt lat="37.99151371981893" lon="14.276146632802096"><ele>92.19999999999999</ele><time>2026-04-09T10:58:21Z</time></trkpt><trkpt lat="37.991476041738736" lon="14.276239238503956"><ele>97.0</ele><time>2026-04-09T10:58:22Z</time></trkpt><trkpt lat="37.9914086334314" lon="14.27632353590189"><ele>97.0</ele><time>2026-04-09T10:58:23Z</time></trkpt><trkpt lat="37.99132272332897" lon="14.276401109171303"><ele>97.0</ele><time>2026-04-09T10:58:24Z</time></trkpt><trkpt lat="37.991239293140595" lon="14.276485165326545"><ele>97.0</ele><time>2026-04-09T10:58:25Z</time></trkpt><trkpt lat="37.991161008251154" lon="14.276574432640924"><ele>97.0</ele><time>2026-04-09T10:58:26Z</time></trkpt><trkpt lat="37.9910815126318" lon="14.276656965641225"><ele>97.0</ele><time>2026-04-09T10:58:27Z</time></trkpt><trkpt lat="37.99100991206968" lon="14.276724555410063"><ele>98.16666666666667</ele><time>2026-04-09T10:58:28Z</time></trkpt><trkpt lat="37.99093863475577" lon="14.276777930351678"><ele>99.33333333333334</ele><time>2026-04-09T10:58:29Z</time></trkpt><trkpt lat="37.990862551117885" lon="14.276820251546168"><ele>100.5</ele><time>2026-04-09T10:58:30Z</time></trkpt><trkpt lat="37.99077638178473" lon="14.276804239274043"><ele>101.66666666666666</ele><time>2026-04-09T10:58:31Z</time></trkpt><trkpt lat="37.990695270692136" lon="14.276760900945336"><ele>102.83333333333333</ele><time>2026-04-09T10:58:32Z</time></trkpt><trkpt lat="37.99062326665024" lon="14.276684906304693"><ele>104.0</ele><time>2026-04-09T10:58:33Z</time></trkpt><trkpt lat="37.9905711982659" lon="14.276583714139168"><ele>104.0</ele><time>2026-04-09T10:58:34Z</time></trkpt><trkpt lat="37.990496987559006" lon="14.276513858571715"><ele>104.0</ele><time>2026-04-09T10:58:35Z</time></trkpt><trkpt lat="37.99041310524738" lon="14.27647157019866"><ele>104.0</ele><time>2026-04-09T10:58:36Z</time></trkpt><trkpt lat="37.99030827335797" lon="14.276460711848618"><ele>104.0</ele><time>2026-04-09T10:58:37Z</time></trkpt><trkpt lat="37.990196777133114" lon="14.276481530637868"><ele>104.0</ele><time>2026-04-09T10:58:38Z</time></trkpt><trkpt lat="37.99008822808316" lon="14.276515627531111"><ele>105.6</ele><time>2026-04-09T10:58:39Z</time></trkpt><trkpt lat="37.98998188387429" lon="14.2765451777618"><ele>107.2</ele><time>2026-04-09T10:58:40Z</time></trkpt><trkpt lat="37.989876153684044" lon="14.276566290655614"><ele>108.79999999999998</ele><time>2026-04-09T10:58:41Z</time></trkpt><trkpt lat="37.9897716176482" lon="14.276601607781947"><ele>110.39999999999999</ele><time>2026-04-09T10:58:42Z</time></trkpt><trkpt lat="37.989667227729825" lon="14.276652335370503"><ele>112.0</ele><time>2026-04-09T10:58:43Z</time></trkpt><trkpt lat="37.98956633356906" lon="14.276707831630727"><ele>112.0</ele><time>2026-04-09T10:58:44Z</time></trkpt><trkpt lat="37.98946427879448" lon="14.276765738438844"><ele>112.0</ele><time>2026-04-09T10:58:45Z</time></trkpt><trkpt lat="37.98935918431809" lon="14.276819831740074"><ele>112.0</ele><time>2026-04-09T10:58:46Z</time></trkpt><trkpt lat="37.989256897957624" lon="14.276878279021805"><ele>112.0</ele><time>2026-04-09T10:58:47Z</time></trkpt><trkpt lat="37.98914872976034" lon="14.276935718819283"><ele>109.75</ele><time>2026-04-09T10:58:48Z</time></trkpt><trkpt lat="37.98904130727344" lon="14.276996070190895"><ele>107.5</ele><time>2026-04-09T10:58:49Z</time></trkpt><trkpt lat="37.98893412409709" lon="14.27705615803597"><ele>105.25</ele><time>2026-04-09T10:58:50Z</time></trkpt><trkpt lat="37.98882810840612" lon="14.27711109695705"><ele>103.0</ele><time>2026-04-09T10:58:51Z</time></trkpt><trkpt lat="37.98872073005707" lon="14.277167156544616"><ele>103.0</ele><time>2026-04-09T10:58:52Z</time></trkpt><trkpt lat="37.98861530276401" lon="14.27722719033549"><ele>103.0</ele><time>2026-04-09T10:58:53Z</time></trkpt><trkpt lat="37.98850925628546" lon="14.27729425655268"><ele>103.0</ele><time>2026-04-09T10:58:54Z</time></trkpt><trkpt lat="37.988406770991" lon="14.277364093818182"><ele>103.0</ele><time>2026-04-09T10:58:55Z</time></trkpt><trkpt lat="37.98830656863998" lon="14.277434845520732"><ele>108.5</ele><time>2026-04-09T10:58:56Z</time></trkpt><trkpt lat="37.98820316548896" lon="14.277504583881612"><ele>114.0</ele><time>2026-04-09T10:58:57Z</time></trkpt><trkpt lat="37.988098239566625" lon="14.277566825017727"><ele>119.5</ele><time>2026-04-09T10:58:58Z</time></trkpt><trkpt lat="37.987995563987816" lon="14.277631869374929"><ele>125.0</ele><time>2026-04-09T10:58:59Z</time></trkpt><trkpt lat="37.987895817407264" lon="14.277700397026251"><ele>125.0</ele><time>2026-04-09T10:59:00Z</time></trkpt><trkpt lat="37.98779475211836" lon="14.277769229943583"><ele>125.0</ele><time>2026-04-09T10:59:01Z</time></trkpt><trkpt lat="37.98769098384318" lon="14.277838751259775"><ele>125.0</ele><time>2026-04-09T10:59:02Z</time></trkpt><trkpt lat="37.98758716235288" lon="14.277904945042076"><ele>125.0</ele><time>2026-04-09T10:59:03Z</time></trkpt><trkpt lat="37.98748602065024" lon="14.277974008462213"><ele>124.0</ele><time>2026-04-09T10:59:04Z</time></trkpt><trkpt lat="37.98738717040033" lon="14.278042194446568"><ele>123.0</ele><time>2026-04-09T10:59:05Z</time></trkpt><trkpt lat="37.987288811605794" lon="14.278097089128568"><ele>122.0</ele><time>2026-04-09T10:59:06Z</time></trkpt><trkpt lat="37.98719552042458" lon="14.278153502962617"><ele>121.0</ele><time>2026-04-09T10:59:07Z</time></trkpt><trkpt lat="37.98710516177984" lon="14.278216633634838"><ele>120.0</ele><time>2026-04-09T10:59:08Z</time></trkpt><trkpt lat="37.98702913133676" lon="14.278278463738442"><ele>122.16666666666667</ele><time>2026-04-09T10:59:09Z</time></trkpt><trkpt lat="37.9869585029123" lon="14.278334468900477"><ele>124.33333333333334</ele><time>2026-04-09T10:59:10Z</time></trkpt><trkpt lat="37.986879144188066" lon="14.278357982106465"><ele>126.5</ele><time>2026-04-09T10:59:11Z</time></trkpt><trkpt lat="37.9867966222579" lon="14.278345625188951"><ele>128.66666666666669</ele><time>2026-04-09T10:59:12Z</time></trkpt><trkpt lat="37.98671752875045" lon="14.278280901602507"><ele>130.83333333333334</ele><time>2026-04-09T10:59:13Z</time></trkpt><trkpt lat="37.986655357906564" lon="14.278183930698633"><ele>133.0</ele><time>2026-04-09T10:59:14Z</time></trkpt><trkpt lat="37.9866434556486" lon="14.278055048784491"><ele>133.0</ele><time>2026-04-09T10:59:15Z</time></trkpt><trkpt lat="37.986596790433616" lon="14.277930150513766"><ele>133.0</ele><time>2026-04-09T10:59:16Z</time></trkpt><trkpt lat="37.98657077868023" lon="14.27779584620085"><ele>133.0</ele><time>2026-04-09T10:59:17Z</time></trkpt><trkpt lat="37.9865399680142" lon="14.277671124956269"><ele>133.0</ele><time>2026-04-09T10:59:18Z</time></trkpt><trkpt lat="37.98650126299793" lon="14.277572844971594"><ele>133.0</ele><time>2026-04-09T10:59:19Z</time></trkpt><trkpt lat="37.986430605450934" lon="14.277500964287256"><ele>133.0</ele><time>2026-04-09T10:59:20Z</time></trkpt><trkpt lat="37.986334057459274" lon="14.277459124647525"><ele>133.0</ele><time>2026-04-09T10:59:21Z</time></trkpt><trkpt lat="37.9862118401084" lon="14.277463609668409"><ele>133.0</ele><time>2026-04-09T10:59:22Z</time></trkpt><trkpt lat="37.98609205511139" lon="14.277480963044296"><ele>133.0</ele><time>2026-04-09T10:59:23Z</time></trkpt><trkpt lat="37.9859700091098" lon="14.277493339821401"><ele>133.0</ele><time>2026-04-09T10:59:24Z</time></trkpt><trkpt lat="37.98586072163803" lon="14.277465856793876"><ele>133.0</ele><time>2026-04-09T10:59:25Z</time></trkpt><trkpt lat="37.98575087178687" lon="14.277408042938408"><ele>133.0</ele><time>2026-04-09T10:59:26Z</time></trkpt><trkpt lat="37.98565404618186" lon="14.277329004506852"><ele>133.0</ele><time>2026-04-09T10:59:27Z</time></trkpt><trkpt lat="37.98559377537844" lon="14.277208239661583"><ele>133.5</ele><time>2026-04-09T10:59:28Z</time></trkpt><trkpt lat="37.985502031024126" lon="14.277106749954013"><ele>134.0</ele><time>2026-04-09T10:59:29Z</time></trkpt><trkpt lat="37.98542365485644" lon="14.276993472052162"><ele>134.5</ele><time>2026-04-09T10:59:30Z</time></trkpt><trkpt lat="37.98534959464564" lon="14.276877675704066"><ele>135.0</ele><time>2026-04-09T10:59:31Z</time></trkpt><trkpt lat="37.985272967010374" lon="14.276762848141447"><ele>135.0</ele><time>2026-04-09T10:59:32Z</time></trkpt><trkpt lat="37.98520442233338" lon="14.276661169868133"><ele>135.0</ele><time>2026-04-09T10:59:33Z</time></trkpt><trkpt lat="37.98513459959297" lon="14.276585597024802"><ele>135.0</ele><time>2026-04-09T10:59:34Z</time></trkpt><trkpt lat="37.985056842394194" lon="14.276552063991302"><ele>135.0</ele><time>2026-04-09T10:59:35Z</time></trkpt><trkpt lat="37.984967408913974" lon="14.276567156969136"><ele>135.0</ele><time>2026-04-09T10:59:36Z</time></trkpt><trkpt lat="37.984888220070744" lon="14.276638076053594"><ele>137.2</ele><time>2026-04-09T10:59:37Z</time></trkpt><trkpt lat="37.98485516975859" lon="14.276734263278524"><ele>139.4</ele><time>2026-04-09T10:59:38Z</time></trkpt><trkpt lat="37.98483335520441" lon="14.276846247422503"><ele>141.6</ele><time>2026-04-09T10:59:39Z</time></trkpt><trkpt lat="37.984823102182894" lon="14.276965301615462"><ele>143.8</ele><time>2026-04-09T10:59:40Z</time></trkpt><trkpt lat="37.98481213548721" lon="14.277081359433001"><ele>146.0</ele><time>2026-04-09T10:59:41Z</time></trkpt><trkpt lat="37.98479914055565" lon="14.277197728410682"><ele>148.0</ele><time>2026-04-09T10:59:42Z</time></trkpt><trkpt lat="37.9847720853981" lon="14.277310747236243"><ele>150.0</ele><time>2026-04-09T10:59:43Z</time></trkpt><trkpt lat="37.984737552031646" lon="14.277417668499883"><ele>152.0</ele><time>2026-04-09T10:59:44Z</time></trkpt><trkpt lat="37.98470501676378" lon="14.277532264123826"><ele>154.0</ele><time>2026-04-09T10:59:45Z</time></trkpt><trkpt lat="37.98466327980317" lon="14.277643185770769"><ele>156.0</ele><time>2026-04-09T10:59:46Z</time></trkpt><trkpt lat="37.98462713631146" lon="14.277755507157332"><ele>156.0</ele><time>2026-04-09T10:59:47Z</time></trkpt><trkpt lat="37.98459907307023" lon="14.27786749371145"><ele>156.0</ele><time>2026-04-09T10:59:48Z</time></trkpt><trkpt lat="37.984578918037265" lon="14.277980845210372"><ele>156.0</ele><time>2026-04-09T10:59:49Z</time></trkpt><trkpt lat="37.984586053394985" lon="14.278097372574397"><ele>156.0</ele><time>2026-04-09T10:59:50Z</time></trkpt><trkpt lat="37.98461756684582" lon="14.278216226795676"><ele>156.0</ele><time>2026-04-09T10:59:51Z</time></trkpt><trkpt lat="37.9846530036327" lon="14.278342850860078"><ele>157.4</ele><time>2026-04-09T10:59:52Z</time></trkpt><trkpt lat="37.984701901943886" lon="14.278467452732372"><ele>158.8</ele><time>2026-04-09T10:59:53Z</time></trkpt><trkpt lat="37.98475732899099" lon="14.278581355774703"><ele>160.20000000000002</ele><time>2026-04-09T10:59:54Z</time></trkpt><trkpt lat="37.9848186239484" lon="14.27869068383502"><ele>161.6</ele><time>2026-04-09T10:59:55Z</time></trkpt><trkpt lat="37.98487189020655" lon="14.278809563033922"><ele>163.0</ele><time>2026-04-09T10:59:56Z</time></trkpt><trkpt lat="37.98490143138265" lon="14.278941773891527"><ele>164.60000000000002</ele><time>2026-04-09T10:59:57Z</time></trkpt><trkpt lat="37.98491411388612" lon="14.27908220871616"><ele>166.20000000000002</ele><time>2026-04-09T10:59:58Z</time></trkpt><trkpt lat="37.98491057858468" lon="14.279226694584517"><ele>167.8</ele><time>2026-04-09T10:59:59Z</time></trkpt><trkpt lat="37.98490214806702" lon="14.279362750812785"><ele>169.4</ele><time>2026-04-09T11:00:00Z</time></trkpt><trkpt lat="37.984886650812115" lon="14.279494868386067"><ele>171.0</ele><time>2026-04-09T11:00:01Z</time></trkpt><trkpt lat="37.98485846323792" lon="14.279623211647914"><ele>171.0</ele><time>2026-04-09T11:00:02Z</time></trkpt><trkpt lat="37.98482401238785" lon="14.279750875895381"><ele>171.0</ele><time>2026-04-09T11:00:03Z</time></trkpt><trkpt lat="37.98477655412297" lon="14.279872979321055"><ele>171.0</ele><time>2026-04-09T11:00:04Z</time></trkpt><trkpt lat="37.98473310560464" lon="14.279984816864744"><ele>171.0</ele><time>2026-04-09T11:00:05Z</time></trkpt><trkpt lat="37.984724161489545" lon="14.280103115811606"><ele>171.0</ele><time>2026-04-09T11:00:06Z</time></trkpt><trkpt lat="37.98475360149495" lon="14.280234475744377"><ele>174.0</ele><time>2026-04-09T11:00:07Z</time></trkpt><trkpt lat="37.98480965652251" lon="14.280369197435865"><ele>177.0</ele><time>2026-04-09T11:00:08Z</time></trkpt><trkpt lat="37.98484619269619" lon="14.28049238148308"><ele>180.0</ele><time>2026-04-09T11:00:09Z</time></trkpt><trkpt lat="37.98483603332941" lon="14.28060813460502"><ele>183.0</ele><time>2026-04-09T11:00:10Z</time></trkpt><trkpt lat="37.98478179727667" lon="14.280719128010098"><ele>186.0</ele><time>2026-04-09T11:00:11Z</time></trkpt><trkpt lat="37.9846745927968" lon="14.280792120793963"><ele>188.75</ele><time>2026-04-09T11:00:12Z</time></trkpt><trkpt lat="37.98462683292431" lon="14.280920015798063"><ele>191.5</ele><time>2026-04-09T11:00:13Z</time></trkpt><trkpt lat="37.984574668729046" lon="14.281056331181231"><ele>194.25</ele><time>2026-04-09T11:00:14Z</time></trkpt><trkpt lat="37.984529906353146" lon="14.281193804878308"><ele>197.0</ele><time>2026-04-09T11:00:15Z</time></trkpt><trkpt lat="37.984463319000504" lon="14.281292375947281"><ele>197.0</ele><time>2026-04-09T11:00:16Z</time></trkpt><trkpt lat="37.98440928761575" lon="14.281394391468032"><ele>197.0</ele><time>2026-04-09T11:00:17Z</time></trkpt><trkpt lat="37.98433003799113" lon="14.281461472125281"><ele>197.0</ele><time>2026-04-09T11:00:18Z</time></trkpt><trkpt lat="37.984231242851564" lon="14.281464053288177"><ele>197.0</ele><time>2026-04-09T11:00:19Z</time></trkpt><trkpt lat="37.98413394359763" lon="14.28144498801048"><ele>197.0</ele><time>2026-04-09T11:00:20Z</time></trkpt><trkpt lat="37.98401559488481" lon="14.281416570134258"><ele>198.25</ele><time>2026-04-09T11:00:21Z</time></trkpt><trkpt lat="37.983898479273975" lon="14.281408742259702"><ele>199.5</ele><time>2026-04-09T11:00:22Z</time></trkpt><trkpt lat="37.98378734983583" lon="14.281444308879108"><ele>200.75</ele><time>2026-04-09T11:00:23Z</time></trkpt><trkpt lat="37.983669606745146" lon="14.281463903552938"><ele>202.0</ele><time>2026-04-09T11:00:24Z</time></trkpt><trkpt lat="37.98354750329964" lon="14.281469126551562"><ele>194.75</ele><time>2026-04-09T11:00:25Z</time></trkpt><trkpt lat="37.98343613927369" lon="14.281399245423176"><ele>187.5</ele><time>2026-04-09T11:00:26Z</time></trkpt><trkpt lat="37.98331932734351" lon="14.281350960568325"><ele>180.25</ele><time>2026-04-09T11:00:27Z</time></trkpt><trkpt lat="37.98321280158148" lon="14.281282056246312"><ele>173.0</ele><time>2026-04-09T11:00:28Z</time></trkpt><trkpt lat="37.98311692482331" lon="14.281227897072913"><ele>173.0</ele><time>2026-04-09T11:00:29Z</time></trkpt><trkpt lat="37.98301952635682" lon="14.281187912103617"><ele>173.0</ele><time>2026-04-09T11:00:30Z</time></trkpt><trkpt lat="37.982911518659385" lon="14.281210266388964"><ele>173.0</ele><time>2026-04-09T11:00:31Z</time></trkpt><trkpt lat="37.98280291760304" lon="14.281266520359726"><ele>173.0</ele><time>2026-04-09T11:00:32Z</time></trkpt><trkpt lat="37.982702059462916" lon="14.281343374189769"><ele>173.0</ele><time>2026-04-09T11:00:33Z</time></trkpt><trkpt lat="37.98260311014576" lon="14.281431114431713"><ele>180.0</ele><time>2026-04-09T11:00:34Z</time></trkpt><trkpt lat="37.98250498718985" lon="14.281516205208481"><ele>187.0</ele><time>2026-04-09T11:00:35Z</time></trkpt><trkpt lat="37.98240749333745" lon="14.281599895435175"><ele>194.0</ele><time>2026-04-09T11:00:36Z</time></trkpt><trkpt lat="37.98231492379867" lon="14.281691758347213"><ele>201.0</ele><time>2026-04-09T11:00:37Z</time></trkpt><trkpt lat="37.98220886609766" lon="14.281771148302388"><ele>201.0</ele><time>2026-04-09T11:00:38Z</time></trkpt><trkpt lat="37.98209007100065" lon="14.281825569566198"><ele>201.0</ele><time>2026-04-09T11:00:39Z</time></trkpt><trkpt lat="37.981962298358404" lon="14.281830514955573"><ele>201.0</ele><time>2026-04-09T11:00:40Z</time></trkpt><trkpt lat="37.981846613382544" lon="14.281809089355173"><ele>201.0</ele><time>2026-04-09T11:00:41Z</time></trkpt><trkpt lat="37.981747213328596" lon="14.281795078941098"><ele>199.66666666666666</ele><time>2026-04-09T11:00:42Z</time></trkpt><trkpt lat="37.98165259674478" lon="14.281798705822322"><ele>198.33333333333331</ele><time>2026-04-09T11:00:43Z</time></trkpt><trkpt lat="37.981576641430166" lon="14.281831447587503"><ele>197.0</ele><time>2026-04-09T11:00:44Z</time></trkpt><trkpt lat="37.981518512653366" lon="14.2818997337073"><ele>195.66666666666666</ele><time>2026-04-09T11:00:45Z</time></trkpt><trkpt lat="37.98149689341537" lon="14.281992053695191"><ele>194.33333333333331</ele><time>2026-04-09T11:00:46Z</time></trkpt><trkpt lat="37.98153814694411" lon="14.282104249645128"><ele>193.0</ele><time>2026-04-09T11:00:47Z</time></trkpt><trkpt lat="37.98156349439964" lon="14.282218187604544"><ele>197.60000000000002</ele><time>2026-04-09T11:00:48Z</time></trkpt><trkpt lat="37.98158615534632" lon="14.282343239003511"><ele>202.20000000000002</ele><time>2026-04-09T11:00:49Z</time></trkpt><trkpt lat="37.9815916274121" lon="14.282467360255422"><ele>206.8</ele><time>2026-04-09T11:00:50Z</time></trkpt><trkpt lat="37.981578573582276" lon="14.282591109392406"><ele>211.4</ele><time>2026-04-09T11:00:51Z</time></trkpt><trkpt lat="37.981554994358355" lon="14.282710446474335"><ele>216.0</ele><time>2026-04-09T11:00:52Z</time></trkpt><trkpt lat="37.981514256924406" lon="14.282813022290501"><ele>216.0</ele><time>2026-04-09T11:00:53Z</time></trkpt><trkpt lat="37.981466710449126" lon="14.282914764878136"><ele>216.00000000000003</ele><time>2026-04-09T11:00:54Z</time></trkpt><trkpt lat="37.981410448807196" lon="14.283015166549179"><ele>216.00000000000003</ele><time>2026-04-09T11:00:55Z</time></trkpt><trkpt lat="37.98134547375875" lon="14.283114483993133"><ele>216.0</ele><time>2026-04-09T11:00:56Z</time></trkpt><trkpt lat="37.98127663188586" lon="14.283211927562784"><ele>216.0</ele><time>2026-04-09T11:00:57Z</time></trkpt><trkpt lat="37.98119307216164" lon="14.283292720601944"><ele>216.0</ele><time>2026-04-09T11:00:58Z</time></trkpt><trkpt lat="37.98110366750396" lon="14.283341382697246"><ele>216.00000000000003</ele><time>2026-04-09T11:00:59Z</time></trkpt><trkpt lat="37.980998319650396" lon="14.283332657906639"><ele>216.00000000000003</ele><time>2026-04-09T11:01:00Z</time></trkpt><trkpt lat="37.98088273493587" lon="14.283333133435173"><ele>216.0</ele><time>2026-04-09T11:01:01Z</time></trkpt><trkpt lat="37.9807704364466" lon="14.283364305856962"><ele>216.0</ele><time>2026-04-09T11:01:02Z</time></trkpt><trkpt lat="37.980654961287975" lon="14.283399636768596"><ele>216.0</ele><time>2026-04-09T11:01:03Z</time></trkpt><trkpt lat="37.980545137126406" lon="14.2834511294461"><ele>216.00000000000003</ele><time>2026-04-09T11:01:04Z</time></trkpt><trkpt lat="37.98043736096052" lon="14.283493905019688"><ele>216.00000000000003</ele><time>2026-04-09T11:01:05Z</time></trkpt><trkpt lat="37.98033012386308" lon="14.2835238027779"><ele>216.0</ele><time>2026-04-09T11:01:06Z</time></trkpt><trkpt lat="37.98023178999031" lon="14.283521631368075"><ele>216.0</ele><time>2026-04-09T11:01:07Z</time></trkpt><trkpt lat="37.98013978458809" lon="14.28350483339633"><ele>216.0</ele><time>2026-04-09T11:01:08Z</time></trkpt><trkpt lat="37.980061621166215" lon="14.28350369984483"><ele>216.0</ele><time>2026-04-09T11:01:09Z</time></trkpt><trkpt lat="37.97999837653524" lon="14.28354594138855"><ele>216.0</ele><time>2026-04-09T11:01:10Z</time></trkpt><trkpt lat="37.979954637655375" lon="14.283634489824909"><ele>216.0</ele><time>2026-04-09T11:01:11Z</time></trkpt><trkpt lat="37.97993843170367" lon="14.283737926048483"><ele>216.0</ele><time>2026-04-09T11:01:12Z</time></trkpt><trkpt lat="37.97994304226691" lon="14.283849705763824"><ele>216.0</ele><time>2026-04-09T11:01:13Z</time></trkpt><trkpt lat="37.97994526810888" lon="14.283964803949752"><ele>217.60000000000002</ele><time>2026-04-09T11:01:14Z</time></trkpt><trkpt lat="37.97993047944678" lon="14.284083987007511"><ele>219.20000000000002</ele><time>2026-04-09T11:01:15Z</time></trkpt><trkpt lat="37.979913177643446" lon="14.284207719664503"><ele>220.79999999999998</ele><time>2026-04-09T11:01:16Z</time></trkpt><trkpt lat="37.97989359429621" lon="14.284335315656362"><ele>222.39999999999998</ele><time>2026-04-09T11:01:17Z</time></trkpt><trkpt lat="37.979892023980476" lon="14.28446955669629"><ele>224.0</ele><time>2026-04-09T11:01:18Z</time></trkpt><trkpt lat="37.97990574943444" lon="14.284601945935059"><ele>224.0</ele><time>2026-04-09T11:01:19Z</time></trkpt><trkpt lat="37.97992481054225" lon="14.284726180580945"><ele>223.99999999999997</ele><time>2026-04-09T11:01:20Z</time></trkpt><trkpt lat="37.979939351051755" lon="14.284853480291003"><ele>223.99999999999997</ele><time>2026-04-09T11:01:21Z</time></trkpt><trkpt lat="37.97993443511599" lon="14.284985803860504"><ele>224.0</ele><time>2026-04-09T11:01:22Z</time></trkpt><trkpt lat="37.97992018903571" lon="14.285119827384735"><ele>224.0</ele><time>2026-04-09T11:01:23Z</time></trkpt><trkpt lat="37.97988986491614" lon="14.285244320395309"><ele>225.6</ele><time>2026-04-09T11:01:24Z</time></trkpt><trkpt lat="37.97983024966174" lon="14.285350431866512"><ele>227.2</ele><time>2026-04-09T11:01:25Z</time></trkpt><trkpt lat="37.97975150452988" lon="14.285430438917489"><ele>228.79999999999998</ele><time>2026-04-09T11:01:26Z</time></trkpt><trkpt lat="37.979663884561084" lon="14.285490254657468"><ele>230.39999999999998</ele><time>2026-04-09T11:01:27Z</time></trkpt><trkpt lat="37.97958760003703" lon="14.285549679835304"><ele>232.0</ele><time>2026-04-09T11:01:28Z</time></trkpt><trkpt lat="37.97951927834464" lon="14.285626101373712"><ele>234.6</ele><time>2026-04-09T11:01:29Z</time></trkpt><trkpt lat="37.97949814451339" lon="14.285761609481192"><ele>237.2</ele><time>2026-04-09T11:01:30Z</time></trkpt><trkpt lat="37.97947911225869" lon="14.285897110540146"><ele>239.8</ele><time>2026-04-09T11:01:31Z</time></trkpt><trkpt lat="37.97947042801574" lon="14.286029319780614"><ele>242.4</ele><time>2026-04-09T11:01:32Z</time></trkpt><trkpt lat="37.979456173995615" lon="14.286156336602804"><ele>245.0</ele><time>2026-04-09T11:01:33Z</time></trkpt><trkpt lat="37.97942909706999" lon="14.286276184592383"><ele>245.00000000000003</ele><time>2026-04-09T11:01:34Z</time></trkpt><trkpt lat="37.97938037791791" lon="14.286382304994119"><ele>245.0</ele><time>2026-04-09T11:01:35Z</time></trkpt><trkpt lat="37.97932441089144" lon="14.286474521260555"><ele>245.0</ele><time>2026-04-09T11:01:36Z</time></trkpt><trkpt lat="37.979264465713165" lon="14.28656014078373"><ele>245.0</ele><time>2026-04-09T11:01:37Z</time></trkpt><trkpt lat="37.97920513392023" lon="14.286640457238008"><ele>245.00000000000003</ele><time>2026-04-09T11:01:38Z</time></trkpt><trkpt lat="37.97913919099344" lon="14.286705854425142"><ele>245.0</ele><time>2026-04-09T11:01:39Z</time></trkpt><trkpt lat="37.979059714828516" lon="14.286727327753578"><ele>244.00000000000003</ele><time>2026-04-09T11:01:40Z</time></trkpt><trkpt lat="37.978984634748215" lon="14.28675185369364"><ele>243.0</ele><time>2026-04-09T11:01:41Z</time></trkpt><trkpt lat="37.978924402822074" lon="14.286790324110365"><ele>242.0</ele><time>2026-04-09T11:01:42Z</time></trkpt><trkpt lat="37.97885664263326" lon="14.286791155756754"><ele>241.0</ele><time>2026-04-09T11:01:43Z</time></trkpt><trkpt lat="37.97877695966411" lon="14.28683550347143"><ele>240.00000000000003</ele><time>2026-04-09T11:01:44Z</time></trkpt><trkpt lat="37.97869393877957" lon="14.286871521514906"><ele>239.0</ele><time>2026-04-09T11:01:45Z</time></trkpt><trkpt lat="37.97861983677492" lon="14.286917765457064"><ele>239.00000000000003</ele><time>2026-04-09T11:01:46Z</time></trkpt><trkpt lat="37.97856537097951" lon="14.286973955631034"><ele>239.0</ele><time>2026-04-09T11:01:47Z</time></trkpt><trkpt lat="37.97849516719324" lon="14.287089903409115"><ele>239.0</ele><time>2026-04-09T11:01:49Z</time></trkpt><trkpt lat="37.97847038081081" lon="14.287180610137453"><ele>239.0</ele><time>2026-04-09T11:01:50Z</time></trkpt><trkpt lat="37.97845129262771" lon="14.287282351886818"><ele>239.00000000000003</ele><time>2026-04-09T11:01:51Z</time></trkpt><trkpt lat="37.97842926738756" lon="14.287398269785735"><ele>239.0</ele><time>2026-04-09T11:01:52Z</time></trkpt><trkpt lat="37.978411071598835" lon="14.287524330146706"><ele>239.79999999999998</ele><time>2026-04-09T11:01:53Z</time></trkpt><trkpt lat="37.97839881930297" lon="14.287656886481706"><ele>240.59999999999997</ele><time>2026-04-09T11:01:54Z</time></trkpt><trkpt lat="37.9783759438008" lon="14.287792852770382"><ele>241.4</ele><time>2026-04-09T11:01:55Z</time></trkpt><trkpt lat="37.97834897149051" lon="14.287929099766968"><ele>242.2</ele><time>2026-04-09T11:01:56Z</time></trkpt><trkpt lat="37.97832516004973" lon="14.288064769470678"><ele>243.0</ele><time>2026-04-09T11:01:57Z</time></trkpt><trkpt lat="37.978318254397735" lon="14.288195519612557"><ele>243.8</ele><time>2026-04-09T11:01:58Z</time></trkpt><trkpt lat="37.97832746531092" lon="14.288326950927214"><ele>244.60000000000002</ele><time>2026-04-09T11:01:59Z</time></trkpt><trkpt lat="37.97834533289482" lon="14.288450560788668"><ele>245.39999999999998</ele><time>2026-04-09T11:02:00Z</time></trkpt><trkpt lat="37.978365776260965" lon="14.288567830024078"><ele>246.2</ele><time>2026-04-09T11:02:01Z</time></trkpt><trkpt lat="37.97837333191061" lon="14.2886878678793"><ele>247.0</ele><time>2026-04-09T11:02:02Z</time></trkpt><trkpt lat="37.978356588603084" lon="14.288808801663693"><ele>246.99999999999997</ele><time>2026-04-09T11:02:03Z</time></trkpt><trkpt lat="37.97832748197089" lon="14.288915124789813"><ele>247.0</ele><time>2026-04-09T11:02:04Z</time></trkpt><trkpt lat="37.97828981534205" lon="14.289016145065585"><ele>247.0</ele><time>2026-04-09T11:02:05Z</time></trkpt><trkpt lat="37.97823910968549" lon="14.289106874918645"><ele>247.0</ele><time>2026-04-09T11:02:06Z</time></trkpt><trkpt lat="37.97817408187055" lon="14.289176481355128"><ele>246.99999999999997</ele><time>2026-04-09T11:02:07Z</time></trkpt><trkpt lat="37.97808945585114" lon="14.2892095269597"><ele>247.0</ele><time>2026-04-09T11:02:08Z</time></trkpt><trkpt lat="37.977998606047834" lon="14.289219465941288"><ele>247.6</ele><time>2026-04-09T11:02:09Z</time></trkpt><trkpt lat="37.977899387895775" lon="14.289216400383054"><ele>248.2</ele><time>2026-04-09T11:02:10Z</time></trkpt><trkpt lat="37.97779178122071" lon="14.28920803291385"><ele>248.8</ele><time>2026-04-09T11:02:11Z</time></trkpt><trkpt lat="37.97767932130959" lon="14.28920479210241"><ele>249.4</ele><time>2026-04-09T11:02:12Z</time></trkpt><trkpt lat="37.97756675591295" lon="14.289197840355314"><ele>250.0</ele><time>2026-04-09T11:02:13Z</time></trkpt><trkpt lat="37.977458180908435" lon="14.289194041412564"><ele>250.0</ele><time>2026-04-09T11:02:14Z</time></trkpt><trkpt lat="37.97735379549457" lon="14.28919091113364"><ele>250.0</ele><time>2026-04-09T11:02:15Z</time></trkpt><trkpt lat="37.97725408213196" lon="14.289179837763976"><ele>250.0</ele><time>2026-04-09T11:02:16Z</time></trkpt><trkpt lat="37.977162860222094" lon="14.289144073873658"><ele>250.0</ele><time>2026-04-09T11:02:17Z</time></trkpt><trkpt lat="37.977084987500525" lon="14.289063877694714"><ele>250.0</ele><time>2026-04-09T11:02:18Z</time></trkpt><trkpt lat="37.97704360116009" lon="14.288951430202404"><ele>247.6</ele><time>2026-04-09T11:02:19Z</time></trkpt><trkpt lat="37.976987111359286" lon="14.28886114480825"><ele>245.2</ele><time>2026-04-09T11:02:20Z</time></trkpt><trkpt lat="37.97693013434485" lon="14.288778332637758"><ele>242.8</ele><time>2026-04-09T11:02:21Z</time></trkpt><trkpt lat="37.97686306755521" lon="14.288692312343313"><ele>240.4</ele><time>2026-04-09T11:02:22Z</time></trkpt><trkpt lat="37.97677690514481" lon="14.28863090807949"><ele>238.0</ele><time>2026-04-09T11:02:23Z</time></trkpt><trkpt lat="37.97667972669029" lon="14.28860802295904"><ele>238.0</ele><time>2026-04-09T11:02:24Z</time></trkpt><trkpt lat="37.97658748188723" lon="14.288626379875524"><ele>238.0</ele><time>2026-04-09T11:02:25Z</time></trkpt><trkpt lat="37.97649747593671" lon="14.288678471301434"><ele>238.0</ele><time>2026-04-09T11:02:26Z</time></trkpt><trkpt lat="37.976410962953416" lon="14.28874988275503"><ele>238.0</ele><time>2026-04-09T11:02:27Z</time></trkpt><trkpt lat="37.97631516452504" lon="14.288813080998477"><ele>238.0</ele><time>2026-04-09T11:02:28Z</time></trkpt><trkpt lat="37.976206826737666" lon="14.288850210211034"><ele>238.0</ele><time>2026-04-09T11:02:29Z</time></trkpt><trkpt lat="37.97609111682087" lon="14.288873403786708"><ele>238.0</ele><time>2026-04-09T11:02:30Z</time></trkpt><trkpt lat="37.975975523491606" lon="14.288893322456005"><ele>238.0</ele><time>2026-04-09T11:02:31Z</time></trkpt><trkpt lat="37.975857022812235" lon="14.288915123010796"><ele>238.0</ele><time>2026-04-09T11:02:32Z</time></trkpt><trkpt lat="37.975742230239845" lon="14.288958411968917"><ele>244.0</ele><time>2026-04-09T11:02:33Z</time></trkpt><trkpt lat="37.97563637600814" lon="14.289009154428035"><ele>250.0</ele><time>2026-04-09T11:02:34Z</time></trkpt><trkpt lat="37.975529029539885" lon="14.289063217329414"><ele>256.0</ele><time>2026-04-09T11:02:35Z</time></trkpt><trkpt lat="37.975424926004166" lon="14.289107428792587"><ele>262.0</ele><time>2026-04-09T11:02:36Z</time></trkpt><trkpt lat="37.97531674206728" lon="14.28914510072844"><ele>262.0</ele><time>2026-04-09T11:02:37Z</time></trkpt><trkpt lat="37.975209227478054" lon="14.289176110890333"><ele>262.0</ele><time>2026-04-09T11:02:38Z</time></trkpt><trkpt lat="37.975103872733094" lon="14.289203132705005"><ele>262.0</ele><time>2026-04-09T11:02:39Z</time></trkpt><trkpt lat="37.9749920452814" lon="14.289213885658226"><ele>262.0</ele><time>2026-04-09T11:02:40Z</time></trkpt><trkpt lat="37.97487337981873" lon="14.289197016687545"><ele>262.0</ele><time>2026-04-09T11:02:41Z</time></trkpt><trkpt lat="37.97475284926728" lon="14.289146141950251"><ele>260.75</ele><time>2026-04-09T11:02:42Z</time></trkpt><trkpt lat="37.97463564911214" lon="14.289105943394905"><ele>259.5</ele><time>2026-04-09T11:02:43Z</time></trkpt><trkpt lat="37.97451504126682" lon="14.289075871599726"><ele>258.25</ele><time>2026-04-09T11:02:44Z</time></trkpt><trkpt lat="37.97439404637266" lon="14.28906945883037"><ele>257.0</ele><time>2026-04-09T11:02:45Z</time></trkpt><trkpt lat="37.974267383284044" lon="14.289099767147404"><ele>257.0</ele><time>2026-04-09T11:02:46Z</time></trkpt><trkpt lat="37.97414247720911" lon="14.289151118040946"><ele>257.0</ele><time>2026-04-09T11:02:47Z</time></trkpt><trkpt lat="37.97402281375688" lon="14.289208249458513"><ele>257.0</ele><time>2026-04-09T11:02:48Z</time></trkpt><trkpt lat="37.97390832989022" lon="14.289262175421296"><ele>257.0</ele><time>2026-04-09T11:02:49Z</time></trkpt><trkpt lat="37.97379586213439" lon="14.289319204964288"><ele>257.0</ele><time>2026-04-09T11:02:50Z</time></trkpt><trkpt lat="37.97368599914897" lon="14.289374848248961"><ele>257.0</ele><time>2026-04-09T11:02:51Z</time></trkpt><trkpt lat="37.97358438182901" lon="14.28942224337574"><ele>257.0</ele><time>2026-04-09T11:02:52Z</time></trkpt><trkpt lat="37.97349617838785" lon="14.2894652311997"><ele>257.0</ele><time>2026-04-09T11:02:53Z</time></trkpt><trkpt lat="37.973412349968626" lon="14.289513065719794"><ele>257.0</ele><time>2026-04-09T11:02:54Z</time></trkpt><trkpt lat="37.97333710350438" lon="14.289569268579065"><ele>255.8</ele><time>2026-04-09T11:02:55Z</time></trkpt><trkpt lat="37.97327541550167" lon="14.28965337177668"><ele>254.6</ele><time>2026-04-09T11:02:56Z</time></trkpt><trkpt lat="37.97323097862493" lon="14.289765313729696"><ele>253.40000000000003</ele><time>2026-04-09T11:02:57Z</time></trkpt><trkpt lat="37.973205330956326" lon="14.2898974033035"><ele>252.20000000000002</ele><time>2026-04-09T11:02:58Z</time></trkpt><trkpt lat="37.973189420438004" lon="14.290039584803548"><ele>251.0</ele><time>2026-04-09T11:02:59Z</time></trkpt><trkpt lat="37.97316723905698" lon="14.290183630989167"><ele>255.60000000000002</ele><time>2026-04-09T11:03:00Z</time></trkpt><trkpt lat="37.97314486782021" lon="14.290328592473053"><ele>260.20000000000005</ele><time>2026-04-09T11:03:01Z</time></trkpt><trkpt lat="37.973119001538954" lon="14.290471294636703"><ele>264.79999999999995</ele><time>2026-04-09T11:03:02Z</time></trkpt><trkpt lat="37.973102432915866" lon="14.290609022849443"><ele>269.4</ele><time>2026-04-09T11:03:03Z</time></trkpt><trkpt lat="37.973083433830894" lon="14.29074159275854"><ele>274.0</ele><time>2026-04-09T11:03:04Z</time></trkpt><trkpt lat="37.9730666389279" lon="14.290868104099463"><ele>275.2</ele><time>2026-04-09T11:03:05Z</time></trkpt><trkpt lat="37.97305226828" lon="14.290997951775793"><ele>276.4</ele><time>2026-04-09T11:03:06Z</time></trkpt><trkpt lat="37.973051262586985" lon="14.291135349808899"><ele>277.6</ele><time>2026-04-09T11:03:07Z</time></trkpt><trkpt lat="37.97306324928758" lon="14.291270873582109"><ele>278.8</ele><time>2026-04-09T11:03:08Z</time></trkpt><trkpt lat="37.97308091450576" lon="14.29139879497907"><ele>280.0</ele><time>2026-04-09T11:03:09Z</time></trkpt><trkpt lat="37.973094410585816" lon="14.291515230346166"><ele>280.8333333333333</ele><time>2026-04-09T11:03:10Z</time></trkpt><trkpt lat="37.9731029218311" lon="14.291622997907952"><ele>281.66666666666663</ele><time>2026-04-09T11:03:11Z</time></trkpt><trkpt lat="37.973093008416406" lon="14.291728063843223"><ele>282.5</ele><time>2026-04-09T11:03:12Z</time></trkpt><trkpt lat="37.973046488042606" lon="14.291809652841318"><ele>283.3333333333333</ele><time>2026-04-09T11:03:13Z</time></trkpt><trkpt lat="37.97297507999677" lon="14.291861303993356"><ele>284.1666666666667</ele><time>2026-04-09T11:03:14Z</time></trkpt><trkpt lat="37.97288656796645" lon="14.291877750173994"><ele>285.0</ele><time>2026-04-09T11:03:15Z</time></trkpt><trkpt lat="37.97279616504087" lon="14.29182583556109"><ele>285.0</ele><time>2026-04-09T11:03:16Z</time></trkpt><trkpt lat="37.97269106051357" lon="14.2917943237055"><ele>285.0</ele><time>2026-04-09T11:03:17Z</time></trkpt><trkpt lat="37.97258483720692" lon="14.291743931077962"><ele>285.0</ele><time>2026-04-09T11:03:18Z</time></trkpt><trkpt lat="37.97247527584467" lon="14.291702798028359"><ele>285.0</ele><time>2026-04-09T11:03:19Z</time></trkpt><trkpt lat="37.97237467881376" lon="14.29166199107448"><ele>285.0</ele><time>2026-04-09T11:03:20Z</time></trkpt><trkpt lat="37.97228415533069" lon="14.291616954235078"><ele>284.8</ele><time>2026-04-09T11:03:21Z</time></trkpt><trkpt lat="37.97220382304494" lon="14.2915433151564"><ele>284.6</ele><time>2026-04-09T11:03:22Z</time></trkpt><trkpt lat="37.97213811637365" lon="14.291451466942712"><ele>284.4</ele><time>2026-04-09T11:03:23Z</time></trkpt><trkpt lat="37.97208106959167" lon="14.291349313742703"><ele>284.2</ele><time>2026-04-09T11:03:24Z</time></trkpt><trkpt lat="37.972035197461004" lon="14.291235745316543"><ele>284.0</ele><time>2026-04-09T11:03:25Z</time></trkpt><trkpt lat="37.97199828830895" lon="14.291116208703736"><ele>281.2</ele><time>2026-04-09T11:03:26Z</time></trkpt><trkpt lat="37.97196498957002" lon="14.290995655787913"><ele>278.4</ele><time>2026-04-09T11:03:27Z</time></trkpt><trkpt lat="37.97192582056176" lon="14.290881136649537"><ele>275.6</ele><time>2026-04-09T11:03:28Z</time></trkpt><trkpt lat="37.97188983087616" lon="14.29077201850398"><ele>272.8</ele><time>2026-04-09T11:03:29Z</time></trkpt><trkpt lat="37.971857612319454" lon="14.29067634993314"><ele>270.0</ele><time>2026-04-09T11:03:30Z</time></trkpt><trkpt lat="37.97181975521209" lon="14.290576731183448"><ele>269.8333333333333</ele><time>2026-04-09T11:03:31Z</time></trkpt><trkpt lat="37.97178322311944" lon="14.290497470062883"><ele>269.6666666666667</ele><time>2026-04-09T11:03:32Z</time></trkpt><trkpt lat="37.971725259026854" lon="14.290412381501882"><ele>269.5</ele><time>2026-04-09T11:03:34Z</time></trkpt><trkpt lat="37.97165372959989" lon="14.290441429351247"><ele>269.33333333333337</ele><time>2026-04-09T11:12:56Z</time></trkpt><trkpt lat="37.9715834462419" lon="14.290460349062633"><ele>269.1666666666667</ele><time>2026-04-09T11:12:59Z</time></trkpt><trkpt lat="37.97150420538727" lon="14.290490868008497"><ele>269.0</ele><time>2026-04-09T11:13:02Z</time></trkpt><trkpt lat="37.971435903497444" lon="14.290573654474974"><ele>272.2</ele><time>2026-04-09T11:13:05Z</time></trkpt><trkpt lat="37.971362763630616" lon="14.290650094351491"><ele>275.4</ele><time>2026-04-09T11:13:07Z</time></trkpt><trkpt lat="37.97127079720203" lon="14.290785591945633"><ele>278.6</ele><time>2026-04-09T11:13:09Z</time></trkpt><trkpt lat="37.971239959192374" lon="14.290877304344594"><ele>281.8</ele><time>2026-04-09T11:13:10Z</time></trkpt><trkpt lat="37.97121003201558" lon="14.290977554276221"><ele>285.0</ele><time>2026-04-09T11:13:11Z</time></trkpt><trkpt lat="37.97118706522126" lon="14.29108522927535"><ele>285.0</ele><time>2026-04-09T11:13:12Z</time></trkpt><trkpt lat="37.97117764112525" lon="14.291197590396207"><ele>285.0</ele><time>2026-04-09T11:13:13Z</time></trkpt><trkpt lat="37.97117732500291" lon="14.291312297146147"><ele>285.0</ele><time>2026-04-09T11:13:14Z</time></trkpt><trkpt lat="37.971205732905986" lon="14.291424633628129"><ele>285.0</ele><time>2026-04-09T11:13:15Z</time></trkpt><trkpt lat="37.97123831669266" lon="14.291533257834983"><ele>285.0</ele><time>2026-04-09T11:13:16Z</time></trkpt><trkpt lat="37.97127561127395" lon="14.291638917271365"><ele>287.2</ele><time>2026-04-09T11:13:17Z</time></trkpt><trkpt lat="37.97131022539667" lon="14.291745453825623"><ele>289.4</ele><time>2026-04-09T11:13:18Z</time></trkpt><trkpt lat="37.971348322138354" lon="14.291851276853414"><ele>291.6</ele><time>2026-04-09T11:13:19Z</time></trkpt><trkpt lat="37.971386799155624" lon="14.29195829661509"><ele>293.8</ele><time>2026-04-09T11:13:20Z</time></trkpt><trkpt lat="37.97142722322902" lon="14.292067785395474"><ele>296.0</ele><time>2026-04-09T11:13:21Z</time></trkpt><trkpt lat="37.97146962158787" lon="14.29218035150504"><ele>297.2</ele><time>2026-04-09T11:13:22Z</time></trkpt><trkpt lat="37.97151322429871" lon="14.292291770483276"><ele>298.40000000000003</ele><time>2026-04-09T11:13:23Z</time></trkpt><trkpt lat="37.971557149589735" lon="14.292403329826026"><ele>299.6</ele><time>2026-04-09T11:13:24Z</time></trkpt><trkpt lat="37.9716013769364" lon="14.292511961631252"><ele>300.8</ele><time>2026-04-09T11:13:25Z</time></trkpt><trkpt lat="37.97164536009603" lon="14.29260932797903"><ele>302.0</ele><time>2026-04-09T11:13:26Z</time></trkpt><trkpt lat="37.97167365331448" lon="14.29270128744743"><ele>302.0</ele><time>2026-04-09T11:13:27Z</time></trkpt><trkpt lat="37.971684690751026" lon="14.292799856624185"><ele>302.0</ele><time>2026-04-09T11:13:28Z</time></trkpt><trkpt lat="37.971661801893156" lon="14.292898682451977"><ele>302.0</ele><time>2026-04-09T11:13:29Z</time></trkpt><trkpt lat="37.97157154350197" lon="14.293030792680437"><ele>302.0</ele><time>2026-04-09T11:13:31Z</time></trkpt><trkpt lat="37.97148765523758" lon="14.29306938905586"><ele>302.0</ele><time>2026-04-09T11:13:32Z</time></trkpt><trkpt lat="37.97140080662444" lon="14.293086435583422"><ele>302.0</ele><time>2026-04-09T11:13:33Z</time></trkpt><trkpt lat="37.971301437675486" lon="14.293084920215152"><ele>302.0</ele><time>2026-04-09T11:13:34Z</time></trkpt><trkpt lat="37.971198654321455" lon="14.293057798509087"><ele>302.0</ele><time>2026-04-09T11:13:35Z</time></trkpt><trkpt lat="37.97109666580813" lon="14.293043156326926"><ele>302.0</ele><time>2026-04-09T11:13:36Z</time></trkpt><trkpt lat="37.971003026263325" lon="14.29304510619451"><ele>302.0</ele><time>2026-04-09T11:13:37Z</time></trkpt><trkpt lat="37.97091865578581" lon="14.293061602720012"><ele>305.2</ele><time>2026-04-09T11:13:38Z</time></trkpt><trkpt lat="37.97083344432416" lon="14.293107766650287"><ele>308.4</ele><time>2026-04-09T11:13:39Z</time></trkpt><trkpt lat="37.970753761561426" lon="14.293184983539758"><ele>311.6</ele><time>2026-04-09T11:13:40Z</time></trkpt><trkpt lat="37.97067520838666" lon="14.293264369984712"><ele>314.8</ele><time>2026-04-09T11:13:41Z</time></trkpt><trkpt lat="37.97059560177308" lon="14.293341025133246"><ele>318.0</ele><time>2026-04-09T11:13:42Z</time></trkpt><trkpt lat="37.97051853001055" lon="14.293411675519035"><ele>318.0</ele><time>2026-04-09T11:13:43Z</time></trkpt><trkpt lat="37.97044287285816" lon="14.293472313361525"><ele>318.0</ele><time>2026-04-09T11:13:44Z</time></trkpt><trkpt lat="37.97035503174268" lon="14.293517622974884"><ele>318.0</ele><time>2026-04-09T11:13:45Z</time></trkpt><trkpt lat="37.970257076384804" lon="14.293536799203997"><ele>318.0</ele><time>2026-04-09T11:13:46Z</time></trkpt><trkpt lat="37.970154505100744" lon="14.293530902263662"><ele>318.0</ele><time>2026-04-09T11:13:47Z</time></trkpt><trkpt lat="37.97005365459337" lon="14.29352074740164"><ele>317.6</ele><time>2026-04-09T11:13:48Z</time></trkpt><trkpt lat="37.969951713077336" lon="14.293511930602964"><ele>317.20000000000005</ele><time>2026-04-09T11:13:49Z</time></trkpt><trkpt lat="37.96985315970158" lon="14.293492834934824"><ele>316.8</ele><time>2026-04-09T11:13:50Z</time></trkpt><trkpt lat="37.96975911722316" lon="14.293454460262495"><ele>316.40000000000003</ele><time>2026-04-09T11:13:51Z</time></trkpt><trkpt lat="37.96967487905793" lon="14.293396703427154"><ele>316.0</ele><time>2026-04-09T11:13:52Z</time></trkpt><trkpt lat="37.9695963594685" lon="14.293338653159697"><ele>316.0</ele><time>2026-04-09T11:13:53Z</time></trkpt><trkpt lat="37.96951823277028" lon="14.293304095141009"><ele>316.0</ele><time>2026-04-09T11:13:54Z</time></trkpt><trkpt lat="37.969447152462706" lon="14.293308241663567"><ele>316.0</ele><time>2026-04-09T11:13:55Z</time></trkpt><trkpt lat="37.96936906356994" lon="14.293349373873431"><ele>316.0</ele><time>2026-04-09T11:13:56Z</time></trkpt><trkpt lat="37.96930669420618" lon="14.293411844699328"><ele>316.0</ele><time>2026-04-09T11:13:57Z</time></trkpt><trkpt lat="37.96927100926874" lon="14.293482886893056"><ele>316.0</ele><time>2026-04-09T11:13:58Z</time></trkpt><trkpt lat="37.96927521311551" lon="14.293644520521536"><ele>316.0</ele><time>2026-04-09T11:14:00Z</time></trkpt><trkpt lat="37.96929006696867" lon="14.293729439497733"><ele>316.0</ele><time>2026-04-09T11:14:01Z</time></trkpt><trkpt lat="37.96945485865835" lon="14.29380062856815"><ele>316.0</ele><time>2026-04-09T11:14:03Z</time></trkpt><trkpt lat="37.969541948843144" lon="14.293803160378614"><ele>316.0</ele><time>2026-04-09T11:14:04Z</time></trkpt><trkpt lat="37.96963148832081" lon="14.293798069212261"><ele>316.0</ele><time>2026-04-09T11:14:05Z</time></trkpt><trkpt lat="37.969728978758894" lon="14.293795963206415"><ele>316.0</ele><time>2026-04-09T11:14:06.001Z</time></trkpt><trkpt lat="37.96982900013782" lon="14.293797324322927"><ele>316.0</ele><time>2026-04-09T11:14:07.001Z</time></trkpt><trkpt lat="37.969940299209476" lon="14.293811293658804"><ele>316.0</ele><time>2026-04-09T11:14:08.001Z</time></trkpt><trkpt lat="37.97005601184867" lon="14.293832014317294"><ele>316.0</ele><time>2026-04-09T11:14:09.001Z</time></trkpt><trkpt lat="37.970175420410655" lon="14.293861659472142"><ele>316.5</ele><time>2026-04-09T11:14:10.001Z</time></trkpt><trkpt lat="37.97029696511325" lon="14.293889398240575"><ele>317.0</ele><time>2026-04-09T11:14:11.001Z</time></trkpt><trkpt lat="37.97042015080797" lon="14.293906486442058"><ele>317.5</ele><time>2026-04-09T11:14:12.001Z</time></trkpt><trkpt lat="37.97054467544009" lon="14.293910488325158"><ele>318.0</ele><time>2026-04-09T11:14:13.001Z</time></trkpt><trkpt lat="37.97067516878411" lon="14.293896650437082"><ele>318.0</ele><time>2026-04-09T11:14:14.001Z</time></trkpt><trkpt lat="37.970802838566485" lon="14.293882757878158"><ele>318.0</ele><time>2026-04-09T11:14:15.001Z</time></trkpt><trkpt lat="37.97092585762082" lon="14.293870800301509"><ele>318.0</ele><time>2026-04-09T11:14:16.001Z</time></trkpt><trkpt lat="37.97104189312461" lon="14.293858726883226"><ele>318.0</ele><time>2026-04-09T11:14:17.001Z</time></trkpt><trkpt lat="37.97114356003758" lon="14.293854593096649"><ele>318.0</ele><time>2026-04-09T11:14:18.001Z</time></trkpt><trkpt lat="37.971234823005425" lon="14.293893531368553"><ele>318.0</ele><time>2026-04-09T11:14:19.001Z</time></trkpt><trkpt lat="37.971317552616895" lon="14.293972605860901"><ele>318.0</ele><time>2026-04-09T11:14:20.001Z</time></trkpt><trkpt lat="37.97138286712194" lon="14.294072315148478"><ele>318.0</ele><time>2026-04-09T11:14:21.001Z</time></trkpt><trkpt lat="37.97143117152712" lon="14.294185928079429"><ele>318.0</ele><time>2026-04-09T11:14:22.001Z</time></trkpt><trkpt lat="37.97146256438201" lon="14.294303761425668"><ele>322.4</ele><time>2026-04-09T11:14:23.001Z</time></trkpt><trkpt lat="37.97148575035439" lon="14.294417936982576"><ele>326.8</ele><time>2026-04-09T11:14:24.001Z</time></trkpt><trkpt lat="37.97152029662948" lon="14.29452195818884"><ele>331.2</ele><time>2026-04-09T11:14:25.001Z</time></trkpt><trkpt lat="37.971566542275674" lon="14.294614016232297"><ele>335.6</ele><time>2026-04-09T11:14:26.001Z</time></trkpt><trkpt lat="37.97163200188035" lon="14.294696311123335"><ele>340.0</ele><time>2026-04-09T11:14:27.001Z</time></trkpt><trkpt lat="37.97171170323325" lon="14.294753612083465"><ele>341.4</ele><time>2026-04-09T11:14:28.001Z</time></trkpt><trkpt lat="37.97179981911957" lon="14.294777365256977"><ele>342.8</ele><time>2026-04-09T11:14:29.001Z</time></trkpt><trkpt lat="37.97189097593167" lon="14.294760531200616"><ele>344.20000000000005</ele><time>2026-04-09T11:14:30.001Z</time></trkpt><trkpt lat="37.971979806981714" lon="14.294722061630557"><ele>345.6</ele><time>2026-04-09T11:14:31.001Z</time></trkpt><trkpt lat="37.97205200125923" lon="14.294655670833912"><ele>347.0</ele><time>2026-04-09T11:14:32.001Z</time></trkpt><trkpt lat="37.972115104381366" lon="14.294565697912331"><ele>347.0</ele><time>2026-04-09T11:14:32.998Z</time></trkpt><trkpt lat="37.972169219805274" lon="14.294474263779385"><ele>347.0</ele><time>2026-04-09T11:14:33.998Z</time></trkpt><trkpt lat="37.97222665386152" lon="14.294395927662594"><ele>347.0</ele><time>2026-04-09T11:14:34.998Z</time></trkpt><trkpt lat="37.9722984667975" lon="14.294328604155371"><ele>347.0</ele><time>2026-04-09T11:14:35.998Z</time></trkpt><trkpt lat="37.97238101171865" lon="14.294276523057798"><ele>347.0</ele><time>2026-04-09T11:14:36.998Z</time></trkpt><trkpt lat="37.972464156438534" lon="14.294245473574104"><ele>347.0</ele><time>2026-04-09T11:14:37.998Z</time></trkpt><trkpt lat="37.97254081052119" lon="14.294246614412678"><ele>347.0</ele><time>2026-04-09T11:14:38.998Z</time></trkpt><trkpt lat="37.97260799505704" lon="14.29429577093801"><ele>347.0</ele><time>2026-04-09T11:14:39.998Z</time></trkpt><trkpt lat="37.97265693515545" lon="14.294448612194167"><ele>347.0</ele><time>2026-04-09T11:14:41.999Z</time></trkpt><trkpt lat="37.97263160083236" lon="14.294540697351275"><ele>347.0</ele><time>2026-04-09T11:14:42.999Z</time></trkpt><trkpt lat="37.97257655826284" lon="14.29462474003945"><ele>347.0</ele><time>2026-04-09T11:14:43.999Z</time></trkpt><trkpt lat="37.97249861945183" lon="14.294697823238833"><ele>350.8</ele><time>2026-04-09T11:14:44.999Z</time></trkpt><trkpt lat="37.97241590970561" lon="14.29475568531959"><ele>354.6</ele><time>2026-04-09T11:14:45.999Z</time></trkpt><trkpt lat="37.9723313608559" lon="14.294829710069179"><ele>358.40000000000003</ele><time>2026-04-09T11:14:46.999Z</time></trkpt><trkpt lat="37.97225556535203" lon="14.294922281333912"><ele>362.20000000000005</ele><time>2026-04-09T11:14:47.999Z</time></trkpt><trkpt lat="37.97219808950342" lon="14.295033546151098"><ele>366.0</ele><time>2026-04-09T11:14:48.999Z</time></trkpt><trkpt lat="37.97215983323011" lon="14.295156106240185"><ele>366.0</ele><time>2026-04-09T11:14:49.999Z</time></trkpt><trkpt lat="37.97212438866419" lon="14.295286624355908"><ele>366.0</ele><time>2026-04-09T11:14:50.999Z</time></trkpt><trkpt lat="37.972068859474724" lon="14.295403786958724"><ele>366.0</ele><time>2026-04-09T11:14:51.999Z</time></trkpt><trkpt lat="37.9720044722332" lon="14.295509467466568"><ele>366.0</ele><time>2026-04-09T11:14:52.999Z</time></trkpt><trkpt lat="37.97193587251508" lon="14.295599912512666"><ele>366.0</ele><time>2026-04-09T11:14:53.999Z</time></trkpt><trkpt lat="37.97186705949406" lon="14.295678829899082"><ele>367.0</ele><time>2026-04-09T11:14:54.999Z</time></trkpt><trkpt lat="37.97179149414467" lon="14.295751369865329"><ele>368.0</ele><time>2026-04-09T11:14:55.999Z</time></trkpt><trkpt lat="37.971709191044155" lon="14.295818468599482"><ele>369.0</ele><time>2026-04-09T11:14:56.999Z</time></trkpt><trkpt lat="37.97162018271686" lon="14.295853375669482"><ele>370.0</ele><time>2026-04-09T11:14:57.999Z</time></trkpt><trkpt lat="37.97152599069099" lon="14.29585825014778"><ele>371.0</ele><time>2026-04-09T11:14:58.999Z</time></trkpt><trkpt lat="37.97142995028073" lon="14.295851978473115"><ele>371.0</ele><time>2026-04-09T11:14:59.999Z</time></trkpt><trkpt lat="37.971329237247375" lon="14.295839683439528"><ele>371.0</ele><time>2026-04-09T11:15:00.999Z</time></trkpt><trkpt lat="37.97122372256177" lon="14.295817879325103"><ele>371.0</ele><time>2026-04-09T11:15:01.999Z</time></trkpt><trkpt lat="37.971114363012475" lon="14.295793443406703"><ele>371.0</ele><time>2026-04-09T11:15:02.999Z</time></trkpt><trkpt lat="37.97100127726816" lon="14.295773128556945"><ele>371.0</ele><time>2026-04-09T11:15:03.999Z</time></trkpt><trkpt lat="37.970886147259165" lon="14.295749331782593"><ele>372.75</ele><time>2026-04-09T11:15:04.999Z</time></trkpt><trkpt lat="37.97076260528962" lon="14.295729090505226"><ele>374.5</ele><time>2026-04-09T11:15:05.999Z</time></trkpt><trkpt lat="37.97064490466415" lon="14.295705979613404"><ele>376.25</ele><time>2026-04-09T11:15:06.999Z</time></trkpt><trkpt lat="37.970530461110016" lon="14.295687790812826"><ele>378.0</ele><time>2026-04-09T11:15:07.999Z</time></trkpt><trkpt lat="37.97042455331995" lon="14.295675110253038"><ele>378.0</ele><time>2026-04-09T11:15:08.999Z</time></trkpt><trkpt lat="37.97032542925602" lon="14.295669559910406"><ele>378.0</ele><time>2026-04-09T11:15:09.999Z</time></trkpt><trkpt lat="37.970237988185076" lon="14.295650081762933"><ele>378.0</ele><time>2026-04-09T11:15:10.999Z</time></trkpt><trkpt lat="37.97015407449972" lon="14.295651028488946"><ele>378.0</ele><time>2026-04-09T11:15:11.999Z</time></trkpt><trkpt lat="37.97007588731487" lon="14.295681972050126"><ele>378.0</ele><time>2026-04-09T11:15:12.999Z</time></trkpt><trkpt lat="37.97000838638311" lon="14.295746667495573"><ele>378.0</ele><time>2026-04-09T11:15:13.999Z</time></trkpt><trkpt lat="37.96995454100893" lon="14.295837735072135"><ele>378.4</ele><time>2026-04-09T11:15:15Z</time></trkpt><trkpt lat="37.96989729853037" lon="14.295933776632726"><ele>378.79999999999995</ele><time>2026-04-09T11:15:16Z</time></trkpt><trkpt lat="37.96983407578401" lon="14.29603198750482"><ele>379.2</ele><time>2026-04-09T11:15:17Z</time></trkpt><trkpt lat="37.96977637762518" lon="14.29613946176226"><ele>379.6</ele><time>2026-04-09T11:15:18Z</time></trkpt><trkpt lat="37.969715219605845" lon="14.296246718053997"><ele>380.0</ele><time>2026-04-09T11:15:19Z</time></trkpt><trkpt lat="37.96965542449752" lon="14.296354605258877"><ele>381.8</ele><time>2026-04-09T11:15:20Z</time></trkpt><trkpt lat="37.96959816920638" lon="14.296461710435427"><ele>383.6</ele><time>2026-04-09T11:15:21Z</time></trkpt><trkpt lat="37.969538327984964" lon="14.29656435646132"><ele>385.4</ele><time>2026-04-09T11:15:22Z</time></trkpt><trkpt lat="37.96948285214682" lon="14.296667338418331"><ele>387.2</ele><time>2026-04-09T11:15:23Z</time></trkpt><trkpt lat="37.96943554976679" lon="14.296776776531717"><ele>389.0</ele><time>2026-04-09T11:15:24Z</time></trkpt><trkpt lat="37.969401023603595" lon="14.29689542109842"><ele>389.0</ele><time>2026-04-09T11:15:25Z</time></trkpt><trkpt lat="37.969383499941955" lon="14.297023864081462"><ele>389.0</ele><time>2026-04-09T11:15:26Z</time></trkpt><trkpt lat="37.96936952122085" lon="14.297152301495302"><ele>389.0</ele><time>2026-04-09T11:15:27Z</time></trkpt><trkpt lat="37.96935441425514" lon="14.297280644684266"><ele>389.0</ele><time>2026-04-09T11:15:28Z</time></trkpt><trkpt lat="37.96933848938294" lon="14.297406902549524"><ele>389.0</ele><time>2026-04-09T11:15:29Z</time></trkpt><trkpt lat="37.969326262414484" lon="14.297534463154818"><ele>389.4</ele><time>2026-04-09T11:15:30Z</time></trkpt><trkpt lat="37.9693082527261" lon="14.297654758570772"><ele>389.79999999999995</ele><time>2026-04-09T11:15:31Z</time></trkpt><trkpt lat="37.96927290163532" lon="14.297767980306945"><ele>390.20000000000005</ele><time>2026-04-09T11:15:32Z</time></trkpt><trkpt lat="37.96921137683444" lon="14.297862159112153"><ele>390.6</ele><time>2026-04-09T11:15:33Z</time></trkpt><trkpt lat="37.9691204369193" lon="14.297911984230504"><ele>391.0</ele><time>2026-04-09T11:15:34Z</time></trkpt><trkpt lat="37.96904275968226" lon="14.29798519531654"><ele>391.00000000000006</ele><time>2026-04-09T11:15:35Z</time></trkpt><trkpt lat="37.96896406257247" lon="14.298038100022948"><ele>391.0</ele><time>2026-04-09T11:15:36Z</time></trkpt><trkpt lat="37.96891534386021" lon="14.298100802989044"><ele>391.0</ele><time>2026-04-09T11:15:37Z</time></trkpt><trkpt lat="37.968889357038016" lon="14.298180400295195"><ele>391.0</ele><time>2026-04-09T11:15:38Z</time></trkpt><trkpt lat="37.96889018955408" lon="14.29828172401196"><ele>391.00000000000006</ele><time>2026-04-09T11:15:39Z</time></trkpt><trkpt lat="37.968907768351194" lon="14.298381904218106"><ele>391.0</ele><time>2026-04-09T11:15:40Z</time></trkpt><trkpt lat="37.96895678766101" lon="14.298469540919358"><ele>392.6</ele><time>2026-04-09T11:15:41Z</time></trkpt><trkpt lat="37.96903278250376" lon="14.298533665882"><ele>394.20000000000005</ele><time>2026-04-09T11:15:42Z</time></trkpt><trkpt lat="37.96912834737374" lon="14.298549092140874"><ele>395.79999999999995</ele><time>2026-04-09T11:15:43Z</time></trkpt><trkpt lat="37.96922596333318" lon="14.298512934790258"><ele>397.4</ele><time>2026-04-09T11:15:44Z</time></trkpt><trkpt lat="37.969309259539735" lon="14.298433531846774"><ele>399.0</ele><time>2026-04-09T11:15:45Z</time></trkpt><trkpt lat="37.96938430552012" lon="14.29837648033777"><ele>399.5</ele><time>2026-04-09T11:15:46Z</time></trkpt><trkpt lat="37.96945594484588" lon="14.298326489816363"><ele>400.0</ele><time>2026-04-09T11:15:47Z</time></trkpt><trkpt lat="37.96952860023463" lon="14.298275129977917"><ele>400.5</ele><time>2026-04-09T11:15:48Z</time></trkpt><trkpt lat="37.96959757142493" lon="14.298223657526785"><ele>401.0</ele><time>2026-04-09T11:15:49Z</time></trkpt><trkpt lat="37.9696857999508" lon="14.29818422016175"><ele>401.5</ele><time>2026-04-09T11:15:50Z</time></trkpt><trkpt lat="37.96976176069511" lon="14.298111972659312"><ele>402.0</ele><time>2026-04-09T11:15:51Z</time></trkpt><trkpt lat="37.969849392680786" lon="14.298059421439467"><ele>402.0</ele><time>2026-04-09T11:15:52Z</time></trkpt><trkpt lat="37.96993081547028" lon="14.298003968715356"><ele>402.0</ele><time>2026-04-09T11:15:53Z</time></trkpt><trkpt lat="37.97001719439349" lon="14.297950144059952"><ele>402.0</ele><time>2026-04-09T11:15:54Z</time></trkpt><trkpt lat="37.97011553311406" lon="14.297907002319663"><ele>402.0</ele><time>2026-04-09T11:15:55Z</time></trkpt><trkpt lat="37.97021929439938" lon="14.29787885282953"><ele>402.0</ele><time>2026-04-09T11:15:56Z</time></trkpt><trkpt lat="37.970323281952" lon="14.297870573494704"><ele>403.0</ele><time>2026-04-09T11:15:57Z</time></trkpt><trkpt lat="37.97042216699234" lon="14.297861333188697"><ele>404.0</ele><time>2026-04-09T11:15:58Z</time></trkpt><trkpt lat="37.97052015871945" lon="14.297857506801162"><ele>405.0</ele><time>2026-04-09T11:15:59Z</time></trkpt><trkpt lat="37.97062147464148" lon="14.297858195160448"><ele>406.0</ele><time>2026-04-09T11:16:00Z</time></trkpt><trkpt lat="37.970713549920426" lon="14.297855848405453"><ele>407.0</ele><time>2026-04-09T11:16:01Z</time></trkpt><trkpt lat="37.97080100397426" lon="14.297858828329064"><ele>405.99999999999994</ele><time>2026-04-09T11:16:02Z</time></trkpt><trkpt lat="37.97089164585923" lon="14.297865643634932"><ele>405.0</ele><time>2026-04-09T11:16:03Z</time></trkpt><trkpt lat="37.97097496007343" lon="14.297876609373034"><ele>404.0</ele><time>2026-04-09T11:16:04Z</time></trkpt><trkpt lat="37.97106071611335" lon="14.297902679924176"><ele>403.0</ele><time>2026-04-09T11:16:05Z</time></trkpt><trkpt lat="37.971131301120174" lon="14.297974456252943"><ele>401.99999999999994</ele><time>2026-04-09T11:16:06Z</time></trkpt><trkpt lat="37.9712121358424" lon="14.298014809375063"><ele>401.0</ele><time>2026-04-09T11:16:07Z</time></trkpt><trkpt lat="37.97128913298026" lon="14.29808518343746"><ele>404.8</ele><time>2026-04-09T11:16:08Z</time></trkpt><trkpt lat="37.97136570100687" lon="14.298148877358988"><ele>408.6</ele><time>2026-04-09T11:16:09Z</time></trkpt><trkpt lat="37.971445771832286" lon="14.298208917054064"><ele>412.4</ele><time>2026-04-09T11:16:10Z</time></trkpt><trkpt lat="37.97152432732643" lon="14.298263550083531"><ele>416.2</ele><time>2026-04-09T11:16:11Z</time></trkpt><trkpt lat="37.97160036689662" lon="14.298316570595103"><ele>420.0</ele><time>2026-04-09T11:16:12Z</time></trkpt><trkpt lat="37.9716824954344" lon="14.298361385691754"><ele>422.2</ele><time>2026-04-09T11:16:13Z</time></trkpt><trkpt lat="37.97177550975724" lon="14.29839330351403"><ele>424.4</ele><time>2026-04-09T11:16:14Z</time></trkpt><trkpt lat="37.97187975459965" lon="14.298414804737146"><ele>426.6</ele><time>2026-04-09T11:16:15Z</time></trkpt><trkpt lat="37.97198645630423" lon="14.298437673583743"><ele>428.8</ele><time>2026-04-09T11:16:16Z</time></trkpt><trkpt lat="37.97208963009266" lon="14.298455389719683"><ele>431.0</ele><time>2026-04-09T11:16:17Z</time></trkpt><trkpt lat="37.972195658647735" lon="14.298457651000065"><ele>431.0</ele><time>2026-04-09T11:16:18Z</time></trkpt><trkpt lat="37.972299887256874" lon="14.298418029263898"><ele>431.0</ele><time>2026-04-09T11:16:19Z</time></trkpt><trkpt lat="37.972405086663485" lon="14.298361080313423"><ele>431.0</ele><time>2026-04-09T11:16:20Z</time></trkpt><trkpt lat="37.97250810253928" lon="14.298273867652346"><ele>431.0</ele><time>2026-04-09T11:16:21Z</time></trkpt><trkpt lat="37.972612721079116" lon="14.298183116138143"><ele>430.0</ele><time>2026-04-09T11:16:22Z</time></trkpt><trkpt lat="37.9727193768128" lon="14.29808084895373"><ele>429.0</ele><time>2026-04-09T11:16:23Z</time></trkpt><trkpt lat="37.972818499146605" lon="14.297998612006205"><ele>428.0</ele><time>2026-04-09T11:16:24Z</time></trkpt><trkpt lat="37.972926123419604" lon="14.297927528976965"><ele>427.0</ele><time>2026-04-09T11:16:25Z</time></trkpt><trkpt lat="37.97302637110714" lon="14.29785645797052"><ele>427.0</ele><time>2026-04-09T11:16:26.001Z</time></trkpt><trkpt lat="37.97311913801656" lon="14.297786020895789"><ele>427.00000000000006</ele><time>2026-04-09T11:16:27.001Z</time></trkpt><trkpt lat="37.97321159326783" lon="14.29772141113945"><ele>427.00000000000006</ele><time>2026-04-09T11:16:28.001Z</time></trkpt><trkpt lat="37.973306557167334" lon="14.297673357383962"><ele>427.0</ele><time>2026-04-09T11:16:29.001Z</time></trkpt><trkpt lat="37.973407779782086" lon="14.29764914270699"><ele>427.0</ele><time>2026-04-09T11:16:30.001Z</time></trkpt><trkpt lat="37.973513019141755" lon="14.29768988886852"><ele>429.5</ele><time>2026-04-09T11:16:31.001Z</time></trkpt><trkpt lat="37.973621985813665" lon="14.297734720715692"><ele>432.0</ele><time>2026-04-09T11:16:32.001Z</time></trkpt><trkpt lat="37.97374251475888" lon="14.29777539153431"><ele>434.5</ele><time>2026-04-09T11:16:33.001Z</time></trkpt><trkpt lat="37.97385539286223" lon="14.297806261707235"><ele>437.0</ele><time>2026-04-09T11:16:34.001Z</time></trkpt><trkpt lat="37.97396841790211" lon="14.297782761625893"><ele>437.0</ele><time>2026-04-09T11:16:35.001Z</time></trkpt><trkpt lat="37.97408538218661" lon="14.29773945076553"><ele>437.0</ele><time>2026-04-09T11:16:36.001Z</time></trkpt><trkpt lat="37.97419904159279" lon="14.29766870922739"><ele>437.0</ele><time>2026-04-09T11:16:37.001Z</time></trkpt><trkpt lat="37.974305163403436" lon="14.297585670674954"><ele>437.0</ele><time>2026-04-09T11:16:38.001Z</time></trkpt><trkpt lat="37.974411982275235" lon="14.29750753256568"><ele>437.20000000000005</ele><time>2026-04-09T11:16:38.998Z</time></trkpt><trkpt lat="37.97451172648607" lon="14.29743167162297"><ele>437.40000000000003</ele><time>2026-04-09T11:16:39.998Z</time></trkpt><trkpt lat="37.974611166362756" lon="14.297368975539076"><ele>437.59999999999997</ele><time>2026-04-09T11:16:40.998Z</time></trkpt><trkpt lat="37.97470516378878" lon="14.297292618017952"><ele>437.79999999999995</ele><time>2026-04-09T11:16:41.998Z</time></trkpt><trkpt lat="37.97479340362871" lon="14.297212397164575"><ele>438.0</ele><time>2026-04-09T11:16:42.998Z</time></trkpt><trkpt lat="37.97486848102382" lon="14.297110551170952"><ele>438.0</ele><time>2026-04-09T11:16:43.998Z</time></trkpt><trkpt lat="37.974942222813475" lon="14.29700536002448"><ele>437.99999999999994</ele><time>2026-04-09T11:16:44.998Z</time></trkpt><trkpt lat="37.97501598092025" lon="14.296905326661543"><ele>437.99999999999994</ele><time>2026-04-09T11:16:45.998Z</time></trkpt><trkpt lat="37.97508482150599" lon="14.296828896894139"><ele>438.0</ele><time>2026-04-09T11:16:46.998Z</time></trkpt><trkpt lat="37.975158335706396" lon="14.296769349368567"><ele>438.0</ele><time>2026-04-09T11:16:47.998Z</time></trkpt><trkpt lat="37.975255754661625" lon="14.296761218256693"><ele>440.2</ele><time>2026-04-09T11:16:48.998Z</time></trkpt><trkpt lat="37.97535524105297" lon="14.296751793751419"><ele>442.4</ele><time>2026-04-09T11:16:49.999Z</time></trkpt><trkpt lat="37.97546348321971" lon="14.296763547796925"><ele>444.59999999999997</ele><time>2026-04-09T11:16:50.999Z</time></trkpt><trkpt lat="37.97557959576877" lon="14.296761807376084"><ele>446.79999999999995</ele><time>2026-04-09T11:16:51.999Z</time></trkpt><trkpt lat="37.97569349793965" lon="14.296773587890769"><ele>449.0</ele><time>2026-04-09T11:16:52.999Z</time></trkpt><trkpt lat="37.975802811401024" lon="14.296781657492561"><ele>452.6</ele><time>2026-04-09T11:16:53.999Z</time></trkpt><trkpt lat="37.97591249526855" lon="14.296791519013409"><ele>456.2</ele><time>2026-04-09T11:16:54.999Z</time></trkpt><trkpt lat="37.97601258454596" lon="14.296798847261837"><ele>459.80000000000007</ele><time>2026-04-09T11:16:55.999Z</time></trkpt><trkpt lat="37.97610534772079" lon="14.296806961792516"><ele>463.40000000000003</ele><time>2026-04-09T11:16:56.999Z</time></trkpt><trkpt lat="37.97620332505523" lon="14.296820077948338"><ele>467.0</ele><time>2026-04-09T11:16:57.999Z</time></trkpt><trkpt lat="37.97629814156598" lon="14.296810032363867"><ele>467.0</ele><time>2026-04-09T11:16:58.999Z</time></trkpt><trkpt lat="37.976391771761335" lon="14.296767371236452"><ele>467.00000000000006</ele><time>2026-04-09T11:16:59.999Z</time></trkpt><trkpt lat="37.976468703579194" lon="14.296696886789256"><ele>467.00000000000006</ele><time>2026-04-09T11:17:00.999Z</time></trkpt><trkpt lat="37.976533303798796" lon="14.2966001360647"><ele>467.0</ele><time>2026-04-09T11:17:01.999Z</time></trkpt><trkpt lat="37.97659493493172" lon="14.296484448323525"><ele>467.0</ele><time>2026-04-09T11:17:02.999Z</time></trkpt><trkpt lat="37.976649301833184" lon="14.296352898997466"><ele>464.0</ele><time>2026-04-09T11:17:03.999Z</time></trkpt><trkpt lat="37.97670478594752" lon="14.296222341630571"><ele>461.00000000000006</ele><time>2026-04-09T11:17:04.999Z</time></trkpt><trkpt lat="37.97675450779236" lon="14.296106661028617"><ele>458.00000000000006</ele><time>2026-04-09T11:17:05.999Z</time></trkpt><trkpt lat="37.97680495876815" lon="14.295992767442115"><ele>455.0</ele><time>2026-04-09T11:17:06.999Z</time></trkpt><trkpt lat="37.97685880192585" lon="14.29589511605056"><ele>452.0</ele><time>2026-04-09T11:17:07.999Z</time></trkpt><trkpt lat="37.97690455540338" lon="14.295807407721828"><ele>451.99999999999994</ele><time>2026-04-09T11:17:08.999Z</time></trkpt><trkpt lat="37.9769614478426" lon="14.295767724673798"><ele>452.0</ele><time>2026-04-09T11:17:09.999Z</time></trkpt><trkpt lat="37.97702407434585" lon="14.29575168593962"><ele>452.0</ele><time>2026-04-09T11:17:10.999Z</time></trkpt><trkpt lat="37.977126485974956" lon="14.295857932353265"><ele>452.0</ele><time>2026-04-09T11:17:12.999Z</time></trkpt><trkpt lat="37.9771484589622" lon="14.295951837292248"><ele>451.99999999999994</ele><time>2026-04-09T11:17:13.999Z</time></trkpt><trkpt lat="37.97710248464503" lon="14.296035287435007"><ele>452.0</ele><time>2026-04-09T11:17:15Z</time></trkpt><trkpt lat="37.97704939019324" lon="14.296097935744811"><ele>451.99999999999994</ele><time>2026-04-09T11:17:16Z</time></trkpt><trkpt lat="37.97698011538473" lon="14.29609584369457"><ele>452.0</ele><time>2026-04-09T11:17:17Z</time></trkpt><trkpt lat="37.97691901463877" lon="14.296157588656097"><ele>452.0</ele><time>2026-04-09T11:17:18Z</time></trkpt><trkpt lat="37.97684477473868" lon="14.296193866249748"><ele>452.0</ele><time>2026-04-09T11:17:19Z</time></trkpt><trkpt lat="37.97678435492765" lon="14.296297137098643"><ele>451.99999999999994</ele><time>2026-04-09T11:17:20Z</time></trkpt><trkpt lat="37.97673112093723" lon="14.296403492494274"><ele>452.0</ele><time>2026-04-09T11:17:21Z</time></trkpt><trkpt lat="37.97669239861335" lon="14.296524334658741"><ele>455.0</ele><time>2026-04-09T11:17:22Z</time></trkpt><trkpt lat="37.97665883918536" lon="14.296665644811272"><ele>458.00000000000006</ele><time>2026-04-09T11:17:23Z</time></trkpt><trkpt lat="37.976623754414966" lon="14.296801099291969"><ele>461.00000000000006</ele><time>2026-04-09T11:17:24Z</time></trkpt><trkpt lat="37.976580364202675" lon="14.296929685902924"><ele>464.0</ele><time>2026-04-09T11:17:25Z</time></trkpt><trkpt lat="37.97652219670877" lon="14.297040973909178"><ele>467.0</ele><time>2026-04-09T11:17:26Z</time></trkpt><trkpt lat="37.976451719112745" lon="14.29713196811555"><ele>467.0</ele><time>2026-04-09T11:17:27Z</time></trkpt><trkpt lat="37.976377592546974" lon="14.297223075317483"><ele>467.00000000000006</ele><time>2026-04-09T11:17:28Z</time></trkpt><trkpt lat="37.97626937505897" lon="14.297231909410309"><ele>467.00000000000006</ele><time>2026-04-09T11:17:29Z</time></trkpt><trkpt lat="37.9761687977802" lon="14.297258333182736"><ele>467.0</ele><time>2026-04-09T11:17:30Z</time></trkpt><trkpt lat="37.97606964562928" lon="14.29729474135301"><ele>467.0</ele><time>2026-04-09T11:17:31Z</time></trkpt><trkpt lat="37.97596402882358" lon="14.29732193850512"><ele>469.0</ele><time>2026-04-09T11:17:32Z</time></trkpt><trkpt lat="37.975860249992984" lon="14.297347093613334"><ele>471.00000000000006</ele><time>2026-04-09T11:17:33Z</time></trkpt><trkpt lat="37.97575955128003" lon="14.29737492920144"><ele>473.00000000000006</ele><time>2026-04-09T11:17:34Z</time></trkpt><trkpt lat="37.97566459006496" lon="14.297412150325421"><ele>475.0</ele><time>2026-04-09T11:17:35Z</time></trkpt><trkpt lat="37.97558492147162" lon="14.297481940356809"><ele>477.0</ele><time>2026-04-09T11:17:36Z</time></trkpt><trkpt lat="37.97552244665511" lon="14.297589791159357"><ele>477.0</ele><time>2026-04-09T11:17:37Z</time></trkpt><trkpt lat="37.975468955130566" lon="14.297714543783627"><ele>477.00000000000006</ele><time>2026-04-09T11:17:38Z</time></trkpt><trkpt lat="37.97542589236435" lon="14.297843053253592"><ele>477.00000000000006</ele><time>2026-04-09T11:17:39Z</time></trkpt><trkpt lat="37.975380525362624" lon="14.297973010667217"><ele>477.0</ele><time>2026-04-09T11:17:40Z</time></trkpt><trkpt lat="37.975333855108104" lon="14.298094393035118"><ele>477.0</ele><time>2026-04-09T11:17:41Z</time></trkpt><trkpt lat="37.97528816133275" lon="14.298209580561409"><ele>480.8</ele><time>2026-04-09T11:17:42Z</time></trkpt><trkpt lat="37.975244784074796" lon="14.298321040950759"><ele>484.6</ele><time>2026-04-09T11:17:43Z</time></trkpt><trkpt lat="37.975198316966214" lon="14.298433475755866"><ele>488.40000000000003</ele><time>2026-04-09T11:17:44Z</time></trkpt><trkpt lat="37.97514961239631" lon="14.298552596888308"><ele>492.20000000000005</ele><time>2026-04-09T11:17:45Z</time></trkpt><trkpt lat="37.9750999641986" lon="14.29867255788025"><ele>496.0</ele><time>2026-04-09T11:17:46Z</time></trkpt><trkpt lat="37.97505094440163" lon="14.2987947241672"><ele>495.0</ele><time>2026-04-09T11:17:47Z</time></trkpt><trkpt lat="37.97500338096977" lon="14.29891764231282"><ele>494.0</ele><time>2026-04-09T11:17:48Z</time></trkpt><trkpt lat="37.97495620901031" lon="14.29904577101752"><ele>493.0</ele><time>2026-04-09T11:17:49Z</time></trkpt><trkpt lat="37.97490751328855" lon="14.299177736462122"><ele>492.0</ele><time>2026-04-09T11:17:50Z</time></trkpt><trkpt lat="37.97486042569695" lon="14.299303235203729"><ele>491.0</ele><time>2026-04-09T11:17:51Z</time></trkpt><trkpt lat="37.97481848706775" lon="14.29941499320323"><ele>491.0</ele><time>2026-04-09T11:17:52Z</time></trkpt><trkpt lat="37.97474840665518" lon="14.299505112311413"><ele>491.0</ele><time>2026-04-09T11:17:53Z</time></trkpt><trkpt lat="37.97467274130402" lon="14.299596795762403"><ele>491.0</ele><time>2026-04-09T11:17:54Z</time></trkpt><trkpt lat="37.97459322098623" lon="14.299677308750695"><ele>491.0</ele><time>2026-04-09T11:17:55Z</time></trkpt><trkpt lat="37.974495219527135" lon="14.299686560467327"><ele>491.0</ele><time>2026-04-09T11:17:56Z</time></trkpt><trkpt lat="37.974397669663176" lon="14.2996990159127"><ele>491.0</ele><time>2026-04-09T11:17:57Z</time></trkpt><trkpt lat="37.974291457800696" lon="14.299722345440635"><ele>491.0</ele><time>2026-04-09T11:17:58Z</time></trkpt><trkpt lat="37.974179980624015" lon="14.299723183282968"><ele>491.0</ele><time>2026-04-09T11:17:59Z</time></trkpt><trkpt lat="37.97406307083321" lon="14.299728944892168"><ele>491.0</ele><time>2026-04-09T11:18:00Z</time></trkpt><trkpt lat="37.97394646801162" lon="14.299735207074642"><ele>489.20000000000005</ele><time>2026-04-09T11:18:01Z</time></trkpt><trkpt lat="37.9738343217938" lon="14.299744439781096"><ele>487.40000000000003</ele><time>2026-04-09T11:18:02Z</time></trkpt><trkpt lat="37.97373792218581" lon="14.299765243532844"><ele>485.6</ele><time>2026-04-09T11:18:03Z</time></trkpt><trkpt lat="37.97365764176691" lon="14.29980946069319"><ele>483.8</ele><time>2026-04-09T11:18:04Z</time></trkpt><trkpt lat="37.9735831823978" lon="14.29987715085194"><ele>482.0</ele><time>2026-04-09T11:18:05.001Z</time></trkpt><trkpt lat="37.97351402442709" lon="14.299964769106323"><ele>483.8</ele><time>2026-04-09T11:18:06.001Z</time></trkpt><trkpt lat="37.97345129717415" lon="14.300070201190731"><ele>485.6</ele><time>2026-04-09T11:18:07.001Z</time></trkpt><trkpt lat="37.97340497485145" lon="14.300196757880185"><ele>487.40000000000003</ele><time>2026-04-09T11:18:08.001Z</time></trkpt><trkpt lat="37.973359058060616" lon="14.300318766336657"><ele>489.20000000000005</ele><time>2026-04-09T11:18:09.001Z</time></trkpt><trkpt lat="37.97330575362368" lon="14.300441349998174"><ele>491.0</ele><time>2026-04-09T11:18:10.001Z</time></trkpt><trkpt lat="37.973240666975244" lon="14.30055955061905"><ele>495.75</ele><time>2026-04-09T11:18:11.001Z</time></trkpt><trkpt lat="37.973167150711454" lon="14.300675147057309"><ele>500.5</ele><time>2026-04-09T11:18:12.001Z</time></trkpt><trkpt lat="37.97310402046682" lon="14.300796306960894"><ele>505.25</ele><time>2026-04-09T11:18:13.001Z</time></trkpt><trkpt lat="37.973056657056425" lon="14.300936057555367"><ele>510.0</ele><time>2026-04-09T11:18:14.001Z</time></trkpt><trkpt lat="37.973015065814735" lon="14.301079342190313"><ele>510.0</ele><time>2026-04-09T11:18:15.001Z</time></trkpt><trkpt lat="37.97296517934208" lon="14.301215975375783"><ele>510.0</ele><time>2026-04-09T11:18:16.001Z</time></trkpt><trkpt lat="37.97290796659378" lon="14.301351863139502"><ele>510.0</ele><time>2026-04-09T11:18:17.001Z</time></trkpt><trkpt lat="37.9728514687354" lon="14.301485661517733"><ele>510.0</ele><time>2026-04-09T11:18:18.001Z</time></trkpt><trkpt lat="37.9728125929694" lon="14.301634443951464"><ele>513.75</ele><time>2026-04-09T11:18:19.001Z</time></trkpt><trkpt lat="37.972791566300195" lon="14.301797736571066"><ele>517.5</ele><time>2026-04-09T11:18:20.001Z</time></trkpt><trkpt lat="37.97278649537792" lon="14.301961911104973"><ele>521.25</ele><time>2026-04-09T11:18:21.001Z</time></trkpt><trkpt lat="37.972776862174655" lon="14.302127664204878"><ele>525.0</ele><time>2026-04-09T11:18:22.001Z</time></trkpt><trkpt lat="37.97276817758118" lon="14.302295536934734"><ele>528.5</ele><time>2026-04-09T11:18:23.001Z</time></trkpt><trkpt lat="37.97275940552708" lon="14.302465165454233"><ele>532.0</ele><time>2026-04-09T11:18:24.001Z</time></trkpt><trkpt lat="37.97274990831725" lon="14.302627381798697"><ele>535.5</ele><time>2026-04-09T11:18:25.001Z</time></trkpt><trkpt lat="37.97274161080305" lon="14.302778611128703"><ele>539.0</ele><time>2026-04-09T11:18:26.001Z</time></trkpt><trkpt lat="37.97272862437383" lon="14.30292425020312"><ele>539.0</ele><time>2026-04-09T11:18:27.001Z</time></trkpt><trkpt lat="37.97270525254418" lon="14.303069983642892"><ele>539.0</ele><time>2026-04-09T11:18:28.001Z</time></trkpt><trkpt lat="37.97267067155104" lon="14.303210907888996"><ele>539.0</ele><time>2026-04-09T11:18:29.001Z</time></trkpt><trkpt lat="37.97263179233782" lon="14.303354131337144"><ele>539.0</ele><time>2026-04-09T11:18:30.001Z</time></trkpt><trkpt lat="37.97259397353344" lon="14.30349544644207"><ele>542.0</ele><time>2026-04-09T11:18:31.001Z</time></trkpt><trkpt lat="37.97253194906605" lon="14.303619642928089"><ele>545.0</ele><time>2026-04-09T11:18:32.001Z</time></trkpt><trkpt lat="37.97247510505705" lon="14.303745110030206"><ele>548.0</ele><time>2026-04-09T11:18:33.001Z</time></trkpt><trkpt lat="37.97236467614379" lon="14.303817082549"><ele>551.0</ele><time>2026-04-09T11:18:34.001Z</time></trkpt><trkpt lat="37.972258262473304" lon="14.303903125247729"><ele>548.5</ele><time>2026-04-09T11:18:35.001Z</time></trkpt><trkpt lat="37.972150972493544" lon="14.303990895569807"><ele>546.0</ele><time>2026-04-09T11:18:36.001Z</time></trkpt><trkpt lat="37.972041892113054" lon="14.304082071875177"><ele>543.5</ele><time>2026-04-09T11:18:37.001Z</time></trkpt><trkpt lat="37.97194510449371" lon="14.30415829469147"><ele>541.0</ele><time>2026-04-09T11:18:38.001Z</time></trkpt><trkpt lat="37.97184059762769" lon="14.304208210791815"><ele>541.0</ele><time>2026-04-09T11:18:39.001Z</time></trkpt><trkpt lat="37.971722849221514" lon="14.304202212009468"><ele>541.0</ele><time>2026-04-09T11:18:40.001Z</time></trkpt><trkpt lat="37.9715959009161" lon="14.304187951842234"><ele>541.0</ele><time>2026-04-09T11:18:41.001Z</time></trkpt><trkpt lat="37.97146725415042" lon="14.30417240980766"><ele>541.0</ele><time>2026-04-09T11:18:42.001Z</time></trkpt><trkpt lat="37.97133111772248" lon="14.304165598970773"><ele>540.25</ele><time>2026-04-09T11:18:43.001Z</time></trkpt><trkpt lat="37.97119860685949" lon="14.304143461473915"><ele>539.5</ele><time>2026-04-09T11:18:44.001Z</time></trkpt><trkpt lat="37.9710709926897" lon="14.304134982435967"><ele>538.75</ele><time>2026-04-09T11:18:44.999Z</time></trkpt><trkpt lat="37.97094161024388" lon="14.304149690964453"><ele>538.0</ele><time>2026-04-09T11:18:45.999Z</time></trkpt><trkpt lat="37.97081686625832" lon="14.304198594779736"><ele>538.0</ele><time>2026-04-09T11:18:46.999Z</time></trkpt><trkpt lat="37.970693354279916" lon="14.304238508944612"><ele>538.0</ele><time>2026-04-09T11:18:47.999Z</time></trkpt><trkpt lat="37.9705721142227" lon="14.304269813354164"><ele>538.0</ele><time>2026-04-09T11:18:48.999Z</time></trkpt><trkpt lat="37.97045709077992" lon="14.304309275292516"><ele>538.0</ele><time>2026-04-09T11:18:49.999Z</time></trkpt><trkpt lat="37.97034983560906" lon="14.304372168457455"><ele>538.0</ele><time>2026-04-09T11:18:50.999Z</time></trkpt><trkpt lat="37.97026293577498" lon="14.304462159811086"><ele>538.0</ele><time>2026-04-09T11:18:51.999Z</time></trkpt><trkpt lat="37.970186449361684" lon="14.3045761025414"><ele>538.0</ele><time>2026-04-09T11:18:52.999Z</time></trkpt><trkpt lat="37.97010722882814" lon="14.304684597940772"><ele>538.0</ele><time>2026-04-09T11:18:53.999Z</time></trkpt><trkpt lat="37.97002857129751" lon="14.304787864085379"><ele>541.25</ele><time>2026-04-09T11:18:54.999Z</time></trkpt><trkpt lat="37.969947852893334" lon="14.304895098627412"><ele>544.5</ele><time>2026-04-09T11:18:55.999Z</time></trkpt><trkpt lat="37.96986970260011" lon="14.305004487135326"><ele>547.75</ele><time>2026-04-09T11:18:56.999Z</time></trkpt><trkpt lat="37.96979217465745" lon="14.305114626356767"><ele>551.0</ele><time>2026-04-09T11:18:57.999Z</time></trkpt><trkpt lat="37.969713989924244" lon="14.305218500582027"><ele>551.0</ele><time>2026-04-09T11:18:58.999Z</time></trkpt><trkpt lat="37.96962218956617" lon="14.30530014573012"><ele>551.0</ele><time>2026-04-09T11:19:00Z</time></trkpt><trkpt lat="37.969514517902255" lon="14.305346570748734"><ele>551.0</ele><time>2026-04-09T11:19:01Z</time></trkpt><trkpt lat="37.969404351196" lon="14.305382548190481"><ele>551.0</ele><time>2026-04-09T11:19:02Z</time></trkpt><trkpt lat="37.969296892057876" lon="14.305414778088512"><ele>551.0</ele><time>2026-04-09T11:19:03Z</time></trkpt><trkpt lat="37.96919861782002" lon="14.305460968389067"><ele>551.0</ele><time>2026-04-09T11:19:04Z</time></trkpt><trkpt lat="37.96911248959214" lon="14.305527818782286"><ele>551.0</ele><time>2026-04-09T11:19:05Z</time></trkpt><trkpt lat="37.96905954811685" lon="14.305614596008382"><ele>551.0</ele><time>2026-04-09T11:19:06Z</time></trkpt><trkpt lat="37.969026259034464" lon="14.30572235046077"><ele>551.0</ele><time>2026-04-09T11:19:07Z</time></trkpt><trkpt lat="37.96900122892927" lon="14.305829217791143"><ele>553.1666666666666</ele><time>2026-04-09T11:19:08Z</time></trkpt><trkpt lat="37.968965196735944" lon="14.30593168899564"><ele>555.3333333333333</ele><time>2026-04-09T11:19:09Z</time></trkpt><trkpt lat="37.96893031087284" lon="14.306040370147716"><ele>557.5</ele><time>2026-04-09T11:19:10Z</time></trkpt><trkpt lat="37.968899279223365" lon="14.306146816769967"><ele>559.6666666666666</ele><time>2026-04-09T11:19:11Z</time></trkpt><trkpt lat="37.96886832613065" lon="14.306249638528483"><ele>561.8333333333334</ele><time>2026-04-09T11:19:12Z</time></trkpt><trkpt lat="37.968833391302695" lon="14.306342292925832"><ele>564.0</ele><time>2026-04-09T11:19:13Z</time></trkpt><trkpt lat="37.96879343933928" lon="14.30643296470715"><ele>566.6666666666666</ele><time>2026-04-09T11:19:14Z</time></trkpt><trkpt lat="37.96873849698152" lon="14.3065072655963"><ele>569.3333333333334</ele><time>2026-04-09T11:19:15Z</time></trkpt><trkpt lat="37.968672060046316" lon="14.306566842139908"><ele>572.0</ele><time>2026-04-09T11:19:16Z</time></trkpt><trkpt lat="37.968605190250564" lon="14.306615694435838"><ele>574.6666666666667</ele><time>2026-04-09T11:19:17Z</time></trkpt><trkpt lat="37.96855811809042" lon="14.306669571275483"><ele>577.3333333333334</ele><time>2026-04-09T11:19:18Z</time></trkpt><trkpt lat="37.96851439105476" lon="14.306794126099083"><ele>580.0</ele><time>2026-04-09T11:19:20Z</time></trkpt><trkpt lat="37.96854842577785" lon="14.306905735664824"><ele>580.0</ele><time>2026-04-09T11:19:22Z</time></trkpt><trkpt lat="37.96859615349625" lon="14.307003495745706"><ele>580.0</ele><time>2026-04-09T11:19:24Z</time></trkpt><trkpt lat="37.96870593584475" lon="14.306988919049491"><ele>580.0</ele><time>2026-04-09T11:19:25Z</time></trkpt><trkpt lat="37.96877334567655" lon="14.306960331270755"><ele>580.0</ele><time>2026-04-09T11:19:26Z</time></trkpt><trkpt lat="37.96883467547751" lon="14.306903057749594"><ele>580.0</ele><time>2026-04-09T11:19:27Z</time></trkpt><trkpt lat="37.96890038063689" lon="14.306840375013266"><ele>580.0</ele><time>2026-04-09T11:19:28Z</time></trkpt><trkpt lat="37.968980952737354" lon="14.30678238225016"><ele>580.0</ele><time>2026-04-09T11:19:29Z</time></trkpt><trkpt lat="37.969072974555175" lon="14.306716634945255"><ele>580.0</ele><time>2026-04-09T11:19:30Z</time></trkpt><trkpt lat="37.96916296110479" lon="14.30663435937021"><ele>580.0</ele><time>2026-04-09T11:19:31Z</time></trkpt><trkpt lat="37.96925988311688" lon="14.306550991275028"><ele>580.0</ele><time>2026-04-09T11:19:32Z</time></trkpt><trkpt lat="37.96935733768551" lon="14.306478065394725"><ele>580.0</ele><time>2026-04-09T11:19:33Z</time></trkpt><trkpt lat="37.96944629227482" lon="14.306401474410357"><ele>578.6</ele><time>2026-04-09T11:19:34Z</time></trkpt><trkpt lat="37.96953298978968" lon="14.306336400553167"><ele>577.2</ele><time>2026-04-09T11:19:35Z</time></trkpt><trkpt lat="37.96961750444551" lon="14.306275186930558"><ele>575.8</ele><time>2026-04-09T11:19:36Z</time></trkpt><trkpt lat="37.96970376053253" lon="14.30622004694956"><ele>574.4</ele><time>2026-04-09T11:19:37Z</time></trkpt><trkpt lat="37.969795442277636" lon="14.306202384194094"><ele>573.0</ele><time>2026-04-09T11:19:38Z</time></trkpt><trkpt lat="37.96988698172377" lon="14.306232319981252"><ele>573.0</ele><time>2026-04-09T11:19:39Z</time></trkpt><trkpt lat="37.96997297162723" lon="14.306297663697798"><ele>573.0</ele><time>2026-04-09T11:19:40Z</time></trkpt><trkpt lat="37.970050392556296" lon="14.306392783702611"><ele>573.0</ele><time>2026-04-09T11:19:41.001Z</time></trkpt><trkpt lat="37.97012596498071" lon="14.306479914683255"><ele>573.0</ele><time>2026-04-09T11:19:42.001Z</time></trkpt><trkpt lat="37.97020882859112" lon="14.306541498458186"><ele>573.0</ele><time>2026-04-09T11:19:43.001Z</time></trkpt><trkpt lat="37.970303842290384" lon="14.306562031302398"><ele>574.6</ele><time>2026-04-09T11:19:44.001Z</time></trkpt><trkpt lat="37.97040530860774" lon="14.30653592670397"><ele>576.1999999999999</ele><time>2026-04-09T11:19:45.001Z</time></trkpt><trkpt lat="37.97050001501722" lon="14.306476932233867"><ele>577.8</ele><time>2026-04-09T11:19:46.001Z</time></trkpt><trkpt lat="37.97058364606536" lon="14.30639982797511"><ele>579.4</ele><time>2026-04-09T11:19:47.001Z</time></trkpt><trkpt lat="37.970667485757744" lon="14.30631888895817"><ele>581.0</ele><time>2026-04-09T11:19:48.001Z</time></trkpt><trkpt lat="37.970754931383674" lon="14.306257915833335"><ele>581.0</ele><time>2026-04-09T11:19:49.001Z</time></trkpt><trkpt lat="37.97083960148118" lon="14.306223567154317"><ele>581.0</ele><time>2026-04-09T11:19:50.001Z</time></trkpt><trkpt lat="37.97093126822791" lon="14.306210635694155"><ele>581.0</ele><time>2026-04-09T11:19:51.001Z</time></trkpt><trkpt lat="37.97102266387473" lon="14.306241040284263"><ele>581.0</ele><time>2026-04-09T11:19:52.001Z</time></trkpt><trkpt lat="37.97112380412295" lon="14.306236074891062"><ele>581.0</ele><time>2026-04-09T11:19:53.001Z</time></trkpt><trkpt lat="37.97122502929966" lon="14.306251494997687"><ele>581.4</ele><time>2026-04-09T11:19:54.001Z</time></trkpt><trkpt lat="37.97133270845099" lon="14.306274737101626"><ele>581.8</ele><time>2026-04-09T11:19:55.001Z</time></trkpt><trkpt lat="37.97144258899422" lon="14.306293032044941"><ele>582.1999999999999</ele><time>2026-04-09T11:19:56.001Z</time></trkpt><trkpt lat="37.971554007596794" lon="14.306309192173416"><ele>582.6</ele><time>2026-04-09T11:19:57.001Z</time></trkpt><trkpt lat="37.971668187067586" lon="14.306327562873768"><ele>583.0</ele><time>2026-04-09T11:19:58.001Z</time></trkpt><trkpt lat="37.971784430468325" lon="14.306342359638183"><ele>585.75</ele><time>2026-04-09T11:19:59.001Z</time></trkpt><trkpt lat="37.97190522757919" lon="14.30636425949531"><ele>588.5</ele><time>2026-04-09T11:20:00.001Z</time></trkpt><trkpt lat="37.97202362189198" lon="14.306390228456692"><ele>591.25</ele><time>2026-04-09T11:20:01.001Z</time></trkpt><trkpt lat="37.972140299458864" lon="14.306411497757988"><ele>594.0</ele><time>2026-04-09T11:20:02.001Z</time></trkpt><trkpt lat="37.97225452694719" lon="14.306427397420288"><ele>599.5</ele><time>2026-04-09T11:20:03.001Z</time></trkpt><trkpt lat="37.972369697156296" lon="14.306432185754197"><ele>605.0</ele><time>2026-04-09T11:20:04.001Z</time></trkpt><trkpt lat="37.97248780345662" lon="14.306433242476785"><ele>610.5</ele><time>2026-04-09T11:20:05.001Z</time></trkpt><trkpt lat="37.9726094670428" lon="14.306430954004371"><ele>616.0</ele><time>2026-04-09T11:20:06.001Z</time></trkpt><trkpt lat="37.97273278037342" lon="14.306431250349144"><ele>614.5</ele><time>2026-04-09T11:20:07.001Z</time></trkpt><trkpt lat="37.972854023131674" lon="14.306431228340573"><ele>613.0</ele><time>2026-04-09T11:20:08.001Z</time></trkpt><trkpt lat="37.972972542195734" lon="14.306408699045175"><ele>611.5</ele><time>2026-04-09T11:20:09.001Z</time></trkpt><trkpt lat="37.973082591891" lon="14.306357980724782"><ele>610.0</ele><time>2026-04-09T11:20:10.001Z</time></trkpt><trkpt lat="37.97318749007488" lon="14.306290494647378"><ele>610.0</ele><time>2026-04-09T11:20:11.001Z</time></trkpt><trkpt lat="37.973291477018435" lon="14.306221394126233"><ele>610.0</ele><time>2026-04-09T11:20:12.001Z</time></trkpt><trkpt lat="37.97339206503526" lon="14.30614810678788"><ele>610.0</ele><time>2026-04-09T11:20:13.001Z</time></trkpt><trkpt lat="37.973494882907175" lon="14.306076909531148"><ele>610.0</ele><time>2026-04-09T11:20:14.001Z</time></trkpt><trkpt lat="37.97359900673383" lon="14.306006717836361"><ele>614.0</ele><time>2026-04-09T11:20:15.001Z</time></trkpt><trkpt lat="37.97370562482403" lon="14.305934114445423"><ele>618.0</ele><time>2026-04-09T11:20:16.001Z</time></trkpt><trkpt lat="37.97381271600654" lon="14.305861856503881"><ele>622.0</ele><time>2026-04-09T11:20:17.001Z</time></trkpt><trkpt lat="37.973910920051296" lon="14.305793443871705"><ele>626.0</ele><time>2026-04-09T11:20:18.001Z</time></trkpt><trkpt lat="37.97401488634341" lon="14.305739797416772"><ele>626.0</ele><time>2026-04-09T11:20:19.001Z</time></trkpt><trkpt lat="37.97412569362067" lon="14.305710018070219"><ele>626.0</ele><time>2026-04-09T11:20:20.001Z</time></trkpt><trkpt lat="37.974241817723005" lon="14.305702253198506"><ele>626.0</ele><time>2026-04-09T11:20:21.001Z</time></trkpt><trkpt lat="37.97435834905065" lon="14.305714974533593"><ele>626.0</ele><time>2026-04-09T11:20:22.001Z</time></trkpt><trkpt lat="37.97446237329574" lon="14.3057232220986"><ele>625.5</ele><time>2026-04-09T11:20:23.001Z</time></trkpt><trkpt lat="37.97456222905571" lon="14.305684230932082"><ele>625.0</ele><time>2026-04-09T11:20:24.001Z</time></trkpt><trkpt lat="37.97466256420898" lon="14.305588197765463"><ele>624.5</ele><time>2026-04-09T11:20:25.001Z</time></trkpt><trkpt lat="37.97475221204989" lon="14.305471392214297"><ele>624.0</ele><time>2026-04-09T11:20:26.001Z</time></trkpt><trkpt lat="37.97482468847702" lon="14.305373386996536"><ele>624.0</ele><time>2026-04-09T11:20:27.001Z</time></trkpt><trkpt lat="37.97490712149335" lon="14.305301320293431"><ele>624.0</ele><time>2026-04-09T11:20:28.001Z</time></trkpt><trkpt lat="37.975006764564355" lon="14.30525750865802"><ele>624.0</ele><time>2026-04-09T11:20:29.001Z</time></trkpt><trkpt lat="37.97512144510495" lon="14.305247992736389"><ele>624.0</ele><time>2026-04-09T11:20:30.001Z</time></trkpt><trkpt lat="37.975242340309954" lon="14.305268142994956"><ele>624.0</ele><time>2026-04-09T11:20:31.001Z</time></trkpt><trkpt lat="37.97535941273638" lon="14.30526527856704"><ele>629.5</ele><time>2026-04-09T11:20:32.001Z</time></trkpt><trkpt lat="37.97546847889626" lon="14.305210500204096"><ele>635.0</ele><time>2026-04-09T11:20:33.002Z</time></trkpt><trkpt lat="37.97556302888907" lon="14.30512984981209"><ele>640.5</ele><time>2026-04-09T11:20:34.002Z</time></trkpt><trkpt lat="37.97565921993049" lon="14.305034356147571"><ele>646.0</ele><time>2026-04-09T11:20:35.002Z</time></trkpt><trkpt lat="37.9757570491355" lon="14.304925260267643"><ele>647.5</ele><time>2026-04-09T11:20:36.002Z</time></trkpt><trkpt lat="37.97585700517069" lon="14.30481433851751"><ele>649.0</ele><time>2026-04-09T11:20:37.002Z</time></trkpt><trkpt lat="37.97595279586402" lon="14.304710947059851"><ele>650.5</ele><time>2026-04-09T11:20:38.002Z</time></trkpt><trkpt lat="37.97605006044841" lon="14.304619169049952"><ele>652.0</ele><time>2026-04-09T11:20:39.002Z</time></trkpt><trkpt lat="37.976144505174744" lon="14.30452060066532"><ele>652.0</ele><time>2026-04-09T11:20:40.002Z</time></trkpt><trkpt lat="37.976237881936775" lon="14.304419137809328"><ele>652.0</ele><time>2026-04-09T11:20:41.002Z</time></trkpt><trkpt lat="37.976334261625475" lon="14.30431989064486"><ele>652.0</ele><time>2026-04-09T11:20:42.002Z</time></trkpt><trkpt lat="37.976429412547795" lon="14.304222053789323"><ele>652.0</ele><time>2026-04-09T11:20:43.002Z</time></trkpt><trkpt lat="37.97652337464008" lon="14.304122074890739"><ele>652.0</ele><time>2026-04-09T11:20:44.002Z</time></trkpt><trkpt lat="37.97661771086298" lon="14.304022242762818"><ele>652.0</ele><time>2026-04-09T11:20:45.002Z</time></trkpt><trkpt lat="37.97670913587204" lon="14.303927557715236"><ele>652.0</ele><time>2026-04-09T11:20:46.002Z</time></trkpt><trkpt lat="37.97679936450768" lon="14.303828967735013"><ele>652.0</ele><time>2026-04-09T11:20:47.002Z</time></trkpt><trkpt lat="37.976888062160995" lon="14.303733308082657"><ele>652.8</ele><time>2026-04-09T11:20:48.002Z</time></trkpt><trkpt lat="37.97697533093915" lon="14.303641326115113"><ele>653.6</ele><time>2026-04-09T11:20:49.002Z</time></trkpt><trkpt lat="37.97706433738551" lon="14.303550340845307"><ele>654.4</ele><time>2026-04-09T11:20:50.002Z</time></trkpt><trkpt lat="37.97714628713587" lon="14.303456603973869"><ele>655.1999999999999</ele><time>2026-04-09T11:20:51Z</time></trkpt><trkpt lat="37.977229230380395" lon="14.303372297809915"><ele>656.0</ele><time>2026-04-09T11:20:52Z</time></trkpt><trkpt lat="37.977326011570824" lon="14.30331465372692"><ele>656.0</ele><time>2026-04-09T11:20:53Z</time></trkpt><trkpt lat="37.9774218080253" lon="14.303256120822839"><ele>656.0</ele><time>2026-04-09T11:20:54Z</time></trkpt><trkpt lat="37.977522643370236" lon="14.303192364706556"><ele>656.0</ele><time>2026-04-09T11:20:55Z</time></trkpt><trkpt lat="37.97763162102638" lon="14.303164053126602"><ele>656.0</ele><time>2026-04-09T11:20:56Z</time></trkpt><trkpt lat="37.97773674639618" lon="14.303135335098181"><ele>656.0</ele><time>2026-04-09T11:20:57Z</time></trkpt><trkpt lat="37.9778313070799" lon="14.303106294612466"><ele>658.4</ele><time>2026-04-09T11:20:58Z</time></trkpt><trkpt lat="37.977921615922554" lon="14.30307510266766"><ele>660.8</ele><time>2026-04-09T11:20:59Z</time></trkpt><trkpt lat="37.97800110610131" lon="14.30301681761154"><ele>663.1999999999999</ele><time>2026-04-09T11:21:00Z</time></trkpt><trkpt lat="37.97806071035982" lon="14.302930794705354"><ele>665.5999999999999</ele><time>2026-04-09T11:21:01Z</time></trkpt><trkpt lat="37.9780997364171" lon="14.302825926085761"><ele>668.0</ele><time>2026-04-09T11:21:02Z</time></trkpt><trkpt lat="37.97812549949591" lon="14.302722680376466"><ele>668.0</ele><time>2026-04-09T11:21:03Z</time></trkpt><trkpt lat="37.97814554045215" lon="14.302638431342576"><ele>668.0</ele><time>2026-04-09T11:21:04Z</time></trkpt><trkpt lat="37.97818332056877" lon="14.302502842839294"><ele>668.0</ele><time>2026-04-09T11:21:06Z</time></trkpt><trkpt lat="37.97820841011804" lon="14.302411074645073"><ele>668.0</ele><time>2026-04-09T11:21:08Z</time></trkpt><trkpt lat="37.978237298076436" lon="14.302317469864024"><ele>668.0</ele><time>2026-04-09T11:22:18.002Z</time></trkpt><trkpt lat="37.97834245475277" lon="14.302229750979405"><ele>669.8333333333333</ele><time>2026-04-09T11:22:21.002Z</time></trkpt><trkpt lat="37.97839010994397" lon="14.302172437246426"><ele>671.6666666666666</ele><time>2026-04-09T11:22:22.002Z</time></trkpt><trkpt lat="37.978431672166614" lon="14.30209422619792"><ele>673.5</ele><time>2026-04-09T11:22:23.002Z</time></trkpt><trkpt lat="37.978480292941136" lon="14.302010806091406"><ele>675.3333333333334</ele><time>2026-04-09T11:22:24.002Z</time></trkpt><trkpt lat="37.97853057782782" lon="14.301938624438625"><ele>677.1666666666667</ele><time>2026-04-09T11:22:25.002Z</time></trkpt><trkpt lat="37.97858766359946" lon="14.301859472688298"><ele>679.0</ele><time>2026-04-09T11:22:26.002Z</time></trkpt><trkpt lat="37.97865020940837" lon="14.301773917015556"><ele>679.0</ele><time>2026-04-09T11:22:27.002Z</time></trkpt><trkpt lat="37.97872601420698" lon="14.301706417399323"><ele>679.0</ele><time>2026-04-09T11:22:28.002Z</time></trkpt><trkpt lat="37.97880894734526" lon="14.301650759909649"><ele>679.0</ele><time>2026-04-09T11:22:29.002Z</time></trkpt><trkpt lat="37.97889812736468" lon="14.301612324698553"><ele>679.0</ele><time>2026-04-09T11:22:30.002Z</time></trkpt><trkpt lat="37.978987831227506" lon="14.301579779595887"><ele>679.0</ele><time>2026-04-09T11:22:31.002Z</time></trkpt><trkpt lat="37.97908005266742" lon="14.301561486999944"><ele>679.0</ele><time>2026-04-09T11:22:32.002Z</time></trkpt><trkpt lat="37.9791701011044" lon="14.301560264832638"><ele>679.0</ele><time>2026-04-09T11:22:33.002Z</time></trkpt><trkpt lat="37.979254271143674" lon="14.301582597752121"><ele>679.0</ele><time>2026-04-09T11:22:34.002Z</time></trkpt><trkpt lat="37.97933437171071" lon="14.301613186607687"><ele>679.0</ele><time>2026-04-09T11:22:35.002Z</time></trkpt><trkpt lat="37.979410796121876" lon="14.301641297792218"><ele>679.0</ele><time>2026-04-09T11:22:36.002Z</time></trkpt><trkpt lat="37.97952532288294" lon="14.301688743603865"><ele>680.8000000000001</ele><time>2026-04-09T11:22:38.002Z</time></trkpt><trkpt lat="37.979609342419046" lon="14.301764009571349"><ele>682.6</ele><time>2026-04-09T11:22:40.002Z</time></trkpt><trkpt lat="37.979707196662574" lon="14.30184372809802"><ele>684.4</ele><time>2026-04-09T11:22:42.002Z</time></trkpt><trkpt lat="37.979769957789166" lon="14.30185745721501"><ele>686.2</ele><time>2026-04-09T11:22:43.002Z</time></trkpt><trkpt lat="37.979890956031134" lon="14.301863210044937"><ele>688.0</ele><time>2026-04-09T11:22:45.002Z</time></trkpt><trkpt lat="37.97999906990897" lon="14.301858934916533"><ele>686.5</ele><time>2026-04-09T11:22:47.002Z</time></trkpt><trkpt lat="37.980066377863366" lon="14.301852840116002"><ele>685.0</ele><time>2026-04-09T11:22:49.002Z</time></trkpt><trkpt lat="37.98014484925613" lon="14.30187433765995"><ele>683.5</ele><time>2026-04-09T11:22:52.002Z</time></trkpt><trkpt lat="37.980217860082405" lon="14.301875431307423"><ele>682.0</ele><time>2026-04-09T11:22:55.002Z</time></trkpt><trkpt lat="37.98030179139038" lon="14.301879289287177"><ele>680.5</ele><time>2026-04-09T11:22:59.001Z</time></trkpt><trkpt lat="37.98038441693359" lon="14.301907145530706"><ele>679.0</ele><time>2026-04-09T11:23:02.001Z</time></trkpt><trkpt lat="37.98041878161906" lon="14.302030010976988"><ele>679.0</ele><time>2026-04-09T11:23:05.001Z</time></trkpt><trkpt lat="37.980474243917236" lon="14.302125446439305"><ele>679.0</ele><time>2026-04-09T11:23:07.001Z</time></trkpt><trkpt lat="37.98051703110239" lon="14.30221406326069"><ele>679.0</ele><time>2026-04-09T11:23:09.001Z</time></trkpt><trkpt lat="37.9805516307538" lon="14.302302377669548"><ele>679.0</ele><time>2026-04-09T11:23:11.001Z</time></trkpt><trkpt lat="37.98060666632206" lon="14.302371407712853"><ele>679.0</ele><time>2026-04-09T11:23:14.001Z</time></trkpt><trkpt lat="37.98069533384272" lon="14.3023074529413"><ele>679.0</ele><time>2026-04-09T11:23:16.001Z</time></trkpt><trkpt lat="37.98078192804059" lon="14.302238776103323"><ele>679.4000000000001</ele><time>2026-04-09T11:23:18.001Z</time></trkpt><trkpt lat="37.980872166227286" lon="14.302194293125067"><ele>679.8</ele><time>2026-04-09T11:23:20.001Z</time></trkpt><trkpt lat="37.980958980320764" lon="14.302164116481135"><ele>680.2</ele><time>2026-04-09T11:23:22.001Z</time></trkpt><trkpt lat="37.98103486465536" lon="14.302114765186422"><ele>680.5999999999999</ele><time>2026-04-09T11:23:24.001Z</time></trkpt><trkpt lat="37.98111389205156" lon="14.30205594059864"><ele>681.0</ele><time>2026-04-09T11:23:26.001Z</time></trkpt><trkpt lat="37.98118707659522" lon="14.301996997043306"><ele>681.0</ele><time>2026-04-09T11:23:28.001Z</time></trkpt><trkpt lat="37.981236687267206" lon="14.30194420523502"><ele>681.0</ele><time>2026-04-09T11:23:30.001Z</time></trkpt><trkpt lat="37.98130551867698" lon="14.301870962105657"><ele>681.0</ele><time>2026-04-09T11:23:33.001Z</time></trkpt><trkpt lat="37.981241375035545" lon="14.301705206577736"><ele>681.0</ele><time>2026-04-09T11:23:34.001Z</time></trkpt><trkpt lat="37.98123820354389" lon="14.301608411540728"><ele>681.0</ele><time>2026-04-09T11:23:37.001Z</time></trkpt><trkpt lat="37.98122204433436" lon="14.301518927479872"><ele>681.0</ele><time>2026-04-09T11:23:40.001Z</time></trkpt><trkpt lat="37.981170884730375" lon="14.301471238963792"><ele>678.4</ele><time>2026-04-09T11:23:42.001Z</time></trkpt><trkpt lat="37.981118925763816" lon="14.301395401880832"><ele>675.8</ele><time>2026-04-09T11:23:45.001Z</time></trkpt><trkpt lat="37.98121994248193" lon="14.301237871948622"><ele>673.1999999999999</ele><time>2026-04-09T11:23:47.001Z</time></trkpt><trkpt lat="37.981272132560036" lon="14.30118154102458"><ele>670.5999999999999</ele><time>2026-04-09T11:23:48.001Z</time></trkpt><trkpt lat="37.98132635565154" lon="14.301120268480664"><ele>668.0</ele><time>2026-04-09T11:23:49.001Z</time></trkpt><trkpt lat="37.98138757116444" lon="14.3010544833897"><ele>668.0</ele><time>2026-04-09T11:23:50.001Z</time></trkpt><trkpt lat="37.981472397812915" lon="14.30099739452678"><ele>668.0</ele><time>2026-04-09T11:23:52.001Z</time></trkpt><trkpt lat="37.981409076957" lon="14.301068571368315"><ele>668.0</ele><time>2026-04-09T11:24:20.001Z</time></trkpt><trkpt lat="37.9813603899027" lon="14.301125623073533"><ele>668.0</ele><time>2026-04-09T11:24:21.001Z</time></trkpt><trkpt lat="37.98126984704766" lon="14.301227801113697"><ele>668.0</ele><time>2026-04-09T11:24:23.002Z</time></trkpt><trkpt lat="37.98117927618123" lon="14.301311188876962"><ele>668.0</ele><time>2026-04-09T11:24:25.002Z</time></trkpt><trkpt lat="37.98112810693293" lon="14.3013592413517"><ele>668.0</ele><time>2026-04-09T11:24:27.002Z</time></trkpt><trkpt lat="37.98110761241271" lon="14.301436025020816"><ele>668.0</ele><time>2026-04-09T11:24:31.002Z</time></trkpt><trkpt lat="37.98120159786186" lon="14.301585714501128"><ele>668.0</ele><time>2026-04-09T11:24:32.002Z</time></trkpt><trkpt lat="37.9812656531745" lon="14.301618934796936"><ele>668.0</ele><time>2026-04-09T11:24:35.002Z</time></trkpt><trkpt lat="37.98123730780047" lon="14.301730788362251"><ele>668.0</ele><time>2026-04-09T11:25:47.001Z</time></trkpt><trkpt lat="37.981205214462854" lon="14.301801462159942"><ele>668.0</ele><time>2026-04-09T11:25:50.001Z</time></trkpt><trkpt lat="37.98126286739985" lon="14.301753016847297"><ele>668.0</ele><time>2026-04-09T11:25:56.001Z</time></trkpt><trkpt lat="37.98121888105779" lon="14.301639364168798"><ele>668.0</ele><time>2026-04-09T11:25:59.001Z</time></trkpt><trkpt lat="37.981196829134696" lon="14.301550407538361"><ele>668.0</ele><time>2026-04-09T11:26:01.001Z</time></trkpt><trkpt lat="37.98117090548698" lon="14.301469218963394"><ele>668.0</ele><time>2026-04-09T11:26:03.001Z</time></trkpt><trkpt lat="37.98118750307445" lon="14.30135972127168"><ele>668.0</ele><time>2026-04-09T11:26:54.002Z</time></trkpt><trkpt lat="37.981264620253704" lon="14.301216282321114"><ele>668.0</ele><time>2026-04-09T11:26:55.002Z</time></trkpt><trkpt lat="37.98136809977607" lon="14.301113137026567"><ele>668.0</ele><time>2026-04-09T11:26:56.002Z</time></trkpt><trkpt lat="37.981491003911884" lon="14.300978231775423"><ele>668.0</ele><time>2026-04-09T11:26:57.002Z</time></trkpt><trkpt lat="37.98161731659707" lon="14.300822921772305"><ele>665.6666666666666</ele><time>2026-04-09T11:26:58.002Z</time></trkpt><trkpt lat="37.98174835332886" lon="14.3006643042651"><ele>663.3333333333334</ele><time>2026-04-09T11:26:59.002Z</time></trkpt><trkpt lat="37.9818643934151" lon="14.300532843586312"><ele>661.0</ele><time>2026-04-09T11:27:00.002Z</time></trkpt><trkpt lat="37.98196944419135" lon="14.300415710635649"><ele>661.0</ele><time>2026-04-09T11:27:01.002Z</time></trkpt><trkpt lat="37.9820590888702" lon="14.300317843166093"><ele>661.0</ele><time>2026-04-09T11:27:02.002Z</time></trkpt><trkpt lat="37.98213805124188" lon="14.300222667009988"><ele>661.0</ele><time>2026-04-09T11:27:03.002Z</time></trkpt><trkpt lat="37.98220435965378" lon="14.300139813976452"><ele>661.0</ele><time>2026-04-09T11:27:04.002Z</time></trkpt><trkpt lat="37.98226541806714" lon="14.300084662512244"><ele>661.0</ele><time>2026-04-09T11:27:05.002Z</time></trkpt><trkpt lat="37.982364506738186" lon="14.300106082546177"><ele>661.0</ele><time>2026-04-09T11:27:07.002Z</time></trkpt><trkpt lat="37.98242776478416" lon="14.30018488261743"><ele>661.0</ele><time>2026-04-09T11:27:09.001Z</time></trkpt><trkpt lat="37.98252856395708" lon="14.30015080737998"><ele>661.0</ele><time>2026-04-09T11:27:16.001Z</time></trkpt><trkpt lat="37.98259889965544" lon="14.300102998023647"><ele>661.0</ele><time>2026-04-09T11:27:17.001Z</time></trkpt><trkpt lat="37.98267209867335" lon="14.30007964986086"><ele>661.0</ele><time>2026-04-09T11:27:18Z</time></trkpt><trkpt lat="37.98278871987163" lon="14.300082838752404"><ele>663.0</ele><time>2026-04-09T11:27:20Z</time></trkpt><trkpt lat="37.982869919176345" lon="14.300084661478826"><ele>665.0</ele><time>2026-04-09T11:27:21Z</time></trkpt><trkpt lat="37.98296212562084" lon="14.300069033714507"><ele>667.0</ele><time>2026-04-09T11:27:22Z</time></trkpt><trkpt lat="37.98305294402019" lon="14.300045704823466"><ele>669.0</ele><time>2026-04-09T11:27:23Z</time></trkpt><trkpt lat="37.98313647905032" lon="14.299997170702628"><ele>671.0</ele><time>2026-04-09T11:27:24Z</time></trkpt><trkpt lat="37.98321361610898" lon="14.299947110620579"><ele>673.0</ele><time>2026-04-09T11:27:25Z</time></trkpt><trkpt lat="37.98328247047769" lon="14.299924290963643"><ele>672.1666666666667</ele><time>2026-04-09T11:27:26Z</time></trkpt><trkpt lat="37.98335468050842" lon="14.299920601160943"><ele>671.3333333333334</ele><time>2026-04-09T11:27:27Z</time></trkpt><trkpt lat="37.98347458109575" lon="14.299929814535815"><ele>670.5</ele><time>2026-04-09T11:27:29Z</time></trkpt><trkpt lat="37.98355082833179" lon="14.299946748217517"><ele>669.6666666666666</ele><time>2026-04-09T11:27:30Z</time></trkpt><trkpt lat="37.98364088272537" lon="14.299943135135246"><ele>668.8333333333333</ele><time>2026-04-09T11:27:31Z</time></trkpt><trkpt lat="37.98371398855837" lon="14.299940202025864"><ele>668.0</ele><time>2026-04-09T11:27:32Z</time></trkpt><trkpt lat="37.983842792868835" lon="14.299935345536817"><ele>668.0</ele><time>2026-04-09T11:27:34Z</time></trkpt><trkpt lat="37.983923952437465" lon="14.300014074135918"><ele>668.0</ele><time>2026-04-09T11:27:35Z</time></trkpt><trkpt lat="37.9840319506728" lon="14.300099943615443"><ele>668.0</ele><time>2026-04-09T11:27:36Z</time></trkpt><trkpt lat="37.98413327209868" lon="14.300182318692164"><ele>668.0</ele><time>2026-04-09T11:27:37Z</time></trkpt><trkpt lat="37.98421632793423" lon="14.300247595271324"><ele>668.0</ele><time>2026-04-09T11:27:38.001Z</time></trkpt><trkpt lat="37.98428803089914" lon="14.300303264670521"><ele>666.8</ele><time>2026-04-09T11:27:39.001Z</time></trkpt><trkpt lat="37.98435351848272" lon="14.300358400693508"><ele>665.5999999999999</ele><time>2026-04-09T11:27:40.001Z</time></trkpt><trkpt lat="37.98441858236813" lon="14.300423725355985"><ele>664.4000000000001</ele><time>2026-04-09T11:30:27.001Z</time></trkpt><trkpt lat="37.98449884677582" lon="14.300506785418799"><ele>663.2</ele><time>2026-04-09T11:30:29.001Z</time></trkpt><trkpt lat="37.98463394046254" lon="14.300528340337653"><ele>662.0</ele><time>2026-04-09T11:30:31.001Z</time></trkpt><trkpt lat="37.98462796542509" lon="14.30065704130475"><ele>662.0</ele><time>2026-04-09T11:30:32.001Z</time></trkpt><trkpt lat="37.98467255338565" lon="14.300729909117317"><ele>662.0</ele><time>2026-04-09T11:30:33.001Z</time></trkpt><trkpt lat="37.98471805910004" lon="14.300805196468428"><ele>662.0</ele><time>2026-04-09T11:30:34.001Z</time></trkpt><trkpt lat="37.98477041765287" lon="14.300884348352472"><ele>662.0</ele><time>2026-04-09T11:30:35.001Z</time></trkpt><trkpt lat="37.98482475233913" lon="14.300964391123097"><ele>662.0</ele><time>2026-04-09T11:30:36.001Z</time></trkpt><trkpt lat="37.98487903402771" lon="14.301050676199575"><ele>662.0</ele><time>2026-04-09T11:30:37.001Z</time></trkpt><trkpt lat="37.984928718948" lon="14.301137547543297"><ele>662.0</ele><time>2026-04-09T11:30:38.001Z</time></trkpt><trkpt lat="37.984979649106556" lon="14.301226548424463"><ele>662.0</ele><time>2026-04-09T11:30:39.001Z</time></trkpt><trkpt lat="37.98503723068877" lon="14.301312172411103"><ele>662.0</ele><time>2026-04-09T11:30:40.001Z</time></trkpt><trkpt lat="37.985101956926485" lon="14.301380383405643"><ele>662.0</ele><time>2026-04-09T11:30:41.001Z</time></trkpt><trkpt lat="37.98517990573619" lon="14.301440397602605"><ele>662.0</ele><time>2026-04-09T11:30:42.001Z</time></trkpt><trkpt lat="37.98526103971208" lon="14.301483418623757"><ele>662.0</ele><time>2026-04-09T11:30:43.001Z</time></trkpt><trkpt lat="37.985347915053964" lon="14.301501094276926"><ele>661.2</ele><time>2026-04-09T11:30:44.001Z</time></trkpt><trkpt lat="37.98543116305842" lon="14.301497242729097"><ele>660.4000000000001</ele><time>2026-04-09T11:30:45.001Z</time></trkpt><trkpt lat="37.98551737945324" lon="14.301470629581802"><ele>659.5999999999999</ele><time>2026-04-09T11:30:46.001Z</time></trkpt><trkpt lat="37.98560517713736" lon="14.301418959010773"><ele>658.8</ele><time>2026-04-09T11:30:47.001Z</time></trkpt><trkpt lat="37.98568835552893" lon="14.30136047668105"><ele>658.0</ele><time>2026-04-09T11:30:48.001Z</time></trkpt><trkpt lat="37.985769647411885" lon="14.301298031072067"><ele>653.4</ele><time>2026-04-09T11:30:49.001Z</time></trkpt><trkpt lat="37.98584876005326" lon="14.301224859683535"><ele>648.8</ele><time>2026-04-09T11:30:50.001Z</time></trkpt><trkpt lat="37.985926282125064" lon="14.301153342170531"><ele>644.2</ele><time>2026-04-09T11:30:51.001Z</time></trkpt><trkpt lat="37.986010126339025" lon="14.301095878857017"><ele>639.6</ele><time>2026-04-09T11:30:52.001Z</time></trkpt><trkpt lat="37.98609583424516" lon="14.301049962806111"><ele>635.0</ele><time>2026-04-09T11:30:53.001Z</time></trkpt><trkpt lat="37.98618190960809" lon="14.30100511284395"><ele>635.0</ele><time>2026-04-09T11:30:54.001Z</time></trkpt><trkpt lat="37.98626766448457" lon="14.300958344806165"><ele>635.0</ele><time>2026-04-09T11:30:55.001Z</time></trkpt><trkpt lat="37.986339228710364" lon="14.300888145026265"><ele>635.0</ele><time>2026-04-09T11:30:56.001Z</time></trkpt><trkpt lat="37.98640689029051" lon="14.300803434948365"><ele>635.0</ele><time>2026-04-09T11:30:57.001Z</time></trkpt><trkpt lat="37.98646198568944" lon="14.300698206773797"><ele>635.0</ele><time>2026-04-09T11:30:58.001Z</time></trkpt><trkpt lat="37.98649810625847" lon="14.300576064290087"><ele>635.2</ele><time>2026-04-09T11:30:59.001Z</time></trkpt><trkpt lat="37.98651610317847" lon="14.300451681569891"><ele>635.4</ele><time>2026-04-09T11:31:00.001Z</time></trkpt><trkpt lat="37.98651726692234" lon="14.300332306283153"><ele>635.6</ele><time>2026-04-09T11:31:01.001Z</time></trkpt><trkpt lat="37.98649944998659" lon="14.30021043479056"><ele>635.8</ele><time>2026-04-09T11:31:02.001Z</time></trkpt><trkpt lat="37.98646520748589" lon="14.300087034299683"><ele>636.0</ele><time>2026-04-09T11:31:03.001Z</time></trkpt><trkpt lat="37.98642793682881" lon="14.299968863052216"><ele>636.0</ele><time>2026-04-09T11:31:04.001Z</time></trkpt><trkpt lat="37.98638213993448" lon="14.299873072660404"><ele>636.0</ele><time>2026-04-09T11:31:05.001Z</time></trkpt><trkpt lat="37.98632749770518" lon="14.299781834843"><ele>636.0</ele><time>2026-04-09T11:31:06.001Z</time></trkpt><trkpt lat="37.98625981921398" lon="14.299702358126652"><ele>636.0</ele><time>2026-04-09T11:31:07.001Z</time></trkpt><trkpt lat="37.98618076241064" lon="14.299639115543181"><ele>636.0</ele><time>2026-04-09T11:31:08.001Z</time></trkpt><trkpt lat="37.98609856766458" lon="14.299584224487631"><ele>636.2</ele><time>2026-04-09T11:31:09.001Z</time></trkpt><trkpt lat="37.98601151679122" lon="14.299524186062863"><ele>636.4000000000001</ele><time>2026-04-09T11:31:10.001Z</time></trkpt><trkpt lat="37.985923408201266" lon="14.299455449288557"><ele>636.6</ele><time>2026-04-09T11:31:11.001Z</time></trkpt><trkpt lat="37.98584148335339" lon="14.299397998876621"><ele>636.8000000000001</ele><time>2026-04-09T11:31:12.001Z</time></trkpt><trkpt lat="37.98576265115612" lon="14.299332872389078"><ele>637.0</ele><time>2026-04-09T11:31:13.001Z</time></trkpt><trkpt lat="37.985689307766705" lon="14.299241836533506"><ele>637.0</ele><time>2026-04-09T11:31:14.001Z</time></trkpt><trkpt lat="37.98564264068491" lon="14.299143131980236"><ele>637.0</ele><time>2026-04-09T11:31:15.002Z</time></trkpt><trkpt lat="37.98564913969594" lon="14.299034597895213"><ele>637.0</ele><time>2026-04-09T11:31:16.002Z</time></trkpt><trkpt lat="37.985640538875266" lon="14.298940235315708"><ele>637.0</ele><time>2026-04-09T11:31:17.002Z</time></trkpt><trkpt lat="37.98568247184283" lon="14.298843304104608"><ele>637.0</ele><time>2026-04-09T11:31:18.002Z</time></trkpt><trkpt lat="37.9857534975216" lon="14.29877447411585"><ele>637.0</ele><time>2026-04-09T11:31:19.002Z</time></trkpt><trkpt lat="37.98583924881896" lon="14.29875423776894"><ele>634.6</ele><time>2026-04-09T11:31:20.002Z</time></trkpt><trkpt lat="37.98593123439365" lon="14.298728901937354"><ele>632.2</ele><time>2026-04-09T11:31:21Z</time></trkpt><trkpt lat="37.98601845350145" lon="14.298766647927163"><ele>629.8</ele><time>2026-04-09T11:31:22Z</time></trkpt><trkpt lat="37.986079100175886" lon="14.298859578580268"><ele>627.4</ele><time>2026-04-09T11:31:23Z</time></trkpt><trkpt lat="37.986138207600874" lon="14.298949004426909"><ele>625.0</ele><time>2026-04-09T11:31:24Z</time></trkpt><trkpt lat="37.98620149735545" lon="14.299049025917224"><ele>625.0</ele><time>2026-04-09T11:31:25Z</time></trkpt><trkpt lat="37.98626963699097" lon="14.299139596028912"><ele>625.0</ele><time>2026-04-09T11:31:26Z</time></trkpt><trkpt lat="37.986325422009095" lon="14.299233730502156"><ele>625.0</ele><time>2026-04-09T11:31:27Z</time></trkpt><trkpt lat="37.98638091033416" lon="14.299327380260614"><ele>625.0</ele><time>2026-04-09T11:31:28Z</time></trkpt><trkpt lat="37.98643985568719" lon="14.299405023601054"><ele>625.0</ele><time>2026-04-09T11:31:29Z</time></trkpt><trkpt lat="37.986494166120416" lon="14.299473597726875"><ele>625.0</ele><time>2026-04-09T11:31:30Z</time></trkpt><trkpt lat="37.98655523852303" lon="14.29953715561061"><ele>625.0</ele><time>2026-04-09T11:31:31Z</time></trkpt><trkpt lat="37.98662943120292" lon="14.299589200249901"><ele>625.0</ele><time>2026-04-09T11:31:32Z</time></trkpt><trkpt lat="37.98670507404668" lon="14.29964479466877"><ele>625.0</ele><time>2026-04-09T11:31:33Z</time></trkpt><trkpt lat="37.9867830864743" lon="14.29970613824159"><ele>625.0</ele><time>2026-04-09T11:31:34Z</time></trkpt><trkpt lat="37.98685911648649" lon="14.299767550270488"><ele>625.0</ele><time>2026-04-09T11:31:35Z</time></trkpt><trkpt lat="37.986922244689616" lon="14.299821402711531"><ele>625.0</ele><time>2026-04-09T11:31:36Z</time></trkpt><trkpt lat="37.98698677017214" lon="14.299879523899508"><ele>623.4</ele><time>2026-04-09T11:31:37Z</time></trkpt><trkpt lat="37.987051291720846" lon="14.299953520673306"><ele>621.8</ele><time>2026-04-09T11:31:38Z</time></trkpt><trkpt lat="37.98710497012356" lon="14.300051290023923"><ele>620.2</ele><time>2026-04-09T11:31:39Z</time></trkpt><trkpt lat="37.98714539917431" lon="14.300160809892649"><ele>618.6</ele><time>2026-04-09T11:31:40Z</time></trkpt><trkpt lat="37.98716861694689" lon="14.30028072285338"><ele>617.0</ele><time>2026-04-09T11:31:41Z</time></trkpt><trkpt lat="37.9871864510439" lon="14.300386715418414"><ele>617.0</ele><time>2026-04-09T11:31:42Z</time></trkpt><trkpt lat="37.98721523458474" lon="14.30048534858245"><ele>617.0</ele><time>2026-04-09T11:31:43Z</time></trkpt><trkpt lat="37.98726157682549" lon="14.300551414463722"><ele>617.0</ele><time>2026-04-09T11:31:44Z</time></trkpt><trkpt lat="37.987330581935204" lon="14.300583030235666"><ele>617.0</ele><time>2026-04-09T11:31:45Z</time></trkpt><trkpt lat="37.98740773835514" lon="14.30057296831172"><ele>617.0</ele><time>2026-04-09T11:31:46Z</time></trkpt><trkpt lat="37.987477984326695" lon="14.30053850455442"><ele>617.0</ele><time>2026-04-09T11:31:47Z</time></trkpt><trkpt lat="37.98752898945243" lon="14.300477752510941"><ele>617.0</ele><time>2026-04-09T11:31:48Z</time></trkpt><trkpt lat="37.98756036204473" lon="14.300398596956523"><ele>617.0</ele><time>2026-04-09T11:31:49Z</time></trkpt><trkpt lat="37.98757204672941" lon="14.30031121363267"><ele>617.0</ele><time>2026-04-09T11:31:50Z</time></trkpt><trkpt lat="37.98757023595477" lon="14.300219948526136"><ele>617.0</ele><time>2026-04-09T11:31:51Z</time></trkpt><trkpt lat="37.98755410957636" lon="14.300128261833372"><ele>617.0</ele><time>2026-04-09T11:31:52Z</time></trkpt><trkpt lat="37.987535660743646" lon="14.300043185747986"><ele>617.0</ele><time>2026-04-09T11:31:53Z</time></trkpt><trkpt lat="37.98751813254534" lon="14.299952431966979"><ele>617.0</ele><time>2026-04-09T11:31:54Z</time></trkpt><trkpt lat="37.98750255114573" lon="14.299862676676847"><ele>617.0</ele><time>2026-04-09T11:31:55Z</time></trkpt><trkpt lat="37.98749063832814" lon="14.299780536416831"><ele>614.5</ele><time>2026-04-09T11:31:56Z</time></trkpt><trkpt lat="37.98747837750461" lon="14.299695286837144"><ele>612.0</ele><time>2026-04-09T11:31:57Z</time></trkpt><trkpt lat="37.98745666806433" lon="14.299605052805342"><ele>609.5</ele><time>2026-04-09T11:31:58Z</time></trkpt><trkpt lat="37.98742715087192" lon="14.299517407892422"><ele>607.0</ele><time>2026-04-09T11:31:59Z</time></trkpt><trkpt lat="37.98739015730464" lon="14.299423937875904"><ele>604.5</ele><time>2026-04-09T11:32:00Z</time></trkpt><trkpt lat="37.98735401294389" lon="14.29933673498897"><ele>602.0</ele><time>2026-04-09T11:32:01Z</time></trkpt><trkpt lat="37.98731801921083" lon="14.29923482652663"><ele>602.0</ele><time>2026-04-09T11:32:02Z</time></trkpt><trkpt lat="37.9872872252825" lon="14.299137746607569"><ele>602.0</ele><time>2026-04-09T11:32:03Z</time></trkpt><trkpt lat="37.98725225444369" lon="14.29904823094613"><ele>602.0</ele><time>2026-04-09T11:32:04Z</time></trkpt><trkpt lat="37.987210708053574" lon="14.298954393126893"><ele>602.0</ele><time>2026-04-09T11:32:05Z</time></trkpt><trkpt lat="37.98716922538218" lon="14.298862502687014"><ele>602.0</ele><time>2026-04-09T11:32:06Z</time></trkpt><trkpt lat="37.98713899744038" lon="14.298772116460324"><ele>602.0</ele><time>2026-04-09T11:32:07Z</time></trkpt><trkpt lat="37.98712335899332" lon="14.298694592888339"><ele>598.5714285714286</ele><time>2026-04-09T11:32:08Z</time></trkpt><trkpt lat="37.98711276360623" lon="14.298611914829243"><ele>595.1428571428571</ele><time>2026-04-09T11:32:09Z</time></trkpt><trkpt lat="37.987087343701496" lon="14.298533444091058"><ele>591.7142857142858</ele><time>2026-04-09T11:32:10Z</time></trkpt><trkpt lat="37.98705908187053" lon="14.29845239346279"><ele>588.2857142857142</ele><time>2026-04-09T11:32:11Z</time></trkpt><trkpt lat="37.987034674399744" lon="14.29836438535373"><ele>584.8571428571429</ele><time>2026-04-09T11:32:12Z</time></trkpt><trkpt lat="37.98702260391659" lon="14.298268848895466"><ele>581.4285714285714</ele><time>2026-04-09T11:32:13Z</time></trkpt><trkpt lat="37.98701703818879" lon="14.29816796391626"><ele>578.0</ele><time>2026-04-09T11:32:14Z</time></trkpt><trkpt lat="37.987018178610285" lon="14.298080220722253"><ele>574.6666666666666</ele><time>2026-04-09T11:32:15Z</time></trkpt><trkpt lat="37.98702285941906" lon="14.297990145504093"><ele>571.3333333333333</ele><time>2026-04-09T11:32:16Z</time></trkpt><trkpt lat="37.98701950794944" lon="14.297905380459772"><ele>568.0</ele><time>2026-04-09T11:32:17Z</time></trkpt><trkpt lat="37.98700880318618" lon="14.297826136028142"><ele>564.6666666666666</ele><time>2026-04-09T11:32:18Z</time></trkpt><trkpt lat="37.98698978824195" lon="14.297663728343906"><ele>561.3333333333334</ele><time>2026-04-09T11:32:20.001Z</time></trkpt><trkpt lat="37.9869682908387" lon="14.297587013145044"><ele>558.0</ele><time>2026-04-09T11:32:21.001Z</time></trkpt><trkpt lat="37.98694271923196" lon="14.297507124575365"><ele>558.0</ele><time>2026-04-09T11:32:22.001Z</time></trkpt><trkpt lat="37.986898644166175" lon="14.297439402294836"><ele>558.0</ele><time>2026-04-09T11:32:23.001Z</time></trkpt><trkpt lat="37.98685059671011" lon="14.297381468475375"><ele>558.0</ele><time>2026-04-09T11:32:24.001Z</time></trkpt><trkpt lat="37.98673524003821" lon="14.297301036872865"><ele>558.0</ele><time>2026-04-09T11:32:26.001Z</time></trkpt><trkpt lat="37.98666598834417" lon="14.29728313665871"><ele>558.0</ele><time>2026-04-09T11:32:27.001Z</time></trkpt><trkpt lat="37.986594102431" lon="14.297268095209777"><ele>558.0</ele><time>2026-04-09T11:32:28.001Z</time></trkpt><trkpt lat="37.986523796412065" lon="14.297255553200348"><ele>558.0</ele><time>2026-04-09T11:32:29.001Z</time></trkpt><trkpt lat="37.98645677469401" lon="14.297238481520505"><ele>558.0</ele><time>2026-04-09T11:32:30.001Z</time></trkpt><trkpt lat="37.98637857833881" lon="14.29721417120058"><ele>558.0</ele><time>2026-04-09T11:32:31.001Z</time></trkpt><trkpt lat="37.98629481028706" lon="14.297181868289194"><ele>558.0</ele><time>2026-04-09T11:32:32.001Z</time></trkpt><trkpt lat="37.98621304639177" lon="14.297163093755737"><ele>558.0</ele><time>2026-04-09T11:32:33.001Z</time></trkpt><trkpt lat="37.986131795810174" lon="14.29714785806227"><ele>558.0</ele><time>2026-04-09T11:32:34.001Z</time></trkpt><trkpt lat="37.98604656484611" lon="14.297140407460988"><ele>558.0</ele><time>2026-04-09T11:32:35.001Z</time></trkpt><trkpt lat="37.98597031051485" lon="14.297133569666698"><ele>558.0</ele><time>2026-04-09T11:32:36.001Z</time></trkpt><trkpt lat="37.98589785775559" lon="14.297124077701007"><ele>558.0</ele><time>2026-04-09T11:32:37.001Z</time></trkpt><trkpt lat="37.985822349109235" lon="14.297115595317926"><ele>558.0</ele><time>2026-04-09T11:32:38.001Z</time></trkpt><trkpt lat="37.98575105564004" lon="14.297114396289686"><ele>558.0</ele><time>2026-04-09T11:32:39.001Z</time></trkpt><trkpt lat="37.98562952028323" lon="14.297085353614754"><ele>558.0</ele><time>2026-04-09T11:32:41.001Z</time></trkpt><trkpt lat="37.985520447853595" lon="14.297008601538897"><ele>558.1428571428571</ele><time>2026-04-09T11:32:43.001Z</time></trkpt><trkpt lat="37.985470627847555" lon="14.296957444714494"><ele>558.2857142857142</ele><time>2026-04-09T11:32:44.001Z</time></trkpt><trkpt lat="37.98541183480271" lon="14.296907942781765"><ele>558.4285714285714</ele><time>2026-04-09T11:32:45.001Z</time></trkpt><trkpt lat="37.985350779512984" lon="14.296862491446168"><ele>558.5714285714286</ele><time>2026-04-09T11:32:46.001Z</time></trkpt><trkpt lat="37.98528317630019" lon="14.296824610888129"><ele>558.7142857142858</ele><time>2026-04-09T11:32:47.001Z</time></trkpt><trkpt lat="37.98520802766032" lon="14.296803319655284"><ele>558.8571428571429</ele><time>2026-04-09T11:32:48.001Z</time></trkpt><trkpt lat="37.98512475705669" lon="14.296807184074428"><ele>559.0</ele><time>2026-04-09T11:32:49.001Z</time></trkpt><trkpt lat="37.98504198602741" lon="14.296826155484458"><ele>560.3333333333334</ele><time>2026-04-09T11:32:50.001Z</time></trkpt><trkpt lat="37.98496361819575" lon="14.29684106328442"><ele>561.6666666666667</ele><time>2026-04-09T11:32:51.001Z</time></trkpt><trkpt lat="37.984898559734006" lon="14.296857857852132"><ele>563.0</ele><time>2026-04-09T11:32:52.001Z</time></trkpt><trkpt lat="37.984833031319276" lon="14.296847414888536"><ele>564.3333333333334</ele><time>2026-04-09T11:32:53.001Z</time></trkpt><trkpt lat="37.984707247287304" lon="14.296807194547188"><ele>565.6666666666666</ele><time>2026-04-09T11:32:55.001Z</time></trkpt><trkpt lat="37.98466163355747" lon="14.296734458382415"><ele>567.0</ele><time>2026-04-09T11:32:56.001Z</time></trkpt><trkpt lat="37.98463263501877" lon="14.29665385984835"><ele>567.0</ele><time>2026-04-09T11:32:57.001Z</time></trkpt><trkpt lat="37.98462299813292" lon="14.296562294949318"><ele>567.0</ele><time>2026-04-09T11:32:58.001Z</time></trkpt><trkpt lat="37.98462326736007" lon="14.296465406063026"><ele>567.0</ele><time>2026-04-09T11:32:59.001Z</time></trkpt><trkpt lat="37.984632339120395" lon="14.296358491234537"><ele>567.0</ele><time>2026-04-09T11:33:00.001Z</time></trkpt><trkpt lat="37.98463781132966" lon="14.296254310168582"><ele>567.0</ele><time>2026-04-09T11:33:01.001Z</time></trkpt><trkpt lat="37.98464309451215" lon="14.296152116310891"><ele>567.0</ele><time>2026-04-09T11:33:02.001Z</time></trkpt><trkpt lat="37.98464737214206" lon="14.296055589175682"><ele>564.8571428571429</ele><time>2026-04-09T11:33:03.001Z</time></trkpt><trkpt lat="37.98466549548845" lon="14.295970532867631"><ele>562.7142857142858</ele><time>2026-04-09T11:33:04.001Z</time></trkpt><trkpt lat="37.98464839672388" lon="14.295885666808111"><ele>560.5714285714286</ele><time>2026-04-09T11:33:05.001Z</time></trkpt><trkpt lat="37.98464066953262" lon="14.295802666580787"><ele>558.4285714285714</ele><time>2026-04-09T11:33:06.001Z</time></trkpt><trkpt lat="37.98462725381163" lon="14.295714500230432"><ele>556.2857142857143</ele><time>2026-04-09T11:33:07.001Z</time></trkpt><trkpt lat="37.98460046490358" lon="14.295623109467373"><ele>554.1428571428571</ele><time>2026-04-09T11:33:08.001Z</time></trkpt><trkpt lat="37.98456417428059" lon="14.295530047679284"><ele>552.0</ele><time>2026-04-09T11:33:09.001Z</time></trkpt><trkpt lat="37.98452240028313" lon="14.295430209239985"><ele>549.8333333333334</ele><time>2026-04-09T11:33:10.001Z</time></trkpt><trkpt lat="37.98447836521167" lon="14.295328558248935"><ele>547.6666666666666</ele><time>2026-04-09T11:33:11.001Z</time></trkpt><trkpt lat="37.98443418536729" lon="14.295228124643069"><ele>545.5</ele><time>2026-04-09T11:33:12.001Z</time></trkpt><trkpt lat="37.98439296995794" lon="14.295130379123512"><ele>543.3333333333333</ele><time>2026-04-09T11:33:13.001Z</time></trkpt><trkpt lat="37.98435835474143" lon="14.295035198022873"><ele>541.1666666666666</ele><time>2026-04-09T11:33:14.001Z</time></trkpt><trkpt lat="37.984334925266566" lon="14.294941967723046"><ele>539.0</ele><time>2026-04-09T11:33:15.001Z</time></trkpt><trkpt lat="37.9843249534994" lon="14.294832876764584"><ele>539.6</ele><time>2026-04-09T11:33:16.001Z</time></trkpt><trkpt lat="37.98433195841001" lon="14.294716095530566"><ele>540.2</ele><time>2026-04-09T11:33:17.001Z</time></trkpt><trkpt lat="37.984360027437795" lon="14.29460351089738"><ele>540.8000000000001</ele><time>2026-04-09T11:33:18.001Z</time></trkpt><trkpt lat="37.98439340244255" lon="14.29449275057572"><ele>541.4</ele><time>2026-04-09T11:33:19.001Z</time></trkpt><trkpt lat="37.98442550071087" lon="14.294391865025442"><ele>542.0</ele><time>2026-04-09T11:33:20.001Z</time></trkpt><trkpt lat="37.984462630460236" lon="14.294280341183471"><ele>542.0</ele><time>2026-04-09T11:33:21.001Z</time></trkpt><trkpt lat="37.98450673945557" lon="14.29416216541085"><ele>542.0</ele><time>2026-04-09T11:33:22.001Z</time></trkpt><trkpt lat="37.984548316670306" lon="14.294041151990534"><ele>542.0</ele><time>2026-04-09T11:33:23.001Z</time></trkpt><trkpt lat="37.98459119338598" lon="14.293921275467225"><ele>542.0</ele><time>2026-04-09T11:33:24.001Z</time></trkpt><trkpt lat="37.98463533624705" lon="14.293785087410127"><ele>542.0</ele><time>2026-04-09T11:33:25.001Z</time></trkpt><trkpt lat="37.98467824536728" lon="14.29365548968023"><ele>544.25</ele><time>2026-04-09T11:33:26.001Z</time></trkpt><trkpt lat="37.98473216452272" lon="14.293532897678496"><ele>546.5</ele><time>2026-04-09T11:33:26.999Z</time></trkpt><trkpt lat="37.98479873463664" lon="14.293415056015423"><ele>548.75</ele><time>2026-04-09T11:33:27.999Z</time></trkpt><trkpt lat="37.98487967993041" lon="14.29330699598229"><ele>551.0</ele><time>2026-04-09T11:33:28.999Z</time></trkpt><trkpt lat="37.984961684530596" lon="14.293206685176418"><ele>550.6</ele><time>2026-04-09T11:33:29.999Z</time></trkpt><trkpt lat="37.98503831252573" lon="14.2931002794069"><ele>550.2</ele><time>2026-04-09T11:33:30.999Z</time></trkpt><trkpt lat="37.98511271288204" lon="14.29299283799951"><ele>549.8</ele><time>2026-04-09T11:33:31.999Z</time></trkpt><trkpt lat="37.98518373265571" lon="14.292891425148829"><ele>549.4</ele><time>2026-04-09T11:33:32.999Z</time></trkpt><trkpt lat="37.98525501225524" lon="14.292791805399322"><ele>549.0</ele><time>2026-04-09T11:33:33.999Z</time></trkpt><trkpt lat="37.985326970086945" lon="14.292691783128882"><ele>549.0</ele><time>2026-04-09T11:33:34.999Z</time></trkpt><trkpt lat="37.98539945936339" lon="14.292589150901643"><ele>549.0</ele><time>2026-04-09T11:33:35.999Z</time></trkpt><trkpt lat="37.98547165159989" lon="14.292491702269619"><ele>549.0</ele><time>2026-04-09T11:33:36.999Z</time></trkpt><trkpt lat="37.985541065456324" lon="14.292397558189629"><ele>549.0</ele><time>2026-04-09T11:33:37.999Z</time></trkpt><trkpt lat="37.98561438204275" lon="14.292297393129624"><ele>549.0</ele><time>2026-04-09T11:33:38.999Z</time></trkpt><trkpt lat="37.985697812115454" lon="14.292202873822298"><ele>549.2</ele><time>2026-04-09T11:33:39.999Z</time></trkpt><trkpt lat="37.98578168284188" lon="14.292123813247432"><ele>549.4</ele><time>2026-04-09T11:33:40.999Z</time></trkpt><trkpt lat="37.98586300319048" lon="14.292048089976259"><ele>549.6</ele><time>2026-04-09T11:33:41.999Z</time></trkpt><trkpt lat="37.985946083221954" lon="14.291961889911962"><ele>549.8</ele><time>2026-04-09T11:33:42.999Z</time></trkpt><trkpt lat="37.98602086339052" lon="14.291864368663461"><ele>550.0</ele><time>2026-04-09T11:33:44Z</time></trkpt><trkpt lat="37.986083962825404" lon="14.291760898918808"><ele>550.0</ele><time>2026-04-09T11:33:45Z</time></trkpt><trkpt lat="37.98613670431427" lon="14.291654964289755"><ele>550.0</ele><time>2026-04-09T11:33:46Z</time></trkpt><trkpt lat="37.98618667279903" lon="14.291556768282426"><ele>550.0</ele><time>2026-04-09T11:33:47Z</time></trkpt><trkpt lat="37.98623957680482" lon="14.29145033750075"><ele>550.0</ele><time>2026-04-09T11:33:48Z</time></trkpt><trkpt lat="37.98629326595283" lon="14.29133003738277"><ele>550.0</ele><time>2026-04-09T11:33:49Z</time></trkpt><trkpt lat="37.98633598556204" lon="14.29120641068662"><ele>549.6</ele><time>2026-04-09T11:33:50Z</time></trkpt><trkpt lat="37.98636417881463" lon="14.291082434391834"><ele>549.2</ele><time>2026-04-09T11:33:51Z</time></trkpt><trkpt lat="37.986385609339536" lon="14.290963833632459"><ele>548.8</ele><time>2026-04-09T11:33:52Z</time></trkpt><trkpt lat="37.98640490826301" lon="14.29084842711327"><ele>548.4</ele><time>2026-04-09T11:33:53Z</time></trkpt><trkpt lat="37.98643195572201" lon="14.290744242317269"><ele>548.0</ele><time>2026-04-09T11:33:54Z</time></trkpt><trkpt lat="37.98647472292534" lon="14.290648200983716"><ele>546.0</ele><time>2026-04-09T11:33:55Z</time></trkpt><trkpt lat="37.98653700161632" lon="14.290555220229718"><ele>544.0</ele><time>2026-04-09T11:33:56Z</time></trkpt><trkpt lat="37.98660903354665" lon="14.290465980721809"><ele>542.0</ele><time>2026-04-09T11:33:57Z</time></trkpt><trkpt lat="37.98668623859097" lon="14.290383982783782"><ele>540.0</ele><time>2026-04-09T11:33:58Z</time></trkpt><trkpt lat="37.986770541354275" lon="14.29031444967099"><ele>538.0</ele><time>2026-04-09T11:33:59Z</time></trkpt><trkpt lat="37.986849890740146" lon="14.290248208826275"><ele>538.0</ele><time>2026-04-09T11:34:00Z</time></trkpt><trkpt lat="37.986921017914376" lon="14.290186665940245"><ele>538.0</ele><time>2026-04-09T11:34:01Z</time></trkpt><trkpt lat="37.98699034359203" lon="14.290132010660157"><ele>538.0</ele><time>2026-04-09T11:34:02Z</time></trkpt><trkpt lat="37.98706001911661" lon="14.290088100381693"><ele>538.0</ele><time>2026-04-09T11:34:03Z</time></trkpt><trkpt lat="37.9871316794062" lon="14.29005910710332"><ele>538.0</ele><time>2026-04-09T11:34:04Z</time></trkpt><trkpt lat="37.98720791774408" lon="14.29004239642386"><ele>538.0</ele><time>2026-04-09T11:34:05Z</time></trkpt><trkpt lat="37.98728580283838" lon="14.290030721149122"><ele>538.0</ele><time>2026-04-09T11:34:06Z</time></trkpt><trkpt lat="37.98735851483976" lon="14.289999796799561"><ele>538.0</ele><time>2026-04-09T11:34:07Z</time></trkpt><trkpt lat="37.987429887935356" lon="14.289946517579711"><ele>538.0</ele><time>2026-04-09T11:34:08Z</time></trkpt><trkpt lat="37.9874924604322" lon="14.289885228573711"><ele>538.0</ele><time>2026-04-09T11:34:09Z</time></trkpt><trkpt lat="37.98755566365883" lon="14.28982089071909"><ele>538.0</ele><time>2026-04-09T11:34:10Z</time></trkpt><trkpt lat="37.98761166028077" lon="14.289753075614254"><ele>538.0</ele><time>2026-04-09T11:34:11Z</time></trkpt><trkpt lat="37.98765680048073" lon="14.28967217671035"><ele>534.0</ele><time>2026-04-09T11:34:12Z</time></trkpt><trkpt lat="37.98769745722752" lon="14.289592077652207"><ele>530.0</ele><time>2026-04-09T11:34:13Z</time></trkpt><trkpt lat="37.98774091278853" lon="14.289515748807776"><ele>526.0</ele><time>2026-04-09T11:34:14Z</time></trkpt><trkpt lat="37.987796401801226" lon="14.289446904255493"><ele>522.0</ele><time>2026-04-09T11:34:15Z</time></trkpt><trkpt lat="37.98785353681609" lon="14.289384427171406"><ele>518.0</ele><time>2026-04-09T11:34:16Z</time></trkpt><trkpt lat="37.987910624798396" lon="14.289324813810966"><ele>514.0</ele><time>2026-04-09T11:34:17Z</time></trkpt><trkpt lat="37.987965215661035" lon="14.28925883509455"><ele>514.0</ele><time>2026-04-09T11:34:18Z</time></trkpt><trkpt lat="37.98800965156404" lon="14.289164770445739"><ele>514.0</ele><time>2026-04-09T11:34:19Z</time></trkpt><trkpt lat="37.98804770981849" lon="14.289054376764968"><ele>514.0</ele><time>2026-04-09T11:34:20Z</time></trkpt><trkpt lat="37.988078156302066" lon="14.288939101684468"><ele>514.0</ele><time>2026-04-09T11:34:21Z</time></trkpt><trkpt lat="37.98812471159704" lon="14.288824335844275"><ele>514.0</ele><time>2026-04-09T11:34:22Z</time></trkpt><trkpt lat="37.98819348615143" lon="14.288728077761755"><ele>511.0</ele><time>2026-04-09T11:34:23Z</time></trkpt><trkpt lat="37.98827391995596" lon="14.288645598771616"><ele>508.0</ele><time>2026-04-09T11:34:24Z</time></trkpt><trkpt lat="37.98835780196277" lon="14.288575171401655"><ele>505.0</ele><time>2026-04-09T11:34:25Z</time></trkpt><trkpt lat="37.98843964801875" lon="14.288503965242356"><ele>502.0</ele><time>2026-04-09T11:34:26Z</time></trkpt><trkpt lat="37.98850950979003" lon="14.28841281703452"><ele>499.0</ele><time>2026-04-09T11:34:27Z</time></trkpt><trkpt lat="37.98856630551596" lon="14.288301781692534"><ele>499.0</ele><time>2026-04-09T11:34:28Z</time></trkpt><trkpt lat="37.98861941059586" lon="14.288184884451464"><ele>499.0</ele><time>2026-04-09T11:34:29Z</time></trkpt><trkpt lat="37.988677301822676" lon="14.288079450367858"><ele>499.0</ele><time>2026-04-09T11:34:30Z</time></trkpt><trkpt lat="37.988743235375324" lon="14.287998882737593"><ele>499.0</ele><time>2026-04-09T11:34:31Z</time></trkpt><trkpt lat="37.98881559148722" lon="14.287916883193775"><ele>499.0</ele><time>2026-04-09T11:34:32Z</time></trkpt><trkpt lat="37.988883691514125" lon="14.287834263438574"><ele>499.50000000000006</ele><time>2026-04-09T11:34:33Z</time></trkpt><trkpt lat="37.98893265497361" lon="14.2877458670251"><ele>500.0</ele><time>2026-04-09T11:34:34Z</time></trkpt><trkpt lat="37.98897399036139" lon="14.287645525337538"><ele>500.5</ele><time>2026-04-09T11:34:35Z</time></trkpt><trkpt lat="37.989009619111144" lon="14.287548001181937"><ele>501.0</ele><time>2026-04-09T11:34:36Z</time></trkpt><trkpt lat="37.98903860488131" lon="14.287453519377284"><ele>501.50000000000006</ele><time>2026-04-09T11:34:37Z</time></trkpt><trkpt lat="37.9890583012828" lon="14.28735756172002"><ele>502.0</ele><time>2026-04-09T11:34:38Z</time></trkpt><trkpt lat="37.98906355229803" lon="14.287260895269265"><ele>501.00000000000006</ele><time>2026-04-09T11:34:39Z</time></trkpt><trkpt lat="37.98906116845003" lon="14.287164363046939"><ele>500.0</ele><time>2026-04-09T11:34:40Z</time></trkpt><trkpt lat="37.98907856009399" lon="14.28707093282517"><ele>499.0</ele><time>2026-04-09T11:34:41Z</time></trkpt><trkpt lat="37.989117935985206" lon="14.286989578658362"><ele>498.0</ele><time>2026-04-09T11:34:42Z</time></trkpt><trkpt lat="37.98915798409175" lon="14.286908381155753"><ele>497.00000000000006</ele><time>2026-04-09T11:34:43Z</time></trkpt><trkpt lat="37.98920693482381" lon="14.286829443807303"><ele>496.0</ele><time>2026-04-09T11:34:44Z</time></trkpt><trkpt lat="37.98925456782926" lon="14.286747695383944"><ele>496.00000000000006</ele><time>2026-04-09T11:34:45Z</time></trkpt><trkpt lat="37.98928891326965" lon="14.286642960635834"><ele>496.0</ele><time>2026-04-09T11:34:46.001Z</time></trkpt><trkpt lat="37.98930149787414" lon="14.286534058651434"><ele>496.0</ele><time>2026-04-09T11:34:47.001Z</time></trkpt><trkpt lat="37.989299254971364" lon="14.286428462153298"><ele>496.0</ele><time>2026-04-09T11:34:48.001Z</time></trkpt><trkpt lat="37.98931160143916" lon="14.286330175859167"><ele>496.00000000000006</ele><time>2026-04-09T11:34:49.001Z</time></trkpt><trkpt lat="37.9893466498533" lon="14.286233315613046"><ele>496.0</ele><time>2026-04-09T11:34:50.001Z</time></trkpt><trkpt lat="37.98935813700206" lon="14.286126701986886"><ele>493.50000000000006</ele><time>2026-04-09T11:34:51.001Z</time></trkpt><trkpt lat="37.98938759400646" lon="14.286031560003961"><ele>491.0</ele><time>2026-04-09T11:34:52.001Z</time></trkpt><trkpt lat="37.98943923434569" lon="14.285955915771602"><ele>488.5</ele><time>2026-04-09T11:34:53.001Z</time></trkpt><trkpt lat="37.989501958667404" lon="14.28589023278299"><ele>486.0</ele><time>2026-04-09T11:34:54.001Z</time></trkpt><trkpt lat="37.98956655595428" lon="14.285823584640047"><ele>483.50000000000006</ele><time>2026-04-09T11:34:55.001Z</time></trkpt><trkpt lat="37.98963230750811" lon="14.285755045805201"><ele>481.0</ele><time>2026-04-09T11:34:56.001Z</time></trkpt><trkpt lat="37.989684621504956" lon="14.285675100305161"><ele>477.6666666666667</ele><time>2026-04-09T11:34:57.001Z</time></trkpt><trkpt lat="37.989720561912414" lon="14.285586508602757"><ele>474.33333333333337</ele><time>2026-04-09T11:34:58.001Z</time></trkpt><trkpt lat="37.98974614461318" lon="14.285490752665488"><ele>471.0</ele><time>2026-04-09T11:34:59.001Z</time></trkpt><trkpt lat="37.98976728511717" lon="14.28539061077186"><ele>467.66666666666663</ele><time>2026-04-09T11:35:00.001Z</time></trkpt><trkpt lat="37.98979943408822" lon="14.285295836210812"><ele>464.3333333333333</ele><time>2026-04-09T11:35:01.001Z</time></trkpt><trkpt lat="37.9898444974006" lon="14.285208323179132"><ele>461.0</ele><time>2026-04-09T11:35:02.001Z</time></trkpt><trkpt lat="37.9898929596615" lon="14.285135063898652"><ele>461.0</ele><time>2026-04-09T11:35:03.001Z</time></trkpt><trkpt lat="37.98994333374301" lon="14.28507538222245"><ele>461.00000000000006</ele><time>2026-04-09T11:35:04.001Z</time></trkpt><trkpt lat="37.989995767744574" lon="14.28501545635221"><ele>461.0</ele><time>2026-04-09T11:35:05.001Z</time></trkpt><trkpt lat="37.99005390358955" lon="14.284962071140463"><ele>461.0</ele><time>2026-04-09T11:35:06.001Z</time></trkpt><trkpt lat="37.99011882834188" lon="14.284922757433216"><ele>461.00000000000006</ele><time>2026-04-09T11:35:07.001Z</time></trkpt><trkpt lat="37.990186494378136" lon="14.284892127641374"><ele>461.0</ele><time>2026-04-09T11:35:08.001Z</time></trkpt><trkpt lat="37.99025995251775" lon="14.28485721330612"><ele>461.0</ele><time>2026-04-09T11:35:09.001Z</time></trkpt><trkpt lat="37.99033882364695" lon="14.284817415087998"><ele>460.99999999999994</ele><time>2026-04-09T11:35:10.001Z</time></trkpt><trkpt lat="37.99041471471449" lon="14.284777840876618"><ele>461.0</ele><time>2026-04-09T11:35:11.001Z</time></trkpt><trkpt lat="37.990488816381834" lon="14.284731641484981"><ele>461.0</ele><time>2026-04-09T11:35:12.001Z</time></trkpt><trkpt lat="37.990565008946064" lon="14.284686320785674"><ele>461.0</ele><time>2026-04-09T11:35:13.001Z</time></trkpt><trkpt lat="37.99064251120566" lon="14.284641194224118"><ele>460.99999999999994</ele><time>2026-04-09T11:35:14.001Z</time></trkpt><trkpt lat="37.99071857100076" lon="14.284598567715971"><ele>461.0</ele><time>2026-04-09T11:35:15.001Z</time></trkpt><trkpt lat="37.99079300114827" lon="14.284555389544483"><ele>457.3333333333333</ele><time>2026-04-09T11:35:16.001Z</time></trkpt><trkpt lat="37.99086425787064" lon="14.284508919197451"><ele>453.66666666666663</ele><time>2026-04-09T11:35:17.001Z</time></trkpt><trkpt lat="37.99093651008279" lon="14.284461983668093"><ele>450.0</ele><time>2026-04-09T11:35:18.001Z</time></trkpt><trkpt lat="37.99100867901959" lon="14.284416192880387"><ele>446.33333333333337</ele><time>2026-04-09T11:35:19.001Z</time></trkpt><trkpt lat="37.991078003106615" lon="14.284371432001477"><ele>442.6666666666667</ele><time>2026-04-09T11:35:20.001Z</time></trkpt><trkpt lat="37.99114052476774" lon="14.284334434238259"><ele>439.0</ele><time>2026-04-09T11:35:21.001Z</time></trkpt><trkpt lat="37.99120254516928" lon="14.284300482956327"><ele>439.0</ele><time>2026-04-09T11:35:22.001Z</time></trkpt><trkpt lat="37.99126719175741" lon="14.284260627628942"><ele>439.0</ele><time>2026-04-09T11:35:23.001Z</time></trkpt><trkpt lat="37.99132923974886" lon="14.284224666426972"><ele>439.0</ele><time>2026-04-09T11:35:24.001Z</time></trkpt><trkpt lat="37.99139660781044" lon="14.284190953410711"><ele>439.0</ele><time>2026-04-09T11:35:25.001Z</time></trkpt><trkpt lat="37.99146591918931" lon="14.28416426971139"><ele>439.0</ele><time>2026-04-09T11:35:26.001Z</time></trkpt><trkpt lat="37.991534421621694" lon="14.284143581142553"><ele>439.0</ele><time>2026-04-09T11:35:27.001Z</time></trkpt><trkpt lat="37.991603169442584" lon="14.284134632558967"><ele>439.0</ele><time>2026-04-09T11:35:28.001Z</time></trkpt><trkpt lat="37.99167802969481" lon="14.28413296968775"><ele>440.00000000000006</ele><time>2026-04-09T11:35:29.001Z</time></trkpt><trkpt lat="37.99174710255414" lon="14.284159745854529"><ele>441.0</ele><time>2026-04-09T11:35:30.001Z</time></trkpt><trkpt lat="37.9918113777149" lon="14.284201671914598"><ele>442.0</ele><time>2026-04-09T11:35:31.001Z</time></trkpt><trkpt lat="37.99186782138303" lon="14.284246037103824"><ele>443.0</ele><time>2026-04-09T11:35:32.001Z</time></trkpt><trkpt lat="37.99199837025938" lon="14.284309874377724"><ele>444.00000000000006</ele><time>2026-04-09T11:35:33.999Z</time></trkpt><trkpt lat="37.992069171704664" lon="14.284348902591379"><ele>445.0</ele><time>2026-04-09T11:35:34.999Z</time></trkpt><trkpt lat="37.99213889494655" lon="14.284396583198136"><ele>445.0</ele><time>2026-04-09T11:35:35.999Z</time></trkpt><trkpt lat="37.99219681453365" lon="14.284449790224079"><ele>445.0</ele><time>2026-04-09T11:35:36.999Z</time></trkpt><trkpt lat="37.992264384497176" lon="14.284511107530422"><ele>445.0</ele><time>2026-04-09T11:35:38Z</time></trkpt><trkpt lat="37.99232248588783" lon="14.284571051052803"><ele>445.0</ele><time>2026-04-09T11:35:39Z</time></trkpt><trkpt lat="37.99237326428021" lon="14.284627067538965"><ele>445.0</ele><time>2026-04-09T11:35:40Z</time></trkpt><trkpt lat="37.99242131708418" lon="14.28468271469752"><ele>445.0</ele><time>2026-04-09T11:35:41Z</time></trkpt><trkpt lat="37.992468385827415" lon="14.28473647902774"><ele>445.0</ele><time>2026-04-09T11:35:42Z</time></trkpt><trkpt lat="37.992516046776" lon="14.284790844859575"><ele>442.00000000000006</ele><time>2026-04-09T11:35:43Z</time></trkpt><trkpt lat="37.992572370143954" lon="14.284848079724005"><ele>439.0</ele><time>2026-04-09T11:35:44Z</time></trkpt><trkpt lat="37.992639241992464" lon="14.2848892475496"><ele>436.0</ele><time>2026-04-09T11:35:45Z</time></trkpt><trkpt lat="37.99270231777327" lon="14.284926667010483"><ele>433.0</ele><time>2026-04-09T11:35:46Z</time></trkpt><trkpt lat="37.9927619039054" lon="14.284958839046613"><ele>430.00000000000006</ele><time>2026-04-09T11:35:47Z</time></trkpt><trkpt lat="37.99285975758158" lon="14.285025983054581"><ele>427.0</ele><time>2026-04-09T11:35:49Z</time></trkpt><trkpt lat="37.99288132272078" lon="14.285155800490324"><ele>427.00000000000006</ele><time>2026-04-09T11:35:51Z</time></trkpt><trkpt lat="37.992792520113646" lon="14.285250147620292"><ele>427.0</ele><time>2026-04-09T11:35:53Z</time></trkpt><trkpt lat="37.99275948542474" lon="14.285331399414888"><ele>427.0</ele><time>2026-04-09T11:35:54Z</time></trkpt><trkpt lat="37.99272009686995" lon="14.28540283499561"><ele>427.0</ele><time>2026-04-09T11:35:55Z</time></trkpt><trkpt lat="37.992688678101814" lon="14.285548450424196"><ele>427.00000000000006</ele><time>2026-04-09T11:35:57Z</time></trkpt><trkpt lat="37.99268520648352" lon="14.285630602787748"><ele>427.0</ele><time>2026-04-09T11:35:58Z</time></trkpt><trkpt lat="37.992698376720305" lon="14.285713637281901"><ele>422.8</ele><time>2026-04-09T11:35:59Z</time></trkpt><trkpt lat="37.99276026244339" lon="14.285832548540293"><ele>418.6</ele><time>2026-04-09T11:36:01Z</time></trkpt><trkpt lat="37.99281992030831" lon="14.285861563884263"><ele>414.40000000000003</ele><time>2026-04-09T11:36:02Z</time></trkpt><trkpt lat="37.99296016409234" lon="14.285850401622863"><ele>410.20000000000005</ele><time>2026-04-09T11:36:04Z</time></trkpt><trkpt lat="37.99303342759299" lon="14.285846070108144"><ele>406.0</ele><time>2026-04-09T11:36:05Z</time></trkpt><trkpt lat="37.99311117049404" lon="14.285842154084543"><ele>406.00000000000006</ele><time>2026-04-09T11:36:06Z</time></trkpt><trkpt lat="37.99319484959644" lon="14.285830381566178"><ele>406.0</ele><time>2026-04-09T11:36:07Z</time></trkpt><trkpt lat="37.99327732116916" lon="14.285828898043198"><ele>406.0</ele><time>2026-04-09T11:36:08Z</time></trkpt><trkpt lat="37.993359648031806" lon="14.285828547877788"><ele>406.0</ele><time>2026-04-09T11:36:09Z</time></trkpt><trkpt lat="37.99344080947012" lon="14.285827711462971"><ele>406.00000000000006</ele><time>2026-04-09T11:36:10Z</time></trkpt><trkpt lat="37.993516750555195" lon="14.285826599834321"><ele>406.0</ele><time>2026-04-09T11:36:11Z</time></trkpt><trkpt lat="37.9935892483132" lon="14.285836115062544"><ele>404.7142857142857</ele><time>2026-04-09T11:36:12Z</time></trkpt><trkpt lat="37.993659974808914" lon="14.285851091937765"><ele>403.42857142857144</ele><time>2026-04-09T11:36:13Z</time></trkpt><trkpt lat="37.99372945761999" lon="14.28587328224744"><ele>402.1428571428571</ele><time>2026-04-09T11:36:14Z</time></trkpt><trkpt lat="37.99379539505457" lon="14.285897222243491"><ele>400.8571428571429</ele><time>2026-04-09T11:36:15Z</time></trkpt><trkpt lat="37.993867632987936" lon="14.28591548585257"><ele>399.57142857142856</ele><time>2026-04-09T11:36:16Z</time></trkpt><trkpt lat="37.9939413902648" lon="14.285925245067116"><ele>398.2857142857143</ele><time>2026-04-09T11:36:17Z</time></trkpt><trkpt lat="37.99401156466845" lon="14.285922116984255"><ele>397.0</ele><time>2026-04-09T11:36:18Z</time></trkpt><trkpt lat="37.99408365546107" lon="14.28591401517002"><ele>397.0</ele><time>2026-04-09T11:36:19Z</time></trkpt><trkpt lat="37.994158047780026" lon="14.285903831312528"><ele>397.0</ele><time>2026-04-09T11:36:20Z</time></trkpt><trkpt lat="37.99422765353401" lon="14.28589712048655"><ele>397.0</ele><time>2026-04-09T11:36:21Z</time></trkpt><trkpt lat="37.9942966621361" lon="14.285898507391636"><ele>397.0</ele><time>2026-04-09T11:36:22Z</time></trkpt><trkpt lat="37.99436776976413" lon="14.285906374628432"><ele>397.0</ele><time>2026-04-09T11:36:23Z</time></trkpt><trkpt lat="37.99444011525478" lon="14.285930106793058"><ele>397.0</ele><time>2026-04-09T11:36:24Z</time></trkpt><trkpt lat="37.99451249493987" lon="14.285958296946253"><ele>397.0</ele><time>2026-04-09T11:36:25Z</time></trkpt><trkpt lat="37.99458271114375" lon="14.285997160910576"><ele>395.6666666666667</ele><time>2026-04-09T11:36:26Z</time></trkpt><trkpt lat="37.99465512535559" lon="14.286048106753732"><ele>394.33333333333337</ele><time>2026-04-09T11:36:27Z</time></trkpt><trkpt lat="37.99472606161699" lon="14.286106264452277"><ele>393.0</ele><time>2026-04-09T11:36:28Z</time></trkpt><trkpt lat="37.994792432005774" lon="14.28615952308033"><ele>391.66666666666663</ele><time>2026-04-09T11:36:29Z</time></trkpt><trkpt lat="37.99486141837435" lon="14.286199402443573"><ele>390.3333333333333</ele><time>2026-04-09T11:36:30Z</time></trkpt><trkpt lat="37.9949310851769" lon="14.286233503200657"><ele>389.0</ele><time>2026-04-09T11:36:31Z</time></trkpt><trkpt lat="37.995003848927425" lon="14.286262131287524"><ele>385.8571428571429</ele><time>2026-04-09T11:36:32Z</time></trkpt><trkpt lat="37.99507580678704" lon="14.286265893722183"><ele>382.71428571428567</ele><time>2026-04-09T11:36:33Z</time></trkpt><trkpt lat="37.99514522474109" lon="14.28624340002616"><ele>379.57142857142856</ele><time>2026-04-09T11:36:34Z</time></trkpt><trkpt lat="37.99521173816697" lon="14.286218601185098"><ele>376.42857142857144</ele><time>2026-04-09T11:36:35Z</time></trkpt><trkpt lat="37.99527877767643" lon="14.286184476387069"><ele>373.28571428571433</ele><time>2026-04-09T11:36:36Z</time></trkpt><trkpt lat="37.995337856030694" lon="14.286141091175251"><ele>370.1428571428571</ele><time>2026-04-09T11:36:37Z</time></trkpt><trkpt lat="37.99539327600811" lon="14.286092699249554"><ele>367.0</ele><time>2026-04-09T11:36:38Z</time></trkpt><trkpt lat="37.995447875133905" lon="14.286046385844873"><ele>367.0</ele><time>2026-04-09T11:36:39.001Z</time></trkpt><trkpt lat="37.99550686473528" lon="14.285992944367646"><ele>367.0</ele><time>2026-04-09T11:36:40.001Z</time></trkpt><trkpt lat="37.99556681817551" lon="14.285945402845734"><ele>367.0</ele><time>2026-04-09T11:36:41.001Z</time></trkpt><trkpt lat="37.9956240663589" lon="14.285910684269698"><ele>367.0</ele><time>2026-04-09T11:36:42.001Z</time></trkpt><trkpt lat="37.99572240174015" lon="14.285816879505612"><ele>367.0</ele><time>2026-04-09T11:36:44.001Z</time></trkpt><trkpt lat="37.99576871806996" lon="14.285761764407997"><ele>367.0</ele><time>2026-04-09T11:36:45.001Z</time></trkpt><trkpt lat="37.99581337276404" lon="14.285698115899685"><ele>365.6</ele><time>2026-04-09T11:36:46.001Z</time></trkpt><trkpt lat="37.99585645018493" lon="14.28563213022796"><ele>364.20000000000005</ele><time>2026-04-09T11:36:47.001Z</time></trkpt><trkpt lat="37.99592587243214" lon="14.285513510426846"><ele>362.8</ele><time>2026-04-09T11:36:49.001Z</time></trkpt><trkpt lat="37.99602284403844" lon="14.285416169925222"><ele>361.4</ele><time>2026-04-09T11:36:51.001Z</time></trkpt><trkpt lat="37.99613715664529" lon="14.285346861202667"><ele>360.0</ele><time>2026-04-09T11:36:53.001Z</time></trkpt><trkpt lat="37.99620950525821" lon="14.285316789762723"><ele>360.0</ele><time>2026-04-09T11:36:54.001Z</time></trkpt><trkpt lat="37.996276450937145" lon="14.285286859844534"><ele>360.0</ele><time>2026-04-09T11:36:55.001Z</time></trkpt><trkpt lat="37.996347556458424" lon="14.285252944245652"><ele>360.0</ele><time>2026-04-09T11:36:56.001Z</time></trkpt><trkpt lat="37.99641516382782" lon="14.285215729820028"><ele>360.0</ele><time>2026-04-09T11:36:57.001Z</time></trkpt><trkpt lat="37.99648018233687" lon="14.285189552620217"><ele>360.0</ele><time>2026-04-09T11:36:58.001Z</time></trkpt><trkpt lat="37.996547730757435" lon="14.285159360628427"><ele>360.0</ele><time>2026-04-09T11:36:59.001Z</time></trkpt><trkpt lat="37.996618258463805" lon="14.285134742041022"><ele>360.0</ele><time>2026-04-09T11:37:00.001Z</time></trkpt><trkpt lat="37.99668539611387" lon="14.285108155122217"><ele>357.57142857142856</ele><time>2026-04-09T11:37:01.001Z</time></trkpt><trkpt lat="37.99675049108976" lon="14.285068449607643"><ele>355.14285714285717</ele><time>2026-04-09T11:37:02.001Z</time></trkpt><trkpt lat="37.99682137674431" lon="14.285033735219997"><ele>352.7142857142857</ele><time>2026-04-09T11:37:03.001Z</time></trkpt><trkpt lat="37.996877629864535" lon="14.28498855127933"><ele>350.2857142857143</ele><time>2026-04-09T11:37:04.001Z</time></trkpt><trkpt lat="37.99692213962814" lon="14.284919898834364"><ele>347.8571428571429</ele><time>2026-04-09T11:37:05.001Z</time></trkpt><trkpt lat="37.99693879178576" lon="14.284833832802724"><ele>345.42857142857144</ele><time>2026-04-09T11:37:06.001Z</time></trkpt><trkpt lat="37.996980009406116" lon="14.284749428838785"><ele>343.0</ele><time>2026-04-09T11:37:07.001Z</time></trkpt><trkpt lat="37.99701061092322" lon="14.28466648630674"><ele>343.0</ele><time>2026-04-09T11:37:08.001Z</time></trkpt><trkpt lat="37.997049993638555" lon="14.284589630518155"><ele>343.0</ele><time>2026-04-09T11:37:09.001Z</time></trkpt><trkpt lat="37.997087456770274" lon="14.284514993971568"><ele>343.0</ele><time>2026-04-09T11:37:10.001Z</time></trkpt><trkpt lat="37.9971210599424" lon="14.28444718843874"><ele>343.0</ele><time>2026-04-09T11:37:11.001Z</time></trkpt><trkpt lat="37.997198347454585" lon="14.284370219192535"><ele>343.0</ele><time>2026-04-09T11:37:13.001Z</time></trkpt><trkpt lat="37.99725808125701" lon="14.284340763893042"><ele>343.0</ele><time>2026-04-09T11:37:15.001Z</time></trkpt><trkpt lat="37.9972928884167" lon="14.28425149372525"><ele>343.0</ele><time>2026-04-09T11:37:17.001Z</time></trkpt><trkpt lat="37.9973060278299" lon="14.284127879926936"><ele>343.0</ele><time>2026-04-09T11:37:19.001Z</time></trkpt><trkpt lat="37.99732438856178" lon="14.283977249424893"><ele>343.0</ele><time>2026-04-09T11:37:21.001Z</time></trkpt><trkpt lat="37.99734078143007" lon="14.283889046810192"><ele>343.0</ele><time>2026-04-09T11:37:22.001Z</time></trkpt><trkpt lat="37.99737770238409" lon="14.283820487014221"><ele>343.0</ele><time>2026-04-09T11:37:23.001Z</time></trkpt><trkpt lat="37.99740947223127" lon="14.283741627035711"><ele>343.0</ele><time>2026-04-09T11:37:24.001Z</time></trkpt><trkpt lat="37.997447625307686" lon="14.283667973908848"><ele>343.0</ele><time>2026-04-09T11:37:25.001Z</time></trkpt><trkpt lat="37.99747604753839" lon="14.283590143491269"><ele>340.8333333333333</ele><time>2026-04-09T11:37:26.001Z</time></trkpt><trkpt lat="37.99755447947906" lon="14.283502739568892"><ele>338.66666666666663</ele><time>2026-04-09T11:37:28.001Z</time></trkpt><trkpt lat="37.99764141896354" lon="14.283405267778422"><ele>336.5</ele><time>2026-04-09T11:37:30.001Z</time></trkpt><trkpt lat="37.997693726841355" lon="14.283356858001174"><ele>334.3333333333333</ele><time>2026-04-09T11:37:31.001Z</time></trkpt><trkpt lat="37.99774407356126" lon="14.283303658761172"><ele>332.1666666666667</ele><time>2026-04-09T11:37:32.001Z</time></trkpt><trkpt lat="37.997804237040604" lon="14.283261502989781"><ele>330.0</ele><time>2026-04-09T11:37:33.001Z</time></trkpt><trkpt lat="37.997877890747226" lon="14.28323711500648"><ele>330.0</ele><time>2026-04-09T11:37:34.001Z</time></trkpt><trkpt lat="37.99794644422538" lon="14.283202149333166"><ele>330.0</ele><time>2026-04-09T11:37:35.001Z</time></trkpt><trkpt lat="37.99801270502184" lon="14.28315189266971"><ele>330.0</ele><time>2026-04-09T11:37:36.001Z</time></trkpt><trkpt lat="37.99808347488958" lon="14.283111670115137"><ele>330.0</ele><time>2026-04-09T11:37:37.001Z</time></trkpt><trkpt lat="37.99815676249491" lon="14.283092652310717"><ele>330.0</ele><time>2026-04-09T11:37:38.001Z</time></trkpt><trkpt lat="37.9982170211089" lon="14.283037590542536"><ele>330.0</ele><time>2026-04-09T11:37:39Z</time></trkpt><trkpt lat="37.99829005791321" lon="14.283016551166497"><ele>328.42857142857144</ele><time>2026-04-09T11:37:40Z</time></trkpt><trkpt lat="37.998358070061535" lon="14.282979760300794"><ele>326.8571428571429</ele><time>2026-04-09T11:37:41Z</time></trkpt><trkpt lat="37.99842276573872" lon="14.282931118422738"><ele>325.28571428571433</ele><time>2026-04-09T11:37:42Z</time></trkpt><trkpt lat="37.99847395501301" lon="14.282859472132865"><ele>323.7142857142857</ele><time>2026-04-09T11:37:43Z</time></trkpt><trkpt lat="37.99853038107748" lon="14.282802173774922"><ele>322.1428571428571</ele><time>2026-04-09T11:37:44Z</time></trkpt><trkpt lat="37.998583653698304" lon="14.282738403477115"><ele>320.5714285714286</ele><time>2026-04-09T11:37:45Z</time></trkpt><trkpt lat="37.998633978635915" lon="14.282676524550922"><ele>319.0</ele><time>2026-04-09T11:37:46Z</time></trkpt><trkpt lat="37.99868796721388" lon="14.282585943935956"><ele>319.0</ele><time>2026-04-09T11:37:48Z</time></trkpt><trkpt lat="37.99868463536283" lon="14.282451183178347"><ele>319.0</ele><time>2026-04-09T11:37:50Z</time></trkpt><trkpt lat="37.998632530797366" lon="14.282391498512746"><ele>319.0</ele><time>2026-04-09T11:37:51Z</time></trkpt><trkpt lat="37.9985748105722" lon="14.282255038374851"><ele>319.0</ele><time>2026-04-09T11:37:53Z</time></trkpt><trkpt lat="37.99848836304027" lon="14.28213534763898"><ele>319.0</ele><time>2026-04-09T11:37:55Z</time></trkpt><trkpt lat="37.99844363671949" lon="14.282062535120826"><ele>320.5714285714286</ele><time>2026-04-09T11:37:56Z</time></trkpt><trkpt lat="37.99840162469722" lon="14.281986736927111"><ele>322.1428571428571</ele><time>2026-04-09T11:37:57Z</time></trkpt><trkpt lat="37.998359975878756" lon="14.28191913178724"><ele>323.7142857142857</ele><time>2026-04-09T11:37:58Z</time></trkpt><trkpt lat="37.99831434417593" lon="14.281859958192886"><ele>325.28571428571433</ele><time>2026-04-09T11:37:59Z</time></trkpt><trkpt lat="37.99826646636877" lon="14.281803640886896"><ele>326.8571428571429</ele><time>2026-04-09T11:38:00Z</time></trkpt><trkpt lat="37.998221342569806" lon="14.281741329850608"><ele>328.42857142857144</ele><time>2026-04-09T11:38:01Z</time></trkpt><trkpt lat="37.9981883605542" lon="14.281672535477437"><ele>330.0</ele><time>2026-04-09T11:38:02Z</time></trkpt><trkpt lat="37.99813496821035" lon="14.281533915288852"><ele>329.4</ele><time>2026-04-09T11:38:04Z</time></trkpt><trkpt lat="37.99810941409314" lon="14.281381070449623"><ele>328.8</ele><time>2026-04-09T11:38:06Z</time></trkpt><trkpt lat="37.998079802859294" lon="14.281252534449584"><ele>328.20000000000005</ele><time>2026-04-09T11:38:08Z</time></trkpt><trkpt lat="37.998101736278876" lon="14.281159267528722"><ele>327.6</ele><time>2026-04-09T11:38:10Z</time></trkpt><trkpt lat="37.99813806811822" lon="14.281051313128481"><ele>327.0</ele><time>2026-04-09T11:38:12Z</time></trkpt><trkpt lat="37.99819299180466" lon="14.280925170487924"><ele>327.0</ele><time>2026-04-09T11:38:14Z</time></trkpt><trkpt lat="37.99826247722981" lon="14.28081563472567"><ele>327.0</ele><time>2026-04-09T11:38:16Z</time></trkpt><trkpt lat="37.99831566764431" lon="14.280694821393675"><ele>327.0</ele><time>2026-04-09T11:38:18Z</time></trkpt><trkpt lat="37.99840021635892" lon="14.28061216179507"><ele>327.0</ele><time>2026-04-09T11:38:20Z</time></trkpt><trkpt lat="37.99851619085088" lon="14.280557789516548"><ele>325.40000000000003</ele><time>2026-04-09T11:38:22Z</time></trkpt><trkpt lat="37.99858012543496" lon="14.280542364203827"><ele>323.8</ele><time>2026-04-09T11:38:23Z</time></trkpt><trkpt lat="37.998644359667246" lon="14.280533111782848"><ele>322.2</ele><time>2026-04-09T11:38:24Z</time></trkpt><trkpt lat="37.998759104939246" lon="14.280497941557451"><ele>320.6</ele><time>2026-04-09T11:38:26Z</time></trkpt><trkpt lat="37.998860885509394" lon="14.280441068053998"><ele>319.0</ele><time>2026-04-09T11:38:28Z</time></trkpt><trkpt lat="37.998936588410636" lon="14.280337986736821"><ele>319.0</ele><time>2026-04-09T11:38:30Z</time></trkpt><trkpt lat="37.99898254189496" lon="14.280282818855317"><ele>319.0</ele><time>2026-04-09T11:38:31Z</time></trkpt><trkpt lat="37.99904801904358" lon="14.280173484538185"><ele>319.0</ele><time>2026-04-09T11:38:33Z</time></trkpt><trkpt lat="37.999132671309056" lon="14.280071058220027"><ele>319.0</ele><time>2026-04-09T11:38:35.001Z</time></trkpt><trkpt lat="37.99920335951108" lon="14.279986166271392"><ele>319.0</ele><time>2026-04-09T11:38:37.001Z</time></trkpt><trkpt lat="37.99928501689705" lon="14.279934835299784"><ele>318.59999999999997</ele><time>2026-04-09T11:38:39.001Z</time></trkpt><trkpt lat="37.999372263358254" lon="14.27991324178155"><ele>318.2</ele><time>2026-04-09T11:38:41.001Z</time></trkpt><trkpt lat="37.99944817717794" lon="14.279899167059423"><ele>317.79999999999995</ele><time>2026-04-09T11:38:43.001Z</time></trkpt><trkpt lat="37.99951314847644" lon="14.279877270362784"><ele>317.4</ele><time>2026-04-09T11:38:45.001Z</time></trkpt><trkpt lat="37.99964783604691" lon="14.279703562582862"><ele>317.0</ele><time>2026-04-09T11:38:48.001Z</time></trkpt><trkpt lat="37.99953870501561" lon="14.279598226436242"><ele>317.0</ele><time>2026-04-09T11:38:49.001Z</time></trkpt><trkpt lat="37.99946451796843" lon="14.27959171098438"><ele>317.0</ele><time>2026-04-09T11:38:50.001Z</time></trkpt><trkpt lat="37.99934908508952" lon="14.279608127416585"><ele>317.0</ele><time>2026-04-09T11:38:52.001Z</time></trkpt><trkpt lat="37.999272187152116" lon="14.2796245193636"><ele>317.0</ele><time>2026-04-09T11:38:54.001Z</time></trkpt><trkpt lat="37.999212370690834" lon="14.279655096751771"><ele>317.0</ele><time>2026-04-09T11:38:56.001Z</time></trkpt><trkpt lat="37.99913091764175" lon="14.279658465070282"><ele>317.0</ele><time>2026-04-09T11:39:10.001Z</time></trkpt><trkpt lat="37.99899286392561" lon="14.279722307049669"><ele>317.0</ele><time>2026-04-09T11:39:12.001Z</time></trkpt><trkpt lat="37.99890744689152" lon="14.279746292109833"><ele>317.0</ele><time>2026-04-09T11:39:13.001Z</time></trkpt><trkpt lat="37.99881943713469" lon="14.279768523329547"><ele>317.0</ele><time>2026-04-09T11:39:14.001Z</time></trkpt><trkpt lat="37.99874642254625" lon="14.279778719974859"><ele>317.0</ele><time>2026-04-09T11:39:15.001Z</time></trkpt><trkpt lat="37.998644262412185" lon="14.279796642012325"><ele>317.0</ele><time>2026-04-09T11:39:17.001Z</time></trkpt><trkpt lat="37.99857259551666" lon="14.279841800023187"><ele>317.0</ele><time>2026-04-09T11:39:19.001Z</time></trkpt><trkpt lat="37.99863441915627" lon="14.279795118647991"><ele>317.0</ele><time>2026-04-09T11:39:40.001Z</time></trkpt><trkpt lat="37.99875386910969" lon="14.279796719466132"><ele>317.0</ele><time>2026-04-09T11:40:01Z</time></trkpt><trkpt lat="37.99884989417438" lon="14.279761036959936"><ele>317.0</ele><time>2026-04-09T11:40:04Z</time></trkpt><trkpt lat="37.99894215301649" lon="14.279737165226646"><ele>317.0</ele><time>2026-04-09T11:40:06Z</time></trkpt><trkpt lat="37.99903695804867" lon="14.279708733157038"><ele>317.0</ele><time>2026-04-09T11:40:08Z</time></trkpt><trkpt lat="37.99912440525165" lon="14.279682007264688"><ele>317.0</ele><time>2026-04-09T11:40:10Z</time></trkpt><trkpt lat="37.99920666900907" lon="14.279643817242874"><ele>317.0</ele><time>2026-04-09T11:40:12Z</time></trkpt><trkpt lat="37.999284437260265" lon="14.279621398878435"><ele>317.0</ele><time>2026-04-09T11:40:14Z</time></trkpt><trkpt lat="37.99935318077666" lon="14.279607483901646"><ele>317.0</ele><time>2026-04-09T11:40:16Z</time></trkpt><trkpt lat="37.99934503693132" lon="14.279313655749528"><ele>317.0</ele><time>2026-04-09T11:40:18Z</time></trkpt><trkpt lat="37.999378823095796" lon="14.279143357967653"><ele>317.0</ele><time>2026-04-09T11:40:20Z</time></trkpt><trkpt lat="37.99943128998686" lon="14.279051774204754"><ele>317.0</ele><time>2026-04-09T11:40:22Z</time></trkpt><trkpt lat="37.999503015771666" lon="14.278958438016302"><ele>317.0</ele><time>2026-04-09T11:40:24Z</time></trkpt><trkpt lat="37.99959296495348" lon="14.278925287657742"><ele>317.0</ele><time>2026-04-09T11:40:26Z</time></trkpt><trkpt lat="37.99965837084852" lon="14.278889045937674"><ele>311.0</ele><time>2026-04-09T11:40:28Z</time></trkpt><trkpt lat="37.99972494739016" lon="14.27887334266901"><ele>311.0</ele><time>2026-04-09T11:40:29Z</time></trkpt><trkpt lat="37.9997980799147" lon="14.278858007279103"><ele>311.0</ele><time>2026-04-09T11:40:31Z</time></trkpt><trkpt lat="37.99987133061143" lon="14.278849998826907"><ele>311.0</ele><time>2026-04-09T11:40:33Z</time></trkpt><trkpt lat="37.99994307114526" lon="14.278829897653782"><ele>311.0</ele><time>2026-04-09T11:40:36Z</time></trkpt></trkseg></trk></gpx>